<?xml version="1.0" encoding="UTF-8" standalone="no" ?>
<gpx xmlns="http://www.topografix.com/GPX/1/1" xmlns:xsi="http://www.w3.org/2001/XMLSchema-instance" xsi:schemaLocation="http://www.topografix.com/GPX/1/1 http://www.topografix.com/GPX/1/1/gpx.xsd" version="1.1" creator="VisuGPX - https://www.visugpx.com">
  <metadata>
    <name>20150825 Plan du lac  Arpont</name>
    <desc><![CDATA[Etape 8 du GR5]]></desc>
  </metadata>
  <trk>
    <name><![CDATA[20150825 Plan du lac  Arpont_1]]></name>
    <trkseg>
      <trkpt lat="45.34592" lon="6.83733">
        <ele>2376.2</ele>
        <time>2015-08-25T08:19:38Z</time>
      </trkpt>
      <trkpt lat="45.34591" lon="6.83731">
        <ele>2376.2</ele>
        <time>2015-08-25T08:19:43Z</time>
      </trkpt>
      <trkpt lat="45.34594" lon="6.83731">
        <ele>2376.2</ele>
        <time>2015-08-25T08:19:48Z</time>
      </trkpt>
      <trkpt lat="45.34601" lon="6.83732">
        <ele>2377.6057</ele>
        <time>2015-08-25T08:19:58Z</time>
      </trkpt>
      <trkpt lat="45.34603" lon="6.83731">
        <ele>2377.6057</ele>
        <time>2015-08-25T08:20:03Z</time>
      </trkpt>
      <trkpt lat="45.3461" lon="6.8373">
        <ele>2389.1719</ele>
        <time>2015-08-25T08:20:13Z</time>
      </trkpt>
      <trkpt lat="45.3461" lon="6.83729">
        <ele>2389.1719</ele>
        <time>2015-08-25T08:20:18Z</time>
      </trkpt>
      <trkpt lat="45.34618" lon="6.83725">
        <ele>2400.9014</ele>
        <time>2015-08-25T08:20:28Z</time>
      </trkpt>
      <trkpt lat="45.34619" lon="6.83725">
        <ele>2400.9014</ele>
        <time>2015-08-25T08:20:33Z</time>
      </trkpt>
      <trkpt lat="45.3462" lon="6.83737">
        <ele>2412.5537</ele>
        <time>2015-08-25T08:20:43Z</time>
      </trkpt>
      <trkpt lat="45.34621" lon="6.83743">
        <ele>2412.5537</ele>
        <time>2015-08-25T08:20:48Z</time>
      </trkpt>
      <trkpt lat="45.34623" lon="6.83744">
        <ele>2412.5537</ele>
        <time>2015-08-25T08:20:58Z</time>
      </trkpt>
      <trkpt lat="45.34627" lon="6.83746">
        <ele>2423.6697</ele>
        <time>2015-08-25T08:21:03Z</time>
      </trkpt>
      <trkpt lat="45.34636" lon="6.8375">
        <ele>2433.8938</ele>
        <time>2015-08-25T08:21:13Z</time>
      </trkpt>
      <trkpt lat="45.34643" lon="6.83752">
        <ele>2433.8938</ele>
        <time>2015-08-25T08:21:18Z</time>
      </trkpt>
      <trkpt lat="45.34652" lon="6.83756">
        <ele>2442.7898</ele>
        <time>2015-08-25T08:21:33Z</time>
      </trkpt>
      <trkpt lat="45.34655" lon="6.83757">
        <ele>2442.7898</ele>
        <time>2015-08-25T08:21:38Z</time>
      </trkpt>
      <trkpt lat="45.34664" lon="6.83761">
        <ele>2449.9924</ele>
        <time>2015-08-25T08:21:48Z</time>
      </trkpt>
      <trkpt lat="45.34667" lon="6.83762">
        <ele>2449.9924</ele>
        <time>2015-08-25T08:21:53Z</time>
      </trkpt>
      <trkpt lat="45.34677" lon="6.83766">
        <ele>2455.254</ele>
        <time>2015-08-25T08:22:03Z</time>
      </trkpt>
      <trkpt lat="45.34681" lon="6.83767">
        <ele>2455.254</ele>
        <time>2015-08-25T08:22:08Z</time>
      </trkpt>
      <trkpt lat="45.3469" lon="6.83773">
        <ele>2458.5786</ele>
        <time>2015-08-25T08:22:18Z</time>
      </trkpt>
      <trkpt lat="45.34693" lon="6.83778">
        <ele>2458.5786</ele>
        <time>2015-08-25T08:22:23Z</time>
      </trkpt>
      <trkpt lat="45.34701" lon="6.83782">
        <ele>2459.975</ele>
        <time>2015-08-25T08:22:33Z</time>
      </trkpt>
      <trkpt lat="45.34705" lon="6.83784">
        <ele>2459.975</ele>
        <time>2015-08-25T08:22:38Z</time>
      </trkpt>
      <trkpt lat="45.34714" lon="6.83796">
        <ele>2459.6284</ele>
        <time>2015-08-25T08:22:48Z</time>
      </trkpt>
      <trkpt lat="45.34718" lon="6.838">
        <ele>2459.6284</ele>
        <time>2015-08-25T08:22:53Z</time>
      </trkpt>
      <trkpt lat="45.34726" lon="6.83807">
        <ele>2457.8394</ele>
        <time>2015-08-25T08:23:03Z</time>
      </trkpt>
      <trkpt lat="45.34732" lon="6.83811">
        <ele>2457.8394</ele>
        <time>2015-08-25T08:23:08Z</time>
      </trkpt>
      <trkpt lat="45.34742" lon="6.83817">
        <ele>2454.9478</ele>
        <time>2015-08-25T08:23:18Z</time>
      </trkpt>
      <trkpt lat="45.34748" lon="6.8382">
        <ele>2454.9478</ele>
        <time>2015-08-25T08:23:23Z</time>
      </trkpt>
      <trkpt lat="45.34754" lon="6.83821">
        <ele>2451.1802</ele>
        <time>2015-08-25T08:23:33Z</time>
      </trkpt>
      <trkpt lat="45.3476" lon="6.83821">
        <ele>2451.1802</ele>
        <time>2015-08-25T08:23:38Z</time>
      </trkpt>
      <trkpt lat="45.34773" lon="6.83824">
        <ele>2446.5076</ele>
        <time>2015-08-25T08:23:53Z</time>
      </trkpt>
      <trkpt lat="45.34774" lon="6.83824">
        <ele>2446.5076</ele>
        <time>2015-08-25T08:23:58Z</time>
      </trkpt>
      <trkpt lat="45.34773" lon="6.83825">
        <ele>2446.5076</ele>
        <time>2015-08-25T08:24:08Z</time>
      </trkpt>
      <trkpt lat="45.34774" lon="6.83825">
        <ele>2446.5076</ele>
        <time>2015-08-25T08:24:13Z</time>
      </trkpt>
      <trkpt lat="45.34781" lon="6.83829">
        <ele>2441.5308</ele>
        <time>2015-08-25T08:24:23Z</time>
      </trkpt>
      <trkpt lat="45.34785" lon="6.8383">
        <ele>2441.5308</ele>
        <time>2015-08-25T08:24:28Z</time>
      </trkpt>
      <trkpt lat="45.34794" lon="6.83834">
        <ele>2436.3894</ele>
        <time>2015-08-25T08:24:38Z</time>
      </trkpt>
      <trkpt lat="45.34797" lon="6.83838">
        <ele>2436.3894</ele>
        <time>2015-08-25T08:24:43Z</time>
      </trkpt>
      <trkpt lat="45.34805" lon="6.83845">
        <ele>2431.041</ele>
        <time>2015-08-25T08:24:53Z</time>
      </trkpt>
      <trkpt lat="45.34809" lon="6.83848">
        <ele>2431.041</ele>
        <time>2015-08-25T08:24:58Z</time>
      </trkpt>
      <trkpt lat="45.3482" lon="6.83847">
        <ele>2425.4758</ele>
        <time>2015-08-25T08:25:08Z</time>
      </trkpt>
      <trkpt lat="45.34825" lon="6.83848">
        <ele>2425.4758</ele>
        <time>2015-08-25T08:25:13Z</time>
      </trkpt>
      <trkpt lat="45.34834" lon="6.83849">
        <ele>2419.7466</ele>
        <time>2015-08-25T08:25:23Z</time>
      </trkpt>
      <trkpt lat="45.3484" lon="6.83849">
        <ele>2419.7466</ele>
        <time>2015-08-25T08:25:28Z</time>
      </trkpt>
      <trkpt lat="45.34849" lon="6.83851">
        <ele>2413.9607</ele>
        <time>2015-08-25T08:25:38Z</time>
      </trkpt>
      <trkpt lat="45.34852" lon="6.83852">
        <ele>2413.9607</ele>
        <time>2015-08-25T08:25:43Z</time>
      </trkpt>
      <trkpt lat="45.34861" lon="6.83855">
        <ele>2408.1548</ele>
        <time>2015-08-25T08:25:53Z</time>
      </trkpt>
      <trkpt lat="45.34865" lon="6.83856">
        <ele>2408.1548</ele>
        <time>2015-08-25T08:25:58Z</time>
      </trkpt>
      <trkpt lat="45.34877" lon="6.83858">
        <ele>2402.1587</ele>
        <time>2015-08-25T08:26:13Z</time>
      </trkpt>
      <trkpt lat="45.34883" lon="6.83858">
        <ele>2402.1587</ele>
        <time>2015-08-25T08:26:18Z</time>
      </trkpt>
      <trkpt lat="45.34893" lon="6.83859">
        <ele>2396.0483</ele>
        <time>2015-08-25T08:26:28Z</time>
      </trkpt>
      <trkpt lat="45.34896" lon="6.83859">
        <ele>2396.0483</ele>
        <time>2015-08-25T08:26:33Z</time>
      </trkpt>
      <trkpt lat="45.34905" lon="6.83863">
        <ele>2389.8992</ele>
        <time>2015-08-25T08:26:43Z</time>
      </trkpt>
      <trkpt lat="45.34908" lon="6.83864">
        <ele>2389.8992</ele>
        <time>2015-08-25T08:26:48Z</time>
      </trkpt>
      <trkpt lat="45.34916" lon="6.83867">
        <ele>2383.9014</ele>
        <time>2015-08-25T08:26:58Z</time>
      </trkpt>
      <trkpt lat="45.34921" lon="6.83869">
        <ele>2383.9014</ele>
        <time>2015-08-25T08:27:03Z</time>
      </trkpt>
      <trkpt lat="45.34934" lon="6.83876">
        <ele>2377.8972</ele>
        <time>2015-08-25T08:27:13Z</time>
      </trkpt>
      <trkpt lat="45.34937" lon="6.83876">
        <ele>2377.8972</ele>
        <time>2015-08-25T08:27:18Z</time>
      </trkpt>
      <trkpt lat="45.34947" lon="6.83882">
        <ele>2371.9263</ele>
        <time>2015-08-25T08:27:28Z</time>
      </trkpt>
      <trkpt lat="45.34953" lon="6.83886">
        <ele>2371.9263</ele>
        <time>2015-08-25T08:27:33Z</time>
      </trkpt>
      <trkpt lat="45.34963" lon="6.83889">
        <ele>2366.122</ele>
        <time>2015-08-25T08:27:43Z</time>
      </trkpt>
      <trkpt lat="45.34967" lon="6.83893">
        <ele>2366.122</ele>
        <time>2015-08-25T08:27:48Z</time>
      </trkpt>
      <trkpt lat="45.34976" lon="6.839">
        <ele>2360.3994</ele>
        <time>2015-08-25T08:27:58Z</time>
      </trkpt>
      <trkpt lat="45.34981" lon="6.83907">
        <ele>2360.3994</ele>
        <time>2015-08-25T08:28:03Z</time>
      </trkpt>
      <trkpt lat="45.34984" lon="6.83909">
        <ele>2354.9177</ele>
        <time>2015-08-25T08:28:13Z</time>
      </trkpt>
      <trkpt lat="45.34979" lon="6.83908">
        <ele>2354.9177</ele>
        <time>2015-08-25T08:28:18Z</time>
      </trkpt>
      <trkpt lat="45.34976" lon="6.83908">
        <ele>2354.9177</ele>
        <time>2015-08-25T08:28:33Z</time>
      </trkpt>
      <trkpt lat="45.34979" lon="6.8391">
        <ele>2349.4817</ele>
        <time>2015-08-25T08:28:38Z</time>
      </trkpt>
      <trkpt lat="45.34993" lon="6.83922">
        <ele>2344.2734</ele>
        <time>2015-08-25T08:28:48Z</time>
      </trkpt>
      <trkpt lat="45.35" lon="6.83923">
        <ele>2344.2734</ele>
        <time>2015-08-25T08:28:53Z</time>
      </trkpt>
      <trkpt lat="45.35008" lon="6.8393">
        <ele>2339.3975</ele>
        <time>2015-08-25T08:29:03Z</time>
      </trkpt>
      <trkpt lat="45.35015" lon="6.83932">
        <ele>2339.3975</ele>
        <time>2015-08-25T08:29:08Z</time>
      </trkpt>
      <trkpt lat="45.35024" lon="6.83936">
        <ele>2334.6326</ele>
        <time>2015-08-25T08:29:18Z</time>
      </trkpt>
      <trkpt lat="45.35029" lon="6.83939">
        <ele>2334.6326</ele>
        <time>2015-08-25T08:29:23Z</time>
      </trkpt>
      <trkpt lat="45.35038" lon="6.83947">
        <ele>2329.9275</ele>
        <time>2015-08-25T08:29:33Z</time>
      </trkpt>
      <trkpt lat="45.35043" lon="6.8395">
        <ele>2329.9275</ele>
        <time>2015-08-25T08:29:38Z</time>
      </trkpt>
      <trkpt lat="45.35052" lon="6.83957">
        <ele>2325.3777</ele>
        <time>2015-08-25T08:29:48Z</time>
      </trkpt>
      <trkpt lat="45.35058" lon="6.8396">
        <ele>2325.3777</ele>
        <time>2015-08-25T08:29:53Z</time>
      </trkpt>
      <trkpt lat="45.35072" lon="6.83969">
        <ele>2320.9172</ele>
        <time>2015-08-25T08:30:03Z</time>
      </trkpt>
      <trkpt lat="45.35077" lon="6.83973">
        <ele>2320.9172</ele>
        <time>2015-08-25T08:30:08Z</time>
      </trkpt>
      <trkpt lat="45.35091" lon="6.8398">
        <ele>2316.4988</ele>
        <time>2015-08-25T08:30:23Z</time>
      </trkpt>
      <trkpt lat="45.35095" lon="6.83984">
        <ele>2316.4988</ele>
        <time>2015-08-25T08:30:28Z</time>
      </trkpt>
      <trkpt lat="45.35106" lon="6.83989">
        <ele>2312.237</ele>
        <time>2015-08-25T08:30:38Z</time>
      </trkpt>
      <trkpt lat="45.35111" lon="6.83993">
        <ele>2312.237</ele>
        <time>2015-08-25T08:30:43Z</time>
      </trkpt>
      <trkpt lat="45.35119" lon="6.84002">
        <ele>2308.2542</ele>
        <time>2015-08-25T08:30:53Z</time>
      </trkpt>
      <trkpt lat="45.35124" lon="6.84007">
        <ele>2308.2542</ele>
        <time>2015-08-25T08:30:58Z</time>
      </trkpt>
      <trkpt lat="45.35134" lon="6.84018">
        <ele>2304.6653</ele>
        <time>2015-08-25T08:31:08Z</time>
      </trkpt>
      <trkpt lat="45.35139" lon="6.84022">
        <ele>2304.6653</ele>
        <time>2015-08-25T08:31:13Z</time>
      </trkpt>
      <trkpt lat="45.3515" lon="6.84028">
        <ele>2301.3403</ele>
        <time>2015-08-25T08:31:23Z</time>
      </trkpt>
      <trkpt lat="45.35155" lon="6.84031">
        <ele>2301.3403</ele>
        <time>2015-08-25T08:31:28Z</time>
      </trkpt>
      <trkpt lat="45.35165" lon="6.8404">
        <ele>2298.228</ele>
        <time>2015-08-25T08:31:38Z</time>
      </trkpt>
      <trkpt lat="45.35171" lon="6.84045">
        <ele>2298.228</ele>
        <time>2015-08-25T08:31:43Z</time>
      </trkpt>
      <trkpt lat="45.35184" lon="6.84057">
        <ele>2295.412</ele>
        <time>2015-08-25T08:31:58Z</time>
      </trkpt>
      <trkpt lat="45.3519" lon="6.84061">
        <ele>2295.412</ele>
        <time>2015-08-25T08:32:03Z</time>
      </trkpt>
      <trkpt lat="45.35201" lon="6.8407">
        <ele>2292.8494</ele>
        <time>2015-08-25T08:32:13Z</time>
      </trkpt>
      <trkpt lat="45.35206" lon="6.84072">
        <ele>2292.8494</ele>
        <time>2015-08-25T08:32:18Z</time>
      </trkpt>
      <trkpt lat="45.35213" lon="6.84076">
        <ele>2290.3916</ele>
        <time>2015-08-25T08:32:28Z</time>
      </trkpt>
      <trkpt lat="45.35214" lon="6.84077">
        <ele>2290.3916</ele>
        <time>2015-08-25T08:32:33Z</time>
      </trkpt>
      <trkpt lat="45.35217" lon="6.84078">
        <ele>2290.3916</ele>
        <time>2015-08-25T08:32:43Z</time>
      </trkpt>
      <trkpt lat="45.35217" lon="6.84079">
        <ele>2290.3916</ele>
        <time>2015-08-25T08:32:48Z</time>
      </trkpt>
      <trkpt lat="45.35226" lon="6.84097">
        <ele>2288.0344</ele>
        <time>2015-08-25T08:32:58Z</time>
      </trkpt>
      <trkpt lat="45.35229" lon="6.84101">
        <ele>2288.0344</ele>
        <time>2015-08-25T08:33:03Z</time>
      </trkpt>
      <trkpt lat="45.35232" lon="6.84102">
        <ele>2288.0344</ele>
        <time>2015-08-25T08:33:13Z</time>
      </trkpt>
      <trkpt lat="45.35231" lon="6.84102">
        <ele>2288.0344</ele>
        <time>2015-08-25T08:33:18Z</time>
      </trkpt>
      <trkpt lat="45.35234" lon="6.84104">
        <ele>2285.9387</ele>
        <time>2015-08-25T08:33:28Z</time>
      </trkpt>
      <trkpt lat="45.35235" lon="6.84102">
        <ele>2285.9387</ele>
        <time>2015-08-25T08:33:33Z</time>
      </trkpt>
      <trkpt lat="45.35236" lon="6.84101">
        <ele>2285.9387</ele>
        <time>2015-08-25T08:33:43Z</time>
      </trkpt>
      <trkpt lat="45.35236" lon="6.84101">
        <ele>2285.9387</ele>
        <time>2015-08-25T08:33:48Z</time>
      </trkpt>
      <trkpt lat="45.35238" lon="6.84101">
        <ele>2285.9387</ele>
        <time>2015-08-25T08:33:58Z</time>
      </trkpt>
      <trkpt lat="45.35237" lon="6.841">
        <ele>2285.9387</ele>
        <time>2015-08-25T08:34:03Z</time>
      </trkpt>
      <trkpt lat="45.35238" lon="6.84103">
        <ele>2285.9387</ele>
        <time>2015-08-25T08:34:13Z</time>
      </trkpt>
      <trkpt lat="45.35239" lon="6.84103">
        <ele>2285.9387</ele>
        <time>2015-08-25T08:34:18Z</time>
      </trkpt>
      <trkpt lat="45.35249" lon="6.84102">
        <ele>2283.6938</ele>
        <time>2015-08-25T08:34:33Z</time>
      </trkpt>
      <trkpt lat="45.35254" lon="6.84101">
        <ele>2283.6938</ele>
        <time>2015-08-25T08:34:38Z</time>
      </trkpt>
      <trkpt lat="45.35264" lon="6.84104">
        <ele>2281.4783</ele>
        <time>2015-08-25T08:34:48Z</time>
      </trkpt>
      <trkpt lat="45.35269" lon="6.84107">
        <ele>2281.4783</ele>
        <time>2015-08-25T08:34:53Z</time>
      </trkpt>
      <trkpt lat="45.3528" lon="6.84111">
        <ele>2279.3203</ele>
        <time>2015-08-25T08:35:03Z</time>
      </trkpt>
      <trkpt lat="45.35284" lon="6.84113">
        <ele>2279.3203</ele>
        <time>2015-08-25T08:35:08Z</time>
      </trkpt>
      <trkpt lat="45.35296" lon="6.84119">
        <ele>2277.292</ele>
        <time>2015-08-25T08:35:18Z</time>
      </trkpt>
      <trkpt lat="45.35299" lon="6.84124">
        <ele>2277.292</ele>
        <time>2015-08-25T08:35:23Z</time>
      </trkpt>
      <trkpt lat="45.35307" lon="6.84129">
        <ele>2275.4583</ele>
        <time>2015-08-25T08:35:33Z</time>
      </trkpt>
      <trkpt lat="45.35312" lon="6.84132">
        <ele>2275.4583</ele>
        <time>2015-08-25T08:35:38Z</time>
      </trkpt>
      <trkpt lat="45.35321" lon="6.84138">
        <ele>2273.7427</ele>
        <time>2015-08-25T08:35:48Z</time>
      </trkpt>
      <trkpt lat="45.35325" lon="6.84141">
        <ele>2273.7427</ele>
        <time>2015-08-25T08:35:53Z</time>
      </trkpt>
      <trkpt lat="45.35333" lon="6.84148">
        <ele>2271.984</ele>
        <time>2015-08-25T08:36:03Z</time>
      </trkpt>
      <trkpt lat="45.35336" lon="6.84154">
        <ele>2271.984</ele>
        <time>2015-08-25T08:36:08Z</time>
      </trkpt>
      <trkpt lat="45.35345" lon="6.84162">
        <ele>2270.29</ele>
        <time>2015-08-25T08:36:18Z</time>
      </trkpt>
      <trkpt lat="45.35349" lon="6.84165">
        <ele>2270.29</ele>
        <time>2015-08-25T08:36:23Z</time>
      </trkpt>
      <trkpt lat="45.35357" lon="6.84168">
        <ele>2268.5942</ele>
        <time>2015-08-25T08:36:33Z</time>
      </trkpt>
      <trkpt lat="45.3536" lon="6.84169">
        <ele>2268.5942</ele>
        <time>2015-08-25T08:36:38Z</time>
      </trkpt>
      <trkpt lat="45.35375" lon="6.84172">
        <ele>2266.8508</ele>
        <time>2015-08-25T08:36:53Z</time>
      </trkpt>
      <trkpt lat="45.35379" lon="6.84172">
        <ele>2266.8508</ele>
        <time>2015-08-25T08:36:58Z</time>
      </trkpt>
      <trkpt lat="45.35392" lon="6.84172">
        <ele>2265.0332</ele>
        <time>2015-08-25T08:37:08Z</time>
      </trkpt>
      <trkpt lat="45.35398" lon="6.84173">
        <ele>2265.0332</ele>
        <time>2015-08-25T08:37:13Z</time>
      </trkpt>
      <trkpt lat="45.35407" lon="6.84179">
        <ele>2263.2803</ele>
        <time>2015-08-25T08:37:23Z</time>
      </trkpt>
      <trkpt lat="45.35411" lon="6.84182">
        <ele>2263.2803</ele>
        <time>2015-08-25T08:37:28Z</time>
      </trkpt>
      <trkpt lat="45.3542" lon="6.84193">
        <ele>2261.497</ele>
        <time>2015-08-25T08:37:38Z</time>
      </trkpt>
      <trkpt lat="45.35426" lon="6.84195">
        <ele>2261.497</ele>
        <time>2015-08-25T08:37:43Z</time>
      </trkpt>
      <trkpt lat="45.35436" lon="6.84192">
        <ele>2259.7441</ele>
        <time>2015-08-25T08:37:53Z</time>
      </trkpt>
      <trkpt lat="45.35437" lon="6.8419">
        <ele>2259.7441</ele>
        <time>2015-08-25T08:37:58Z</time>
      </trkpt>
      <trkpt lat="45.35444" lon="6.84186">
        <ele>2257.9888</ele>
        <time>2015-08-25T08:38:08Z</time>
      </trkpt>
      <trkpt lat="45.35448" lon="6.84184">
        <ele>2257.9888</ele>
        <time>2015-08-25T08:38:13Z</time>
      </trkpt>
      <trkpt lat="45.35459" lon="6.8418">
        <ele>2256.1567</ele>
        <time>2015-08-25T08:38:23Z</time>
      </trkpt>
      <trkpt lat="45.35463" lon="6.84178">
        <ele>2256.1567</ele>
        <time>2015-08-25T08:38:28Z</time>
      </trkpt>
      <trkpt lat="45.35476" lon="6.84176">
        <ele>2254.2974</ele>
        <time>2015-08-25T08:38:43Z</time>
      </trkpt>
      <trkpt lat="45.3548" lon="6.84179">
        <ele>2254.2974</ele>
        <time>2015-08-25T08:38:48Z</time>
      </trkpt>
      <trkpt lat="45.35484" lon="6.84181">
        <ele>2254.2974</ele>
        <time>2015-08-25T08:38:58Z</time>
      </trkpt>
      <trkpt lat="45.35484" lon="6.84178">
        <ele>2252.5735</ele>
        <time>2015-08-25T08:39:03Z</time>
      </trkpt>
      <trkpt lat="45.35485" lon="6.84178">
        <ele>2252.5735</ele>
        <time>2015-08-25T08:39:13Z</time>
      </trkpt>
      <trkpt lat="45.35488" lon="6.84177">
        <ele>2252.5735</ele>
        <time>2015-08-25T08:39:18Z</time>
      </trkpt>
      <trkpt lat="45.35492" lon="6.84174">
        <ele>2250.5637</ele>
        <time>2015-08-25T08:39:28Z</time>
      </trkpt>
      <trkpt lat="45.35496" lon="6.84175">
        <ele>2250.5637</ele>
        <time>2015-08-25T08:39:33Z</time>
      </trkpt>
      <trkpt lat="45.35506" lon="6.84173">
        <ele>2248.743</ele>
        <time>2015-08-25T08:39:43Z</time>
      </trkpt>
      <trkpt lat="45.35509" lon="6.84173">
        <ele>2248.743</ele>
        <time>2015-08-25T08:39:48Z</time>
      </trkpt>
      <trkpt lat="45.35519" lon="6.8418">
        <ele>2246.8474</ele>
        <time>2015-08-25T08:39:58Z</time>
      </trkpt>
      <trkpt lat="45.35522" lon="6.84181">
        <ele>2246.8474</ele>
        <time>2015-08-25T08:40:03Z</time>
      </trkpt>
      <trkpt lat="45.35532" lon="6.84178">
        <ele>2244.868</ele>
        <time>2015-08-25T08:40:13Z</time>
      </trkpt>
      <trkpt lat="45.35536" lon="6.84179">
        <ele>2244.868</ele>
        <time>2015-08-25T08:40:18Z</time>
      </trkpt>
      <trkpt lat="45.35546" lon="6.84186">
        <ele>2242.8684</ele>
        <time>2015-08-25T08:40:28Z</time>
      </trkpt>
      <trkpt lat="45.35552" lon="6.84186">
        <ele>2242.8684</ele>
        <time>2015-08-25T08:40:33Z</time>
      </trkpt>
      <trkpt lat="45.35565" lon="6.84191">
        <ele>2240.8499</ele>
        <time>2015-08-25T08:40:43Z</time>
      </trkpt>
      <trkpt lat="45.3557" lon="6.84194">
        <ele>2240.8499</ele>
        <time>2015-08-25T08:40:48Z</time>
      </trkpt>
      <trkpt lat="45.35581" lon="6.84198">
        <ele>2238.9001</ele>
        <time>2015-08-25T08:40:58Z</time>
      </trkpt>
      <trkpt lat="45.35587" lon="6.84199">
        <ele>2238.9001</ele>
        <time>2015-08-25T08:41:03Z</time>
      </trkpt>
      <trkpt lat="45.356" lon="6.84201">
        <ele>2236.8975</ele>
        <time>2015-08-25T08:41:13Z</time>
      </trkpt>
      <trkpt lat="45.35605" lon="6.84201">
        <ele>2236.8975</ele>
        <time>2015-08-25T08:41:18Z</time>
      </trkpt>
      <trkpt lat="45.35615" lon="6.84203">
        <ele>2234.8599</ele>
        <time>2015-08-25T08:41:28Z</time>
      </trkpt>
      <trkpt lat="45.3562" lon="6.84201">
        <ele>2234.8599</ele>
        <time>2015-08-25T08:41:33Z</time>
      </trkpt>
      <trkpt lat="45.35635" lon="6.84192">
        <ele>2232.6736</ele>
        <time>2015-08-25T08:41:48Z</time>
      </trkpt>
      <trkpt lat="45.35641" lon="6.84192">
        <ele>2232.6736</ele>
        <time>2015-08-25T08:41:53Z</time>
      </trkpt>
      <trkpt lat="45.35649" lon="6.8419">
        <ele>2230.3352</ele>
        <time>2015-08-25T08:42:03Z</time>
      </trkpt>
      <trkpt lat="45.35654" lon="6.84186">
        <ele>2230.3352</ele>
        <time>2015-08-25T08:42:08Z</time>
      </trkpt>
      <trkpt lat="45.35659" lon="6.84176">
        <ele>2227.986</ele>
        <time>2015-08-25T08:42:18Z</time>
      </trkpt>
      <trkpt lat="45.35661" lon="6.84171">
        <ele>2227.986</ele>
        <time>2015-08-25T08:42:23Z</time>
      </trkpt>
      <trkpt lat="45.35664" lon="6.84168">
        <ele>2227.986</ele>
        <time>2015-08-25T08:42:33Z</time>
      </trkpt>
      <trkpt lat="45.35665" lon="6.84167">
        <ele>2227.986</ele>
        <time>2015-08-25T08:42:38Z</time>
      </trkpt>
      <trkpt lat="45.35665" lon="6.84167">
        <ele>2227.986</ele>
        <time>2015-08-25T08:42:48Z</time>
      </trkpt>
      <trkpt lat="45.35664" lon="6.84167">
        <ele>2225.7285</ele>
        <time>2015-08-25T08:42:53Z</time>
      </trkpt>
      <trkpt lat="45.35663" lon="6.84169">
        <ele>2225.7285</ele>
        <time>2015-08-25T08:43:03Z</time>
      </trkpt>
      <trkpt lat="45.35664" lon="6.84165">
        <ele>2225.7285</ele>
        <time>2015-08-25T08:43:08Z</time>
      </trkpt>
      <trkpt lat="45.35664" lon="6.84151">
        <ele>2223.541</ele>
        <time>2015-08-25T08:43:18Z</time>
      </trkpt>
      <trkpt lat="45.35664" lon="6.84142">
        <ele>2223.541</ele>
        <time>2015-08-25T08:43:23Z</time>
      </trkpt>
      <trkpt lat="45.35666" lon="6.84132">
        <ele>2221.447</ele>
        <time>2015-08-25T08:43:33Z</time>
      </trkpt>
      <trkpt lat="45.35669" lon="6.84126">
        <ele>2221.447</ele>
        <time>2015-08-25T08:43:38Z</time>
      </trkpt>
      <trkpt lat="45.35672" lon="6.84106">
        <ele>2219.3237</ele>
        <time>2015-08-25T08:43:53Z</time>
      </trkpt>
      <trkpt lat="45.35678" lon="6.84104">
        <ele>2219.3237</ele>
        <time>2015-08-25T08:43:58Z</time>
      </trkpt>
      <trkpt lat="45.35685" lon="6.84103">
        <ele>2217.144</ele>
        <time>2015-08-25T08:44:08Z</time>
      </trkpt>
      <trkpt lat="45.35682" lon="6.84096">
        <ele>2217.144</ele>
        <time>2015-08-25T08:44:13Z</time>
      </trkpt>
      <trkpt lat="45.3568" lon="6.84084">
        <ele>2215.0415</ele>
        <time>2015-08-25T08:44:23Z</time>
      </trkpt>
      <trkpt lat="45.35678" lon="6.8408">
        <ele>2215.0415</ele>
        <time>2015-08-25T08:44:28Z</time>
      </trkpt>
      <trkpt lat="45.35674" lon="6.84068">
        <ele>2212.8513</ele>
        <time>2015-08-25T08:44:38Z</time>
      </trkpt>
      <trkpt lat="45.35672" lon="6.84062">
        <ele>2212.8513</ele>
        <time>2015-08-25T08:44:43Z</time>
      </trkpt>
      <trkpt lat="45.35672" lon="6.8405">
        <ele>2210.623</ele>
        <time>2015-08-25T08:44:53Z</time>
      </trkpt>
      <trkpt lat="45.3567" lon="6.84042">
        <ele>2210.623</ele>
        <time>2015-08-25T08:44:58Z</time>
      </trkpt>
      <trkpt lat="45.35663" lon="6.84032">
        <ele>2208.489</ele>
        <time>2015-08-25T08:45:08Z</time>
      </trkpt>
      <trkpt lat="45.3566" lon="6.84029">
        <ele>2208.489</ele>
        <time>2015-08-25T08:45:13Z</time>
      </trkpt>
      <trkpt lat="45.35651" lon="6.84017">
        <ele>2206.6582</ele>
        <time>2015-08-25T08:45:23Z</time>
      </trkpt>
      <trkpt lat="45.35647" lon="6.84012">
        <ele>2206.6582</ele>
        <time>2015-08-25T08:45:28Z</time>
      </trkpt>
      <trkpt lat="45.35641" lon="6.84005">
        <ele>2204.9773</ele>
        <time>2015-08-25T08:45:38Z</time>
      </trkpt>
      <trkpt lat="45.3564" lon="6.83996">
        <ele>2204.9773</ele>
        <time>2015-08-25T08:45:43Z</time>
      </trkpt>
      <trkpt lat="45.35636" lon="6.83984">
        <ele>2203.318</ele>
        <time>2015-08-25T08:45:53Z</time>
      </trkpt>
      <trkpt lat="45.35632" lon="6.83977">
        <ele>2203.318</ele>
        <time>2015-08-25T08:45:58Z</time>
      </trkpt>
      <trkpt lat="45.35626" lon="6.83968">
        <ele>2201.5332</ele>
        <time>2015-08-25T08:46:08Z</time>
      </trkpt>
      <trkpt lat="45.35623" lon="6.83961">
        <ele>2201.5332</ele>
        <time>2015-08-25T08:46:13Z</time>
      </trkpt>
      <trkpt lat="45.35621" lon="6.83944">
        <ele>2199.7024</ele>
        <time>2015-08-25T08:46:23Z</time>
      </trkpt>
      <trkpt lat="45.35621" lon="6.83938">
        <ele>2199.7024</ele>
        <time>2015-08-25T08:46:28Z</time>
      </trkpt>
      <trkpt lat="45.35619" lon="6.8393">
        <ele>2197.7417</ele>
        <time>2015-08-25T08:46:38Z</time>
      </trkpt>
      <trkpt lat="45.35619" lon="6.83926">
        <ele>2197.7417</ele>
        <time>2015-08-25T08:46:43Z</time>
      </trkpt>
      <trkpt lat="45.35632" lon="6.83934">
        <ele>2195.515</ele>
        <time>2015-08-25T08:46:58Z</time>
      </trkpt>
      <trkpt lat="45.35635" lon="6.83938">
        <ele>2195.515</ele>
        <time>2015-08-25T08:47:03Z</time>
      </trkpt>
      <trkpt lat="45.3564" lon="6.8395">
        <ele>2193.2874</ele>
        <time>2015-08-25T08:47:13Z</time>
      </trkpt>
      <trkpt lat="45.35641" lon="6.83956">
        <ele>2193.2874</ele>
        <time>2015-08-25T08:47:18Z</time>
      </trkpt>
      <trkpt lat="45.35647" lon="6.83955">
        <ele>2191.1306</ele>
        <time>2015-08-25T08:47:28Z</time>
      </trkpt>
      <trkpt lat="45.35647" lon="6.83948">
        <ele>2191.1306</ele>
        <time>2015-08-25T08:47:33Z</time>
      </trkpt>
      <trkpt lat="45.35647" lon="6.83935">
        <ele>2188.9531</ele>
        <time>2015-08-25T08:47:43Z</time>
      </trkpt>
      <trkpt lat="45.35645" lon="6.83931">
        <ele>2188.9531</ele>
        <time>2015-08-25T08:47:48Z</time>
      </trkpt>
      <trkpt lat="45.35645" lon="6.83918">
        <ele>2186.8425</ele>
        <time>2015-08-25T08:47:58Z</time>
      </trkpt>
      <trkpt lat="45.35646" lon="6.83909">
        <ele>2186.8425</ele>
        <time>2015-08-25T08:48:03Z</time>
      </trkpt>
      <trkpt lat="45.35649" lon="6.83895">
        <ele>2184.7795</ele>
        <time>2015-08-25T08:48:13Z</time>
      </trkpt>
      <trkpt lat="45.3565" lon="6.83889">
        <ele>2184.7795</ele>
        <time>2015-08-25T08:48:18Z</time>
      </trkpt>
      <trkpt lat="45.35649" lon="6.83881">
        <ele>2182.6875</ele>
        <time>2015-08-25T08:48:28Z</time>
      </trkpt>
      <trkpt lat="45.35649" lon="6.83877">
        <ele>2182.6875</ele>
        <time>2015-08-25T08:48:33Z</time>
      </trkpt>
      <trkpt lat="45.35649" lon="6.83865">
        <ele>2180.5977</ele>
        <time>2015-08-25T08:48:43Z</time>
      </trkpt>
      <trkpt lat="45.35649" lon="6.8386">
        <ele>2180.5977</ele>
        <time>2015-08-25T08:48:48Z</time>
      </trkpt>
      <trkpt lat="45.35652" lon="6.83857">
        <ele>2180.5977</ele>
        <time>2015-08-25T08:48:58Z</time>
      </trkpt>
      <trkpt lat="45.35654" lon="6.83858">
        <ele>2178.3936</ele>
        <time>2015-08-25T08:49:03Z</time>
      </trkpt>
      <trkpt lat="45.35657" lon="6.83859">
        <ele>2178.3936</ele>
        <time>2015-08-25T08:49:18Z</time>
      </trkpt>
      <trkpt lat="45.35656" lon="6.83859">
        <ele>2178.3936</ele>
        <time>2015-08-25T08:49:23Z</time>
      </trkpt>
      <trkpt lat="45.35656" lon="6.83858">
        <ele>2178.3936</ele>
        <time>2015-08-25T08:49:33Z</time>
      </trkpt>
      <trkpt lat="45.35658" lon="6.8386">
        <ele>2178.3936</ele>
        <time>2015-08-25T08:49:38Z</time>
      </trkpt>
      <trkpt lat="45.35657" lon="6.8386">
        <ele>2178.3936</ele>
        <time>2015-08-25T08:49:48Z</time>
      </trkpt>
      <trkpt lat="45.35656" lon="6.8386">
        <ele>2178.3936</ele>
        <time>2015-08-25T08:49:53Z</time>
      </trkpt>
      <trkpt lat="45.35654" lon="6.83863">
        <ele>2175.8967</ele>
        <time>2015-08-25T08:50:03Z</time>
      </trkpt>
      <trkpt lat="45.35655" lon="6.83862">
        <ele>2175.8967</ele>
        <time>2015-08-25T08:50:08Z</time>
      </trkpt>
      <trkpt lat="45.35659" lon="6.83875">
        <ele>2173.879</ele>
        <time>2015-08-25T08:50:18Z</time>
      </trkpt>
      <trkpt lat="45.35661" lon="6.8388">
        <ele>2173.879</ele>
        <time>2015-08-25T08:50:23Z</time>
      </trkpt>
      <trkpt lat="45.35669" lon="6.83898">
        <ele>2171.93</ele>
        <time>2015-08-25T08:50:38Z</time>
      </trkpt>
      <trkpt lat="45.35673" lon="6.83891">
        <ele>2171.93</ele>
        <time>2015-08-25T08:50:43Z</time>
      </trkpt>
      <trkpt lat="45.35676" lon="6.83882">
        <ele>2170.015</ele>
        <time>2015-08-25T08:50:53Z</time>
      </trkpt>
      <trkpt lat="45.35678" lon="6.83888">
        <ele>2170.015</ele>
        <time>2015-08-25T08:50:58Z</time>
      </trkpt>
      <trkpt lat="45.35681" lon="6.83903">
        <ele>2168.0583</ele>
        <time>2015-08-25T08:51:08Z</time>
      </trkpt>
      <trkpt lat="45.35683" lon="6.83909">
        <ele>2168.0583</ele>
        <time>2015-08-25T08:51:13Z</time>
      </trkpt>
      <trkpt lat="45.3569" lon="6.83919">
        <ele>2166.1062</ele>
        <time>2015-08-25T08:51:23Z</time>
      </trkpt>
      <trkpt lat="45.35692" lon="6.83924">
        <ele>2166.1062</ele>
        <time>2015-08-25T08:51:28Z</time>
      </trkpt>
      <trkpt lat="45.35696" lon="6.83937">
        <ele>2164.201</ele>
        <time>2015-08-25T08:51:38Z</time>
      </trkpt>
      <trkpt lat="45.35699" lon="6.8394">
        <ele>2164.201</ele>
        <time>2015-08-25T08:51:43Z</time>
      </trkpt>
      <trkpt lat="45.35705" lon="6.83949">
        <ele>2162.3235</ele>
        <time>2015-08-25T08:51:53Z</time>
      </trkpt>
      <trkpt lat="45.35708" lon="6.83953">
        <ele>2162.3235</ele>
        <time>2015-08-25T08:51:58Z</time>
      </trkpt>
      <trkpt lat="45.35715" lon="6.8396">
        <ele>2160.4426</ele>
        <time>2015-08-25T08:52:08Z</time>
      </trkpt>
      <trkpt lat="45.3572" lon="6.83964">
        <ele>2160.4426</ele>
        <time>2015-08-25T08:52:13Z</time>
      </trkpt>
      <trkpt lat="45.35729" lon="6.83969">
        <ele>2158.6152</ele>
        <time>2015-08-25T08:52:23Z</time>
      </trkpt>
      <trkpt lat="45.35733" lon="6.8397">
        <ele>2158.6152</ele>
        <time>2015-08-25T08:52:28Z</time>
      </trkpt>
      <trkpt lat="45.3574" lon="6.8397">
        <ele>2156.75</ele>
        <time>2015-08-25T08:52:38Z</time>
      </trkpt>
      <trkpt lat="45.35741" lon="6.83963">
        <ele>2156.75</ele>
        <time>2015-08-25T08:52:43Z</time>
      </trkpt>
      <trkpt lat="45.35732" lon="6.83953">
        <ele>2154.7913</ele>
        <time>2015-08-25T08:52:53Z</time>
      </trkpt>
      <trkpt lat="45.35727" lon="6.83951">
        <ele>2154.7913</ele>
        <time>2015-08-25T08:52:58Z</time>
      </trkpt>
      <trkpt lat="45.35729" lon="6.83946">
        <ele>2154.7913</ele>
        <time>2015-08-25T08:53:08Z</time>
      </trkpt>
      <trkpt lat="45.35733" lon="6.8395">
        <ele>2152.8755</ele>
        <time>2015-08-25T08:53:13Z</time>
      </trkpt>
      <trkpt lat="45.35743" lon="6.83955">
        <ele>2151.0562</ele>
        <time>2015-08-25T08:53:23Z</time>
      </trkpt>
      <trkpt lat="45.35748" lon="6.83955">
        <ele>2151.0562</ele>
        <time>2015-08-25T08:53:28Z</time>
      </trkpt>
      <trkpt lat="45.35763" lon="6.83962">
        <ele>2149.0515</ele>
        <time>2015-08-25T08:53:43Z</time>
      </trkpt>
      <trkpt lat="45.35768" lon="6.83965">
        <ele>2149.0515</ele>
        <time>2015-08-25T08:53:48Z</time>
      </trkpt>
      <trkpt lat="45.35777" lon="6.83971">
        <ele>2147.005</ele>
        <time>2015-08-25T08:53:58Z</time>
      </trkpt>
      <trkpt lat="45.35781" lon="6.83973">
        <ele>2147.005</ele>
        <time>2015-08-25T08:54:03Z</time>
      </trkpt>
      <trkpt lat="45.35788" lon="6.83981">
        <ele>2144.9045</ele>
        <time>2015-08-25T08:54:13Z</time>
      </trkpt>
      <trkpt lat="45.35791" lon="6.83987">
        <ele>2144.9045</ele>
        <time>2015-08-25T08:54:18Z</time>
      </trkpt>
      <trkpt lat="45.35797" lon="6.83999">
        <ele>2142.841</ele>
        <time>2015-08-25T08:54:28Z</time>
      </trkpt>
      <trkpt lat="45.358" lon="6.84004">
        <ele>2142.841</ele>
        <time>2015-08-25T08:54:33Z</time>
      </trkpt>
      <trkpt lat="45.35806" lon="6.84015">
        <ele>2140.8982</ele>
        <time>2015-08-25T08:54:43Z</time>
      </trkpt>
      <trkpt lat="45.35809" lon="6.84018">
        <ele>2140.8982</ele>
        <time>2015-08-25T08:54:48Z</time>
      </trkpt>
      <trkpt lat="45.35814" lon="6.84022">
        <ele>2140.8982</ele>
        <time>2015-08-25T08:54:58Z</time>
      </trkpt>
      <trkpt lat="45.35814" lon="6.84021">
        <ele>2139.0376</ele>
        <time>2015-08-25T08:55:03Z</time>
      </trkpt>
      <trkpt lat="45.35815" lon="6.84019">
        <ele>2139.0376</ele>
        <time>2015-08-25T08:55:13Z</time>
      </trkpt>
      <trkpt lat="45.35818" lon="6.84023">
        <ele>2139.0376</ele>
        <time>2015-08-25T08:55:18Z</time>
      </trkpt>
      <trkpt lat="45.35823" lon="6.84036">
        <ele>2137.1519</ele>
        <time>2015-08-25T08:55:28Z</time>
      </trkpt>
      <trkpt lat="45.35827" lon="6.84042">
        <ele>2137.1519</ele>
        <time>2015-08-25T08:55:33Z</time>
      </trkpt>
      <trkpt lat="45.35833" lon="6.84051">
        <ele>2135.3</ele>
        <time>2015-08-25T08:55:43Z</time>
      </trkpt>
      <trkpt lat="45.35837" lon="6.84054">
        <ele>2135.3</ele>
        <time>2015-08-25T08:55:48Z</time>
      </trkpt>
      <trkpt lat="45.35842" lon="6.84063">
        <ele>2133.4648</ele>
        <time>2015-08-25T08:55:58Z</time>
      </trkpt>
      <trkpt lat="45.35847" lon="6.84071">
        <ele>2133.4648</ele>
        <time>2015-08-25T08:56:03Z</time>
      </trkpt>
      <trkpt lat="45.35853" lon="6.84077">
        <ele>2131.6294</ele>
        <time>2015-08-25T08:56:13Z</time>
      </trkpt>
      <trkpt lat="45.35858" lon="6.84081">
        <ele>2131.6294</ele>
        <time>2015-08-25T08:56:18Z</time>
      </trkpt>
      <trkpt lat="45.35868" lon="6.84089">
        <ele>2129.7505</ele>
        <time>2015-08-25T08:56:28Z</time>
      </trkpt>
      <trkpt lat="45.35875" lon="6.84092">
        <ele>2129.7505</ele>
        <time>2015-08-25T08:56:33Z</time>
      </trkpt>
      <trkpt lat="45.35888" lon="6.84095">
        <ele>2127.7441</ele>
        <time>2015-08-25T08:56:48Z</time>
      </trkpt>
      <trkpt lat="45.35895" lon="6.84097">
        <ele>2127.7441</ele>
        <time>2015-08-25T08:56:53Z</time>
      </trkpt>
      <trkpt lat="45.35903" lon="6.84106">
        <ele>2125.807</ele>
        <time>2015-08-25T08:57:03Z</time>
      </trkpt>
      <trkpt lat="45.35908" lon="6.8411">
        <ele>2125.807</ele>
        <time>2015-08-25T08:57:08Z</time>
      </trkpt>
      <trkpt lat="45.35916" lon="6.84121">
        <ele>2123.9766</ele>
        <time>2015-08-25T08:57:18Z</time>
      </trkpt>
      <trkpt lat="45.35921" lon="6.84124">
        <ele>2123.9766</ele>
        <time>2015-08-25T08:57:23Z</time>
      </trkpt>
      <trkpt lat="45.3593" lon="6.8413">
        <ele>2122.346</ele>
        <time>2015-08-25T08:57:33Z</time>
      </trkpt>
      <trkpt lat="45.35936" lon="6.84134">
        <ele>2122.346</ele>
        <time>2015-08-25T08:57:38Z</time>
      </trkpt>
      <trkpt lat="45.35945" lon="6.84142">
        <ele>2120.7407</ele>
        <time>2015-08-25T08:57:48Z</time>
      </trkpt>
      <trkpt lat="45.35949" lon="6.84145">
        <ele>2120.7407</ele>
        <time>2015-08-25T08:57:53Z</time>
      </trkpt>
      <trkpt lat="45.35956" lon="6.84154">
        <ele>2119.129</ele>
        <time>2015-08-25T08:58:03Z</time>
      </trkpt>
      <trkpt lat="45.3596" lon="6.84157">
        <ele>2119.129</ele>
        <time>2015-08-25T08:58:08Z</time>
      </trkpt>
      <trkpt lat="45.35967" lon="6.84162">
        <ele>2117.4956</ele>
        <time>2015-08-25T08:58:18Z</time>
      </trkpt>
      <trkpt lat="45.35971" lon="6.84166">
        <ele>2117.4956</ele>
        <time>2015-08-25T08:58:23Z</time>
      </trkpt>
      <trkpt lat="45.35983" lon="6.84181">
        <ele>2115.7834</ele>
        <time>2015-08-25T08:58:38Z</time>
      </trkpt>
      <trkpt lat="45.35987" lon="6.84184">
        <ele>2115.7834</ele>
        <time>2015-08-25T08:58:43Z</time>
      </trkpt>
      <trkpt lat="45.35994" lon="6.84194">
        <ele>2114.1562</ele>
        <time>2015-08-25T08:58:53Z</time>
      </trkpt>
      <trkpt lat="45.35997" lon="6.84198">
        <ele>2114.1562</ele>
        <time>2015-08-25T08:58:58Z</time>
      </trkpt>
      <trkpt lat="45.36004" lon="6.84206">
        <ele>2112.5205</ele>
        <time>2015-08-25T08:59:08Z</time>
      </trkpt>
      <trkpt lat="45.36006" lon="6.84213">
        <ele>2112.5205</ele>
        <time>2015-08-25T08:59:13Z</time>
      </trkpt>
      <trkpt lat="45.36013" lon="6.84221">
        <ele>2110.9907</ele>
        <time>2015-08-25T08:59:23Z</time>
      </trkpt>
      <trkpt lat="45.36018" lon="6.84226">
        <ele>2110.9907</ele>
        <time>2015-08-25T08:59:28Z</time>
      </trkpt>
      <trkpt lat="45.36024" lon="6.84232">
        <ele>2109.414</ele>
        <time>2015-08-25T08:59:38Z</time>
      </trkpt>
      <trkpt lat="45.36027" lon="6.84236">
        <ele>2109.414</ele>
        <time>2015-08-25T08:59:43Z</time>
      </trkpt>
      <trkpt lat="45.36032" lon="6.84247">
        <ele>2107.6921</ele>
        <time>2015-08-25T08:59:53Z</time>
      </trkpt>
      <trkpt lat="45.36035" lon="6.84249">
        <ele>2107.6921</ele>
        <time>2015-08-25T08:59:58Z</time>
      </trkpt>
      <trkpt lat="45.36042" lon="6.84253">
        <ele>2105.8782</ele>
        <time>2015-08-25T09:00:08Z</time>
      </trkpt>
      <trkpt lat="45.36045" lon="6.84256">
        <ele>2105.8782</ele>
        <time>2015-08-25T09:00:13Z</time>
      </trkpt>
      <trkpt lat="45.36047" lon="6.8425">
        <ele>2105.8782</ele>
        <time>2015-08-25T09:00:23Z</time>
      </trkpt>
      <trkpt lat="45.36044" lon="6.84243">
        <ele>2104.0793</ele>
        <time>2015-08-25T09:00:28Z</time>
      </trkpt>
      <trkpt lat="45.36045" lon="6.84233">
        <ele>2104.0793</ele>
        <time>2015-08-25T09:00:38Z</time>
      </trkpt>
      <trkpt lat="45.36045" lon="6.84223">
        <ele>2102.4385</ele>
        <time>2015-08-25T09:00:43Z</time>
      </trkpt>
      <trkpt lat="45.36042" lon="6.84215">
        <ele>2102.4385</ele>
        <time>2015-08-25T09:00:53Z</time>
      </trkpt>
      <trkpt lat="45.36042" lon="6.8421">
        <ele>2100.929</ele>
        <time>2015-08-25T09:00:58Z</time>
      </trkpt>
      <trkpt lat="45.36037" lon="6.84196">
        <ele>2099.6262</ele>
        <time>2015-08-25T09:01:08Z</time>
      </trkpt>
      <trkpt lat="45.36034" lon="6.8419">
        <ele>2099.6262</ele>
        <time>2015-08-25T09:01:13Z</time>
      </trkpt>
      <trkpt lat="45.36036" lon="6.84165">
        <ele>2098.355</ele>
        <time>2015-08-25T09:01:28Z</time>
      </trkpt>
      <trkpt lat="45.36037" lon="6.84159">
        <ele>2098.355</ele>
        <time>2015-08-25T09:01:33Z</time>
      </trkpt>
      <trkpt lat="45.36036" lon="6.84144">
        <ele>2096.9382</ele>
        <time>2015-08-25T09:01:43Z</time>
      </trkpt>
      <trkpt lat="45.36037" lon="6.84136">
        <ele>2096.9382</ele>
        <time>2015-08-25T09:01:48Z</time>
      </trkpt>
      <trkpt lat="45.36035" lon="6.84121">
        <ele>2095.3137</ele>
        <time>2015-08-25T09:01:58Z</time>
      </trkpt>
      <trkpt lat="45.36034" lon="6.8411">
        <ele>2095.3137</ele>
        <time>2015-08-25T09:02:03Z</time>
      </trkpt>
      <trkpt lat="45.36031" lon="6.841">
        <ele>2093.5676</ele>
        <time>2015-08-25T09:02:13Z</time>
      </trkpt>
      <trkpt lat="45.36028" lon="6.84092">
        <ele>2093.5676</ele>
        <time>2015-08-25T09:02:18Z</time>
      </trkpt>
      <trkpt lat="45.36021" lon="6.84078">
        <ele>2091.8818</ele>
        <time>2015-08-25T09:02:28Z</time>
      </trkpt>
      <trkpt lat="45.36019" lon="6.84072">
        <ele>2091.8818</ele>
        <time>2015-08-25T09:02:33Z</time>
      </trkpt>
      <trkpt lat="45.3602" lon="6.84064">
        <ele>2090.0642</ele>
        <time>2015-08-25T09:02:43Z</time>
      </trkpt>
      <trkpt lat="45.36026" lon="6.84067">
        <ele>2090.0642</ele>
        <time>2015-08-25T09:02:48Z</time>
      </trkpt>
      <trkpt lat="45.36037" lon="6.84071">
        <ele>2088.0234</ele>
        <time>2015-08-25T09:02:58Z</time>
      </trkpt>
      <trkpt lat="45.36042" lon="6.84072">
        <ele>2088.0234</ele>
        <time>2015-08-25T09:03:03Z</time>
      </trkpt>
      <trkpt lat="45.36057" lon="6.84077">
        <ele>2085.546</ele>
        <time>2015-08-25T09:03:18Z</time>
      </trkpt>
      <trkpt lat="45.36062" lon="6.84081">
        <ele>2085.546</ele>
        <time>2015-08-25T09:03:23Z</time>
      </trkpt>
      <trkpt lat="45.3607" lon="6.84088">
        <ele>2082.983</ele>
        <time>2015-08-25T09:03:33Z</time>
      </trkpt>
      <trkpt lat="45.36074" lon="6.84094">
        <ele>2082.983</ele>
        <time>2015-08-25T09:03:38Z</time>
      </trkpt>
      <trkpt lat="45.36078" lon="6.84107">
        <ele>2080.4001</ele>
        <time>2015-08-25T09:03:48Z</time>
      </trkpt>
      <trkpt lat="45.3608" lon="6.84113">
        <ele>2080.4001</ele>
        <time>2015-08-25T09:03:53Z</time>
      </trkpt>
      <trkpt lat="45.36086" lon="6.84122">
        <ele>2077.7295</ele>
        <time>2015-08-25T09:04:03Z</time>
      </trkpt>
      <trkpt lat="45.3609" lon="6.84128">
        <ele>2077.7295</ele>
        <time>2015-08-25T09:04:08Z</time>
      </trkpt>
      <trkpt lat="45.3609" lon="6.84131">
        <ele>2077.7295</ele>
        <time>2015-08-25T09:04:18Z</time>
      </trkpt>
      <trkpt lat="45.36086" lon="6.84134">
        <ele>2075.2104</ele>
        <time>2015-08-25T09:04:23Z</time>
      </trkpt>
      <trkpt lat="45.36087" lon="6.84137">
        <ele>2075.2104</ele>
        <time>2015-08-25T09:04:33Z</time>
      </trkpt>
      <trkpt lat="45.36088" lon="6.84136">
        <ele>2075.2104</ele>
        <time>2015-08-25T09:04:38Z</time>
      </trkpt>
      <trkpt lat="45.36096" lon="6.8413">
        <ele>2072.7188</ele>
        <time>2015-08-25T09:04:53Z</time>
      </trkpt>
      <trkpt lat="45.36096" lon="6.84131">
        <ele>2072.7188</ele>
        <time>2015-08-25T09:04:58Z</time>
      </trkpt>
      <trkpt lat="45.36094" lon="6.84136">
        <ele>2072.7188</ele>
        <time>2015-08-25T09:05:08Z</time>
      </trkpt>
      <trkpt lat="45.36097" lon="6.84141">
        <ele>2070.297</ele>
        <time>2015-08-25T09:05:13Z</time>
      </trkpt>
      <trkpt lat="45.36091" lon="6.84144">
        <ele>2070.297</ele>
        <time>2015-08-25T09:05:23Z</time>
      </trkpt>
      <trkpt lat="45.36091" lon="6.84144">
        <ele>2070.297</ele>
        <time>2015-08-25T09:05:28Z</time>
      </trkpt>
      <trkpt lat="45.36093" lon="6.8415">
        <ele>2068.1155</ele>
        <time>2015-08-25T09:05:38Z</time>
      </trkpt>
      <trkpt lat="45.36095" lon="6.84152">
        <ele>2068.1155</ele>
        <time>2015-08-25T09:05:43Z</time>
      </trkpt>
      <trkpt lat="45.36101" lon="6.84165">
        <ele>2066.0564</ele>
        <time>2015-08-25T09:05:53Z</time>
      </trkpt>
      <trkpt lat="45.36101" lon="6.84171">
        <ele>2066.0564</ele>
        <time>2015-08-25T09:05:58Z</time>
      </trkpt>
      <trkpt lat="45.36106" lon="6.84175">
        <ele>2064.1401</ele>
        <time>2015-08-25T09:06:08Z</time>
      </trkpt>
      <trkpt lat="45.36106" lon="6.84171">
        <ele>2064.1401</ele>
        <time>2015-08-25T09:06:13Z</time>
      </trkpt>
      <trkpt lat="45.36112" lon="6.84161">
        <ele>2062.2268</ele>
        <time>2015-08-25T09:06:23Z</time>
      </trkpt>
      <trkpt lat="45.36111" lon="6.84164">
        <ele>2062.2268</ele>
        <time>2015-08-25T09:06:28Z</time>
      </trkpt>
      <trkpt lat="45.36113" lon="6.84166">
        <ele>2062.2268</ele>
        <time>2015-08-25T09:06:38Z</time>
      </trkpt>
      <trkpt lat="45.36113" lon="6.84163">
        <ele>2062.2268</ele>
        <time>2015-08-25T09:06:43Z</time>
      </trkpt>
      <trkpt lat="45.36113" lon="6.84164">
        <ele>2062.2268</ele>
        <time>2015-08-25T09:06:58Z</time>
      </trkpt>
      <trkpt lat="45.3611" lon="6.8417">
        <ele>2060.3599</ele>
        <time>2015-08-25T09:07:03Z</time>
      </trkpt>
      <trkpt lat="45.3611" lon="6.84171">
        <ele>2060.3599</ele>
        <time>2015-08-25T09:07:13Z</time>
      </trkpt>
      <trkpt lat="45.36109" lon="6.84169">
        <ele>2060.3599</ele>
        <time>2015-08-25T09:07:18Z</time>
      </trkpt>
      <trkpt lat="45.36106" lon="6.84156">
        <ele>2058.766</ele>
        <time>2015-08-25T09:07:28Z</time>
      </trkpt>
      <trkpt lat="45.36107" lon="6.84151">
        <ele>2058.766</ele>
        <time>2015-08-25T09:07:33Z</time>
      </trkpt>
      <trkpt lat="45.36107" lon="6.84151">
        <ele>2058.766</ele>
        <time>2015-08-25T09:07:43Z</time>
      </trkpt>
      <trkpt lat="45.36108" lon="6.8415">
        <ele>2058.766</ele>
        <time>2015-08-25T09:07:58Z</time>
      </trkpt>
      <trkpt lat="45.36109" lon="6.84142">
        <ele>2057.4685</ele>
        <time>2015-08-25T09:08:03Z</time>
      </trkpt>
      <trkpt lat="45.36105" lon="6.84129">
        <ele>2056.4148</ele>
        <time>2015-08-25T09:08:13Z</time>
      </trkpt>
      <trkpt lat="45.36106" lon="6.84121">
        <ele>2056.4148</ele>
        <time>2015-08-25T09:08:18Z</time>
      </trkpt>
      <trkpt lat="45.36103" lon="6.84106">
        <ele>2055.5125</ele>
        <time>2015-08-25T09:08:28Z</time>
      </trkpt>
      <trkpt lat="45.36101" lon="6.84097">
        <ele>2055.5125</ele>
        <time>2015-08-25T09:08:33Z</time>
      </trkpt>
      <trkpt lat="45.36102" lon="6.84076">
        <ele>2054.6184</ele>
        <time>2015-08-25T09:08:43Z</time>
      </trkpt>
      <trkpt lat="45.361" lon="6.84068">
        <ele>2054.6184</ele>
        <time>2015-08-25T09:08:48Z</time>
      </trkpt>
      <trkpt lat="45.361" lon="6.84042">
        <ele>2053.311</ele>
        <time>2015-08-25T09:09:03Z</time>
      </trkpt>
      <trkpt lat="45.361" lon="6.84038">
        <ele>2053.311</ele>
        <time>2015-08-25T09:09:08Z</time>
      </trkpt>
      <trkpt lat="45.36097" lon="6.84022">
        <ele>2052.0232</ele>
        <time>2015-08-25T09:09:18Z</time>
      </trkpt>
      <trkpt lat="45.36093" lon="6.84013">
        <ele>2052.0232</ele>
        <time>2015-08-25T09:09:23Z</time>
      </trkpt>
      <trkpt lat="45.3609" lon="6.84">
        <ele>2050.91</ele>
        <time>2015-08-25T09:09:33Z</time>
      </trkpt>
      <trkpt lat="45.36086" lon="6.83993">
        <ele>2050.91</ele>
        <time>2015-08-25T09:09:38Z</time>
      </trkpt>
      <trkpt lat="45.36083" lon="6.83974">
        <ele>2050.0864</ele>
        <time>2015-08-25T09:09:48Z</time>
      </trkpt>
      <trkpt lat="45.36079" lon="6.83971">
        <ele>2050.0864</ele>
        <time>2015-08-25T09:09:53Z</time>
      </trkpt>
      <trkpt lat="45.36075" lon="6.83959">
        <ele>2049.485</ele>
        <time>2015-08-25T09:10:03Z</time>
      </trkpt>
      <trkpt lat="45.36074" lon="6.83949">
        <ele>2049.485</ele>
        <time>2015-08-25T09:10:08Z</time>
      </trkpt>
      <trkpt lat="45.36071" lon="6.83933">
        <ele>2048.784</ele>
        <time>2015-08-25T09:10:18Z</time>
      </trkpt>
      <trkpt lat="45.3607" lon="6.83922">
        <ele>2048.784</ele>
        <time>2015-08-25T09:10:23Z</time>
      </trkpt>
      <trkpt lat="45.36066" lon="6.83908">
        <ele>2047.9435</ele>
        <time>2015-08-25T09:10:33Z</time>
      </trkpt>
      <trkpt lat="45.36064" lon="6.83902">
        <ele>2047.9435</ele>
        <time>2015-08-25T09:10:38Z</time>
      </trkpt>
      <trkpt lat="45.3606" lon="6.83885">
        <ele>2046.9574</ele>
        <time>2015-08-25T09:10:48Z</time>
      </trkpt>
      <trkpt lat="45.3606" lon="6.83879">
        <ele>2046.9574</ele>
        <time>2015-08-25T09:10:53Z</time>
      </trkpt>
      <trkpt lat="45.36059" lon="6.83861">
        <ele>2045.805</ele>
        <time>2015-08-25T09:11:03Z</time>
      </trkpt>
      <trkpt lat="45.36057" lon="6.83854">
        <ele>2045.805</ele>
        <time>2015-08-25T09:11:08Z</time>
      </trkpt>
      <trkpt lat="45.36053" lon="6.83839">
        <ele>2044.4683</ele>
        <time>2015-08-25T09:11:18Z</time>
      </trkpt>
      <trkpt lat="45.36051" lon="6.83828">
        <ele>2044.4683</ele>
        <time>2015-08-25T09:11:23Z</time>
      </trkpt>
      <trkpt lat="45.36047" lon="6.83805">
        <ele>2042.801</ele>
        <time>2015-08-25T09:11:38Z</time>
      </trkpt>
      <trkpt lat="45.36044" lon="6.83796">
        <ele>2042.801</ele>
        <time>2015-08-25T09:11:43Z</time>
      </trkpt>
      <trkpt lat="45.36038" lon="6.83785">
        <ele>2040.8995</ele>
        <time>2015-08-25T09:11:53Z</time>
      </trkpt>
      <trkpt lat="45.36037" lon="6.83775">
        <ele>2040.8995</ele>
        <time>2015-08-25T09:11:58Z</time>
      </trkpt>
      <trkpt lat="45.36033" lon="6.8376">
        <ele>2038.94</ele>
        <time>2015-08-25T09:12:08Z</time>
      </trkpt>
      <trkpt lat="45.36034" lon="6.83751">
        <ele>2038.94</ele>
        <time>2015-08-25T09:12:13Z</time>
      </trkpt>
      <trkpt lat="45.36035" lon="6.83735">
        <ele>2036.8411</ele>
        <time>2015-08-25T09:12:23Z</time>
      </trkpt>
      <trkpt lat="45.36034" lon="6.83736">
        <ele>2036.8411</ele>
        <time>2015-08-25T09:12:28Z</time>
      </trkpt>
      <trkpt lat="45.36033" lon="6.8373">
        <ele>2036.8411</ele>
        <time>2015-08-25T09:12:38Z</time>
      </trkpt>
      <trkpt lat="45.36033" lon="6.83725">
        <ele>2034.7007</ele>
        <time>2015-08-25T09:12:43Z</time>
      </trkpt>
      <trkpt lat="45.36028" lon="6.83719">
        <ele>2034.7007</ele>
        <time>2015-08-25T09:12:53Z</time>
      </trkpt>
      <trkpt lat="45.36026" lon="6.83714">
        <ele>2032.6674</ele>
        <time>2015-08-25T09:12:58Z</time>
      </trkpt>
      <trkpt lat="45.36024" lon="6.8372">
        <ele>2032.6674</ele>
        <time>2015-08-25T09:13:08Z</time>
      </trkpt>
      <trkpt lat="45.36018" lon="6.83718">
        <ele>2030.864</ele>
        <time>2015-08-25T09:13:13Z</time>
      </trkpt>
      <trkpt lat="45.36021" lon="6.83705">
        <ele>2029.0436</ele>
        <time>2015-08-25T09:13:28Z</time>
      </trkpt>
      <trkpt lat="45.36026" lon="6.83697">
        <ele>2029.0436</ele>
        <time>2015-08-25T09:13:33Z</time>
      </trkpt>
      <trkpt lat="45.36023" lon="6.83686">
        <ele>2027.1216</ele>
        <time>2015-08-25T09:13:43Z</time>
      </trkpt>
      <trkpt lat="45.36026" lon="6.83676">
        <ele>2027.1216</ele>
        <time>2015-08-25T09:13:48Z</time>
      </trkpt>
      <trkpt lat="45.36033" lon="6.83663">
        <ele>2025.0629</ele>
        <time>2015-08-25T09:13:58Z</time>
      </trkpt>
      <trkpt lat="45.36038" lon="6.83658">
        <ele>2025.0629</ele>
        <time>2015-08-25T09:14:03Z</time>
      </trkpt>
      <trkpt lat="45.36041" lon="6.83642">
        <ele>2023.1526</ele>
        <time>2015-08-25T09:14:13Z</time>
      </trkpt>
      <trkpt lat="45.36043" lon="6.83634">
        <ele>2023.1526</ele>
        <time>2015-08-25T09:14:18Z</time>
      </trkpt>
      <trkpt lat="45.36049" lon="6.8362">
        <ele>2021.2798</ele>
        <time>2015-08-25T09:14:28Z</time>
      </trkpt>
      <trkpt lat="45.36054" lon="6.83616">
        <ele>2021.2798</ele>
        <time>2015-08-25T09:14:33Z</time>
      </trkpt>
      <trkpt lat="45.36062" lon="6.83607">
        <ele>2019.3561</ele>
        <time>2015-08-25T09:14:43Z</time>
      </trkpt>
      <trkpt lat="45.36068" lon="6.83603">
        <ele>2019.3561</ele>
        <time>2015-08-25T09:14:48Z</time>
      </trkpt>
      <trkpt lat="45.36074" lon="6.83594">
        <ele>2017.7317</ele>
        <time>2015-08-25T09:14:58Z</time>
      </trkpt>
      <trkpt lat="45.36076" lon="6.83587">
        <ele>2017.7317</ele>
        <time>2015-08-25T09:15:03Z</time>
      </trkpt>
      <trkpt lat="45.36078" lon="6.83573">
        <ele>2016.3993</ele>
        <time>2015-08-25T09:15:13Z</time>
      </trkpt>
      <trkpt lat="45.36078" lon="6.83563">
        <ele>2016.3993</ele>
        <time>2015-08-25T09:15:18Z</time>
      </trkpt>
      <trkpt lat="45.36076" lon="6.83551">
        <ele>2015.149</ele>
        <time>2015-08-25T09:15:28Z</time>
      </trkpt>
      <trkpt lat="45.36068" lon="6.8355">
        <ele>2015.149</ele>
        <time>2015-08-25T09:15:33Z</time>
      </trkpt>
      <trkpt lat="45.36057" lon="6.83559">
        <ele>2014.1183</ele>
        <time>2015-08-25T09:15:43Z</time>
      </trkpt>
      <trkpt lat="45.36053" lon="6.83562">
        <ele>2014.1183</ele>
        <time>2015-08-25T09:15:48Z</time>
      </trkpt>
      <trkpt lat="45.36039" lon="6.8358">
        <ele>2013.0297</ele>
        <time>2015-08-25T09:16:03Z</time>
      </trkpt>
      <trkpt lat="45.36032" lon="6.83582">
        <ele>2013.0297</ele>
        <time>2015-08-25T09:16:08Z</time>
      </trkpt>
      <trkpt lat="45.36023" lon="6.83577">
        <ele>2012.4192</ele>
        <time>2015-08-25T09:16:18Z</time>
      </trkpt>
      <trkpt lat="45.36018" lon="6.83568">
        <ele>2012.4192</ele>
        <time>2015-08-25T09:16:23Z</time>
      </trkpt>
      <trkpt lat="45.36014" lon="6.83558">
        <ele>2012.1625</ele>
        <time>2015-08-25T09:16:33Z</time>
      </trkpt>
      <trkpt lat="45.36011" lon="6.83552">
        <ele>2012.1625</ele>
        <time>2015-08-25T09:16:38Z</time>
      </trkpt>
      <trkpt lat="45.36" lon="6.83541">
        <ele>2012.1722</ele>
        <time>2015-08-25T09:16:48Z</time>
      </trkpt>
      <trkpt lat="45.35995" lon="6.83533">
        <ele>2012.1722</ele>
        <time>2015-08-25T09:16:53Z</time>
      </trkpt>
      <trkpt lat="45.3599" lon="6.8352">
        <ele>2012.3955</ele>
        <time>2015-08-25T09:17:03Z</time>
      </trkpt>
      <trkpt lat="45.35989" lon="6.83514">
        <ele>2012.3955</ele>
        <time>2015-08-25T09:17:08Z</time>
      </trkpt>
      <trkpt lat="45.35983" lon="6.83499">
        <ele>2012.6385</ele>
        <time>2015-08-25T09:17:18Z</time>
      </trkpt>
      <trkpt lat="45.3598" lon="6.83492">
        <ele>2012.6385</ele>
        <time>2015-08-25T09:17:23Z</time>
      </trkpt>
      <trkpt lat="45.35977" lon="6.83468">
        <ele>2012.7653</ele>
        <time>2015-08-25T09:17:38Z</time>
      </trkpt>
      <trkpt lat="45.35976" lon="6.83459">
        <ele>2012.7653</ele>
        <time>2015-08-25T09:17:43Z</time>
      </trkpt>
      <trkpt lat="45.35972" lon="6.83447">
        <ele>2012.7797</ele>
        <time>2015-08-25T09:17:53Z</time>
      </trkpt>
      <trkpt lat="45.35969" lon="6.83441">
        <ele>2012.7797</ele>
        <time>2015-08-25T09:17:58Z</time>
      </trkpt>
      <trkpt lat="45.35963" lon="6.8343">
        <ele>2012.9304</ele>
        <time>2015-08-25T09:18:08Z</time>
      </trkpt>
      <trkpt lat="45.35962" lon="6.83429">
        <ele>2012.9304</ele>
        <time>2015-08-25T09:18:13Z</time>
      </trkpt>
      <trkpt lat="45.35958" lon="6.83416">
        <ele>2013.2753</ele>
        <time>2015-08-25T09:18:23Z</time>
      </trkpt>
      <trkpt lat="45.35956" lon="6.83411">
        <ele>2013.2753</ele>
        <time>2015-08-25T09:18:28Z</time>
      </trkpt>
      <trkpt lat="45.35949" lon="6.83403">
        <ele>2013.7804</ele>
        <time>2015-08-25T09:18:38Z</time>
      </trkpt>
      <trkpt lat="45.35946" lon="6.83395">
        <ele>2013.7804</ele>
        <time>2015-08-25T09:18:43Z</time>
      </trkpt>
      <trkpt lat="45.35941" lon="6.83385">
        <ele>2014.2559</ele>
        <time>2015-08-25T09:18:53Z</time>
      </trkpt>
      <trkpt lat="45.3594" lon="6.83379">
        <ele>2014.2559</ele>
        <time>2015-08-25T09:18:58Z</time>
      </trkpt>
      <trkpt lat="45.35946" lon="6.83363">
        <ele>2014.8569</ele>
        <time>2015-08-25T09:19:08Z</time>
      </trkpt>
      <trkpt lat="45.35952" lon="6.83358">
        <ele>2014.8569</ele>
        <time>2015-08-25T09:19:13Z</time>
      </trkpt>
      <trkpt lat="45.35966" lon="6.83357">
        <ele>2015.6989</ele>
        <time>2015-08-25T09:19:28Z</time>
      </trkpt>
      <trkpt lat="45.35971" lon="6.83358">
        <ele>2015.6989</ele>
        <time>2015-08-25T09:19:33Z</time>
      </trkpt>
      <trkpt lat="45.35979" lon="6.83361">
        <ele>2016.6138</ele>
        <time>2015-08-25T09:19:43Z</time>
      </trkpt>
      <trkpt lat="45.35982" lon="6.83364">
        <ele>2016.6138</ele>
        <time>2015-08-25T09:19:48Z</time>
      </trkpt>
      <trkpt lat="45.35989" lon="6.83365">
        <ele>2017.5759</ele>
        <time>2015-08-25T09:19:58Z</time>
      </trkpt>
      <trkpt lat="45.35994" lon="6.83363">
        <ele>2017.5759</ele>
        <time>2015-08-25T09:20:03Z</time>
      </trkpt>
      <trkpt lat="45.35995" lon="6.83362">
        <ele>2017.5759</ele>
        <time>2015-08-25T09:20:13Z</time>
      </trkpt>
      <trkpt lat="45.35997" lon="6.83359">
        <ele>2018.4604</ele>
        <time>2015-08-25T09:20:18Z</time>
      </trkpt>
      <trkpt lat="45.36001" lon="6.83357">
        <ele>2018.4604</ele>
        <time>2015-08-25T09:20:28Z</time>
      </trkpt>
      <trkpt lat="45.36003" lon="6.83356">
        <ele>2018.4604</ele>
        <time>2015-08-25T09:20:33Z</time>
      </trkpt>
      <trkpt lat="45.36012" lon="6.83359">
        <ele>2019.4835</ele>
        <time>2015-08-25T09:20:43Z</time>
      </trkpt>
      <trkpt lat="45.36013" lon="6.83358">
        <ele>2019.4835</ele>
        <time>2015-08-25T09:20:48Z</time>
      </trkpt>
      <trkpt lat="45.36018" lon="6.83353">
        <ele>2019.4835</ele>
        <time>2015-08-25T09:20:58Z</time>
      </trkpt>
      <trkpt lat="45.36019" lon="6.83351">
        <ele>2020.5426</ele>
        <time>2015-08-25T09:21:03Z</time>
      </trkpt>
      <trkpt lat="45.36021" lon="6.83347">
        <ele>2020.5426</ele>
        <time>2015-08-25T09:21:13Z</time>
      </trkpt>
      <trkpt lat="45.3602" lon="6.83348">
        <ele>2020.5426</ele>
        <time>2015-08-25T09:21:18Z</time>
      </trkpt>
      <trkpt lat="45.36024" lon="6.83349">
        <ele>2020.5426</ele>
        <time>2015-08-25T09:21:33Z</time>
      </trkpt>
      <trkpt lat="45.36023" lon="6.83348">
        <ele>2021.5138</ele>
        <time>2015-08-25T09:21:38Z</time>
      </trkpt>
      <trkpt lat="45.36021" lon="6.83348">
        <ele>2021.5138</ele>
        <time>2015-08-25T09:21:48Z</time>
      </trkpt>
      <trkpt lat="45.3602" lon="6.83348">
        <ele>2021.5138</ele>
        <time>2015-08-25T09:21:53Z</time>
      </trkpt>
      <trkpt lat="45.36019" lon="6.83347">
        <ele>2021.5138</ele>
        <time>2015-08-25T09:22:03Z</time>
      </trkpt>
      <trkpt lat="45.36019" lon="6.83347">
        <ele>2021.5138</ele>
        <time>2015-08-25T09:22:08Z</time>
      </trkpt>
      <trkpt lat="45.36019" lon="6.83348">
        <ele>2021.5138</ele>
        <time>2015-08-25T09:22:18Z</time>
      </trkpt>
      <trkpt lat="45.36019" lon="6.83348">
        <ele>2021.5138</ele>
        <time>2015-08-25T09:22:23Z</time>
      </trkpt>
      <trkpt lat="45.3602" lon="6.83348">
        <ele>2021.5138</ele>
        <time>2015-08-25T09:23:43Z</time>
      </trkpt>
      <trkpt lat="45.3602" lon="6.83348">
        <ele>2021.5138</ele>
        <time>2015-08-25T09:23:53Z</time>
      </trkpt>
      <trkpt lat="45.36019" lon="6.83349">
        <ele>2021.5138</ele>
        <time>2015-08-25T09:23:58Z</time>
      </trkpt>
      <trkpt lat="45.36019" lon="6.83349">
        <ele>2021.5138</ele>
        <time>2015-08-25T09:24:03Z</time>
      </trkpt>
      <trkpt lat="45.36021" lon="6.83348">
        <ele>2021.5138</ele>
        <time>2015-08-25T09:24:23Z</time>
      </trkpt>
      <trkpt lat="45.36022" lon="6.83348">
        <ele>2021.5138</ele>
        <time>2015-08-25T09:24:28Z</time>
      </trkpt>
      <trkpt lat="45.36021" lon="6.83346">
        <ele>2022.8163</ele>
        <time>2015-08-25T09:24:33Z</time>
      </trkpt>
      <trkpt lat="45.36021" lon="6.83346">
        <ele>2022.8163</ele>
        <time>2015-08-25T09:24:38Z</time>
      </trkpt>
      <trkpt lat="45.36021" lon="6.83347">
        <ele>2022.8163</ele>
        <time>2015-08-25T09:25:38Z</time>
      </trkpt>
      <trkpt lat="45.3602" lon="6.83346">
        <ele>2022.8163</ele>
        <time>2015-08-25T09:25:48Z</time>
      </trkpt>
      <trkpt lat="45.3602" lon="6.83346">
        <ele>2022.8163</ele>
        <time>2015-08-25T09:25:53Z</time>
      </trkpt>
      <trkpt lat="45.3602" lon="6.83346">
        <ele>2022.8163</ele>
        <time>2015-08-25T09:26:03Z</time>
      </trkpt>
      <trkpt lat="45.36019" lon="6.83347">
        <ele>2022.8163</ele>
        <time>2015-08-25T09:26:08Z</time>
      </trkpt>
      <trkpt lat="45.36019" lon="6.83347">
        <ele>2022.8163</ele>
        <time>2015-08-25T09:26:23Z</time>
      </trkpt>
      <trkpt lat="45.36024" lon="6.83352">
        <ele>2024.131</ele>
        <time>2015-08-25T09:26:38Z</time>
      </trkpt>
      <trkpt lat="45.36029" lon="6.83353">
        <ele>2024.131</ele>
        <time>2015-08-25T09:26:43Z</time>
      </trkpt>
      <trkpt lat="45.36036" lon="6.83352">
        <ele>2025.5088</ele>
        <time>2015-08-25T09:26:53Z</time>
      </trkpt>
      <trkpt lat="45.36041" lon="6.83349">
        <ele>2025.5088</ele>
        <time>2015-08-25T09:26:58Z</time>
      </trkpt>
      <trkpt lat="45.36047" lon="6.83345">
        <ele>2026.8092</ele>
        <time>2015-08-25T09:27:08Z</time>
      </trkpt>
      <trkpt lat="45.3605" lon="6.83342">
        <ele>2026.8092</ele>
        <time>2015-08-25T09:27:13Z</time>
      </trkpt>
      <trkpt lat="45.36052" lon="6.83335">
        <ele>2028.1476</ele>
        <time>2015-08-25T09:27:23Z</time>
      </trkpt>
      <trkpt lat="45.36053" lon="6.83332">
        <ele>2028.1476</ele>
        <time>2015-08-25T09:27:28Z</time>
      </trkpt>
      <trkpt lat="45.36053" lon="6.83327">
        <ele>2028.1476</ele>
        <time>2015-08-25T09:27:38Z</time>
      </trkpt>
      <trkpt lat="45.36053" lon="6.83324">
        <ele>2028.1476</ele>
        <time>2015-08-25T09:27:43Z</time>
      </trkpt>
      <trkpt lat="45.36056" lon="6.83319">
        <ele>2029.9479</ele>
        <time>2015-08-25T09:27:53Z</time>
      </trkpt>
      <trkpt lat="45.36058" lon="6.83316">
        <ele>2029.9479</ele>
        <time>2015-08-25T09:27:58Z</time>
      </trkpt>
      <trkpt lat="45.36064" lon="6.83304">
        <ele>2031.8379</ele>
        <time>2015-08-25T09:28:13Z</time>
      </trkpt>
      <trkpt lat="45.36066" lon="6.83302">
        <ele>2031.8379</ele>
        <time>2015-08-25T09:28:18Z</time>
      </trkpt>
      <trkpt lat="45.3607" lon="6.833">
        <ele>2031.8379</ele>
        <time>2015-08-25T09:28:28Z</time>
      </trkpt>
      <trkpt lat="45.36069" lon="6.83297">
        <ele>2031.8379</ele>
        <time>2015-08-25T09:28:33Z</time>
      </trkpt>
      <trkpt lat="45.36067" lon="6.83295">
        <ele>2034.0638</ele>
        <time>2015-08-25T09:28:43Z</time>
      </trkpt>
      <trkpt lat="45.36068" lon="6.8329">
        <ele>2034.0638</ele>
        <time>2015-08-25T09:28:48Z</time>
      </trkpt>
      <trkpt lat="45.36069" lon="6.83286">
        <ele>2034.0638</ele>
        <time>2015-08-25T09:28:58Z</time>
      </trkpt>
      <trkpt lat="45.3607" lon="6.83285">
        <ele>2034.0638</ele>
        <time>2015-08-25T09:29:03Z</time>
      </trkpt>
      <trkpt lat="45.3607" lon="6.83279">
        <ele>2036.2765</ele>
        <time>2015-08-25T09:29:13Z</time>
      </trkpt>
      <trkpt lat="45.36074" lon="6.83275">
        <ele>2036.2765</ele>
        <time>2015-08-25T09:29:18Z</time>
      </trkpt>
      <trkpt lat="45.36079" lon="6.83273">
        <ele>2038.6423</ele>
        <time>2015-08-25T09:29:28Z</time>
      </trkpt>
      <trkpt lat="45.3608" lon="6.83271">
        <ele>2038.6423</ele>
        <time>2015-08-25T09:29:33Z</time>
      </trkpt>
      <trkpt lat="45.36087" lon="6.83263">
        <ele>2040.8978</ele>
        <time>2015-08-25T09:29:43Z</time>
      </trkpt>
      <trkpt lat="45.36089" lon="6.83262">
        <ele>2040.8978</ele>
        <time>2015-08-25T09:29:48Z</time>
      </trkpt>
      <trkpt lat="45.36092" lon="6.8326">
        <ele>2040.8978</ele>
        <time>2015-08-25T09:29:58Z</time>
      </trkpt>
      <trkpt lat="45.36091" lon="6.83261">
        <ele>2040.8978</ele>
        <time>2015-08-25T09:30:03Z</time>
      </trkpt>
      <trkpt lat="45.36094" lon="6.83256">
        <ele>2043.2748</ele>
        <time>2015-08-25T09:30:13Z</time>
      </trkpt>
      <trkpt lat="45.36094" lon="6.83254">
        <ele>2043.2748</ele>
        <time>2015-08-25T09:30:18Z</time>
      </trkpt>
      <trkpt lat="45.36093" lon="6.8325">
        <ele>2043.2748</ele>
        <time>2015-08-25T09:30:28Z</time>
      </trkpt>
      <trkpt lat="45.36093" lon="6.83248">
        <ele>2043.2748</ele>
        <time>2015-08-25T09:30:33Z</time>
      </trkpt>
      <trkpt lat="45.36093" lon="6.83242">
        <ele>2046.0885</ele>
        <time>2015-08-25T09:30:43Z</time>
      </trkpt>
      <trkpt lat="45.36093" lon="6.83239">
        <ele>2046.0885</ele>
        <time>2015-08-25T09:30:48Z</time>
      </trkpt>
      <trkpt lat="45.36093" lon="6.83229">
        <ele>2046.0885</ele>
        <time>2015-08-25T09:31:03Z</time>
      </trkpt>
      <trkpt lat="45.36092" lon="6.83227">
        <ele>2049.0251</ele>
        <time>2015-08-25T09:31:08Z</time>
      </trkpt>
      <trkpt lat="45.36086" lon="6.83223">
        <ele>2049.0251</ele>
        <time>2015-08-25T09:31:18Z</time>
      </trkpt>
      <trkpt lat="45.36087" lon="6.83218">
        <ele>2051.9668</ele>
        <time>2015-08-25T09:31:23Z</time>
      </trkpt>
      <trkpt lat="45.36089" lon="6.83211">
        <ele>2051.9668</ele>
        <time>2015-08-25T09:31:33Z</time>
      </trkpt>
      <trkpt lat="45.36088" lon="6.83209">
        <ele>2051.9668</ele>
        <time>2015-08-25T09:31:38Z</time>
      </trkpt>
      <trkpt lat="45.36087" lon="6.83203">
        <ele>2054.9915</ele>
        <time>2015-08-25T09:31:48Z</time>
      </trkpt>
      <trkpt lat="45.36087" lon="6.83199">
        <ele>2054.9915</ele>
        <time>2015-08-25T09:31:53Z</time>
      </trkpt>
      <trkpt lat="45.36086" lon="6.83196">
        <ele>2054.9915</ele>
        <time>2015-08-25T09:32:03Z</time>
      </trkpt>
      <trkpt lat="45.36086" lon="6.83195">
        <ele>2054.9915</ele>
        <time>2015-08-25T09:32:08Z</time>
      </trkpt>
      <trkpt lat="45.36084" lon="6.83193">
        <ele>2054.9915</ele>
        <time>2015-08-25T09:32:18Z</time>
      </trkpt>
      <trkpt lat="45.36084" lon="6.83192">
        <ele>2054.9915</ele>
        <time>2015-08-25T09:32:23Z</time>
      </trkpt>
      <trkpt lat="45.36077" lon="6.8319">
        <ele>2058.993</ele>
        <time>2015-08-25T09:32:33Z</time>
      </trkpt>
      <trkpt lat="45.36073" lon="6.8319">
        <ele>2058.993</ele>
        <time>2015-08-25T09:32:38Z</time>
      </trkpt>
      <trkpt lat="45.36073" lon="6.83183">
        <ele>2058.993</ele>
        <time>2015-08-25T09:32:53Z</time>
      </trkpt>
      <trkpt lat="45.36074" lon="6.83181">
        <ele>2062.8372</ele>
        <time>2015-08-25T09:32:58Z</time>
      </trkpt>
      <trkpt lat="45.36078" lon="6.83177">
        <ele>2062.8372</ele>
        <time>2015-08-25T09:33:08Z</time>
      </trkpt>
      <trkpt lat="45.36079" lon="6.83173">
        <ele>2062.8372</ele>
        <time>2015-08-25T09:33:13Z</time>
      </trkpt>
      <trkpt lat="45.36074" lon="6.83174">
        <ele>2066.4976</ele>
        <time>2015-08-25T09:33:23Z</time>
      </trkpt>
      <trkpt lat="45.36072" lon="6.83172">
        <ele>2066.4976</ele>
        <time>2015-08-25T09:33:28Z</time>
      </trkpt>
      <trkpt lat="45.36069" lon="6.83172">
        <ele>2066.4976</ele>
        <time>2015-08-25T09:33:38Z</time>
      </trkpt>
      <trkpt lat="45.36068" lon="6.8317">
        <ele>2066.4976</ele>
        <time>2015-08-25T09:33:43Z</time>
      </trkpt>
      <trkpt lat="45.36064" lon="6.83163">
        <ele>2070.3384</ele>
        <time>2015-08-25T09:33:53Z</time>
      </trkpt>
      <trkpt lat="45.36064" lon="6.83161">
        <ele>2070.3384</ele>
        <time>2015-08-25T09:33:58Z</time>
      </trkpt>
      <trkpt lat="45.36065" lon="6.83155">
        <ele>2070.3384</ele>
        <time>2015-08-25T09:34:08Z</time>
      </trkpt>
      <trkpt lat="45.36066" lon="6.83152">
        <ele>2070.3384</ele>
        <time>2015-08-25T09:34:13Z</time>
      </trkpt>
      <trkpt lat="45.36068" lon="6.8315">
        <ele>2074.1792</ele>
        <time>2015-08-25T09:34:28Z</time>
      </trkpt>
      <trkpt lat="45.36068" lon="6.83151">
        <ele>2074.1792</ele>
        <time>2015-08-25T09:34:33Z</time>
      </trkpt>
      <trkpt lat="45.36069" lon="6.83149">
        <ele>2074.1792</ele>
        <time>2015-08-25T09:34:43Z</time>
      </trkpt>
      <trkpt lat="45.36071" lon="6.83155">
        <ele>2074.1792</ele>
        <time>2015-08-25T09:34:48Z</time>
      </trkpt>
      <trkpt lat="45.36073" lon="6.83152">
        <ele>2077.4487</ele>
        <time>2015-08-25T09:34:58Z</time>
      </trkpt>
      <trkpt lat="45.36072" lon="6.83147">
        <ele>2077.4487</ele>
        <time>2015-08-25T09:35:03Z</time>
      </trkpt>
      <trkpt lat="45.36071" lon="6.83145">
        <ele>2077.4487</ele>
        <time>2015-08-25T09:35:13Z</time>
      </trkpt>
      <trkpt lat="45.36072" lon="6.83145">
        <ele>2077.4487</ele>
        <time>2015-08-25T09:35:18Z</time>
      </trkpt>
      <trkpt lat="45.3608" lon="6.83141">
        <ele>2080.7014</ele>
        <time>2015-08-25T09:35:28Z</time>
      </trkpt>
      <trkpt lat="45.36083" lon="6.83139">
        <ele>2080.7014</ele>
        <time>2015-08-25T09:35:33Z</time>
      </trkpt>
      <trkpt lat="45.36089" lon="6.83137">
        <ele>2083.7295</ele>
        <time>2015-08-25T09:35:43Z</time>
      </trkpt>
      <trkpt lat="45.36093" lon="6.83135">
        <ele>2083.7295</ele>
        <time>2015-08-25T09:35:48Z</time>
      </trkpt>
      <trkpt lat="45.36102" lon="6.8313">
        <ele>2086.5154</ele>
        <time>2015-08-25T09:35:58Z</time>
      </trkpt>
      <trkpt lat="45.36103" lon="6.83129">
        <ele>2086.5154</ele>
        <time>2015-08-25T09:36:03Z</time>
      </trkpt>
      <trkpt lat="45.36114" lon="6.83122">
        <ele>2089.187</ele>
        <time>2015-08-25T09:36:18Z</time>
      </trkpt>
      <trkpt lat="45.36116" lon="6.83121">
        <ele>2089.187</ele>
        <time>2015-08-25T09:36:23Z</time>
      </trkpt>
      <trkpt lat="45.36125" lon="6.8312">
        <ele>2091.3025</ele>
        <time>2015-08-25T09:36:33Z</time>
      </trkpt>
      <trkpt lat="45.36129" lon="6.83119">
        <ele>2091.3025</ele>
        <time>2015-08-25T09:36:38Z</time>
      </trkpt>
      <trkpt lat="45.36129" lon="6.83118">
        <ele>2091.3025</ele>
        <time>2015-08-25T09:36:48Z</time>
      </trkpt>
      <trkpt lat="45.36135" lon="6.83118">
        <ele>2092.972</ele>
        <time>2015-08-25T09:36:53Z</time>
      </trkpt>
      <trkpt lat="45.36136" lon="6.83116">
        <ele>2092.972</ele>
        <time>2015-08-25T09:37:03Z</time>
      </trkpt>
      <trkpt lat="45.36138" lon="6.83115">
        <ele>2092.972</ele>
        <time>2015-08-25T09:37:08Z</time>
      </trkpt>
      <trkpt lat="45.36138" lon="6.83118">
        <ele>2092.972</ele>
        <time>2015-08-25T09:37:18Z</time>
      </trkpt>
      <trkpt lat="45.36136" lon="6.83121">
        <ele>2092.972</ele>
        <time>2015-08-25T09:37:23Z</time>
      </trkpt>
      <trkpt lat="45.36137" lon="6.83121">
        <ele>2095.3513</ele>
        <time>2015-08-25T09:37:33Z</time>
      </trkpt>
      <trkpt lat="45.3614" lon="6.8312">
        <ele>2095.3513</ele>
        <time>2015-08-25T09:37:38Z</time>
      </trkpt>
      <trkpt lat="45.36153" lon="6.83116">
        <ele>2097.709</ele>
        <time>2015-08-25T09:37:48Z</time>
      </trkpt>
      <trkpt lat="45.36157" lon="6.83114">
        <ele>2097.709</ele>
        <time>2015-08-25T09:37:53Z</time>
      </trkpt>
      <trkpt lat="45.36166" lon="6.83111">
        <ele>2099.727</ele>
        <time>2015-08-25T09:38:08Z</time>
      </trkpt>
      <trkpt lat="45.36171" lon="6.83112">
        <ele>2099.727</ele>
        <time>2015-08-25T09:38:13Z</time>
      </trkpt>
      <trkpt lat="45.36174" lon="6.83108">
        <ele>2099.727</ele>
        <time>2015-08-25T09:38:23Z</time>
      </trkpt>
      <trkpt lat="45.36173" lon="6.83108">
        <ele>2101.7896</ele>
        <time>2015-08-25T09:38:28Z</time>
      </trkpt>
      <trkpt lat="45.36169" lon="6.83104">
        <ele>2101.7896</ele>
        <time>2015-08-25T09:38:38Z</time>
      </trkpt>
      <trkpt lat="45.36168" lon="6.83103">
        <ele>2101.7896</ele>
        <time>2015-08-25T09:38:43Z</time>
      </trkpt>
      <trkpt lat="45.36161" lon="6.83101">
        <ele>2103.7769</ele>
        <time>2015-08-25T09:38:53Z</time>
      </trkpt>
      <trkpt lat="45.36156" lon="6.831">
        <ele>2103.7769</ele>
        <time>2015-08-25T09:38:58Z</time>
      </trkpt>
      <trkpt lat="45.36152" lon="6.83094">
        <ele>2105.622</ele>
        <time>2015-08-25T09:39:08Z</time>
      </trkpt>
      <trkpt lat="45.36152" lon="6.83091">
        <ele>2105.622</ele>
        <time>2015-08-25T09:39:13Z</time>
      </trkpt>
      <trkpt lat="45.36147" lon="6.8309">
        <ele>2105.622</ele>
        <time>2015-08-25T09:39:23Z</time>
      </trkpt>
      <trkpt lat="45.36144" lon="6.83093">
        <ele>2107.0903</ele>
        <time>2015-08-25T09:39:28Z</time>
      </trkpt>
      <trkpt lat="45.36133" lon="6.83093">
        <ele>2108.0952</ele>
        <time>2015-08-25T09:39:43Z</time>
      </trkpt>
      <trkpt lat="45.36131" lon="6.83093">
        <ele>2108.0952</ele>
        <time>2015-08-25T09:39:48Z</time>
      </trkpt>
      <trkpt lat="45.36125" lon="6.83091">
        <ele>2108.0952</ele>
        <time>2015-08-25T09:39:58Z</time>
      </trkpt>
      <trkpt lat="45.36122" lon="6.83093">
        <ele>2108.962</ele>
        <time>2015-08-25T09:40:03Z</time>
      </trkpt>
      <trkpt lat="45.36116" lon="6.8309">
        <ele>2108.962</ele>
        <time>2015-08-25T09:40:13Z</time>
      </trkpt>
      <trkpt lat="45.36114" lon="6.8309">
        <ele>2108.962</ele>
        <time>2015-08-25T09:40:18Z</time>
      </trkpt>
      <trkpt lat="45.36112" lon="6.83087">
        <ele>2109.689</ele>
        <time>2015-08-25T09:40:28Z</time>
      </trkpt>
      <trkpt lat="45.36111" lon="6.83084">
        <ele>2109.689</ele>
        <time>2015-08-25T09:40:33Z</time>
      </trkpt>
      <trkpt lat="45.36103" lon="6.83089">
        <ele>2110.2617</ele>
        <time>2015-08-25T09:40:43Z</time>
      </trkpt>
      <trkpt lat="45.361" lon="6.83089">
        <ele>2110.2617</ele>
        <time>2015-08-25T09:40:48Z</time>
      </trkpt>
      <trkpt lat="45.36094" lon="6.83086">
        <ele>2110.9546</ele>
        <time>2015-08-25T09:40:58Z</time>
      </trkpt>
      <trkpt lat="45.3609" lon="6.83083">
        <ele>2110.9546</ele>
        <time>2015-08-25T09:41:03Z</time>
      </trkpt>
      <trkpt lat="45.36086" lon="6.83082">
        <ele>2110.9546</ele>
        <time>2015-08-25T09:41:13Z</time>
      </trkpt>
      <trkpt lat="45.36085" lon="6.83082">
        <ele>2112.0227</ele>
        <time>2015-08-25T09:41:18Z</time>
      </trkpt>
      <trkpt lat="45.36079" lon="6.83082">
        <ele>2112.0227</ele>
        <time>2015-08-25T09:41:33Z</time>
      </trkpt>
      <trkpt lat="45.36078" lon="6.83081">
        <ele>2112.0227</ele>
        <time>2015-08-25T09:41:38Z</time>
      </trkpt>
      <trkpt lat="45.36074" lon="6.83081">
        <ele>2113.2822</ele>
        <time>2015-08-25T09:41:48Z</time>
      </trkpt>
      <trkpt lat="45.36071" lon="6.83077">
        <ele>2113.2822</ele>
        <time>2015-08-25T09:41:53Z</time>
      </trkpt>
      <trkpt lat="45.36071" lon="6.83072">
        <ele>2113.2822</ele>
        <time>2015-08-25T09:42:03Z</time>
      </trkpt>
      <trkpt lat="45.36072" lon="6.8307">
        <ele>2114.7654</ele>
        <time>2015-08-25T09:42:08Z</time>
      </trkpt>
      <trkpt lat="45.36077" lon="6.83068">
        <ele>2114.7654</ele>
        <time>2015-08-25T09:42:18Z</time>
      </trkpt>
      <trkpt lat="45.36078" lon="6.83065">
        <ele>2114.7654</ele>
        <time>2015-08-25T09:42:23Z</time>
      </trkpt>
      <trkpt lat="45.36083" lon="6.83059">
        <ele>2116.6443</ele>
        <time>2015-08-25T09:42:33Z</time>
      </trkpt>
      <trkpt lat="45.36084" lon="6.83057">
        <ele>2116.6443</ele>
        <time>2015-08-25T09:42:38Z</time>
      </trkpt>
      <trkpt lat="45.36088" lon="6.83053">
        <ele>2116.6443</ele>
        <time>2015-08-25T09:42:48Z</time>
      </trkpt>
      <trkpt lat="45.36089" lon="6.83053">
        <ele>2116.6443</ele>
        <time>2015-08-25T09:42:53Z</time>
      </trkpt>
      <trkpt lat="45.36094" lon="6.83049">
        <ele>2118.8188</ele>
        <time>2015-08-25T09:43:03Z</time>
      </trkpt>
      <trkpt lat="45.36095" lon="6.83049">
        <ele>2118.8188</ele>
        <time>2015-08-25T09:43:08Z</time>
      </trkpt>
      <trkpt lat="45.361" lon="6.83041">
        <ele>2121.051</ele>
        <time>2015-08-25T09:43:23Z</time>
      </trkpt>
      <trkpt lat="45.36101" lon="6.83043">
        <ele>2121.051</ele>
        <time>2015-08-25T09:43:28Z</time>
      </trkpt>
      <trkpt lat="45.36099" lon="6.83042">
        <ele>2121.051</ele>
        <time>2015-08-25T09:43:38Z</time>
      </trkpt>
      <trkpt lat="45.36101" lon="6.83043">
        <ele>2121.051</ele>
        <time>2015-08-25T09:43:43Z</time>
      </trkpt>
      <trkpt lat="45.36101" lon="6.83043">
        <ele>2121.051</ele>
        <time>2015-08-25T09:43:48Z</time>
      </trkpt>
      <trkpt lat="45.361" lon="6.83041">
        <ele>2121.051</ele>
        <time>2015-08-25T09:43:53Z</time>
      </trkpt>
      <trkpt lat="45.36101" lon="6.83041">
        <ele>2123.0483</ele>
        <time>2015-08-25T09:43:58Z</time>
      </trkpt>
      <trkpt lat="45.36104" lon="6.8304">
        <ele>2123.0483</ele>
        <time>2015-08-25T09:44:03Z</time>
      </trkpt>
      <trkpt lat="45.36111" lon="6.83037">
        <ele>2124.684</ele>
        <time>2015-08-25T09:44:13Z</time>
      </trkpt>
      <trkpt lat="45.36114" lon="6.83032">
        <ele>2124.684</ele>
        <time>2015-08-25T09:44:18Z</time>
      </trkpt>
      <trkpt lat="45.36117" lon="6.83028">
        <ele>2124.684</ele>
        <time>2015-08-25T09:44:28Z</time>
      </trkpt>
      <trkpt lat="45.36119" lon="6.83026">
        <ele>2126.2747</ele>
        <time>2015-08-25T09:44:33Z</time>
      </trkpt>
      <trkpt lat="45.36126" lon="6.8302">
        <ele>2126.2747</ele>
        <time>2015-08-25T09:44:43Z</time>
      </trkpt>
      <trkpt lat="45.36128" lon="6.8302">
        <ele>2127.5798</ele>
        <time>2015-08-25T09:44:48Z</time>
      </trkpt>
      <trkpt lat="45.36138" lon="6.83012">
        <ele>2128.652</ele>
        <time>2015-08-25T09:45:03Z</time>
      </trkpt>
      <trkpt lat="45.36141" lon="6.83009">
        <ele>2128.652</ele>
        <time>2015-08-25T09:45:08Z</time>
      </trkpt>
      <trkpt lat="45.36148" lon="6.83">
        <ele>2129.5115</ele>
        <time>2015-08-25T09:45:18Z</time>
      </trkpt>
      <trkpt lat="45.36148" lon="6.82998">
        <ele>2129.5115</ele>
        <time>2015-08-25T09:45:23Z</time>
      </trkpt>
      <trkpt lat="45.3615" lon="6.82992">
        <ele>2129.5115</ele>
        <time>2015-08-25T09:45:33Z</time>
      </trkpt>
      <trkpt lat="45.36151" lon="6.82989">
        <ele>2129.5115</ele>
        <time>2015-08-25T09:45:38Z</time>
      </trkpt>
      <trkpt lat="45.36149" lon="6.82982">
        <ele>2130.3645</ele>
        <time>2015-08-25T09:45:48Z</time>
      </trkpt>
      <trkpt lat="45.36146" lon="6.8298">
        <ele>2130.3645</ele>
        <time>2015-08-25T09:45:53Z</time>
      </trkpt>
      <trkpt lat="45.36142" lon="6.82983">
        <ele>2130.3645</ele>
        <time>2015-08-25T09:46:03Z</time>
      </trkpt>
      <trkpt lat="45.36138" lon="6.82982">
        <ele>2131.2297</ele>
        <time>2015-08-25T09:46:08Z</time>
      </trkpt>
      <trkpt lat="45.36131" lon="6.82981">
        <ele>2131.2297</ele>
        <time>2015-08-25T09:46:18Z</time>
      </trkpt>
      <trkpt lat="45.36129" lon="6.8298">
        <ele>2131.2297</ele>
        <time>2015-08-25T09:46:23Z</time>
      </trkpt>
      <trkpt lat="45.36125" lon="6.82978">
        <ele>2131.9082</ele>
        <time>2015-08-25T09:46:33Z</time>
      </trkpt>
      <trkpt lat="45.3612" lon="6.82977">
        <ele>2131.9082</ele>
        <time>2015-08-25T09:46:38Z</time>
      </trkpt>
      <trkpt lat="45.36116" lon="6.82976">
        <ele>2132.5615</ele>
        <time>2015-08-25T09:46:48Z</time>
      </trkpt>
      <trkpt lat="45.36113" lon="6.82976">
        <ele>2132.5615</ele>
        <time>2015-08-25T09:46:53Z</time>
      </trkpt>
      <trkpt lat="45.36106" lon="6.82975">
        <ele>2133.1816</ele>
        <time>2015-08-25T09:47:03Z</time>
      </trkpt>
      <trkpt lat="45.36104" lon="6.82976">
        <ele>2133.1816</ele>
        <time>2015-08-25T09:47:08Z</time>
      </trkpt>
      <trkpt lat="45.36098" lon="6.82974">
        <ele>2133.1816</ele>
        <time>2015-08-25T09:47:18Z</time>
      </trkpt>
      <trkpt lat="45.36096" lon="6.82974">
        <ele>2134.063</ele>
        <time>2015-08-25T09:47:23Z</time>
      </trkpt>
      <trkpt lat="45.36086" lon="6.82973">
        <ele>2135.1033</ele>
        <time>2015-08-25T09:47:38Z</time>
      </trkpt>
      <trkpt lat="45.36082" lon="6.82973">
        <ele>2135.1033</ele>
        <time>2015-08-25T09:47:43Z</time>
      </trkpt>
      <trkpt lat="45.36074" lon="6.82973">
        <ele>2136.207</ele>
        <time>2015-08-25T09:47:53Z</time>
      </trkpt>
      <trkpt lat="45.36072" lon="6.82974">
        <ele>2136.207</ele>
        <time>2015-08-25T09:47:58Z</time>
      </trkpt>
      <trkpt lat="45.3607" lon="6.82974">
        <ele>2136.207</ele>
        <time>2015-08-25T09:48:08Z</time>
      </trkpt>
      <trkpt lat="45.36069" lon="6.82974">
        <ele>2136.207</ele>
        <time>2015-08-25T09:48:13Z</time>
      </trkpt>
      <trkpt lat="45.36063" lon="6.82975">
        <ele>2137.3005</ele>
        <time>2015-08-25T09:48:23Z</time>
      </trkpt>
      <trkpt lat="45.36061" lon="6.82976">
        <ele>2137.3005</ele>
        <time>2015-08-25T09:48:28Z</time>
      </trkpt>
      <trkpt lat="45.36057" lon="6.82978">
        <ele>2137.3005</ele>
        <time>2015-08-25T09:48:38Z</time>
      </trkpt>
      <trkpt lat="45.36056" lon="6.82979">
        <ele>2137.3005</ele>
        <time>2015-08-25T09:48:43Z</time>
      </trkpt>
      <trkpt lat="45.36046" lon="6.8298">
        <ele>2138.8477</ele>
        <time>2015-08-25T09:48:58Z</time>
      </trkpt>
      <trkpt lat="45.36045" lon="6.8298">
        <ele>2138.8477</ele>
        <time>2015-08-25T09:49:03Z</time>
      </trkpt>
      <trkpt lat="45.3604" lon="6.8298">
        <ele>2138.8477</ele>
        <time>2015-08-25T09:49:13Z</time>
      </trkpt>
      <trkpt lat="45.36038" lon="6.8298">
        <ele>2138.8477</ele>
        <time>2015-08-25T09:49:18Z</time>
      </trkpt>
      <trkpt lat="45.36033" lon="6.8298">
        <ele>2140.6147</ele>
        <time>2015-08-25T09:49:28Z</time>
      </trkpt>
      <trkpt lat="45.36032" lon="6.82979">
        <ele>2140.6147</ele>
        <time>2015-08-25T09:49:33Z</time>
      </trkpt>
      <trkpt lat="45.36027" lon="6.82975">
        <ele>2140.6147</ele>
        <time>2015-08-25T09:49:43Z</time>
      </trkpt>
      <trkpt lat="45.36027" lon="6.82971">
        <ele>2142.341</ele>
        <time>2015-08-25T09:49:48Z</time>
      </trkpt>
      <trkpt lat="45.36027" lon="6.82964">
        <ele>2142.341</ele>
        <time>2015-08-25T09:49:58Z</time>
      </trkpt>
      <trkpt lat="45.36025" lon="6.82962">
        <ele>2142.341</ele>
        <time>2015-08-25T09:50:03Z</time>
      </trkpt>
      <trkpt lat="45.36027" lon="6.82959">
        <ele>2144.2893</ele>
        <time>2015-08-25T09:50:13Z</time>
      </trkpt>
      <trkpt lat="45.36028" lon="6.82959">
        <ele>2144.2893</ele>
        <time>2015-08-25T09:50:18Z</time>
      </trkpt>
      <trkpt lat="45.36031" lon="6.82958">
        <ele>2144.2893</ele>
        <time>2015-08-25T09:50:28Z</time>
      </trkpt>
      <trkpt lat="45.36033" lon="6.82956">
        <ele>2144.2893</ele>
        <time>2015-08-25T09:50:33Z</time>
      </trkpt>
      <trkpt lat="45.36041" lon="6.82953">
        <ele>2146.285</ele>
        <time>2015-08-25T09:50:48Z</time>
      </trkpt>
      <trkpt lat="45.36042" lon="6.82951">
        <ele>2146.285</ele>
        <time>2015-08-25T09:50:53Z</time>
      </trkpt>
      <trkpt lat="45.36048" lon="6.82942">
        <ele>2148.309</ele>
        <time>2015-08-25T09:51:03Z</time>
      </trkpt>
      <trkpt lat="45.3605" lon="6.82939">
        <ele>2148.309</ele>
        <time>2015-08-25T09:51:08Z</time>
      </trkpt>
      <trkpt lat="45.36052" lon="6.82934">
        <ele>2148.309</ele>
        <time>2015-08-25T09:51:18Z</time>
      </trkpt>
      <trkpt lat="45.36055" lon="6.82931">
        <ele>2150.4028</ele>
        <time>2015-08-25T09:51:23Z</time>
      </trkpt>
      <trkpt lat="45.3606" lon="6.82926">
        <ele>2150.4028</ele>
        <time>2015-08-25T09:51:33Z</time>
      </trkpt>
      <trkpt lat="45.36062" lon="6.82924">
        <ele>2152.2144</ele>
        <time>2015-08-25T09:51:38Z</time>
      </trkpt>
      <trkpt lat="45.36067" lon="6.82916">
        <ele>2152.2144</ele>
        <time>2015-08-25T09:51:48Z</time>
      </trkpt>
      <trkpt lat="45.36068" lon="6.82913">
        <ele>2154.0237</ele>
        <time>2015-08-25T09:51:53Z</time>
      </trkpt>
      <trkpt lat="45.36074" lon="6.82907">
        <ele>2154.0237</ele>
        <time>2015-08-25T09:52:03Z</time>
      </trkpt>
      <trkpt lat="45.36076" lon="6.82905">
        <ele>2155.8596</ele>
        <time>2015-08-25T09:52:08Z</time>
      </trkpt>
      <trkpt lat="45.36075" lon="6.82903">
        <ele>2155.8596</ele>
        <time>2015-08-25T09:52:18Z</time>
      </trkpt>
      <trkpt lat="45.36078" lon="6.82897">
        <ele>2155.8596</ele>
        <time>2015-08-25T09:52:23Z</time>
      </trkpt>
      <trkpt lat="45.36083" lon="6.82887">
        <ele>2157.922</ele>
        <time>2015-08-25T09:52:38Z</time>
      </trkpt>
      <trkpt lat="45.36085" lon="6.82882">
        <ele>2157.922</ele>
        <time>2015-08-25T09:52:43Z</time>
      </trkpt>
      <trkpt lat="45.36086" lon="6.82877">
        <ele>2157.922</ele>
        <time>2015-08-25T09:52:53Z</time>
      </trkpt>
      <trkpt lat="45.36089" lon="6.82875">
        <ele>2160.2942</ele>
        <time>2015-08-25T09:52:58Z</time>
      </trkpt>
      <trkpt lat="45.36096" lon="6.82871">
        <ele>2160.2942</ele>
        <time>2015-08-25T09:53:08Z</time>
      </trkpt>
      <trkpt lat="45.36097" lon="6.8287">
        <ele>2162.4617</ele>
        <time>2015-08-25T09:53:13Z</time>
      </trkpt>
      <trkpt lat="45.36101" lon="6.82867">
        <ele>2162.4617</ele>
        <time>2015-08-25T09:53:23Z</time>
      </trkpt>
      <trkpt lat="45.36102" lon="6.82866">
        <ele>2162.4617</ele>
        <time>2015-08-25T09:53:28Z</time>
      </trkpt>
      <trkpt lat="45.36108" lon="6.82863">
        <ele>2164.4958</ele>
        <time>2015-08-25T09:53:38Z</time>
      </trkpt>
      <trkpt lat="45.36111" lon="6.8286">
        <ele>2164.4958</ele>
        <time>2015-08-25T09:53:43Z</time>
      </trkpt>
      <trkpt lat="45.36116" lon="6.82855">
        <ele>2166.579</ele>
        <time>2015-08-25T09:53:53Z</time>
      </trkpt>
      <trkpt lat="45.36117" lon="6.82851">
        <ele>2166.579</ele>
        <time>2015-08-25T09:53:58Z</time>
      </trkpt>
      <trkpt lat="45.36113" lon="6.82847">
        <ele>2166.579</ele>
        <time>2015-08-25T09:54:08Z</time>
      </trkpt>
      <trkpt lat="45.36111" lon="6.82845">
        <ele>2168.7063</ele>
        <time>2015-08-25T09:54:13Z</time>
      </trkpt>
      <trkpt lat="45.36108" lon="6.82842">
        <ele>2168.7063</ele>
        <time>2015-08-25T09:54:23Z</time>
      </trkpt>
      <trkpt lat="45.36105" lon="6.8284">
        <ele>2168.7063</ele>
        <time>2015-08-25T09:54:28Z</time>
      </trkpt>
      <trkpt lat="45.36102" lon="6.82837">
        <ele>2170.974</ele>
        <time>2015-08-25T09:54:43Z</time>
      </trkpt>
      <trkpt lat="45.361" lon="6.82838">
        <ele>2170.974</ele>
        <time>2015-08-25T09:54:48Z</time>
      </trkpt>
      <trkpt lat="45.36093" lon="6.82839">
        <ele>2173.1548</ele>
        <time>2015-08-25T09:54:58Z</time>
      </trkpt>
      <trkpt lat="45.3609" lon="6.8284">
        <ele>2173.1548</ele>
        <time>2015-08-25T09:55:03Z</time>
      </trkpt>
      <trkpt lat="45.36087" lon="6.82841">
        <ele>2173.1548</ele>
        <time>2015-08-25T09:55:13Z</time>
      </trkpt>
      <trkpt lat="45.36085" lon="6.82842">
        <ele>2173.1548</ele>
        <time>2015-08-25T09:55:18Z</time>
      </trkpt>
      <trkpt lat="45.3608" lon="6.82839">
        <ele>2175.2676</ele>
        <time>2015-08-25T09:55:28Z</time>
      </trkpt>
      <trkpt lat="45.36076" lon="6.82839">
        <ele>2175.2676</ele>
        <time>2015-08-25T09:55:33Z</time>
      </trkpt>
      <trkpt lat="45.3607" lon="6.82839">
        <ele>2177.259</ele>
        <time>2015-08-25T09:55:43Z</time>
      </trkpt>
      <trkpt lat="45.36067" lon="6.8284">
        <ele>2177.259</ele>
        <time>2015-08-25T09:55:48Z</time>
      </trkpt>
      <trkpt lat="45.36062" lon="6.82844">
        <ele>2177.259</ele>
        <time>2015-08-25T09:55:58Z</time>
      </trkpt>
      <trkpt lat="45.3606" lon="6.82847">
        <ele>2179.137</ele>
        <time>2015-08-25T09:56:03Z</time>
      </trkpt>
      <trkpt lat="45.36055" lon="6.82852">
        <ele>2179.137</ele>
        <time>2015-08-25T09:56:13Z</time>
      </trkpt>
      <trkpt lat="45.36054" lon="6.82854">
        <ele>2179.137</ele>
        <time>2015-08-25T09:56:18Z</time>
      </trkpt>
      <trkpt lat="45.36052" lon="6.82861">
        <ele>2181.2559</ele>
        <time>2015-08-25T09:56:28Z</time>
      </trkpt>
      <trkpt lat="45.3605" lon="6.8286">
        <ele>2181.2559</ele>
        <time>2015-08-25T09:56:33Z</time>
      </trkpt>
      <trkpt lat="45.36046" lon="6.82854">
        <ele>2181.2559</ele>
        <time>2015-08-25T09:56:43Z</time>
      </trkpt>
      <trkpt lat="45.36045" lon="6.82853">
        <ele>2183.3801</ele>
        <time>2015-08-25T09:56:48Z</time>
      </trkpt>
      <trkpt lat="45.36042" lon="6.82852">
        <ele>2183.3801</ele>
        <time>2015-08-25T09:56:58Z</time>
      </trkpt>
      <trkpt lat="45.36039" lon="6.82854">
        <ele>2183.3801</ele>
        <time>2015-08-25T09:57:03Z</time>
      </trkpt>
      <trkpt lat="45.36035" lon="6.82852">
        <ele>2185.8113</ele>
        <time>2015-08-25T09:57:13Z</time>
      </trkpt>
      <trkpt lat="45.36033" lon="6.8285">
        <ele>2185.8113</ele>
        <time>2015-08-25T09:57:18Z</time>
      </trkpt>
      <trkpt lat="45.36031" lon="6.82847">
        <ele>2185.8113</ele>
        <time>2015-08-25T09:57:28Z</time>
      </trkpt>
      <trkpt lat="45.36031" lon="6.82841">
        <ele>2188.4238</ele>
        <time>2015-08-25T09:57:33Z</time>
      </trkpt>
      <trkpt lat="45.36031" lon="6.82836">
        <ele>2188.4238</ele>
        <time>2015-08-25T09:57:48Z</time>
      </trkpt>
      <trkpt lat="45.3603" lon="6.82832">
        <ele>2188.4238</ele>
        <time>2015-08-25T09:57:53Z</time>
      </trkpt>
      <trkpt lat="45.36029" lon="6.82827">
        <ele>2191.2166</ele>
        <time>2015-08-25T09:58:03Z</time>
      </trkpt>
      <trkpt lat="45.36028" lon="6.82823">
        <ele>2191.2166</ele>
        <time>2015-08-25T09:58:08Z</time>
      </trkpt>
      <trkpt lat="45.36026" lon="6.82816">
        <ele>2191.2166</ele>
        <time>2015-08-25T09:58:18Z</time>
      </trkpt>
      <trkpt lat="45.36025" lon="6.82814">
        <ele>2193.914</ele>
        <time>2015-08-25T09:58:23Z</time>
      </trkpt>
      <trkpt lat="45.36022" lon="6.82811">
        <ele>2193.914</ele>
        <time>2015-08-25T09:58:33Z</time>
      </trkpt>
      <trkpt lat="45.36022" lon="6.82806">
        <ele>2193.914</ele>
        <time>2015-08-25T09:58:38Z</time>
      </trkpt>
      <trkpt lat="45.36022" lon="6.82803">
        <ele>2193.914</ele>
        <time>2015-08-25T09:58:48Z</time>
      </trkpt>
      <trkpt lat="45.36022" lon="6.82804">
        <ele>2196.5928</ele>
        <time>2015-08-25T09:58:53Z</time>
      </trkpt>
      <trkpt lat="45.36022" lon="6.82804">
        <ele>2196.5928</ele>
        <time>2015-08-25T09:59:03Z</time>
      </trkpt>
      <trkpt lat="45.36023" lon="6.82804">
        <ele>2196.5928</ele>
        <time>2015-08-25T09:59:08Z</time>
      </trkpt>
      <trkpt lat="45.36025" lon="6.82802">
        <ele>2196.5928</ele>
        <time>2015-08-25T09:59:18Z</time>
      </trkpt>
      <trkpt lat="45.36025" lon="6.82802">
        <ele>2196.5928</ele>
        <time>2015-08-25T09:59:23Z</time>
      </trkpt>
      <trkpt lat="45.36026" lon="6.82801">
        <ele>2196.5928</ele>
        <time>2015-08-25T09:59:38Z</time>
      </trkpt>
      <trkpt lat="45.36025" lon="6.82799">
        <ele>2196.5928</ele>
        <time>2015-08-25T10:00:43Z</time>
      </trkpt>
      <trkpt lat="45.36024" lon="6.82791">
        <ele>2199.4963</ele>
        <time>2015-08-25T10:00:53Z</time>
      </trkpt>
      <trkpt lat="45.36023" lon="6.82786">
        <ele>2199.4963</ele>
        <time>2015-08-25T10:00:58Z</time>
      </trkpt>
      <trkpt lat="45.36025" lon="6.82778">
        <ele>2202.101</ele>
        <time>2015-08-25T10:01:08Z</time>
      </trkpt>
      <trkpt lat="45.36027" lon="6.82777">
        <ele>2202.101</ele>
        <time>2015-08-25T10:01:13Z</time>
      </trkpt>
      <trkpt lat="45.36029" lon="6.82777">
        <ele>2202.101</ele>
        <time>2015-08-25T10:01:23Z</time>
      </trkpt>
      <trkpt lat="45.36029" lon="6.82774">
        <ele>2202.101</ele>
        <time>2015-08-25T10:01:28Z</time>
      </trkpt>
      <trkpt lat="45.36029" lon="6.82774">
        <ele>2202.101</ele>
        <time>2015-08-25T10:01:38Z</time>
      </trkpt>
      <trkpt lat="45.36029" lon="6.82764">
        <ele>2204.8877</ele>
        <time>2015-08-25T10:01:53Z</time>
      </trkpt>
      <trkpt lat="45.36028" lon="6.82759">
        <ele>2204.8877</ele>
        <time>2015-08-25T10:01:58Z</time>
      </trkpt>
      <trkpt lat="45.36027" lon="6.82753">
        <ele>2204.8877</ele>
        <time>2015-08-25T10:02:13Z</time>
      </trkpt>
      <trkpt lat="45.36026" lon="6.82751">
        <ele>2207.725</ele>
        <time>2015-08-25T10:02:18Z</time>
      </trkpt>
      <trkpt lat="45.36024" lon="6.82748">
        <ele>2207.725</ele>
        <time>2015-08-25T10:02:28Z</time>
      </trkpt>
      <trkpt lat="45.36024" lon="6.82745">
        <ele>2207.725</ele>
        <time>2015-08-25T10:02:33Z</time>
      </trkpt>
      <trkpt lat="45.36027" lon="6.82743">
        <ele>2207.725</ele>
        <time>2015-08-25T10:02:43Z</time>
      </trkpt>
      <trkpt lat="45.36028" lon="6.82742">
        <ele>2210.4048</ele>
        <time>2015-08-25T10:02:48Z</time>
      </trkpt>
      <trkpt lat="45.36032" lon="6.82736">
        <ele>2210.4048</ele>
        <time>2015-08-25T10:02:58Z</time>
      </trkpt>
      <trkpt lat="45.36032" lon="6.82733">
        <ele>2210.4048</ele>
        <time>2015-08-25T10:03:03Z</time>
      </trkpt>
      <trkpt lat="45.36033" lon="6.82732">
        <ele>2210.4048</ele>
        <time>2015-08-25T10:03:13Z</time>
      </trkpt>
      <trkpt lat="45.36032" lon="6.82731">
        <ele>2212.8643</ele>
        <time>2015-08-25T10:03:18Z</time>
      </trkpt>
      <trkpt lat="45.36031" lon="6.82729">
        <ele>2212.8643</ele>
        <time>2015-08-25T10:03:28Z</time>
      </trkpt>
      <trkpt lat="45.36032" lon="6.82728">
        <ele>2212.8643</ele>
        <time>2015-08-25T10:03:33Z</time>
      </trkpt>
      <trkpt lat="45.36029" lon="6.82726">
        <ele>2212.8643</ele>
        <time>2015-08-25T10:03:43Z</time>
      </trkpt>
      <trkpt lat="45.36028" lon="6.82726">
        <ele>2212.8643</ele>
        <time>2015-08-25T10:03:48Z</time>
      </trkpt>
      <trkpt lat="45.36027" lon="6.8272">
        <ele>2215.6226</ele>
        <time>2015-08-25T10:03:58Z</time>
      </trkpt>
      <trkpt lat="45.36025" lon="6.8272">
        <ele>2215.6226</ele>
        <time>2015-08-25T10:04:03Z</time>
      </trkpt>
      <trkpt lat="45.36023" lon="6.82714">
        <ele>2215.6226</ele>
        <time>2015-08-25T10:04:18Z</time>
      </trkpt>
      <trkpt lat="45.36022" lon="6.82709">
        <ele>2218.5833</ele>
        <time>2015-08-25T10:04:23Z</time>
      </trkpt>
      <trkpt lat="45.36025" lon="6.82703">
        <ele>2218.5833</ele>
        <time>2015-08-25T10:04:33Z</time>
      </trkpt>
      <trkpt lat="45.36025" lon="6.82702">
        <ele>2218.5833</ele>
        <time>2015-08-25T10:04:38Z</time>
      </trkpt>
      <trkpt lat="45.36024" lon="6.82697">
        <ele>2221.5413</ele>
        <time>2015-08-25T10:04:48Z</time>
      </trkpt>
      <trkpt lat="45.36023" lon="6.82694">
        <ele>2221.5413</ele>
        <time>2015-08-25T10:04:53Z</time>
      </trkpt>
      <trkpt lat="45.36022" lon="6.82689">
        <ele>2221.5413</ele>
        <time>2015-08-25T10:05:03Z</time>
      </trkpt>
      <trkpt lat="45.36021" lon="6.82686">
        <ele>2221.5413</ele>
        <time>2015-08-25T10:05:08Z</time>
      </trkpt>
      <trkpt lat="45.3602" lon="6.82684">
        <ele>2224.5518</ele>
        <time>2015-08-25T10:05:18Z</time>
      </trkpt>
      <trkpt lat="45.3602" lon="6.82682">
        <ele>2224.5518</ele>
        <time>2015-08-25T10:05:23Z</time>
      </trkpt>
      <trkpt lat="45.36022" lon="6.82677">
        <ele>2224.5518</ele>
        <time>2015-08-25T10:05:33Z</time>
      </trkpt>
      <trkpt lat="45.36023" lon="6.82674">
        <ele>2224.5518</ele>
        <time>2015-08-25T10:05:38Z</time>
      </trkpt>
      <trkpt lat="45.36024" lon="6.82669">
        <ele>2227.5503</ele>
        <time>2015-08-25T10:05:48Z</time>
      </trkpt>
      <trkpt lat="45.36026" lon="6.82665">
        <ele>2227.5503</ele>
        <time>2015-08-25T10:05:53Z</time>
      </trkpt>
      <trkpt lat="45.3603" lon="6.82662">
        <ele>2227.5503</ele>
        <time>2015-08-25T10:06:03Z</time>
      </trkpt>
      <trkpt lat="45.36032" lon="6.82662">
        <ele>2230.3333</ele>
        <time>2015-08-25T10:06:08Z</time>
      </trkpt>
      <trkpt lat="45.36036" lon="6.82657">
        <ele>2230.3333</ele>
        <time>2015-08-25T10:06:23Z</time>
      </trkpt>
      <trkpt lat="45.36037" lon="6.82653">
        <ele>2230.3333</ele>
        <time>2015-08-25T10:06:28Z</time>
      </trkpt>
      <trkpt lat="45.36039" lon="6.82648">
        <ele>2233.246</ele>
        <time>2015-08-25T10:06:38Z</time>
      </trkpt>
      <trkpt lat="45.36041" lon="6.82648">
        <ele>2233.246</ele>
        <time>2015-08-25T10:06:43Z</time>
      </trkpt>
      <trkpt lat="45.36046" lon="6.82645">
        <ele>2233.246</ele>
        <time>2015-08-25T10:06:53Z</time>
      </trkpt>
      <trkpt lat="45.36047" lon="6.82643">
        <ele>2233.246</ele>
        <time>2015-08-25T10:06:58Z</time>
      </trkpt>
      <trkpt lat="45.36049" lon="6.8264">
        <ele>2236.3057</ele>
        <time>2015-08-25T10:07:08Z</time>
      </trkpt>
      <trkpt lat="45.36051" lon="6.82639">
        <ele>2236.3057</ele>
        <time>2015-08-25T10:07:13Z</time>
      </trkpt>
      <trkpt lat="45.36056" lon="6.82635">
        <ele>2236.3057</ele>
        <time>2015-08-25T10:07:23Z</time>
      </trkpt>
      <trkpt lat="45.36057" lon="6.82632">
        <ele>2239.2532</ele>
        <time>2015-08-25T10:07:28Z</time>
      </trkpt>
      <trkpt lat="45.36058" lon="6.8263">
        <ele>2239.2532</ele>
        <time>2015-08-25T10:07:38Z</time>
      </trkpt>
      <trkpt lat="45.36059" lon="6.82626">
        <ele>2239.2532</ele>
        <time>2015-08-25T10:07:43Z</time>
      </trkpt>
      <trkpt lat="45.36057" lon="6.82622">
        <ele>2239.2532</ele>
        <time>2015-08-25T10:07:53Z</time>
      </trkpt>
      <trkpt lat="45.36056" lon="6.82621">
        <ele>2242.2537</ele>
        <time>2015-08-25T10:07:58Z</time>
      </trkpt>
      <trkpt lat="45.36055" lon="6.82613">
        <ele>2242.2537</ele>
        <time>2015-08-25T10:08:13Z</time>
      </trkpt>
      <trkpt lat="45.36055" lon="6.82611">
        <ele>2242.2537</ele>
        <time>2015-08-25T10:08:18Z</time>
      </trkpt>
      <trkpt lat="45.36059" lon="6.82608">
        <ele>2245.4158</ele>
        <time>2015-08-25T10:08:28Z</time>
      </trkpt>
      <trkpt lat="45.36061" lon="6.82606">
        <ele>2245.4158</ele>
        <time>2015-08-25T10:08:33Z</time>
      </trkpt>
      <trkpt lat="45.36065" lon="6.82602">
        <ele>2245.4158</ele>
        <time>2015-08-25T10:08:43Z</time>
      </trkpt>
      <trkpt lat="45.36066" lon="6.82599">
        <ele>2248.5376</ele>
        <time>2015-08-25T10:08:48Z</time>
      </trkpt>
      <trkpt lat="45.36069" lon="6.82597">
        <ele>2248.5376</ele>
        <time>2015-08-25T10:08:58Z</time>
      </trkpt>
      <trkpt lat="45.36071" lon="6.82594">
        <ele>2248.5376</ele>
        <time>2015-08-25T10:09:03Z</time>
      </trkpt>
      <trkpt lat="45.36069" lon="6.82589">
        <ele>2251.5623</ele>
        <time>2015-08-25T10:09:13Z</time>
      </trkpt>
      <trkpt lat="45.36068" lon="6.82589">
        <ele>2251.5623</ele>
        <time>2015-08-25T10:09:18Z</time>
      </trkpt>
      <trkpt lat="45.36069" lon="6.82584">
        <ele>2251.5623</ele>
        <time>2015-08-25T10:09:28Z</time>
      </trkpt>
      <trkpt lat="45.3607" lon="6.82581">
        <ele>2251.5623</ele>
        <time>2015-08-25T10:09:33Z</time>
      </trkpt>
      <trkpt lat="45.36074" lon="6.82578">
        <ele>2254.5952</ele>
        <time>2015-08-25T10:09:43Z</time>
      </trkpt>
      <trkpt lat="45.36076" lon="6.82578">
        <ele>2254.5952</ele>
        <time>2015-08-25T10:09:48Z</time>
      </trkpt>
      <trkpt lat="45.36081" lon="6.82577">
        <ele>2254.5952</ele>
        <time>2015-08-25T10:09:58Z</time>
      </trkpt>
      <trkpt lat="45.36084" lon="6.82575">
        <ele>2257.634</ele>
        <time>2015-08-25T10:10:03Z</time>
      </trkpt>
      <trkpt lat="45.36088" lon="6.8257">
        <ele>2257.634</ele>
        <time>2015-08-25T10:10:18Z</time>
      </trkpt>
      <trkpt lat="45.3609" lon="6.82569">
        <ele>2257.634</ele>
        <time>2015-08-25T10:10:23Z</time>
      </trkpt>
      <trkpt lat="45.36092" lon="6.82563">
        <ele>2260.6904</ele>
        <time>2015-08-25T10:10:33Z</time>
      </trkpt>
      <trkpt lat="45.36094" lon="6.82563">
        <ele>2260.6904</ele>
        <time>2015-08-25T10:10:38Z</time>
      </trkpt>
      <trkpt lat="45.361" lon="6.82564">
        <ele>2260.6904</ele>
        <time>2015-08-25T10:10:48Z</time>
      </trkpt>
      <trkpt lat="45.36102" lon="6.82563">
        <ele>2263.6604</ele>
        <time>2015-08-25T10:10:53Z</time>
      </trkpt>
      <trkpt lat="45.36106" lon="6.82561">
        <ele>2263.6604</ele>
        <time>2015-08-25T10:11:03Z</time>
      </trkpt>
      <trkpt lat="45.36108" lon="6.8256">
        <ele>2263.6604</ele>
        <time>2015-08-25T10:11:08Z</time>
      </trkpt>
      <trkpt lat="45.3611" lon="6.82556">
        <ele>2266.6353</ele>
        <time>2015-08-25T10:11:18Z</time>
      </trkpt>
      <trkpt lat="45.36111" lon="6.82555">
        <ele>2266.6353</ele>
        <time>2015-08-25T10:11:23Z</time>
      </trkpt>
      <trkpt lat="45.36116" lon="6.82553">
        <ele>2266.6353</ele>
        <time>2015-08-25T10:11:33Z</time>
      </trkpt>
      <trkpt lat="45.36118" lon="6.82552">
        <ele>2266.6353</ele>
        <time>2015-08-25T10:11:38Z</time>
      </trkpt>
      <trkpt lat="45.36123" lon="6.82551">
        <ele>2269.5693</ele>
        <time>2015-08-25T10:11:53Z</time>
      </trkpt>
      <trkpt lat="45.36124" lon="6.8255">
        <ele>2269.5693</ele>
        <time>2015-08-25T10:11:58Z</time>
      </trkpt>
      <trkpt lat="45.36129" lon="6.82548">
        <ele>2269.5693</ele>
        <time>2015-08-25T10:12:08Z</time>
      </trkpt>
      <trkpt lat="45.36131" lon="6.82546">
        <ele>2272.4934</ele>
        <time>2015-08-25T10:12:13Z</time>
      </trkpt>
      <trkpt lat="45.36134" lon="6.82543">
        <ele>2272.4934</ele>
        <time>2015-08-25T10:12:23Z</time>
      </trkpt>
      <trkpt lat="45.36135" lon="6.82542">
        <ele>2272.4934</ele>
        <time>2015-08-25T10:12:28Z</time>
      </trkpt>
      <trkpt lat="45.36136" lon="6.82539">
        <ele>2272.4934</ele>
        <time>2015-08-25T10:12:38Z</time>
      </trkpt>
      <trkpt lat="45.36138" lon="6.82538">
        <ele>2275.45</ele>
        <time>2015-08-25T10:12:43Z</time>
      </trkpt>
      <trkpt lat="45.36141" lon="6.82538">
        <ele>2275.45</ele>
        <time>2015-08-25T10:12:53Z</time>
      </trkpt>
      <trkpt lat="45.36144" lon="6.82538">
        <ele>2275.45</ele>
        <time>2015-08-25T10:12:58Z</time>
      </trkpt>
      <trkpt lat="45.36149" lon="6.82534">
        <ele>2278.522</ele>
        <time>2015-08-25T10:13:13Z</time>
      </trkpt>
      <trkpt lat="45.3615" lon="6.82533">
        <ele>2278.522</ele>
        <time>2015-08-25T10:13:18Z</time>
      </trkpt>
      <trkpt lat="45.36155" lon="6.8253">
        <ele>2278.522</ele>
        <time>2015-08-25T10:13:28Z</time>
      </trkpt>
      <trkpt lat="45.36155" lon="6.82529">
        <ele>2278.522</ele>
        <time>2015-08-25T10:13:33Z</time>
      </trkpt>
      <trkpt lat="45.36157" lon="6.82528">
        <ele>2281.6848</ele>
        <time>2015-08-25T10:13:43Z</time>
      </trkpt>
      <trkpt lat="45.36159" lon="6.8253">
        <ele>2281.6848</ele>
        <time>2015-08-25T10:13:48Z</time>
      </trkpt>
      <trkpt lat="45.36164" lon="6.82532">
        <ele>2281.6848</ele>
        <time>2015-08-25T10:13:58Z</time>
      </trkpt>
      <trkpt lat="45.36167" lon="6.82531">
        <ele>2284.685</ele>
        <time>2015-08-25T10:14:03Z</time>
      </trkpt>
      <trkpt lat="45.3617" lon="6.8253">
        <ele>2284.685</ele>
        <time>2015-08-25T10:14:13Z</time>
      </trkpt>
      <trkpt lat="45.3617" lon="6.82529">
        <ele>2284.685</ele>
        <time>2015-08-25T10:14:18Z</time>
      </trkpt>
      <trkpt lat="45.36174" lon="6.82531">
        <ele>2284.685</ele>
        <time>2015-08-25T10:14:28Z</time>
      </trkpt>
      <trkpt lat="45.36177" lon="6.82531">
        <ele>2287.793</ele>
        <time>2015-08-25T10:14:33Z</time>
      </trkpt>
      <trkpt lat="45.3618" lon="6.82527">
        <ele>2287.793</ele>
        <time>2015-08-25T10:14:43Z</time>
      </trkpt>
      <trkpt lat="45.36181" lon="6.82528">
        <ele>2287.793</ele>
        <time>2015-08-25T10:14:48Z</time>
      </trkpt>
      <trkpt lat="45.36182" lon="6.82519">
        <ele>2290.9705</ele>
        <time>2015-08-25T10:15:03Z</time>
      </trkpt>
      <trkpt lat="45.36184" lon="6.82518">
        <ele>2290.9705</ele>
        <time>2015-08-25T10:15:08Z</time>
      </trkpt>
      <trkpt lat="45.36185" lon="6.82517">
        <ele>2290.9705</ele>
        <time>2015-08-25T10:15:18Z</time>
      </trkpt>
      <trkpt lat="45.36186" lon="6.82517">
        <ele>2290.9705</ele>
        <time>2015-08-25T10:15:23Z</time>
      </trkpt>
      <trkpt lat="45.36188" lon="6.82519">
        <ele>2290.9705</ele>
        <time>2015-08-25T10:15:33Z</time>
      </trkpt>
      <trkpt lat="45.3619" lon="6.8252">
        <ele>2294.1528</ele>
        <time>2015-08-25T10:15:38Z</time>
      </trkpt>
      <trkpt lat="45.36195" lon="6.8252">
        <ele>2294.1528</ele>
        <time>2015-08-25T10:15:48Z</time>
      </trkpt>
      <trkpt lat="45.36197" lon="6.82525">
        <ele>2294.1528</ele>
        <time>2015-08-25T10:15:53Z</time>
      </trkpt>
      <trkpt lat="45.36201" lon="6.82523">
        <ele>2297.353</ele>
        <time>2015-08-25T10:16:03Z</time>
      </trkpt>
      <trkpt lat="45.36201" lon="6.82522">
        <ele>2297.353</ele>
        <time>2015-08-25T10:16:08Z</time>
      </trkpt>
      <trkpt lat="45.36201" lon="6.82521">
        <ele>2297.353</ele>
        <time>2015-08-25T10:16:18Z</time>
      </trkpt>
      <trkpt lat="45.36202" lon="6.82521">
        <ele>2297.353</ele>
        <time>2015-08-25T10:16:23Z</time>
      </trkpt>
      <trkpt lat="45.36203" lon="6.82521">
        <ele>2297.353</ele>
        <time>2015-08-25T10:16:33Z</time>
      </trkpt>
      <trkpt lat="45.36205" lon="6.8252">
        <ele>2297.353</ele>
        <time>2015-08-25T10:16:38Z</time>
      </trkpt>
      <trkpt lat="45.36206" lon="6.8252">
        <ele>2297.353</ele>
        <time>2015-08-25T10:16:48Z</time>
      </trkpt>
      <trkpt lat="45.36208" lon="6.8252">
        <ele>2297.353</ele>
        <time>2015-08-25T10:16:53Z</time>
      </trkpt>
      <trkpt lat="45.36213" lon="6.8252">
        <ele>2301.1875</ele>
        <time>2015-08-25T10:17:08Z</time>
      </trkpt>
      <trkpt lat="45.36216" lon="6.82521">
        <ele>2301.1875</ele>
        <time>2015-08-25T10:17:13Z</time>
      </trkpt>
      <trkpt lat="45.36222" lon="6.82519">
        <ele>2301.1875</ele>
        <time>2015-08-25T10:17:23Z</time>
      </trkpt>
      <trkpt lat="45.36222" lon="6.82519">
        <ele>2304.7856</ele>
        <time>2015-08-25T10:17:28Z</time>
      </trkpt>
      <trkpt lat="45.36227" lon="6.82518">
        <ele>2304.7856</ele>
        <time>2015-08-25T10:17:38Z</time>
      </trkpt>
      <trkpt lat="45.3623" lon="6.82516">
        <ele>2304.7856</ele>
        <time>2015-08-25T10:17:43Z</time>
      </trkpt>
      <trkpt lat="45.36234" lon="6.82512">
        <ele>2308.5076</ele>
        <time>2015-08-25T10:17:53Z</time>
      </trkpt>
      <trkpt lat="45.36235" lon="6.82511">
        <ele>2308.5076</ele>
        <time>2015-08-25T10:17:58Z</time>
      </trkpt>
      <trkpt lat="45.36235" lon="6.82508">
        <ele>2308.5076</ele>
        <time>2015-08-25T10:18:08Z</time>
      </trkpt>
      <trkpt lat="45.36236" lon="6.82508">
        <ele>2308.5076</ele>
        <time>2015-08-25T10:18:13Z</time>
      </trkpt>
      <trkpt lat="45.36239" lon="6.82506">
        <ele>2308.5076</ele>
        <time>2015-08-25T10:18:23Z</time>
      </trkpt>
      <trkpt lat="45.36239" lon="6.82506">
        <ele>2308.5076</ele>
        <time>2015-08-25T10:18:28Z</time>
      </trkpt>
      <trkpt lat="45.3624" lon="6.82501">
        <ele>2312.7886</ele>
        <time>2015-08-25T10:18:38Z</time>
      </trkpt>
      <trkpt lat="45.36241" lon="6.82499">
        <ele>2312.7886</ele>
        <time>2015-08-25T10:18:43Z</time>
      </trkpt>
      <trkpt lat="45.36241" lon="6.82499">
        <ele>2312.7886</ele>
        <time>2015-08-25T10:18:53Z</time>
      </trkpt>
      <trkpt lat="45.36242" lon="6.82501">
        <ele>2312.7886</ele>
        <time>2015-08-25T10:18:58Z</time>
      </trkpt>
      <trkpt lat="45.36239" lon="6.82491">
        <ele>2316.8772</ele>
        <time>2015-08-25T10:19:13Z</time>
      </trkpt>
      <trkpt lat="45.3624" lon="6.8249">
        <ele>2316.8772</ele>
        <time>2015-08-25T10:19:18Z</time>
      </trkpt>
      <trkpt lat="45.36241" lon="6.82488">
        <ele>2316.8772</ele>
        <time>2015-08-25T10:19:28Z</time>
      </trkpt>
      <trkpt lat="45.36242" lon="6.82487">
        <ele>2316.8772</ele>
        <time>2015-08-25T10:19:33Z</time>
      </trkpt>
      <trkpt lat="45.36244" lon="6.82483">
        <ele>2316.8772</ele>
        <time>2015-08-25T10:19:43Z</time>
      </trkpt>
      <trkpt lat="45.36245" lon="6.82482">
        <ele>2316.8772</ele>
        <time>2015-08-25T10:19:48Z</time>
      </trkpt>
      <trkpt lat="45.36248" lon="6.82479">
        <ele>2321.1152</ele>
        <time>2015-08-25T10:19:58Z</time>
      </trkpt>
      <trkpt lat="45.3625" lon="6.8248">
        <ele>2321.1152</ele>
        <time>2015-08-25T10:20:03Z</time>
      </trkpt>
      <trkpt lat="45.36251" lon="6.82476">
        <ele>2321.1152</ele>
        <time>2015-08-25T10:20:13Z</time>
      </trkpt>
      <trkpt lat="45.36253" lon="6.82475">
        <ele>2321.1152</ele>
        <time>2015-08-25T10:20:18Z</time>
      </trkpt>
      <trkpt lat="45.36253" lon="6.82476">
        <ele>2321.1152</ele>
        <time>2015-08-25T10:20:28Z</time>
      </trkpt>
      <trkpt lat="45.36253" lon="6.82476">
        <ele>2321.1152</ele>
        <time>2015-08-25T10:20:33Z</time>
      </trkpt>
      <trkpt lat="45.36253" lon="6.82475">
        <ele>2321.1152</ele>
        <time>2015-08-25T10:20:43Z</time>
      </trkpt>
      <trkpt lat="45.36252" lon="6.82472">
        <ele>2325.3008</ele>
        <time>2015-08-25T10:20:48Z</time>
      </trkpt>
      <trkpt lat="45.3625" lon="6.82463">
        <ele>2325.3008</ele>
        <time>2015-08-25T10:20:58Z</time>
      </trkpt>
      <trkpt lat="45.3625" lon="6.82459">
        <ele>2329.088</ele>
        <time>2015-08-25T10:21:03Z</time>
      </trkpt>
      <trkpt lat="45.36251" lon="6.82458">
        <ele>2329.088</ele>
        <time>2015-08-25T10:21:13Z</time>
      </trkpt>
      <trkpt lat="45.3625" lon="6.82458">
        <ele>2329.088</ele>
        <time>2015-08-25T10:21:18Z</time>
      </trkpt>
      <trkpt lat="45.3625" lon="6.8246">
        <ele>2329.088</ele>
        <time>2015-08-25T10:21:33Z</time>
      </trkpt>
      <trkpt lat="45.36249" lon="6.8246">
        <ele>2329.088</ele>
        <time>2015-08-25T10:22:18Z</time>
      </trkpt>
      <trkpt lat="45.36247" lon="6.82459">
        <ele>2329.088</ele>
        <time>2015-08-25T10:22:23Z</time>
      </trkpt>
      <trkpt lat="45.3624" lon="6.82457">
        <ele>2332.705</ele>
        <time>2015-08-25T10:22:33Z</time>
      </trkpt>
      <trkpt lat="45.36236" lon="6.82455">
        <ele>2332.705</ele>
        <time>2015-08-25T10:22:38Z</time>
      </trkpt>
      <trkpt lat="45.36232" lon="6.82457">
        <ele>2332.705</ele>
        <time>2015-08-25T10:22:48Z</time>
      </trkpt>
      <trkpt lat="45.36232" lon="6.82457">
        <ele>2332.705</ele>
        <time>2015-08-25T10:22:53Z</time>
      </trkpt>
      <trkpt lat="45.36232" lon="6.82457">
        <ele>2336.2207</ele>
        <time>2015-08-25T10:23:53Z</time>
      </trkpt>
      <trkpt lat="45.36228" lon="6.82455">
        <ele>2336.2207</ele>
        <time>2015-08-25T10:23:58Z</time>
      </trkpt>
      <trkpt lat="45.36226" lon="6.82454">
        <ele>2336.2207</ele>
        <time>2015-08-25T10:24:08Z</time>
      </trkpt>
      <trkpt lat="45.36225" lon="6.82454">
        <ele>2336.2207</ele>
        <time>2015-08-25T10:24:13Z</time>
      </trkpt>
      <trkpt lat="45.36222" lon="6.82452">
        <ele>2339.1938</ele>
        <time>2015-08-25T10:24:23Z</time>
      </trkpt>
      <trkpt lat="45.36221" lon="6.82451">
        <ele>2339.1938</ele>
        <time>2015-08-25T10:24:28Z</time>
      </trkpt>
      <trkpt lat="45.36218" lon="6.82448">
        <ele>2339.1938</ele>
        <time>2015-08-25T10:24:38Z</time>
      </trkpt>
      <trkpt lat="45.36218" lon="6.82446">
        <ele>2339.1938</ele>
        <time>2015-08-25T10:24:43Z</time>
      </trkpt>
      <trkpt lat="45.3621" lon="6.82435">
        <ele>2342.1978</ele>
        <time>2015-08-25T10:24:53Z</time>
      </trkpt>
      <trkpt lat="45.36209" lon="6.82433">
        <ele>2342.1978</ele>
        <time>2015-08-25T10:24:58Z</time>
      </trkpt>
      <trkpt lat="45.36208" lon="6.8243">
        <ele>2342.1978</ele>
        <time>2015-08-25T10:25:08Z</time>
      </trkpt>
      <trkpt lat="45.36208" lon="6.8243">
        <ele>2342.1978</ele>
        <time>2015-08-25T10:25:23Z</time>
      </trkpt>
      <trkpt lat="45.3621" lon="6.82428">
        <ele>2342.1978</ele>
        <time>2015-08-25T10:25:43Z</time>
      </trkpt>
      <trkpt lat="45.36211" lon="6.82425">
        <ele>2345.5327</ele>
        <time>2015-08-25T10:25:48Z</time>
      </trkpt>
      <trkpt lat="45.3621" lon="6.82423">
        <ele>2345.5327</ele>
        <time>2015-08-25T10:25:58Z</time>
      </trkpt>
      <trkpt lat="45.3621" lon="6.82423">
        <ele>2345.5327</ele>
        <time>2015-08-25T10:26:03Z</time>
      </trkpt>
      <trkpt lat="45.36211" lon="6.82422">
        <ele>2345.5327</ele>
        <time>2015-08-25T10:26:33Z</time>
      </trkpt>
      <trkpt lat="45.3621" lon="6.82419">
        <ele>2345.5327</ele>
        <time>2015-08-25T10:26:43Z</time>
      </trkpt>
      <trkpt lat="45.36209" lon="6.82417">
        <ele>2345.5327</ele>
        <time>2015-08-25T10:26:48Z</time>
      </trkpt>
      <trkpt lat="45.36208" lon="6.8241">
        <ele>2348.8425</ele>
        <time>2015-08-25T10:26:58Z</time>
      </trkpt>
      <trkpt lat="45.36208" lon="6.8241">
        <ele>2348.8425</ele>
        <time>2015-08-25T10:27:03Z</time>
      </trkpt>
      <trkpt lat="45.36207" lon="6.82408">
        <ele>2348.8425</ele>
        <time>2015-08-25T10:27:33Z</time>
      </trkpt>
      <trkpt lat="45.36204" lon="6.82397">
        <ele>2352.2434</ele>
        <time>2015-08-25T10:27:43Z</time>
      </trkpt>
      <trkpt lat="45.36201" lon="6.82394">
        <ele>2352.2434</ele>
        <time>2015-08-25T10:27:48Z</time>
      </trkpt>
      <trkpt lat="45.36198" lon="6.82391">
        <ele>2352.2434</ele>
        <time>2015-08-25T10:27:58Z</time>
      </trkpt>
      <trkpt lat="45.36194" lon="6.82388">
        <ele>2355.382</ele>
        <time>2015-08-25T10:28:03Z</time>
      </trkpt>
      <trkpt lat="45.3619" lon="6.82387">
        <ele>2355.382</ele>
        <time>2015-08-25T10:28:13Z</time>
      </trkpt>
      <trkpt lat="45.36189" lon="6.82386">
        <ele>2355.382</ele>
        <time>2015-08-25T10:28:18Z</time>
      </trkpt>
      <trkpt lat="45.36184" lon="6.82385">
        <ele>2358.1772</ele>
        <time>2015-08-25T10:28:28Z</time>
      </trkpt>
      <trkpt lat="45.36184" lon="6.82384">
        <ele>2358.1772</ele>
        <time>2015-08-25T10:28:33Z</time>
      </trkpt>
      <trkpt lat="45.3618" lon="6.82376">
        <ele>2358.1772</ele>
        <time>2015-08-25T10:28:48Z</time>
      </trkpt>
      <trkpt lat="45.3618" lon="6.82374">
        <ele>2358.1772</ele>
        <time>2015-08-25T10:28:53Z</time>
      </trkpt>
      <trkpt lat="45.36179" lon="6.8237">
        <ele>2361.0437</ele>
        <time>2015-08-25T10:29:03Z</time>
      </trkpt>
      <trkpt lat="45.36179" lon="6.8237">
        <ele>2361.0437</ele>
        <time>2015-08-25T10:29:08Z</time>
      </trkpt>
      <trkpt lat="45.36177" lon="6.82355">
        <ele>2363.5452</ele>
        <time>2015-08-25T10:29:18Z</time>
      </trkpt>
      <trkpt lat="45.36175" lon="6.82351">
        <ele>2363.5452</ele>
        <time>2015-08-25T10:29:23Z</time>
      </trkpt>
      <trkpt lat="45.36175" lon="6.82348">
        <ele>2363.5452</ele>
        <time>2015-08-25T10:29:33Z</time>
      </trkpt>
      <trkpt lat="45.36175" lon="6.82348">
        <ele>2363.5452</ele>
        <time>2015-08-25T10:29:38Z</time>
      </trkpt>
      <trkpt lat="45.36175" lon="6.82345">
        <ele>2363.5452</ele>
        <time>2015-08-25T10:29:48Z</time>
      </trkpt>
      <trkpt lat="45.36174" lon="6.82341">
        <ele>2366.157</ele>
        <time>2015-08-25T10:29:53Z</time>
      </trkpt>
      <trkpt lat="45.36174" lon="6.82341">
        <ele>2366.157</ele>
        <time>2015-08-25T10:30:03Z</time>
      </trkpt>
      <trkpt lat="45.36171" lon="6.82341">
        <ele>2366.157</ele>
        <time>2015-08-25T10:30:18Z</time>
      </trkpt>
      <trkpt lat="45.36171" lon="6.82341">
        <ele>2366.157</ele>
        <time>2015-08-25T10:30:23Z</time>
      </trkpt>
      <trkpt lat="45.36165" lon="6.82341">
        <ele>2366.157</ele>
        <time>2015-08-25T10:30:38Z</time>
      </trkpt>
      <trkpt lat="45.3616" lon="6.82342">
        <ele>2369.017</ele>
        <time>2015-08-25T10:30:48Z</time>
      </trkpt>
      <trkpt lat="45.36158" lon="6.82342">
        <ele>2369.017</ele>
        <time>2015-08-25T10:30:53Z</time>
      </trkpt>
      <trkpt lat="45.36152" lon="6.82341">
        <ele>2369.017</ele>
        <time>2015-08-25T10:31:03Z</time>
      </trkpt>
      <trkpt lat="45.36147" lon="6.82341">
        <ele>2371.6611</ele>
        <time>2015-08-25T10:31:08Z</time>
      </trkpt>
      <trkpt lat="45.36136" lon="6.82338">
        <ele>2374.1936</ele>
        <time>2015-08-25T10:31:23Z</time>
      </trkpt>
      <trkpt lat="45.36134" lon="6.82338">
        <ele>2374.1936</ele>
        <time>2015-08-25T10:31:28Z</time>
      </trkpt>
      <trkpt lat="45.36129" lon="6.82337">
        <ele>2374.1936</ele>
        <time>2015-08-25T10:31:38Z</time>
      </trkpt>
      <trkpt lat="45.36127" lon="6.82337">
        <ele>2376.4802</ele>
        <time>2015-08-25T10:31:43Z</time>
      </trkpt>
      <trkpt lat="45.36122" lon="6.82336">
        <ele>2376.4802</ele>
        <time>2015-08-25T10:31:53Z</time>
      </trkpt>
      <trkpt lat="45.3612" lon="6.82335">
        <ele>2376.4802</ele>
        <time>2015-08-25T10:31:58Z</time>
      </trkpt>
      <trkpt lat="45.3612" lon="6.82332">
        <ele>2376.4802</ele>
        <time>2015-08-25T10:32:08Z</time>
      </trkpt>
      <trkpt lat="45.36121" lon="6.82331">
        <ele>2378.4983</ele>
        <time>2015-08-25T10:32:13Z</time>
      </trkpt>
      <trkpt lat="45.3612" lon="6.82326">
        <ele>2378.4983</ele>
        <time>2015-08-25T10:32:23Z</time>
      </trkpt>
      <trkpt lat="45.36119" lon="6.82321">
        <ele>2378.4983</ele>
        <time>2015-08-25T10:32:28Z</time>
      </trkpt>
      <trkpt lat="45.36116" lon="6.82318">
        <ele>2380.603</ele>
        <time>2015-08-25T10:32:38Z</time>
      </trkpt>
      <trkpt lat="45.36117" lon="6.82313">
        <ele>2380.603</ele>
        <time>2015-08-25T10:32:43Z</time>
      </trkpt>
      <trkpt lat="45.36119" lon="6.82309">
        <ele>2380.603</ele>
        <time>2015-08-25T10:32:53Z</time>
      </trkpt>
      <trkpt lat="45.36118" lon="6.82304">
        <ele>2382.9639</ele>
        <time>2015-08-25T10:32:58Z</time>
      </trkpt>
      <trkpt lat="45.36116" lon="6.82293">
        <ele>2382.9639</ele>
        <time>2015-08-25T10:33:13Z</time>
      </trkpt>
      <trkpt lat="45.36115" lon="6.82288">
        <ele>2385.305</ele>
        <time>2015-08-25T10:33:18Z</time>
      </trkpt>
      <trkpt lat="45.36115" lon="6.82278">
        <ele>2385.305</ele>
        <time>2015-08-25T10:33:28Z</time>
      </trkpt>
      <trkpt lat="45.36115" lon="6.82275">
        <ele>2387.414</ele>
        <time>2015-08-25T10:33:33Z</time>
      </trkpt>
      <trkpt lat="45.36115" lon="6.82272">
        <ele>2387.414</ele>
        <time>2015-08-25T10:33:43Z</time>
      </trkpt>
      <trkpt lat="45.36115" lon="6.82273">
        <ele>2387.414</ele>
        <time>2015-08-25T10:33:48Z</time>
      </trkpt>
      <trkpt lat="45.36113" lon="6.82274">
        <ele>2387.414</ele>
        <time>2015-08-25T10:33:58Z</time>
      </trkpt>
      <trkpt lat="45.36113" lon="6.82274">
        <ele>2387.414</ele>
        <time>2015-08-25T10:34:03Z</time>
      </trkpt>
      <trkpt lat="45.36117" lon="6.82266">
        <ele>2389.888</ele>
        <time>2015-08-25T10:35:03Z</time>
      </trkpt>
      <trkpt lat="45.36117" lon="6.82266">
        <ele>2389.888</ele>
        <time>2015-08-25T10:35:08Z</time>
      </trkpt>
      <trkpt lat="45.36117" lon="6.82258">
        <ele>2389.888</ele>
        <time>2015-08-25T10:35:18Z</time>
      </trkpt>
      <trkpt lat="45.36119" lon="6.82252">
        <ele>2391.9526</ele>
        <time>2015-08-25T10:35:23Z</time>
      </trkpt>
      <trkpt lat="45.3612" lon="6.82243">
        <ele>2391.9526</ele>
        <time>2015-08-25T10:35:33Z</time>
      </trkpt>
      <trkpt lat="45.36121" lon="6.82241">
        <ele>2391.9526</ele>
        <time>2015-08-25T10:35:38Z</time>
      </trkpt>
      <trkpt lat="45.36121" lon="6.82237">
        <ele>2393.9004</ele>
        <time>2015-08-25T10:35:48Z</time>
      </trkpt>
      <trkpt lat="45.36121" lon="6.82237">
        <ele>2393.9004</ele>
        <time>2015-08-25T10:35:53Z</time>
      </trkpt>
      <trkpt lat="45.36121" lon="6.82236">
        <ele>2393.9004</ele>
        <time>2015-08-25T10:36:03Z</time>
      </trkpt>
      <trkpt lat="45.36121" lon="6.82236">
        <ele>2393.9004</ele>
        <time>2015-08-25T10:36:08Z</time>
      </trkpt>
      <trkpt lat="45.36118" lon="6.82232">
        <ele>2393.9004</ele>
        <time>2015-08-25T10:36:18Z</time>
      </trkpt>
      <trkpt lat="45.36118" lon="6.82232">
        <ele>2393.9004</ele>
        <time>2015-08-25T10:36:23Z</time>
      </trkpt>
      <trkpt lat="45.36116" lon="6.8223">
        <ele>2393.9004</ele>
        <time>2015-08-25T10:36:33Z</time>
      </trkpt>
      <trkpt lat="45.36113" lon="6.82227">
        <ele>2396.118</ele>
        <time>2015-08-25T10:36:38Z</time>
      </trkpt>
      <trkpt lat="45.36107" lon="6.82223">
        <ele>2396.118</ele>
        <time>2015-08-25T10:36:53Z</time>
      </trkpt>
      <trkpt lat="45.36103" lon="6.82221">
        <ele>2398.401</ele>
        <time>2015-08-25T10:37:08Z</time>
      </trkpt>
      <trkpt lat="45.36102" lon="6.8222">
        <ele>2398.401</ele>
        <time>2015-08-25T10:37:13Z</time>
      </trkpt>
      <trkpt lat="45.36102" lon="6.8222">
        <ele>2398.401</ele>
        <time>2015-08-25T10:37:23Z</time>
      </trkpt>
      <trkpt lat="45.36096" lon="6.82217">
        <ele>2398.401</ele>
        <time>2015-08-25T10:37:28Z</time>
      </trkpt>
      <trkpt lat="45.36087" lon="6.82215">
        <ele>2400.6892</ele>
        <time>2015-08-25T10:37:38Z</time>
      </trkpt>
      <trkpt lat="45.36085" lon="6.82216">
        <ele>2400.6892</ele>
        <time>2015-08-25T10:37:43Z</time>
      </trkpt>
      <trkpt lat="45.36082" lon="6.82216">
        <ele>2400.6892</ele>
        <time>2015-08-25T10:37:53Z</time>
      </trkpt>
      <trkpt lat="45.36081" lon="6.82216">
        <ele>2400.6892</ele>
        <time>2015-08-25T10:37:58Z</time>
      </trkpt>
      <trkpt lat="45.36078" lon="6.82214">
        <ele>2402.812</ele>
        <time>2015-08-25T10:38:08Z</time>
      </trkpt>
      <trkpt lat="45.36079" lon="6.82214">
        <ele>2402.812</ele>
        <time>2015-08-25T10:38:13Z</time>
      </trkpt>
      <trkpt lat="45.36075" lon="6.82209">
        <ele>2402.812</ele>
        <time>2015-08-25T10:38:28Z</time>
      </trkpt>
      <trkpt lat="45.36074" lon="6.82205">
        <ele>2402.812</ele>
        <time>2015-08-25T10:38:33Z</time>
      </trkpt>
      <trkpt lat="45.36069" lon="6.82207">
        <ele>2405.1008</ele>
        <time>2015-08-25T10:38:43Z</time>
      </trkpt>
      <trkpt lat="45.36068" lon="6.82206">
        <ele>2405.1008</ele>
        <time>2015-08-25T10:38:48Z</time>
      </trkpt>
      <trkpt lat="45.36065" lon="6.82202">
        <ele>2405.1008</ele>
        <time>2015-08-25T10:38:58Z</time>
      </trkpt>
      <trkpt lat="45.36063" lon="6.82201">
        <ele>2405.1008</ele>
        <time>2015-08-25T10:39:03Z</time>
      </trkpt>
      <trkpt lat="45.3606" lon="6.82198">
        <ele>2407.445</ele>
        <time>2015-08-25T10:39:13Z</time>
      </trkpt>
      <trkpt lat="45.36059" lon="6.82195">
        <ele>2407.445</ele>
        <time>2015-08-25T10:39:18Z</time>
      </trkpt>
      <trkpt lat="45.36058" lon="6.82192">
        <ele>2407.445</ele>
        <time>2015-08-25T10:39:28Z</time>
      </trkpt>
      <trkpt lat="45.36057" lon="6.82192">
        <ele>2407.445</ele>
        <time>2015-08-25T10:39:33Z</time>
      </trkpt>
      <trkpt lat="45.36054" lon="6.82196">
        <ele>2409.6982</ele>
        <time>2015-08-25T10:39:43Z</time>
      </trkpt>
      <trkpt lat="45.36052" lon="6.82196">
        <ele>2409.6982</ele>
        <time>2015-08-25T10:39:48Z</time>
      </trkpt>
      <trkpt lat="45.36051" lon="6.82198">
        <ele>2409.6982</ele>
        <time>2015-08-25T10:39:58Z</time>
      </trkpt>
      <trkpt lat="45.36051" lon="6.822">
        <ele>2409.6982</ele>
        <time>2015-08-25T10:40:03Z</time>
      </trkpt>
      <trkpt lat="45.36051" lon="6.82192">
        <ele>2411.8984</ele>
        <time>2015-08-25T10:40:18Z</time>
      </trkpt>
      <trkpt lat="45.36051" lon="6.82187">
        <ele>2411.8984</ele>
        <time>2015-08-25T10:40:23Z</time>
      </trkpt>
      <trkpt lat="45.36047" lon="6.82178">
        <ele>2413.7344</ele>
        <time>2015-08-25T10:40:33Z</time>
      </trkpt>
      <trkpt lat="45.36045" lon="6.82175">
        <ele>2413.7344</ele>
        <time>2015-08-25T10:40:38Z</time>
      </trkpt>
      <trkpt lat="45.36041" lon="6.82174">
        <ele>2413.7344</ele>
        <time>2015-08-25T10:40:48Z</time>
      </trkpt>
      <trkpt lat="45.36038" lon="6.82173">
        <ele>2415.4666</ele>
        <time>2015-08-25T10:40:53Z</time>
      </trkpt>
      <trkpt lat="45.36033" lon="6.82171">
        <ele>2415.4666</ele>
        <time>2015-08-25T10:41:03Z</time>
      </trkpt>
      <trkpt lat="45.36031" lon="6.8217">
        <ele>2415.4666</ele>
        <time>2015-08-25T10:41:08Z</time>
      </trkpt>
      <trkpt lat="45.36026" lon="6.82168">
        <ele>2417.0198</ele>
        <time>2015-08-25T10:41:18Z</time>
      </trkpt>
      <trkpt lat="45.36025" lon="6.82168">
        <ele>2417.0198</ele>
        <time>2015-08-25T10:41:23Z</time>
      </trkpt>
      <trkpt lat="45.3602" lon="6.82174">
        <ele>2417.0198</ele>
        <time>2015-08-25T10:41:33Z</time>
      </trkpt>
      <trkpt lat="45.36021" lon="6.82174">
        <ele>2418.5693</ele>
        <time>2015-08-25T10:41:38Z</time>
      </trkpt>
      <trkpt lat="45.36024" lon="6.82172">
        <ele>2418.5693</ele>
        <time>2015-08-25T10:41:48Z</time>
      </trkpt>
      <trkpt lat="45.36025" lon="6.82169">
        <ele>2418.5693</ele>
        <time>2015-08-25T10:41:53Z</time>
      </trkpt>
      <trkpt lat="45.36022" lon="6.82167">
        <ele>2418.5693</ele>
        <time>2015-08-25T10:42:03Z</time>
      </trkpt>
      <trkpt lat="45.36021" lon="6.82166">
        <ele>2420.1914</ele>
        <time>2015-08-25T10:42:08Z</time>
      </trkpt>
      <trkpt lat="45.36013" lon="6.82162">
        <ele>2420.1914</ele>
        <time>2015-08-25T10:42:23Z</time>
      </trkpt>
      <trkpt lat="45.3601" lon="6.82162">
        <ele>2421.538</ele>
        <time>2015-08-25T10:42:28Z</time>
      </trkpt>
      <trkpt lat="45.36002" lon="6.82159">
        <ele>2421.538</ele>
        <time>2015-08-25T10:42:38Z</time>
      </trkpt>
      <trkpt lat="45.35999" lon="6.82157">
        <ele>2422.8066</ele>
        <time>2015-08-25T10:42:43Z</time>
      </trkpt>
      <trkpt lat="45.35991" lon="6.82152">
        <ele>2422.8066</ele>
        <time>2015-08-25T10:42:53Z</time>
      </trkpt>
      <trkpt lat="45.35988" lon="6.8215">
        <ele>2423.9495</ele>
        <time>2015-08-25T10:42:58Z</time>
      </trkpt>
      <trkpt lat="45.35986" lon="6.82148">
        <ele>2423.9495</ele>
        <time>2015-08-25T10:43:08Z</time>
      </trkpt>
      <trkpt lat="45.35987" lon="6.82147">
        <ele>2423.9495</ele>
        <time>2015-08-25T10:43:13Z</time>
      </trkpt>
      <trkpt lat="45.35988" lon="6.82147">
        <ele>2423.9495</ele>
        <time>2015-08-25T10:43:23Z</time>
      </trkpt>
      <trkpt lat="45.35985" lon="6.82146">
        <ele>2423.9495</ele>
        <time>2015-08-25T10:43:28Z</time>
      </trkpt>
      <trkpt lat="45.3598" lon="6.82144">
        <ele>2425.1968</ele>
        <time>2015-08-25T10:43:38Z</time>
      </trkpt>
      <trkpt lat="45.35978" lon="6.82142">
        <ele>2425.1968</ele>
        <time>2015-08-25T10:43:43Z</time>
      </trkpt>
      <trkpt lat="45.35973" lon="6.82135">
        <ele>2426.2996</ele>
        <time>2015-08-25T10:43:53Z</time>
      </trkpt>
      <trkpt lat="45.35972" lon="6.82131">
        <ele>2426.2996</ele>
        <time>2015-08-25T10:43:58Z</time>
      </trkpt>
      <trkpt lat="45.3597" lon="6.82123">
        <ele>2426.2996</ele>
        <time>2015-08-25T10:44:08Z</time>
      </trkpt>
      <trkpt lat="45.35969" lon="6.8212">
        <ele>2427.2585</ele>
        <time>2015-08-25T10:44:13Z</time>
      </trkpt>
      <trkpt lat="45.35964" lon="6.82107">
        <ele>2428.2185</ele>
        <time>2015-08-25T10:44:28Z</time>
      </trkpt>
      <trkpt lat="45.35963" lon="6.82103">
        <ele>2428.2185</ele>
        <time>2015-08-25T10:44:33Z</time>
      </trkpt>
      <trkpt lat="45.35961" lon="6.82097">
        <ele>2428.2185</ele>
        <time>2015-08-25T10:44:43Z</time>
      </trkpt>
      <trkpt lat="45.3596" lon="6.82095">
        <ele>2429.2852</ele>
        <time>2015-08-25T10:44:48Z</time>
      </trkpt>
      <trkpt lat="45.35959" lon="6.82089">
        <ele>2429.2852</ele>
        <time>2015-08-25T10:44:58Z</time>
      </trkpt>
      <trkpt lat="45.35959" lon="6.82085">
        <ele>2429.2852</ele>
        <time>2015-08-25T10:45:03Z</time>
      </trkpt>
      <trkpt lat="45.35956" lon="6.82077">
        <ele>2430.4258</ele>
        <time>2015-08-25T10:45:13Z</time>
      </trkpt>
      <trkpt lat="45.35956" lon="6.82074">
        <ele>2430.4258</ele>
        <time>2015-08-25T10:45:18Z</time>
      </trkpt>
      <trkpt lat="45.35955" lon="6.82067">
        <ele>2430.4258</ele>
        <time>2015-08-25T10:45:28Z</time>
      </trkpt>
      <trkpt lat="45.35953" lon="6.82064">
        <ele>2431.3792</ele>
        <time>2015-08-25T10:45:33Z</time>
      </trkpt>
      <trkpt lat="45.35947" lon="6.82061">
        <ele>2431.3792</ele>
        <time>2015-08-25T10:45:43Z</time>
      </trkpt>
      <trkpt lat="45.35945" lon="6.82057">
        <ele>2432.12</ele>
        <time>2015-08-25T10:45:48Z</time>
      </trkpt>
      <trkpt lat="45.35947" lon="6.82045">
        <ele>2432.12</ele>
        <time>2015-08-25T10:45:58Z</time>
      </trkpt>
      <trkpt lat="45.35948" lon="6.82039">
        <ele>2432.9282</ele>
        <time>2015-08-25T10:46:03Z</time>
      </trkpt>
      <trkpt lat="45.35949" lon="6.8203">
        <ele>2432.9282</ele>
        <time>2015-08-25T10:46:13Z</time>
      </trkpt>
      <trkpt lat="45.35951" lon="6.82028">
        <ele>2432.9282</ele>
        <time>2015-08-25T10:46:18Z</time>
      </trkpt>
      <trkpt lat="45.35951" lon="6.82022">
        <ele>2433.745</ele>
        <time>2015-08-25T10:46:28Z</time>
      </trkpt>
      <trkpt lat="45.35952" lon="6.82016">
        <ele>2433.745</ele>
        <time>2015-08-25T10:46:33Z</time>
      </trkpt>
      <trkpt lat="45.35948" lon="6.82009">
        <ele>2434.7188</ele>
        <time>2015-08-25T10:46:43Z</time>
      </trkpt>
      <trkpt lat="45.35948" lon="6.82004">
        <ele>2434.7188</ele>
        <time>2015-08-25T10:46:48Z</time>
      </trkpt>
      <trkpt lat="45.35949" lon="6.81995">
        <ele>2435.7832</ele>
        <time>2015-08-25T10:46:58Z</time>
      </trkpt>
      <trkpt lat="45.3595" lon="6.8199">
        <ele>2435.7832</ele>
        <time>2015-08-25T10:47:03Z</time>
      </trkpt>
      <trkpt lat="45.35951" lon="6.81983">
        <ele>2435.7832</ele>
        <time>2015-08-25T10:47:13Z</time>
      </trkpt>
      <trkpt lat="45.35952" lon="6.81979">
        <ele>2436.9783</ele>
        <time>2015-08-25T10:47:18Z</time>
      </trkpt>
      <trkpt lat="45.3595" lon="6.81974">
        <ele>2436.9783</ele>
        <time>2015-08-25T10:47:28Z</time>
      </trkpt>
      <trkpt lat="45.3595" lon="6.81968">
        <ele>2436.9783</ele>
        <time>2015-08-25T10:47:33Z</time>
      </trkpt>
      <trkpt lat="45.35951" lon="6.81962">
        <ele>2438.2249</ele>
        <time>2015-08-25T10:47:43Z</time>
      </trkpt>
      <trkpt lat="45.35949" lon="6.81959">
        <ele>2438.2249</ele>
        <time>2015-08-25T10:47:48Z</time>
      </trkpt>
      <trkpt lat="45.35943" lon="6.81955">
        <ele>2439.5508</ele>
        <time>2015-08-25T10:48:03Z</time>
      </trkpt>
      <trkpt lat="45.35942" lon="6.81954">
        <ele>2439.5508</ele>
        <time>2015-08-25T10:48:08Z</time>
      </trkpt>
      <trkpt lat="45.35937" lon="6.81949">
        <ele>2439.5508</ele>
        <time>2015-08-25T10:48:18Z</time>
      </trkpt>
      <trkpt lat="45.35935" lon="6.81947">
        <ele>2440.8364</ele>
        <time>2015-08-25T10:48:23Z</time>
      </trkpt>
      <trkpt lat="45.3593" lon="6.81945">
        <ele>2440.8364</ele>
        <time>2015-08-25T10:48:33Z</time>
      </trkpt>
      <trkpt lat="45.35926" lon="6.81945">
        <ele>2442.1445</ele>
        <time>2015-08-25T10:48:38Z</time>
      </trkpt>
      <trkpt lat="45.35923" lon="6.8194">
        <ele>2442.1445</ele>
        <time>2015-08-25T10:48:48Z</time>
      </trkpt>
      <trkpt lat="45.35922" lon="6.81935">
        <ele>2442.1445</ele>
        <time>2015-08-25T10:48:53Z</time>
      </trkpt>
      <trkpt lat="45.35918" lon="6.81929">
        <ele>2443.5764</ele>
        <time>2015-08-25T10:49:03Z</time>
      </trkpt>
      <trkpt lat="45.35917" lon="6.81926">
        <ele>2443.5764</ele>
        <time>2015-08-25T10:49:08Z</time>
      </trkpt>
      <trkpt lat="45.35912" lon="6.8192">
        <ele>2445.023</ele>
        <time>2015-08-25T10:49:18Z</time>
      </trkpt>
      <trkpt lat="45.35909" lon="6.81915">
        <ele>2445.023</ele>
        <time>2015-08-25T10:49:23Z</time>
      </trkpt>
      <trkpt lat="45.35906" lon="6.81905">
        <ele>2446.5134</ele>
        <time>2015-08-25T10:49:33Z</time>
      </trkpt>
      <trkpt lat="45.35905" lon="6.81902">
        <ele>2446.5134</ele>
        <time>2015-08-25T10:49:38Z</time>
      </trkpt>
      <trkpt lat="45.35899" lon="6.81891">
        <ele>2448.1177</ele>
        <time>2015-08-25T10:49:53Z</time>
      </trkpt>
      <trkpt lat="45.35898" lon="6.81886">
        <ele>2448.1177</ele>
        <time>2015-08-25T10:49:58Z</time>
      </trkpt>
      <trkpt lat="45.35893" lon="6.81878">
        <ele>2449.7124</ele>
        <time>2015-08-25T10:50:08Z</time>
      </trkpt>
      <trkpt lat="45.3589" lon="6.81875">
        <ele>2449.7124</ele>
        <time>2015-08-25T10:50:13Z</time>
      </trkpt>
      <trkpt lat="45.35889" lon="6.8187">
        <ele>2449.7124</ele>
        <time>2015-08-25T10:50:23Z</time>
      </trkpt>
      <trkpt lat="45.35888" lon="6.81866">
        <ele>2451.4282</ele>
        <time>2015-08-25T10:50:28Z</time>
      </trkpt>
      <trkpt lat="45.35886" lon="6.81861">
        <ele>2451.4282</ele>
        <time>2015-08-25T10:50:38Z</time>
      </trkpt>
      <trkpt lat="45.35883" lon="6.8186">
        <ele>2451.4282</ele>
        <time>2015-08-25T10:50:43Z</time>
      </trkpt>
      <trkpt lat="45.35881" lon="6.81859">
        <ele>2453.0693</ele>
        <time>2015-08-25T10:50:53Z</time>
      </trkpt>
      <trkpt lat="45.35879" lon="6.81858">
        <ele>2453.0693</ele>
        <time>2015-08-25T10:50:58Z</time>
      </trkpt>
      <trkpt lat="45.35877" lon="6.81859">
        <ele>2453.0693</ele>
        <time>2015-08-25T10:51:08Z</time>
      </trkpt>
      <trkpt lat="45.35876" lon="6.81861">
        <ele>2453.0693</ele>
        <time>2015-08-25T10:51:13Z</time>
      </trkpt>
      <trkpt lat="45.35877" lon="6.81859">
        <ele>2453.0693</ele>
        <time>2015-08-25T10:51:23Z</time>
      </trkpt>
      <trkpt lat="45.35877" lon="6.81859">
        <ele>2453.0693</ele>
        <time>2015-08-25T10:51:28Z</time>
      </trkpt>
      <trkpt lat="45.35877" lon="6.81861">
        <ele>2454.8574</ele>
        <time>2015-08-25T10:51:38Z</time>
      </trkpt>
      <trkpt lat="45.35877" lon="6.81861">
        <ele>2454.8574</ele>
        <time>2015-08-25T10:51:43Z</time>
      </trkpt>
      <trkpt lat="45.35879" lon="6.81858">
        <ele>2454.8574</ele>
        <time>2015-08-25T10:51:53Z</time>
      </trkpt>
      <trkpt lat="45.3588" lon="6.81859">
        <ele>2454.8574</ele>
        <time>2015-08-25T10:51:58Z</time>
      </trkpt>
      <trkpt lat="45.35877" lon="6.81856">
        <ele>2454.8574</ele>
        <time>2015-08-25T10:52:13Z</time>
      </trkpt>
      <trkpt lat="45.35874" lon="6.81856">
        <ele>2456.565</ele>
        <time>2015-08-25T10:52:18Z</time>
      </trkpt>
      <trkpt lat="45.35874" lon="6.81858">
        <ele>2456.565</ele>
        <time>2015-08-25T10:52:28Z</time>
      </trkpt>
      <trkpt lat="45.35874" lon="6.81857">
        <ele>2456.565</ele>
        <time>2015-08-25T10:52:33Z</time>
      </trkpt>
      <trkpt lat="45.35874" lon="6.81857">
        <ele>2456.565</ele>
        <time>2015-08-25T10:52:43Z</time>
      </trkpt>
      <trkpt lat="45.35874" lon="6.81856">
        <ele>2456.565</ele>
        <time>2015-08-25T10:54:08Z</time>
      </trkpt>
      <trkpt lat="45.35874" lon="6.81856">
        <ele>2456.565</ele>
        <time>2015-08-25T10:54:13Z</time>
      </trkpt>
      <trkpt lat="45.35874" lon="6.81857">
        <ele>2456.565</ele>
        <time>2015-08-25T10:55:08Z</time>
      </trkpt>
      <trkpt lat="45.35873" lon="6.81854">
        <ele>2456.565</ele>
        <time>2015-08-25T10:55:18Z</time>
      </trkpt>
      <trkpt lat="45.35873" lon="6.81854">
        <ele>2456.565</ele>
        <time>2015-08-25T10:55:23Z</time>
      </trkpt>
      <trkpt lat="45.35871" lon="6.81852">
        <ele>2456.565</ele>
        <time>2015-08-25T10:55:33Z</time>
      </trkpt>
      <trkpt lat="45.35872" lon="6.81853">
        <ele>2458.8176</ele>
        <time>2015-08-25T10:55:38Z</time>
      </trkpt>
      <trkpt lat="45.35874" lon="6.81854">
        <ele>2458.8176</ele>
        <time>2015-08-25T10:55:48Z</time>
      </trkpt>
      <trkpt lat="45.35874" lon="6.81853">
        <ele>2458.8176</ele>
        <time>2015-08-25T10:55:53Z</time>
      </trkpt>
      <trkpt lat="45.35874" lon="6.81853">
        <ele>2458.8176</ele>
        <time>2015-08-25T10:56:03Z</time>
      </trkpt>
      <trkpt lat="45.35873" lon="6.81854">
        <ele>2458.8176</ele>
        <time>2015-08-25T11:03:23Z</time>
      </trkpt>
      <trkpt lat="45.35873" lon="6.81857">
        <ele>2458.8176</ele>
        <time>2015-08-25T11:04:28Z</time>
      </trkpt>
      <trkpt lat="45.35873" lon="6.81859">
        <ele>2458.8176</ele>
        <time>2015-08-25T11:04:38Z</time>
      </trkpt>
      <trkpt lat="45.35873" lon="6.81858">
        <ele>2458.8176</ele>
        <time>2015-08-25T11:05:58Z</time>
      </trkpt>
      <trkpt lat="45.35873" lon="6.81857">
        <ele>2461.0833</ele>
        <time>2015-08-25T11:06:03Z</time>
      </trkpt>
      <trkpt lat="45.35873" lon="6.81856">
        <ele>2461.0833</ele>
        <time>2015-08-25T11:06:13Z</time>
      </trkpt>
      <trkpt lat="45.35875" lon="6.81857">
        <ele>2461.0833</ele>
        <time>2015-08-25T11:08:23Z</time>
      </trkpt>
      <trkpt lat="45.35876" lon="6.81858">
        <ele>2461.0833</ele>
        <time>2015-08-25T11:08:33Z</time>
      </trkpt>
      <trkpt lat="45.35875" lon="6.8186">
        <ele>2461.0833</ele>
        <time>2015-08-25T11:08:48Z</time>
      </trkpt>
      <trkpt lat="45.35871" lon="6.8186">
        <ele>2463.0854</ele>
        <time>2015-08-25T11:08:53Z</time>
      </trkpt>
      <trkpt lat="45.3587" lon="6.81861">
        <ele>2463.0854</ele>
        <time>2015-08-25T11:09:03Z</time>
      </trkpt>
      <trkpt lat="45.35874" lon="6.8186">
        <ele>2463.0854</ele>
        <time>2015-08-25T11:09:23Z</time>
      </trkpt>
      <trkpt lat="45.35874" lon="6.8186">
        <ele>2463.0854</ele>
        <time>2015-08-25T11:09:28Z</time>
      </trkpt>
      <trkpt lat="45.35873" lon="6.8186">
        <ele>2463.0854</ele>
        <time>2015-08-25T11:09:43Z</time>
      </trkpt>
      <trkpt lat="45.35873" lon="6.8186">
        <ele>2463.0854</ele>
        <time>2015-08-25T11:09:53Z</time>
      </trkpt>
      <trkpt lat="45.35873" lon="6.81859">
        <ele>2463.0854</ele>
        <time>2015-08-25T11:10:53Z</time>
      </trkpt>
      <trkpt lat="45.35873" lon="6.81859">
        <ele>2463.0854</ele>
        <time>2015-08-25T11:10:58Z</time>
      </trkpt>
      <trkpt lat="45.35872" lon="6.8186">
        <ele>2463.0854</ele>
        <time>2015-08-25T11:11:58Z</time>
      </trkpt>
      <trkpt lat="45.35871" lon="6.81861">
        <ele>2463.0854</ele>
        <time>2015-08-25T11:16:03Z</time>
      </trkpt>
      <trkpt lat="45.35873" lon="6.81861">
        <ele>2464.1506</ele>
        <time>2015-08-25T11:17:28Z</time>
      </trkpt>
      <trkpt lat="45.35873" lon="6.81861">
        <ele>2464.1506</ele>
        <time>2015-08-25T11:17:58Z</time>
      </trkpt>
      <trkpt lat="45.35873" lon="6.81861">
        <ele>2464.1506</ele>
        <time>2015-08-25T11:18:03Z</time>
      </trkpt>
      <trkpt lat="45.35874" lon="6.81862">
        <ele>2464.1506</ele>
        <time>2015-08-25T11:18:13Z</time>
      </trkpt>
      <trkpt lat="45.35874" lon="6.81862">
        <ele>2464.1506</ele>
        <time>2015-08-25T11:18:18Z</time>
      </trkpt>
      <trkpt lat="45.35876" lon="6.81861">
        <ele>2464.1506</ele>
        <time>2015-08-25T11:19:08Z</time>
      </trkpt>
      <trkpt lat="45.35875" lon="6.81862">
        <ele>2464.1506</ele>
        <time>2015-08-25T11:19:13Z</time>
      </trkpt>
      <trkpt lat="45.35875" lon="6.81862">
        <ele>2464.1506</ele>
        <time>2015-08-25T11:19:28Z</time>
      </trkpt>
      <trkpt lat="45.35875" lon="6.81861">
        <ele>2464.1506</ele>
        <time>2015-08-25T11:19:33Z</time>
      </trkpt>
      <trkpt lat="45.35878" lon="6.8186">
        <ele>2464.1506</ele>
        <time>2015-08-25T11:19:43Z</time>
      </trkpt>
      <trkpt lat="45.35878" lon="6.8186">
        <ele>2464.1506</ele>
        <time>2015-08-25T11:19:48Z</time>
      </trkpt>
      <trkpt lat="45.35878" lon="6.8186">
        <ele>2465.444</ele>
        <time>2015-08-25T11:20:43Z</time>
      </trkpt>
      <trkpt lat="45.35878" lon="6.81859">
        <ele>2465.444</ele>
        <time>2015-08-25T11:21:33Z</time>
      </trkpt>
      <trkpt lat="45.35877" lon="6.81857">
        <ele>2465.444</ele>
        <time>2015-08-25T11:21:53Z</time>
      </trkpt>
      <trkpt lat="45.35877" lon="6.81857">
        <ele>2465.444</ele>
        <time>2015-08-25T11:22:03Z</time>
      </trkpt>
      <trkpt lat="45.35874" lon="6.81851">
        <ele>2465.444</ele>
        <time>2015-08-25T11:22:33Z</time>
      </trkpt>
      <trkpt lat="45.35871" lon="6.81838">
        <ele>2466.8347</ele>
        <time>2015-08-25T11:22:38Z</time>
      </trkpt>
      <trkpt lat="45.35869" lon="6.81833">
        <ele>2466.8347</ele>
        <time>2015-08-25T11:22:48Z</time>
      </trkpt>
      <trkpt lat="45.35867" lon="6.81828">
        <ele>2466.8347</ele>
        <time>2015-08-25T11:22:53Z</time>
      </trkpt>
      <trkpt lat="45.35856" lon="6.81814">
        <ele>2468.0562</ele>
        <time>2015-08-25T11:23:08Z</time>
      </trkpt>
      <trkpt lat="45.35852" lon="6.8181">
        <ele>2468.0562</ele>
        <time>2015-08-25T11:23:13Z</time>
      </trkpt>
      <trkpt lat="45.35851" lon="6.81802">
        <ele>2469.021</ele>
        <time>2015-08-25T11:23:23Z</time>
      </trkpt>
      <trkpt lat="45.35849" lon="6.81797">
        <ele>2469.021</ele>
        <time>2015-08-25T11:23:28Z</time>
      </trkpt>
      <trkpt lat="45.35845" lon="6.81791">
        <ele>2469.4465</ele>
        <time>2015-08-25T11:23:38Z</time>
      </trkpt>
      <trkpt lat="45.35842" lon="6.81786">
        <ele>2469.4465</ele>
        <time>2015-08-25T11:23:43Z</time>
      </trkpt>
      <trkpt lat="45.35838" lon="6.8178">
        <ele>2469.6064</ele>
        <time>2015-08-25T11:23:53Z</time>
      </trkpt>
      <trkpt lat="45.35834" lon="6.81775">
        <ele>2469.6064</ele>
        <time>2015-08-25T11:23:58Z</time>
      </trkpt>
      <trkpt lat="45.35828" lon="6.81765">
        <ele>2469.61</ele>
        <time>2015-08-25T11:24:08Z</time>
      </trkpt>
      <trkpt lat="45.35825" lon="6.8176">
        <ele>2469.61</ele>
        <time>2015-08-25T11:24:13Z</time>
      </trkpt>
      <trkpt lat="45.35817" lon="6.8175">
        <ele>2469.4011</ele>
        <time>2015-08-25T11:24:23Z</time>
      </trkpt>
      <trkpt lat="45.35813" lon="6.81745">
        <ele>2469.4011</ele>
        <time>2015-08-25T11:24:28Z</time>
      </trkpt>
      <trkpt lat="45.35806" lon="6.81739">
        <ele>2469.043</ele>
        <time>2015-08-25T11:24:38Z</time>
      </trkpt>
      <trkpt lat="45.35804" lon="6.81736">
        <ele>2469.043</ele>
        <time>2015-08-25T11:24:43Z</time>
      </trkpt>
      <trkpt lat="45.35796" lon="6.81726">
        <ele>2468.4648</ele>
        <time>2015-08-25T11:24:58Z</time>
      </trkpt>
      <trkpt lat="45.35792" lon="6.8172">
        <ele>2468.4648</ele>
        <time>2015-08-25T11:25:03Z</time>
      </trkpt>
      <trkpt lat="45.35789" lon="6.81713">
        <ele>2467.5303</ele>
        <time>2015-08-25T11:25:13Z</time>
      </trkpt>
      <trkpt lat="45.35786" lon="6.8171">
        <ele>2467.5303</ele>
        <time>2015-08-25T11:25:18Z</time>
      </trkpt>
      <trkpt lat="45.35781" lon="6.81701">
        <ele>2466.257</ele>
        <time>2015-08-25T11:25:28Z</time>
      </trkpt>
      <trkpt lat="45.35778" lon="6.817">
        <ele>2466.257</ele>
        <time>2015-08-25T11:25:33Z</time>
      </trkpt>
      <trkpt lat="45.35771" lon="6.81694">
        <ele>2464.7783</ele>
        <time>2015-08-25T11:25:43Z</time>
      </trkpt>
      <trkpt lat="45.35769" lon="6.81694">
        <ele>2464.7783</ele>
        <time>2015-08-25T11:25:48Z</time>
      </trkpt>
      <trkpt lat="45.35763" lon="6.81687">
        <ele>2463.189</ele>
        <time>2015-08-25T11:25:58Z</time>
      </trkpt>
      <trkpt lat="45.3576" lon="6.81684">
        <ele>2463.189</ele>
        <time>2015-08-25T11:26:03Z</time>
      </trkpt>
      <trkpt lat="45.35747" lon="6.81677">
        <ele>2461.6345</ele>
        <time>2015-08-25T11:26:18Z</time>
      </trkpt>
      <trkpt lat="45.35742" lon="6.81672">
        <ele>2461.6345</ele>
        <time>2015-08-25T11:26:23Z</time>
      </trkpt>
      <trkpt lat="45.35737" lon="6.81666">
        <ele>2460.1921</ele>
        <time>2015-08-25T11:26:33Z</time>
      </trkpt>
      <trkpt lat="45.35736" lon="6.81663">
        <ele>2460.1921</ele>
        <time>2015-08-25T11:26:38Z</time>
      </trkpt>
      <trkpt lat="45.35731" lon="6.81656">
        <ele>2458.7603</ele>
        <time>2015-08-25T11:26:48Z</time>
      </trkpt>
      <trkpt lat="45.35729" lon="6.81653">
        <ele>2458.7603</ele>
        <time>2015-08-25T11:26:53Z</time>
      </trkpt>
      <trkpt lat="45.35724" lon="6.81649">
        <ele>2458.7603</ele>
        <time>2015-08-25T11:27:03Z</time>
      </trkpt>
      <trkpt lat="45.35722" lon="6.81645">
        <ele>2457.4885</ele>
        <time>2015-08-25T11:27:08Z</time>
      </trkpt>
      <trkpt lat="45.3572" lon="6.81642">
        <ele>2457.4885</ele>
        <time>2015-08-25T11:27:18Z</time>
      </trkpt>
      <trkpt lat="45.35717" lon="6.81641">
        <ele>2457.4885</ele>
        <time>2015-08-25T11:27:23Z</time>
      </trkpt>
      <trkpt lat="45.35713" lon="6.81633">
        <ele>2456.4153</ele>
        <time>2015-08-25T11:27:33Z</time>
      </trkpt>
      <trkpt lat="45.35711" lon="6.81632">
        <ele>2456.4153</ele>
        <time>2015-08-25T11:27:38Z</time>
      </trkpt>
      <trkpt lat="45.35707" lon="6.81628">
        <ele>2456.4153</ele>
        <time>2015-08-25T11:27:48Z</time>
      </trkpt>
      <trkpt lat="45.35706" lon="6.81626">
        <ele>2456.4153</ele>
        <time>2015-08-25T11:27:53Z</time>
      </trkpt>
      <trkpt lat="45.35703" lon="6.8162">
        <ele>2455.8772</ele>
        <time>2015-08-25T11:28:03Z</time>
      </trkpt>
      <trkpt lat="45.35701" lon="6.81617">
        <ele>2455.8772</ele>
        <time>2015-08-25T11:28:08Z</time>
      </trkpt>
      <trkpt lat="45.357" lon="6.8161">
        <ele>2455.8772</ele>
        <time>2015-08-25T11:28:18Z</time>
      </trkpt>
      <trkpt lat="45.357" lon="6.81608">
        <ele>2455.796</ele>
        <time>2015-08-25T11:28:23Z</time>
      </trkpt>
      <trkpt lat="45.35699" lon="6.81603">
        <ele>2455.796</ele>
        <time>2015-08-25T11:28:38Z</time>
      </trkpt>
      <trkpt lat="45.35698" lon="6.816">
        <ele>2455.796</ele>
        <time>2015-08-25T11:28:43Z</time>
      </trkpt>
      <trkpt lat="45.35695" lon="6.81591">
        <ele>2456.2263</ele>
        <time>2015-08-25T11:28:53Z</time>
      </trkpt>
      <trkpt lat="45.35694" lon="6.81587">
        <ele>2456.2263</ele>
        <time>2015-08-25T11:28:58Z</time>
      </trkpt>
      <trkpt lat="45.35693" lon="6.81578">
        <ele>2456.2263</ele>
        <time>2015-08-25T11:29:08Z</time>
      </trkpt>
      <trkpt lat="45.35694" lon="6.81575">
        <ele>2456.8728</ele>
        <time>2015-08-25T11:29:13Z</time>
      </trkpt>
      <trkpt lat="45.35693" lon="6.81565">
        <ele>2456.8728</ele>
        <time>2015-08-25T11:29:23Z</time>
      </trkpt>
      <trkpt lat="45.35692" lon="6.81561">
        <ele>2457.7336</ele>
        <time>2015-08-25T11:29:28Z</time>
      </trkpt>
      <trkpt lat="45.3569" lon="6.81551">
        <ele>2457.7336</ele>
        <time>2015-08-25T11:29:38Z</time>
      </trkpt>
      <trkpt lat="45.3569" lon="6.81544">
        <ele>2458.6917</ele>
        <time>2015-08-25T11:29:43Z</time>
      </trkpt>
      <trkpt lat="45.35685" lon="6.81539">
        <ele>2458.6917</ele>
        <time>2015-08-25T11:29:53Z</time>
      </trkpt>
      <trkpt lat="45.35682" lon="6.81537">
        <ele>2459.9116</ele>
        <time>2015-08-25T11:29:58Z</time>
      </trkpt>
      <trkpt lat="45.35676" lon="6.81528">
        <ele>2459.9116</ele>
        <time>2015-08-25T11:30:08Z</time>
      </trkpt>
      <trkpt lat="45.35673" lon="6.81524">
        <ele>2461.0696</ele>
        <time>2015-08-25T11:30:13Z</time>
      </trkpt>
      <trkpt lat="45.35669" lon="6.81519">
        <ele>2461.0696</ele>
        <time>2015-08-25T11:30:23Z</time>
      </trkpt>
      <trkpt lat="45.35666" lon="6.81514">
        <ele>2462.1108</ele>
        <time>2015-08-25T11:30:28Z</time>
      </trkpt>
      <trkpt lat="45.35664" lon="6.81497">
        <ele>2463.1284</ele>
        <time>2015-08-25T11:30:43Z</time>
      </trkpt>
      <trkpt lat="45.35666" lon="6.81493">
        <ele>2463.1284</ele>
        <time>2015-08-25T11:30:48Z</time>
      </trkpt>
      <trkpt lat="45.35666" lon="6.81485">
        <ele>2464.2239</ele>
        <time>2015-08-25T11:30:58Z</time>
      </trkpt>
      <trkpt lat="45.35665" lon="6.81481">
        <ele>2464.2239</ele>
        <time>2015-08-25T11:31:03Z</time>
      </trkpt>
      <trkpt lat="45.35661" lon="6.81475">
        <ele>2464.2239</ele>
        <time>2015-08-25T11:31:13Z</time>
      </trkpt>
      <trkpt lat="45.3566" lon="6.81472">
        <ele>2465.4465</ele>
        <time>2015-08-25T11:31:18Z</time>
      </trkpt>
      <trkpt lat="45.35658" lon="6.81469">
        <ele>2465.4465</ele>
        <time>2015-08-25T11:31:28Z</time>
      </trkpt>
      <trkpt lat="45.35657" lon="6.81467">
        <ele>2465.4465</ele>
        <time>2015-08-25T11:31:33Z</time>
      </trkpt>
      <trkpt lat="45.35653" lon="6.81461">
        <ele>2466.8284</ele>
        <time>2015-08-25T11:31:43Z</time>
      </trkpt>
      <trkpt lat="45.35653" lon="6.81459">
        <ele>2466.8284</ele>
        <time>2015-08-25T11:31:48Z</time>
      </trkpt>
      <trkpt lat="45.35651" lon="6.81453">
        <ele>2466.8284</ele>
        <time>2015-08-25T11:31:58Z</time>
      </trkpt>
      <trkpt lat="45.3565" lon="6.81449">
        <ele>2466.8284</ele>
        <time>2015-08-25T11:32:03Z</time>
      </trkpt>
      <trkpt lat="45.35648" lon="6.81441">
        <ele>2468.4265</ele>
        <time>2015-08-25T11:32:13Z</time>
      </trkpt>
      <trkpt lat="45.35647" lon="6.81437">
        <ele>2468.4265</ele>
        <time>2015-08-25T11:32:18Z</time>
      </trkpt>
      <trkpt lat="45.35643" lon="6.81428">
        <ele>2470.049</ele>
        <time>2015-08-25T11:32:28Z</time>
      </trkpt>
      <trkpt lat="45.35642" lon="6.81427">
        <ele>2470.049</ele>
        <time>2015-08-25T11:32:33Z</time>
      </trkpt>
      <trkpt lat="45.35644" lon="6.81428">
        <ele>2470.049</ele>
        <time>2015-08-25T11:32:43Z</time>
      </trkpt>
      <trkpt lat="45.35644" lon="6.81428">
        <ele>2470.049</ele>
        <time>2015-08-25T11:32:48Z</time>
      </trkpt>
      <trkpt lat="45.35645" lon="6.81428">
        <ele>2470.049</ele>
        <time>2015-08-25T11:32:58Z</time>
      </trkpt>
      <trkpt lat="45.35644" lon="6.8143">
        <ele>2470.049</ele>
        <time>2015-08-25T11:33:03Z</time>
      </trkpt>
      <trkpt lat="45.35644" lon="6.8143">
        <ele>2470.049</ele>
        <time>2015-08-25T11:33:18Z</time>
      </trkpt>
      <trkpt lat="45.35646" lon="6.81431">
        <ele>2470.049</ele>
        <time>2015-08-25T11:33:23Z</time>
      </trkpt>
      <trkpt lat="45.35648" lon="6.81431">
        <ele>2471.748</ele>
        <time>2015-08-25T11:33:33Z</time>
      </trkpt>
      <trkpt lat="45.35647" lon="6.81427">
        <ele>2471.748</ele>
        <time>2015-08-25T11:33:38Z</time>
      </trkpt>
      <trkpt lat="45.35647" lon="6.81421">
        <ele>2471.748</ele>
        <time>2015-08-25T11:33:48Z</time>
      </trkpt>
      <trkpt lat="45.35645" lon="6.81421">
        <ele>2471.748</ele>
        <time>2015-08-25T11:33:53Z</time>
      </trkpt>
      <trkpt lat="45.35643" lon="6.8142">
        <ele>2473.269</ele>
        <time>2015-08-25T11:34:03Z</time>
      </trkpt>
      <trkpt lat="45.35642" lon="6.81422">
        <ele>2473.269</ele>
        <time>2015-08-25T11:34:08Z</time>
      </trkpt>
      <trkpt lat="45.35645" lon="6.8142">
        <ele>2473.269</ele>
        <time>2015-08-25T11:34:18Z</time>
      </trkpt>
      <trkpt lat="45.35648" lon="6.8142">
        <ele>2473.269</ele>
        <time>2015-08-25T11:34:23Z</time>
      </trkpt>
      <trkpt lat="45.35648" lon="6.8142">
        <ele>2473.269</ele>
        <time>2015-08-25T11:34:33Z</time>
      </trkpt>
      <trkpt lat="45.35647" lon="6.81419">
        <ele>2473.269</ele>
        <time>2015-08-25T11:34:38Z</time>
      </trkpt>
      <trkpt lat="45.35646" lon="6.81418">
        <ele>2473.269</ele>
        <time>2015-08-25T11:34:48Z</time>
      </trkpt>
      <trkpt lat="45.35644" lon="6.81418">
        <ele>2474.7227</ele>
        <time>2015-08-25T11:34:53Z</time>
      </trkpt>
      <trkpt lat="45.35645" lon="6.81418">
        <ele>2474.7227</ele>
        <time>2015-08-25T11:35:03Z</time>
      </trkpt>
      <trkpt lat="45.35644" lon="6.81419">
        <ele>2474.7227</ele>
        <time>2015-08-25T11:35:08Z</time>
      </trkpt>
      <trkpt lat="45.35645" lon="6.8142">
        <ele>2474.7227</ele>
        <time>2015-08-25T11:35:18Z</time>
      </trkpt>
      <trkpt lat="45.35645" lon="6.81422">
        <ele>2474.7227</ele>
        <time>2015-08-25T11:35:23Z</time>
      </trkpt>
      <trkpt lat="45.35645" lon="6.81423">
        <ele>2474.7227</ele>
        <time>2015-08-25T11:35:38Z</time>
      </trkpt>
      <trkpt lat="45.35645" lon="6.81423">
        <ele>2474.7227</ele>
        <time>2015-08-25T11:36:38Z</time>
      </trkpt>
      <trkpt lat="45.35646" lon="6.81415">
        <ele>2476.2117</ele>
        <time>2015-08-25T11:37:23Z</time>
      </trkpt>
      <trkpt lat="45.35648" lon="6.81407">
        <ele>2476.2117</ele>
        <time>2015-08-25T11:37:28Z</time>
      </trkpt>
      <trkpt lat="45.35644" lon="6.81387">
        <ele>2477.2402</ele>
        <time>2015-08-25T11:37:43Z</time>
      </trkpt>
      <trkpt lat="45.35645" lon="6.8138">
        <ele>2477.2402</ele>
        <time>2015-08-25T11:37:48Z</time>
      </trkpt>
      <trkpt lat="45.35647" lon="6.8137">
        <ele>2478.1719</ele>
        <time>2015-08-25T11:37:58Z</time>
      </trkpt>
      <trkpt lat="45.35647" lon="6.81364">
        <ele>2478.1719</ele>
        <time>2015-08-25T11:38:03Z</time>
      </trkpt>
      <trkpt lat="45.35649" lon="6.81353">
        <ele>2479.0266</ele>
        <time>2015-08-25T11:38:13Z</time>
      </trkpt>
      <trkpt lat="45.35649" lon="6.81344">
        <ele>2479.0266</ele>
        <time>2015-08-25T11:38:18Z</time>
      </trkpt>
      <trkpt lat="45.35652" lon="6.81331">
        <ele>2479.5635</ele>
        <time>2015-08-25T11:38:28Z</time>
      </trkpt>
      <trkpt lat="45.35654" lon="6.81326">
        <ele>2479.5635</ele>
        <time>2015-08-25T11:38:33Z</time>
      </trkpt>
      <trkpt lat="45.35656" lon="6.81317">
        <ele>2479.7048</ele>
        <time>2015-08-25T11:38:43Z</time>
      </trkpt>
      <trkpt lat="45.35658" lon="6.81311">
        <ele>2479.7048</ele>
        <time>2015-08-25T11:38:48Z</time>
      </trkpt>
      <trkpt lat="45.35661" lon="6.81299">
        <ele>2479.6677</ele>
        <time>2015-08-25T11:38:58Z</time>
      </trkpt>
      <trkpt lat="45.35662" lon="6.8129">
        <ele>2479.6677</ele>
        <time>2015-08-25T11:39:03Z</time>
      </trkpt>
      <trkpt lat="45.35667" lon="6.81279">
        <ele>2479.524</ele>
        <time>2015-08-25T11:39:13Z</time>
      </trkpt>
      <trkpt lat="45.35668" lon="6.81274">
        <ele>2479.524</ele>
        <time>2015-08-25T11:39:18Z</time>
      </trkpt>
      <trkpt lat="45.35676" lon="6.81265">
        <ele>2478.606</ele>
        <time>2015-08-25T11:39:28Z</time>
      </trkpt>
      <trkpt lat="45.35677" lon="6.81261">
        <ele>2478.606</ele>
        <time>2015-08-25T11:39:33Z</time>
      </trkpt>
      <trkpt lat="45.3568" lon="6.81251">
        <ele>2477.5508</ele>
        <time>2015-08-25T11:39:43Z</time>
      </trkpt>
      <trkpt lat="45.35681" lon="6.81247">
        <ele>2477.5508</ele>
        <time>2015-08-25T11:39:48Z</time>
      </trkpt>
      <trkpt lat="45.35679" lon="6.81233">
        <ele>2476.6895</ele>
        <time>2015-08-25T11:39:58Z</time>
      </trkpt>
      <trkpt lat="45.35676" lon="6.81227">
        <ele>2476.6895</ele>
        <time>2015-08-25T11:40:03Z</time>
      </trkpt>
      <trkpt lat="45.35677" lon="6.81207">
        <ele>2475.5938</ele>
        <time>2015-08-25T11:40:18Z</time>
      </trkpt>
      <trkpt lat="45.35678" lon="6.81205">
        <ele>2475.5938</ele>
        <time>2015-08-25T11:40:23Z</time>
      </trkpt>
      <trkpt lat="45.35682" lon="6.81195">
        <ele>2474.2415</ele>
        <time>2015-08-25T11:40:33Z</time>
      </trkpt>
      <trkpt lat="45.35684" lon="6.81188">
        <ele>2474.2415</ele>
        <time>2015-08-25T11:40:38Z</time>
      </trkpt>
      <trkpt lat="45.35686" lon="6.81176">
        <ele>2472.9883</ele>
        <time>2015-08-25T11:40:48Z</time>
      </trkpt>
      <trkpt lat="45.35687" lon="6.81169">
        <ele>2472.9883</ele>
        <time>2015-08-25T11:40:53Z</time>
      </trkpt>
      <trkpt lat="45.35694" lon="6.81153">
        <ele>2471.716</ele>
        <time>2015-08-25T11:41:03Z</time>
      </trkpt>
      <trkpt lat="45.35695" lon="6.81145">
        <ele>2471.716</ele>
        <time>2015-08-25T11:41:08Z</time>
      </trkpt>
      <trkpt lat="45.35699" lon="6.81128">
        <ele>2470.8777</ele>
        <time>2015-08-25T11:41:18Z</time>
      </trkpt>
      <trkpt lat="45.35699" lon="6.81121">
        <ele>2470.8777</ele>
        <time>2015-08-25T11:41:23Z</time>
      </trkpt>
      <trkpt lat="45.35699" lon="6.81108">
        <ele>2470.1704</ele>
        <time>2015-08-25T11:41:33Z</time>
      </trkpt>
      <trkpt lat="45.35698" lon="6.81102">
        <ele>2470.1704</ele>
        <time>2015-08-25T11:41:38Z</time>
      </trkpt>
      <trkpt lat="45.35701" lon="6.81087">
        <ele>2469.5881</ele>
        <time>2015-08-25T11:41:48Z</time>
      </trkpt>
      <trkpt lat="45.35701" lon="6.81083">
        <ele>2469.5881</ele>
        <time>2015-08-25T11:41:53Z</time>
      </trkpt>
      <trkpt lat="45.357" lon="6.81076">
        <ele>2469.5881</ele>
        <time>2015-08-25T11:42:03Z</time>
      </trkpt>
      <trkpt lat="45.35699" lon="6.81073">
        <ele>2469.066</ele>
        <time>2015-08-25T11:42:08Z</time>
      </trkpt>
      <trkpt lat="45.35692" lon="6.81059">
        <ele>2468.7173</ele>
        <time>2015-08-25T11:42:18Z</time>
      </trkpt>
      <trkpt lat="45.3569" lon="6.81055">
        <ele>2468.7173</ele>
        <time>2015-08-25T11:42:23Z</time>
      </trkpt>
      <trkpt lat="45.35686" lon="6.81044">
        <ele>2468.5742</ele>
        <time>2015-08-25T11:42:33Z</time>
      </trkpt>
      <trkpt lat="45.35683" lon="6.81039">
        <ele>2468.5742</ele>
        <time>2015-08-25T11:42:38Z</time>
      </trkpt>
      <trkpt lat="45.35684" lon="6.81026">
        <ele>2468.8245</ele>
        <time>2015-08-25T11:42:48Z</time>
      </trkpt>
      <trkpt lat="45.35688" lon="6.81019">
        <ele>2468.8245</ele>
        <time>2015-08-25T11:42:53Z</time>
      </trkpt>
      <trkpt lat="45.3569" lon="6.81008">
        <ele>2468.7327</ele>
        <time>2015-08-25T11:43:08Z</time>
      </trkpt>
      <trkpt lat="45.35693" lon="6.81001">
        <ele>2468.7327</ele>
        <time>2015-08-25T11:43:13Z</time>
      </trkpt>
      <trkpt lat="45.35696" lon="6.8099">
        <ele>2468.1953</ele>
        <time>2015-08-25T11:43:23Z</time>
      </trkpt>
      <trkpt lat="45.35698" lon="6.80985">
        <ele>2468.1953</ele>
        <time>2015-08-25T11:43:28Z</time>
      </trkpt>
      <trkpt lat="45.35703" lon="6.80973">
        <ele>2467.506</ele>
        <time>2015-08-25T11:43:38Z</time>
      </trkpt>
      <trkpt lat="45.35706" lon="6.80968">
        <ele>2467.506</ele>
        <time>2015-08-25T11:43:43Z</time>
      </trkpt>
      <trkpt lat="45.3571" lon="6.80956">
        <ele>2466.9814</ele>
        <time>2015-08-25T11:43:53Z</time>
      </trkpt>
      <trkpt lat="45.35711" lon="6.80952">
        <ele>2466.9814</ele>
        <time>2015-08-25T11:43:58Z</time>
      </trkpt>
      <trkpt lat="45.35719" lon="6.80943">
        <ele>2466.6543</ele>
        <time>2015-08-25T11:44:08Z</time>
      </trkpt>
      <trkpt lat="45.35722" lon="6.80937">
        <ele>2466.6543</ele>
        <time>2015-08-25T11:44:13Z</time>
      </trkpt>
      <trkpt lat="45.35726" lon="6.80922">
        <ele>2466.482</ele>
        <time>2015-08-25T11:44:23Z</time>
      </trkpt>
      <trkpt lat="45.35726" lon="6.80917">
        <ele>2466.482</ele>
        <time>2015-08-25T11:44:28Z</time>
      </trkpt>
      <trkpt lat="45.35727" lon="6.80907">
        <ele>2466.584</ele>
        <time>2015-08-25T11:44:38Z</time>
      </trkpt>
      <trkpt lat="45.35725" lon="6.80901">
        <ele>2466.584</ele>
        <time>2015-08-25T11:44:43Z</time>
      </trkpt>
      <trkpt lat="45.35724" lon="6.80889">
        <ele>2467.271</ele>
        <time>2015-08-25T11:44:58Z</time>
      </trkpt>
      <trkpt lat="45.35723" lon="6.80884">
        <ele>2467.271</ele>
        <time>2015-08-25T11:45:03Z</time>
      </trkpt>
      <trkpt lat="45.35725" lon="6.80879">
        <ele>2467.271</ele>
        <time>2015-08-25T11:45:13Z</time>
      </trkpt>
      <trkpt lat="45.35726" lon="6.80873">
        <ele>2468.0374</ele>
        <time>2015-08-25T11:45:18Z</time>
      </trkpt>
      <trkpt lat="45.35726" lon="6.80858">
        <ele>2468.8318</ele>
        <time>2015-08-25T11:45:28Z</time>
      </trkpt>
      <trkpt lat="45.35726" lon="6.8085">
        <ele>2468.8318</ele>
        <time>2015-08-25T11:45:33Z</time>
      </trkpt>
      <trkpt lat="45.35727" lon="6.80837">
        <ele>2469.7075</ele>
        <time>2015-08-25T11:45:43Z</time>
      </trkpt>
      <trkpt lat="45.35725" lon="6.80831">
        <ele>2469.7075</ele>
        <time>2015-08-25T11:45:48Z</time>
      </trkpt>
      <trkpt lat="45.35725" lon="6.8082">
        <ele>2470.7712</ele>
        <time>2015-08-25T11:45:58Z</time>
      </trkpt>
      <trkpt lat="45.35725" lon="6.80816">
        <ele>2470.7712</ele>
        <time>2015-08-25T11:46:03Z</time>
      </trkpt>
      <trkpt lat="45.35721" lon="6.80801">
        <ele>2471.891</ele>
        <time>2015-08-25T11:46:13Z</time>
      </trkpt>
      <trkpt lat="45.35722" lon="6.80794">
        <ele>2471.891</ele>
        <time>2015-08-25T11:46:18Z</time>
      </trkpt>
      <trkpt lat="45.35719" lon="6.80784">
        <ele>2473.0884</ele>
        <time>2015-08-25T11:46:28Z</time>
      </trkpt>
      <trkpt lat="45.35719" lon="6.80782">
        <ele>2473.0884</ele>
        <time>2015-08-25T11:46:33Z</time>
      </trkpt>
      <trkpt lat="45.35714" lon="6.80775">
        <ele>2473.0884</ele>
        <time>2015-08-25T11:46:43Z</time>
      </trkpt>
      <trkpt lat="45.35713" lon="6.80773">
        <ele>2474.08</ele>
        <time>2015-08-25T11:46:48Z</time>
      </trkpt>
      <trkpt lat="45.35706" lon="6.80761">
        <ele>2474.5903</ele>
        <time>2015-08-25T11:46:58Z</time>
      </trkpt>
      <trkpt lat="45.35702" lon="6.80755">
        <ele>2474.5903</ele>
        <time>2015-08-25T11:47:03Z</time>
      </trkpt>
      <trkpt lat="45.35698" lon="6.80742">
        <ele>2474.6963</ele>
        <time>2015-08-25T11:47:13Z</time>
      </trkpt>
      <trkpt lat="45.35698" lon="6.80737">
        <ele>2474.6963</ele>
        <time>2015-08-25T11:47:18Z</time>
      </trkpt>
      <trkpt lat="45.35694" lon="6.80725">
        <ele>2474.8164</ele>
        <time>2015-08-25T11:47:28Z</time>
      </trkpt>
      <trkpt lat="45.35694" lon="6.80723">
        <ele>2474.8164</ele>
        <time>2015-08-25T11:47:33Z</time>
      </trkpt>
      <trkpt lat="45.35688" lon="6.80708">
        <ele>2474.5745</ele>
        <time>2015-08-25T11:47:48Z</time>
      </trkpt>
      <trkpt lat="45.35688" lon="6.80704">
        <ele>2474.5745</ele>
        <time>2015-08-25T11:47:53Z</time>
      </trkpt>
      <trkpt lat="45.3569" lon="6.80686">
        <ele>2474.5742</ele>
        <time>2015-08-25T11:48:03Z</time>
      </trkpt>
      <trkpt lat="45.3569" lon="6.80682">
        <ele>2474.5742</ele>
        <time>2015-08-25T11:48:08Z</time>
      </trkpt>
      <trkpt lat="45.3569" lon="6.80672">
        <ele>2475.0432</ele>
        <time>2015-08-25T11:48:18Z</time>
      </trkpt>
      <trkpt lat="45.35692" lon="6.80666">
        <ele>2475.0432</ele>
        <time>2015-08-25T11:48:23Z</time>
      </trkpt>
      <trkpt lat="45.3569" lon="6.80654">
        <ele>2475.6572</ele>
        <time>2015-08-25T11:48:33Z</time>
      </trkpt>
      <trkpt lat="45.35692" lon="6.80649">
        <ele>2475.6572</ele>
        <time>2015-08-25T11:48:38Z</time>
      </trkpt>
      <trkpt lat="45.35695" lon="6.80637">
        <ele>2476.3896</ele>
        <time>2015-08-25T11:48:48Z</time>
      </trkpt>
      <trkpt lat="45.35696" lon="6.80632">
        <ele>2476.3896</ele>
        <time>2015-08-25T11:48:53Z</time>
      </trkpt>
      <trkpt lat="45.35696" lon="6.80621">
        <ele>2477.057</ele>
        <time>2015-08-25T11:49:03Z</time>
      </trkpt>
      <trkpt lat="45.35695" lon="6.80617">
        <ele>2477.057</ele>
        <time>2015-08-25T11:49:08Z</time>
      </trkpt>
      <trkpt lat="45.35693" lon="6.80606">
        <ele>2477.8638</ele>
        <time>2015-08-25T11:49:18Z</time>
      </trkpt>
      <trkpt lat="45.3569" lon="6.80599">
        <ele>2477.8638</ele>
        <time>2015-08-25T11:49:23Z</time>
      </trkpt>
      <trkpt lat="45.35686" lon="6.80586">
        <ele>2478.7832</ele>
        <time>2015-08-25T11:49:33Z</time>
      </trkpt>
      <trkpt lat="45.35685" lon="6.80583">
        <ele>2478.7832</ele>
        <time>2015-08-25T11:49:38Z</time>
      </trkpt>
      <trkpt lat="45.3568" lon="6.80568">
        <ele>2479.6177</ele>
        <time>2015-08-25T11:49:48Z</time>
      </trkpt>
      <trkpt lat="45.35679" lon="6.80565">
        <ele>2479.6177</ele>
        <time>2015-08-25T11:49:53Z</time>
      </trkpt>
      <trkpt lat="45.35674" lon="6.80554">
        <ele>2480.4287</ele>
        <time>2015-08-25T11:50:03Z</time>
      </trkpt>
      <trkpt lat="45.35671" lon="6.80547">
        <ele>2480.4287</ele>
        <time>2015-08-25T11:50:08Z</time>
      </trkpt>
      <trkpt lat="45.35668" lon="6.80535">
        <ele>2481.288</ele>
        <time>2015-08-25T11:50:18Z</time>
      </trkpt>
      <trkpt lat="45.35665" lon="6.80531">
        <ele>2481.288</ele>
        <time>2015-08-25T11:50:23Z</time>
      </trkpt>
      <trkpt lat="45.35661" lon="6.80517">
        <ele>2481.8298</ele>
        <time>2015-08-25T11:50:38Z</time>
      </trkpt>
      <trkpt lat="45.3566" lon="6.80513">
        <ele>2481.8298</ele>
        <time>2015-08-25T11:50:43Z</time>
      </trkpt>
      <trkpt lat="45.35656" lon="6.80506">
        <ele>2482.2493</ele>
        <time>2015-08-25T11:50:53Z</time>
      </trkpt>
      <trkpt lat="45.35655" lon="6.80502">
        <ele>2482.2493</ele>
        <time>2015-08-25T11:50:58Z</time>
      </trkpt>
      <trkpt lat="45.35653" lon="6.80494">
        <ele>2482.5977</ele>
        <time>2015-08-25T11:51:08Z</time>
      </trkpt>
      <trkpt lat="45.35653" lon="6.80485">
        <ele>2482.5977</ele>
        <time>2015-08-25T11:51:13Z</time>
      </trkpt>
      <trkpt lat="45.35651" lon="6.80475">
        <ele>2482.7932</ele>
        <time>2015-08-25T11:51:23Z</time>
      </trkpt>
      <trkpt lat="45.3565" lon="6.80471">
        <ele>2482.7932</ele>
        <time>2015-08-25T11:51:28Z</time>
      </trkpt>
      <trkpt lat="45.35654" lon="6.80467">
        <ele>2482.7932</ele>
        <time>2015-08-25T11:51:38Z</time>
      </trkpt>
      <trkpt lat="45.35656" lon="6.80465">
        <ele>2482.7751</ele>
        <time>2015-08-25T11:51:43Z</time>
      </trkpt>
      <trkpt lat="45.3566" lon="6.80457">
        <ele>2482.7751</ele>
        <time>2015-08-25T11:51:53Z</time>
      </trkpt>
      <trkpt lat="45.35659" lon="6.80456">
        <ele>2482.7751</ele>
        <time>2015-08-25T11:51:58Z</time>
      </trkpt>
      <trkpt lat="45.35658" lon="6.80456">
        <ele>2482.891</ele>
        <time>2015-08-25T11:52:08Z</time>
      </trkpt>
      <trkpt lat="45.35657" lon="6.80454">
        <ele>2482.891</ele>
        <time>2015-08-25T11:52:58Z</time>
      </trkpt>
      <trkpt lat="45.35658" lon="6.8045">
        <ele>2482.891</ele>
        <time>2015-08-25T11:53:03Z</time>
      </trkpt>
      <trkpt lat="45.35662" lon="6.80443">
        <ele>2482.9731</ele>
        <time>2015-08-25T11:53:13Z</time>
      </trkpt>
      <trkpt lat="45.35662" lon="6.8044">
        <ele>2482.9731</ele>
        <time>2015-08-25T11:53:18Z</time>
      </trkpt>
      <trkpt lat="45.35664" lon="6.80428">
        <ele>2482.7935</ele>
        <time>2015-08-25T11:53:28Z</time>
      </trkpt>
      <trkpt lat="45.35664" lon="6.80426">
        <ele>2482.7935</ele>
        <time>2015-08-25T11:53:33Z</time>
      </trkpt>
      <trkpt lat="45.35662" lon="6.80413">
        <ele>2482.2427</ele>
        <time>2015-08-25T11:53:43Z</time>
      </trkpt>
      <trkpt lat="45.35661" lon="6.80407">
        <ele>2482.2427</ele>
        <time>2015-08-25T11:53:48Z</time>
      </trkpt>
      <trkpt lat="45.35662" lon="6.80395">
        <ele>2481.4658</ele>
        <time>2015-08-25T11:53:58Z</time>
      </trkpt>
      <trkpt lat="45.35662" lon="6.8039">
        <ele>2481.4658</ele>
        <time>2015-08-25T11:54:03Z</time>
      </trkpt>
      <trkpt lat="45.35667" lon="6.80374">
        <ele>2480.1504</ele>
        <time>2015-08-25T11:54:18Z</time>
      </trkpt>
      <trkpt lat="45.35667" lon="6.8037">
        <ele>2480.1504</ele>
        <time>2015-08-25T11:54:23Z</time>
      </trkpt>
      <trkpt lat="45.35666" lon="6.80358">
        <ele>2478.528</ele>
        <time>2015-08-25T11:54:33Z</time>
      </trkpt>
      <trkpt lat="45.35665" lon="6.80352">
        <ele>2478.528</ele>
        <time>2015-08-25T11:54:38Z</time>
      </trkpt>
      <trkpt lat="45.35664" lon="6.8035">
        <ele>2478.528</ele>
        <time>2015-08-25T11:54:48Z</time>
      </trkpt>
      <trkpt lat="45.35661" lon="6.80349">
        <ele>2478.528</ele>
        <time>2015-08-25T11:54:53Z</time>
      </trkpt>
      <trkpt lat="45.35657" lon="6.80347">
        <ele>2475.9058</ele>
        <time>2015-08-25T11:55:03Z</time>
      </trkpt>
      <trkpt lat="45.35657" lon="6.80347">
        <ele>2475.9058</ele>
        <time>2015-08-25T11:55:08Z</time>
      </trkpt>
      <trkpt lat="45.35656" lon="6.80347">
        <ele>2475.9058</ele>
        <time>2015-08-25T11:55:18Z</time>
      </trkpt>
      <trkpt lat="45.35654" lon="6.80347">
        <ele>2475.9058</ele>
        <time>2015-08-25T11:55:23Z</time>
      </trkpt>
      <trkpt lat="45.35651" lon="6.80343">
        <ele>2475.9058</ele>
        <time>2015-08-25T11:55:33Z</time>
      </trkpt>
      <trkpt lat="45.35648" lon="6.80335">
        <ele>2472.711</ele>
        <time>2015-08-25T11:55:38Z</time>
      </trkpt>
      <trkpt lat="45.35642" lon="6.80334">
        <ele>2472.711</ele>
        <time>2015-08-25T11:55:48Z</time>
      </trkpt>
      <trkpt lat="45.35644" lon="6.80336">
        <ele>2472.711</ele>
        <time>2015-08-25T11:55:53Z</time>
      </trkpt>
      <trkpt lat="45.35643" lon="6.80335">
        <ele>2472.711</ele>
        <time>2015-08-25T11:56:08Z</time>
      </trkpt>
      <trkpt lat="45.3564" lon="6.80337">
        <ele>2469.5574</ele>
        <time>2015-08-25T11:56:13Z</time>
      </trkpt>
      <trkpt lat="45.35643" lon="6.80339">
        <ele>2469.5574</ele>
        <time>2015-08-25T11:56:23Z</time>
      </trkpt>
      <trkpt lat="45.35644" lon="6.80337">
        <ele>2469.5574</ele>
        <time>2015-08-25T11:56:28Z</time>
      </trkpt>
      <trkpt lat="45.35645" lon="6.80338">
        <ele>2469.5574</ele>
        <time>2015-08-25T11:56:38Z</time>
      </trkpt>
      <trkpt lat="45.35645" lon="6.80337">
        <ele>2469.5574</ele>
        <time>2015-08-25T11:56:43Z</time>
      </trkpt>
      <trkpt lat="45.35644" lon="6.80336">
        <ele>2469.5574</ele>
        <time>2015-08-25T11:56:53Z</time>
      </trkpt>
      <trkpt lat="45.35643" lon="6.80336">
        <ele>2469.5574</ele>
        <time>2015-08-25T11:59:43Z</time>
      </trkpt>
      <trkpt lat="45.35642" lon="6.80334">
        <ele>2466.2495</ele>
        <time>2015-08-25T11:59:48Z</time>
      </trkpt>
      <trkpt lat="45.35642" lon="6.80334">
        <ele>2466.2495</ele>
        <time>2015-08-25T11:59:58Z</time>
      </trkpt>
      <trkpt lat="45.35643" lon="6.80335">
        <ele>2466.2495</ele>
        <time>2015-08-25T12:00:03Z</time>
      </trkpt>
      <trkpt lat="45.35643" lon="6.80335">
        <ele>2466.2495</ele>
        <time>2015-08-25T12:00:13Z</time>
      </trkpt>
      <trkpt lat="45.35643" lon="6.80335">
        <ele>2466.2495</ele>
        <time>2015-08-25T12:00:18Z</time>
      </trkpt>
      <trkpt lat="45.35642" lon="6.80337">
        <ele>2466.2495</ele>
        <time>2015-08-25T12:33:10Z</time>
      </trkpt>
      <trkpt lat="45.35644" lon="6.80336">
        <ele>2466.2495</ele>
        <time>2015-08-25T12:33:15Z</time>
      </trkpt>
      <trkpt lat="45.35644" lon="6.80336">
        <ele>2466.2495</ele>
        <time>2015-08-25T12:33:20Z</time>
      </trkpt>
      <trkpt lat="45.35644" lon="6.80336">
        <ele>2466.2495</ele>
        <time>2015-08-25T12:33:30Z</time>
      </trkpt>
      <trkpt lat="45.35644" lon="6.80335">
        <ele>2466.2495</ele>
        <time>2015-08-25T12:33:35Z</time>
      </trkpt>
      <trkpt lat="45.35644" lon="6.80334">
        <ele>2466.2495</ele>
        <time>2015-08-25T12:33:45Z</time>
      </trkpt>
      <trkpt lat="45.35644" lon="6.80335">
        <ele>2466.2495</ele>
        <time>2015-08-25T12:34:05Z</time>
      </trkpt>
      <trkpt lat="45.35644" lon="6.80335">
        <ele>2466.2495</ele>
        <time>2015-08-25T12:34:10Z</time>
      </trkpt>
      <trkpt lat="45.35643" lon="6.80336">
        <ele>2466.2495</ele>
        <time>2015-08-25T12:34:25Z</time>
      </trkpt>
      <trkpt lat="45.35643" lon="6.80335">
        <ele>2466.2495</ele>
        <time>2015-08-25T12:34:35Z</time>
      </trkpt>
      <trkpt lat="45.35644" lon="6.80333">
        <ele>2463.5723</ele>
        <time>2015-08-25T12:34:40Z</time>
      </trkpt>
      <trkpt lat="45.3565" lon="6.80329">
        <ele>2463.5723</ele>
        <time>2015-08-25T12:34:50Z</time>
      </trkpt>
      <trkpt lat="45.35653" lon="6.80326">
        <ele>2461.1553</ele>
        <time>2015-08-25T12:34:55Z</time>
      </trkpt>
      <trkpt lat="45.35661" lon="6.80321">
        <ele>2461.1553</ele>
        <time>2015-08-25T12:35:05Z</time>
      </trkpt>
      <trkpt lat="45.35665" lon="6.80322">
        <ele>2459.0303</ele>
        <time>2015-08-25T12:35:10Z</time>
      </trkpt>
      <trkpt lat="45.35672" lon="6.80318">
        <ele>2459.0303</ele>
        <time>2015-08-25T12:35:20Z</time>
      </trkpt>
      <trkpt lat="45.35674" lon="6.80312">
        <ele>2457.3254</ele>
        <time>2015-08-25T12:35:25Z</time>
      </trkpt>
      <trkpt lat="45.3568" lon="6.80301">
        <ele>2456.0435</ele>
        <time>2015-08-25T12:35:35Z</time>
      </trkpt>
      <trkpt lat="45.35681" lon="6.80299">
        <ele>2456.0435</ele>
        <time>2015-08-25T12:35:40Z</time>
      </trkpt>
      <trkpt lat="45.35686" lon="6.80283">
        <ele>2455.373</ele>
        <time>2015-08-25T12:35:55Z</time>
      </trkpt>
      <trkpt lat="45.35686" lon="6.8028">
        <ele>2455.373</ele>
        <time>2015-08-25T12:36:00Z</time>
      </trkpt>
      <trkpt lat="45.35685" lon="6.80269">
        <ele>2455.04</ele>
        <time>2015-08-25T12:36:10Z</time>
      </trkpt>
      <trkpt lat="45.35686" lon="6.80265">
        <ele>2455.04</ele>
        <time>2015-08-25T12:36:15Z</time>
      </trkpt>
      <trkpt lat="45.35688" lon="6.80258">
        <ele>2455.04</ele>
        <time>2015-08-25T12:36:25Z</time>
      </trkpt>
      <trkpt lat="45.3569" lon="6.80244">
        <ele>2454.775</ele>
        <time>2015-08-25T12:36:55Z</time>
      </trkpt>
      <trkpt lat="45.35692" lon="6.80235">
        <ele>2454.775</ele>
        <time>2015-08-25T12:37:00Z</time>
      </trkpt>
      <trkpt lat="45.35695" lon="6.80224">
        <ele>2454.6594</ele>
        <time>2015-08-25T12:37:10Z</time>
      </trkpt>
      <trkpt lat="45.35696" lon="6.80218">
        <ele>2454.6594</ele>
        <time>2015-08-25T12:37:15Z</time>
      </trkpt>
      <trkpt lat="45.35695" lon="6.80203">
        <ele>2454.6821</ele>
        <time>2015-08-25T12:37:30Z</time>
      </trkpt>
      <trkpt lat="45.35696" lon="6.80199">
        <ele>2454.6821</ele>
        <time>2015-08-25T12:37:35Z</time>
      </trkpt>
      <trkpt lat="45.35692" lon="6.80189">
        <ele>2454.6155</ele>
        <time>2015-08-25T12:37:45Z</time>
      </trkpt>
      <trkpt lat="45.35694" lon="6.80184">
        <ele>2454.6155</ele>
        <time>2015-08-25T12:37:50Z</time>
      </trkpt>
      <trkpt lat="45.35697" lon="6.80171">
        <ele>2454.696</ele>
        <time>2015-08-25T12:38:00Z</time>
      </trkpt>
      <trkpt lat="45.35696" lon="6.80164">
        <ele>2454.696</ele>
        <time>2015-08-25T12:38:05Z</time>
      </trkpt>
      <trkpt lat="45.35693" lon="6.80153">
        <ele>2454.7097</ele>
        <time>2015-08-25T12:38:15Z</time>
      </trkpt>
      <trkpt lat="45.35691" lon="6.80148">
        <ele>2454.7097</ele>
        <time>2015-08-25T12:38:20Z</time>
      </trkpt>
      <trkpt lat="45.3569" lon="6.80141">
        <ele>2454.3867</ele>
        <time>2015-08-25T12:38:30Z</time>
      </trkpt>
      <trkpt lat="45.35689" lon="6.80133">
        <ele>2454.3867</ele>
        <time>2015-08-25T12:38:35Z</time>
      </trkpt>
      <trkpt lat="45.35689" lon="6.8012">
        <ele>2453.9385</ele>
        <time>2015-08-25T12:38:45Z</time>
      </trkpt>
      <trkpt lat="45.35687" lon="6.80112">
        <ele>2453.9385</ele>
        <time>2015-08-25T12:38:50Z</time>
      </trkpt>
      <trkpt lat="45.35682" lon="6.80103">
        <ele>2453.72</ele>
        <time>2015-08-25T12:39:00Z</time>
      </trkpt>
      <trkpt lat="45.35681" lon="6.80097">
        <ele>2453.72</ele>
        <time>2015-08-25T12:39:05Z</time>
      </trkpt>
      <trkpt lat="45.3568" lon="6.80082">
        <ele>2453.858</ele>
        <time>2015-08-25T12:39:15Z</time>
      </trkpt>
      <trkpt lat="45.35678" lon="6.80076">
        <ele>2453.858</ele>
        <time>2015-08-25T12:39:20Z</time>
      </trkpt>
      <trkpt lat="45.35678" lon="6.80064">
        <ele>2453.8628</ele>
        <time>2015-08-25T12:39:30Z</time>
      </trkpt>
      <trkpt lat="45.3568" lon="6.80058">
        <ele>2453.8628</ele>
        <time>2015-08-25T12:39:35Z</time>
      </trkpt>
      <trkpt lat="45.35678" lon="6.80047">
        <ele>2453.2966</ele>
        <time>2015-08-25T12:39:45Z</time>
      </trkpt>
      <trkpt lat="45.35677" lon="6.80045">
        <ele>2453.2966</ele>
        <time>2015-08-25T12:39:50Z</time>
      </trkpt>
      <trkpt lat="45.35672" lon="6.80036">
        <ele>2452.446</ele>
        <time>2015-08-25T12:40:00Z</time>
      </trkpt>
      <trkpt lat="45.3567" lon="6.80036">
        <ele>2452.446</ele>
        <time>2015-08-25T12:40:05Z</time>
      </trkpt>
      <trkpt lat="45.3567" lon="6.80031">
        <ele>2452.446</ele>
        <time>2015-08-25T12:40:15Z</time>
      </trkpt>
      <trkpt lat="45.3567" lon="6.80029">
        <ele>2452.446</ele>
        <time>2015-08-25T12:40:20Z</time>
      </trkpt>
      <trkpt lat="45.3567" lon="6.80025">
        <ele>2451.6646</ele>
        <time>2015-08-25T12:40:35Z</time>
      </trkpt>
      <trkpt lat="45.3567" lon="6.80024">
        <ele>2451.6646</ele>
        <time>2015-08-25T12:40:55Z</time>
      </trkpt>
      <trkpt lat="45.35673" lon="6.80016">
        <ele>2451.6646</ele>
        <time>2015-08-25T12:41:05Z</time>
      </trkpt>
      <trkpt lat="45.35674" lon="6.8001">
        <ele>2450.2268</ele>
        <time>2015-08-25T12:41:10Z</time>
      </trkpt>
      <trkpt lat="45.35673" lon="6.80007">
        <ele>2450.2268</ele>
        <time>2015-08-25T12:41:20Z</time>
      </trkpt>
      <trkpt lat="45.35671" lon="6.80008">
        <ele>2450.2268</ele>
        <time>2015-08-25T12:41:25Z</time>
      </trkpt>
      <trkpt lat="45.35668" lon="6.8001">
        <ele>2450.2268</ele>
        <time>2015-08-25T12:41:35Z</time>
      </trkpt>
      <trkpt lat="45.35666" lon="6.8001">
        <ele>2448.6736</ele>
        <time>2015-08-25T12:41:40Z</time>
      </trkpt>
      <trkpt lat="45.35661" lon="6.79996">
        <ele>2446.8862</ele>
        <time>2015-08-25T12:41:50Z</time>
      </trkpt>
      <trkpt lat="45.35655" lon="6.7999">
        <ele>2446.8862</ele>
        <time>2015-08-25T12:41:55Z</time>
      </trkpt>
      <trkpt lat="45.35647" lon="6.80006">
        <ele>2444.799</ele>
        <time>2015-08-25T12:42:05Z</time>
      </trkpt>
      <trkpt lat="45.35642" lon="6.80012">
        <ele>2444.799</ele>
        <time>2015-08-25T12:42:10Z</time>
      </trkpt>
      <trkpt lat="45.35634" lon="6.80012">
        <ele>2442.6252</ele>
        <time>2015-08-25T12:42:20Z</time>
      </trkpt>
      <trkpt lat="45.35626" lon="6.80013">
        <ele>2442.6252</ele>
        <time>2015-08-25T12:42:25Z</time>
      </trkpt>
      <trkpt lat="45.35615" lon="6.80014">
        <ele>2440.2893</ele>
        <time>2015-08-25T12:42:35Z</time>
      </trkpt>
      <trkpt lat="45.35612" lon="6.80018">
        <ele>2440.2893</ele>
        <time>2015-08-25T12:42:40Z</time>
      </trkpt>
      <trkpt lat="45.3561" lon="6.80016">
        <ele>2440.2893</ele>
        <time>2015-08-25T12:42:50Z</time>
      </trkpt>
      <trkpt lat="45.35597" lon="6.80014">
        <ele>2438.1245</ele>
        <time>2015-08-25T12:43:25Z</time>
      </trkpt>
      <trkpt lat="45.35594" lon="6.80012">
        <ele>2438.1245</ele>
        <time>2015-08-25T12:43:30Z</time>
      </trkpt>
      <trkpt lat="45.35591" lon="6.80006">
        <ele>2438.1245</ele>
        <time>2015-08-25T12:43:40Z</time>
      </trkpt>
      <trkpt lat="45.3559" lon="6.80002">
        <ele>2435.8633</ele>
        <time>2015-08-25T12:43:45Z</time>
      </trkpt>
      <trkpt lat="45.35589" lon="6.79999">
        <ele>2435.8633</ele>
        <time>2015-08-25T12:43:55Z</time>
      </trkpt>
      <trkpt lat="45.35582" lon="6.79997">
        <ele>2433.1855</ele>
        <time>2015-08-25T12:44:00Z</time>
      </trkpt>
      <trkpt lat="45.3557" lon="6.80003">
        <ele>2430.718</ele>
        <time>2015-08-25T12:44:10Z</time>
      </trkpt>
      <trkpt lat="45.35567" lon="6.80003">
        <ele>2430.718</ele>
        <time>2015-08-25T12:44:15Z</time>
      </trkpt>
      <trkpt lat="45.35564" lon="6.80006">
        <ele>2430.718</ele>
        <time>2015-08-25T12:44:25Z</time>
      </trkpt>
      <trkpt lat="45.35564" lon="6.80005">
        <ele>2430.718</ele>
        <time>2015-08-25T12:44:30Z</time>
      </trkpt>
      <trkpt lat="45.35561" lon="6.80013">
        <ele>2428.4646</ele>
        <time>2015-08-25T12:44:40Z</time>
      </trkpt>
      <trkpt lat="45.35558" lon="6.80016">
        <ele>2428.4646</ele>
        <time>2015-08-25T12:44:45Z</time>
      </trkpt>
      <trkpt lat="45.35553" lon="6.80019">
        <ele>2428.4646</ele>
        <time>2015-08-25T12:44:55Z</time>
      </trkpt>
      <trkpt lat="45.3555" lon="6.80018">
        <ele>2426.889</ele>
        <time>2015-08-25T12:45:00Z</time>
      </trkpt>
      <trkpt lat="45.35541" lon="6.80021">
        <ele>2425.6404</ele>
        <time>2015-08-25T12:45:10Z</time>
      </trkpt>
      <trkpt lat="45.35536" lon="6.80022">
        <ele>2425.6404</ele>
        <time>2015-08-25T12:45:15Z</time>
      </trkpt>
      <trkpt lat="45.35531" lon="6.80017">
        <ele>2424.509</ele>
        <time>2015-08-25T12:45:25Z</time>
      </trkpt>
      <trkpt lat="45.35525" lon="6.8001">
        <ele>2424.509</ele>
        <time>2015-08-25T12:45:30Z</time>
      </trkpt>
      <trkpt lat="45.35524" lon="6.79996">
        <ele>2422.7805</ele>
        <time>2015-08-25T12:45:45Z</time>
      </trkpt>
      <trkpt lat="45.3552" lon="6.7999">
        <ele>2422.7805</ele>
        <time>2015-08-25T12:45:50Z</time>
      </trkpt>
      <trkpt lat="45.3552" lon="6.79975">
        <ele>2420.7744</ele>
        <time>2015-08-25T12:46:00Z</time>
      </trkpt>
      <trkpt lat="45.35518" lon="6.79971">
        <ele>2420.7744</ele>
        <time>2015-08-25T12:46:05Z</time>
      </trkpt>
      <trkpt lat="45.35513" lon="6.79957">
        <ele>2418.2114</ele>
        <time>2015-08-25T12:46:15Z</time>
      </trkpt>
      <trkpt lat="45.35512" lon="6.79954">
        <ele>2418.2114</ele>
        <time>2015-08-25T12:46:20Z</time>
      </trkpt>
      <trkpt lat="45.35505" lon="6.7994">
        <ele>2415.5547</ele>
        <time>2015-08-25T12:46:30Z</time>
      </trkpt>
      <trkpt lat="45.35499" lon="6.79943">
        <ele>2415.5547</ele>
        <time>2015-08-25T12:46:35Z</time>
      </trkpt>
      <trkpt lat="45.3549" lon="6.79929">
        <ele>2413.3198</ele>
        <time>2015-08-25T12:46:50Z</time>
      </trkpt>
      <trkpt lat="45.35487" lon="6.79928">
        <ele>2413.3198</ele>
        <time>2015-08-25T12:46:55Z</time>
      </trkpt>
      <trkpt lat="45.35478" lon="6.79931">
        <ele>2411.364</ele>
        <time>2015-08-25T12:47:05Z</time>
      </trkpt>
      <trkpt lat="45.35478" lon="6.79925">
        <ele>2411.364</ele>
        <time>2015-08-25T12:47:10Z</time>
      </trkpt>
      <trkpt lat="45.35473" lon="6.7992">
        <ele>2409.6973</ele>
        <time>2015-08-25T12:47:20Z</time>
      </trkpt>
      <trkpt lat="45.35468" lon="6.79912">
        <ele>2409.6973</ele>
        <time>2015-08-25T12:47:25Z</time>
      </trkpt>
      <trkpt lat="45.35467" lon="6.799">
        <ele>2408.0408</ele>
        <time>2015-08-25T12:47:35Z</time>
      </trkpt>
      <trkpt lat="45.35467" lon="6.79898">
        <ele>2408.0408</ele>
        <time>2015-08-25T12:47:40Z</time>
      </trkpt>
      <trkpt lat="45.35459" lon="6.79905">
        <ele>2406.4954</ele>
        <time>2015-08-25T12:47:50Z</time>
      </trkpt>
      <trkpt lat="45.35457" lon="6.79912">
        <ele>2406.4954</ele>
        <time>2015-08-25T12:47:55Z</time>
      </trkpt>
      <trkpt lat="45.35455" lon="6.7991">
        <ele>2406.4954</ele>
        <time>2015-08-25T12:48:05Z</time>
      </trkpt>
      <trkpt lat="45.35456" lon="6.7991">
        <ele>2406.4954</ele>
        <time>2015-08-25T12:48:10Z</time>
      </trkpt>
      <trkpt lat="45.35454" lon="6.79918">
        <ele>2405.6738</ele>
        <time>2015-08-25T12:48:20Z</time>
      </trkpt>
      <trkpt lat="45.35453" lon="6.79923">
        <ele>2405.6738</ele>
        <time>2015-08-25T12:48:25Z</time>
      </trkpt>
      <trkpt lat="45.3545" lon="6.79936">
        <ele>2405.2622</ele>
        <time>2015-08-25T12:48:35Z</time>
      </trkpt>
      <trkpt lat="45.35447" lon="6.79938">
        <ele>2405.2622</ele>
        <time>2015-08-25T12:48:40Z</time>
      </trkpt>
      <trkpt lat="45.35436" lon="6.79941">
        <ele>2404.997</ele>
        <time>2015-08-25T12:48:55Z</time>
      </trkpt>
      <trkpt lat="45.35433" lon="6.79945">
        <ele>2404.997</ele>
        <time>2015-08-25T12:49:00Z</time>
      </trkpt>
      <trkpt lat="45.35427" lon="6.7995">
        <ele>2404.85</ele>
        <time>2015-08-25T12:49:10Z</time>
      </trkpt>
      <trkpt lat="45.35426" lon="6.79952">
        <ele>2404.85</ele>
        <time>2015-08-25T12:49:15Z</time>
      </trkpt>
      <trkpt lat="45.35414" lon="6.79954">
        <ele>2404.8816</ele>
        <time>2015-08-25T12:49:25Z</time>
      </trkpt>
      <trkpt lat="45.35411" lon="6.79959">
        <ele>2404.8816</ele>
        <time>2015-08-25T12:49:30Z</time>
      </trkpt>
      <trkpt lat="45.35409" lon="6.7997">
        <ele>2405.3193</ele>
        <time>2015-08-25T12:49:40Z</time>
      </trkpt>
      <trkpt lat="45.35407" lon="6.79972">
        <ele>2405.3193</ele>
        <time>2015-08-25T12:49:45Z</time>
      </trkpt>
      <trkpt lat="45.35402" lon="6.79978">
        <ele>2405.3193</ele>
        <time>2015-08-25T12:49:55Z</time>
      </trkpt>
      <trkpt lat="45.35401" lon="6.7998">
        <ele>2406.0706</ele>
        <time>2015-08-25T12:50:00Z</time>
      </trkpt>
      <trkpt lat="45.35395" lon="6.79983">
        <ele>2406.0706</ele>
        <time>2015-08-25T12:50:10Z</time>
      </trkpt>
      <trkpt lat="45.3539" lon="6.79981">
        <ele>2407.0488</ele>
        <time>2015-08-25T12:50:15Z</time>
      </trkpt>
      <trkpt lat="45.35384" lon="6.79975">
        <ele>2407.0488</ele>
        <time>2015-08-25T12:50:25Z</time>
      </trkpt>
      <trkpt lat="45.3538" lon="6.79977">
        <ele>2408</ele>
        <time>2015-08-25T12:50:30Z</time>
      </trkpt>
      <trkpt lat="45.35371" lon="6.79978">
        <ele>2409.0496</ele>
        <time>2015-08-25T12:50:40Z</time>
      </trkpt>
      <trkpt lat="45.35366" lon="6.7998">
        <ele>2409.0496</ele>
        <time>2015-08-25T12:50:45Z</time>
      </trkpt>
      <trkpt lat="45.35359" lon="6.79986">
        <ele>2410.2263</ele>
        <time>2015-08-25T12:50:55Z</time>
      </trkpt>
      <trkpt lat="45.35356" lon="6.79989">
        <ele>2410.2263</ele>
        <time>2015-08-25T12:51:00Z</time>
      </trkpt>
      <trkpt lat="45.35347" lon="6.79987">
        <ele>2411.428</ele>
        <time>2015-08-25T12:51:10Z</time>
      </trkpt>
      <trkpt lat="45.35345" lon="6.79986">
        <ele>2411.428</ele>
        <time>2015-08-25T12:51:15Z</time>
      </trkpt>
      <trkpt lat="45.35335" lon="6.79984">
        <ele>2412.8613</ele>
        <time>2015-08-25T12:51:25Z</time>
      </trkpt>
      <trkpt lat="45.35335" lon="6.79982">
        <ele>2412.8613</ele>
        <time>2015-08-25T12:51:30Z</time>
      </trkpt>
      <trkpt lat="45.35328" lon="6.79973">
        <ele>2414.257</ele>
        <time>2015-08-25T12:51:40Z</time>
      </trkpt>
      <trkpt lat="45.35327" lon="6.79973">
        <ele>2414.257</ele>
        <time>2015-08-25T12:51:45Z</time>
      </trkpt>
      <trkpt lat="45.35316" lon="6.79966">
        <ele>2415.7546</ele>
        <time>2015-08-25T12:51:55Z</time>
      </trkpt>
      <trkpt lat="45.35314" lon="6.79961">
        <ele>2415.7546</ele>
        <time>2015-08-25T12:52:00Z</time>
      </trkpt>
      <trkpt lat="45.35315" lon="6.79958">
        <ele>2415.7546</ele>
        <time>2015-08-25T12:52:10Z</time>
      </trkpt>
      <trkpt lat="45.35308" lon="6.79955">
        <ele>2417.5552</ele>
        <time>2015-08-25T12:52:15Z</time>
      </trkpt>
      <trkpt lat="45.35298" lon="6.7994">
        <ele>2419.4265</ele>
        <time>2015-08-25T12:52:30Z</time>
      </trkpt>
      <trkpt lat="45.35292" lon="6.79934">
        <ele>2419.4265</ele>
        <time>2015-08-25T12:52:35Z</time>
      </trkpt>
      <trkpt lat="45.35285" lon="6.79927">
        <ele>2421.182</ele>
        <time>2015-08-25T12:52:45Z</time>
      </trkpt>
      <trkpt lat="45.35283" lon="6.79925">
        <ele>2421.182</ele>
        <time>2015-08-25T12:52:50Z</time>
      </trkpt>
      <trkpt lat="45.35275" lon="6.79912">
        <ele>2422.7217</ele>
        <time>2015-08-25T12:53:00Z</time>
      </trkpt>
      <trkpt lat="45.35275" lon="6.79908">
        <ele>2422.7217</ele>
        <time>2015-08-25T12:53:05Z</time>
      </trkpt>
      <trkpt lat="45.3527" lon="6.79899">
        <ele>2424.2993</ele>
        <time>2015-08-25T12:53:15Z</time>
      </trkpt>
      <trkpt lat="45.35267" lon="6.79895">
        <ele>2424.2993</ele>
        <time>2015-08-25T12:53:20Z</time>
      </trkpt>
      <trkpt lat="45.35264" lon="6.79888">
        <ele>2425.689</ele>
        <time>2015-08-25T12:53:30Z</time>
      </trkpt>
      <trkpt lat="45.35262" lon="6.79879">
        <ele>2425.689</ele>
        <time>2015-08-25T12:53:35Z</time>
      </trkpt>
      <trkpt lat="45.35254" lon="6.79866">
        <ele>2427.0713</ele>
        <time>2015-08-25T12:53:45Z</time>
      </trkpt>
      <trkpt lat="45.35253" lon="6.79861">
        <ele>2427.0713</ele>
        <time>2015-08-25T12:53:50Z</time>
      </trkpt>
      <trkpt lat="45.35247" lon="6.79852">
        <ele>2428.3254</ele>
        <time>2015-08-25T12:54:00Z</time>
      </trkpt>
      <trkpt lat="45.35245" lon="6.79847">
        <ele>2428.3254</ele>
        <time>2015-08-25T12:54:05Z</time>
      </trkpt>
      <trkpt lat="45.35243" lon="6.79839">
        <ele>2429.5276</ele>
        <time>2015-08-25T12:54:15Z</time>
      </trkpt>
      <trkpt lat="45.35236" lon="6.79827">
        <ele>2430.6042</ele>
        <time>2015-08-25T12:54:20Z</time>
      </trkpt>
      <trkpt lat="45.35234" lon="6.79816">
        <ele>2430.6042</ele>
        <time>2015-08-25T12:54:30Z</time>
      </trkpt>
      <trkpt lat="45.35231" lon="6.7981">
        <ele>2431.704</ele>
        <time>2015-08-25T12:54:35Z</time>
      </trkpt>
      <trkpt lat="45.35224" lon="6.79794">
        <ele>2432.7922</ele>
        <time>2015-08-25T12:54:50Z</time>
      </trkpt>
      <trkpt lat="45.35226" lon="6.79792">
        <ele>2432.7922</ele>
        <time>2015-08-25T12:54:55Z</time>
      </trkpt>
      <trkpt lat="45.35223" lon="6.79783">
        <ele>2433.8225</ele>
        <time>2015-08-25T12:55:05Z</time>
      </trkpt>
      <trkpt lat="45.35221" lon="6.79777">
        <ele>2433.8225</ele>
        <time>2015-08-25T12:55:10Z</time>
      </trkpt>
      <trkpt lat="45.35218" lon="6.79763">
        <ele>2434.6938</ele>
        <time>2015-08-25T12:55:20Z</time>
      </trkpt>
      <trkpt lat="45.35217" lon="6.79755">
        <ele>2434.6938</ele>
        <time>2015-08-25T12:55:25Z</time>
      </trkpt>
      <trkpt lat="45.35213" lon="6.79742">
        <ele>2435.516</ele>
        <time>2015-08-25T12:55:35Z</time>
      </trkpt>
      <trkpt lat="45.35214" lon="6.79737">
        <ele>2435.516</ele>
        <time>2015-08-25T12:55:40Z</time>
      </trkpt>
      <trkpt lat="45.35209" lon="6.79724">
        <ele>2436.261</ele>
        <time>2015-08-25T12:55:50Z</time>
      </trkpt>
      <trkpt lat="45.35209" lon="6.79723">
        <ele>2436.261</ele>
        <time>2015-08-25T12:55:55Z</time>
      </trkpt>
      <trkpt lat="45.35204" lon="6.79709">
        <ele>2436.8596</ele>
        <time>2015-08-25T12:56:05Z</time>
      </trkpt>
      <trkpt lat="45.35204" lon="6.79704">
        <ele>2436.8596</ele>
        <time>2015-08-25T12:56:10Z</time>
      </trkpt>
      <trkpt lat="45.35199" lon="6.79691">
        <ele>2437.494</ele>
        <time>2015-08-25T12:56:20Z</time>
      </trkpt>
      <trkpt lat="45.35199" lon="6.79685">
        <ele>2437.494</ele>
        <time>2015-08-25T12:56:25Z</time>
      </trkpt>
      <trkpt lat="45.35195" lon="6.79668">
        <ele>2437.972</ele>
        <time>2015-08-25T12:56:40Z</time>
      </trkpt>
      <trkpt lat="45.35195" lon="6.79664">
        <ele>2437.972</ele>
        <time>2015-08-25T12:56:45Z</time>
      </trkpt>
      <trkpt lat="45.3519" lon="6.7965">
        <ele>2438.4626</ele>
        <time>2015-08-25T12:56:55Z</time>
      </trkpt>
      <trkpt lat="45.3519" lon="6.79644">
        <ele>2438.4626</ele>
        <time>2015-08-25T12:57:00Z</time>
      </trkpt>
      <trkpt lat="45.35189" lon="6.79635">
        <ele>2438.8486</ele>
        <time>2015-08-25T12:57:10Z</time>
      </trkpt>
      <trkpt lat="45.35188" lon="6.79627">
        <ele>2438.8486</ele>
        <time>2015-08-25T12:57:15Z</time>
      </trkpt>
      <trkpt lat="45.35185" lon="6.79615">
        <ele>2439.2954</ele>
        <time>2015-08-25T12:57:25Z</time>
      </trkpt>
      <trkpt lat="45.35185" lon="6.79611">
        <ele>2439.2954</ele>
        <time>2015-08-25T12:57:30Z</time>
      </trkpt>
      <trkpt lat="45.3518" lon="6.79599">
        <ele>2439.8267</ele>
        <time>2015-08-25T12:57:40Z</time>
      </trkpt>
      <trkpt lat="45.35179" lon="6.79594">
        <ele>2439.8267</ele>
        <time>2015-08-25T12:57:45Z</time>
      </trkpt>
      <trkpt lat="45.35175" lon="6.79582">
        <ele>2440.464</ele>
        <time>2015-08-25T12:57:55Z</time>
      </trkpt>
      <trkpt lat="45.35172" lon="6.79576">
        <ele>2440.464</ele>
        <time>2015-08-25T12:58:00Z</time>
      </trkpt>
      <trkpt lat="45.35168" lon="6.79566">
        <ele>2441.0696</ele>
        <time>2015-08-25T12:58:15Z</time>
      </trkpt>
      <trkpt lat="45.35168" lon="6.79567">
        <ele>2441.0696</ele>
        <time>2015-08-25T12:58:20Z</time>
      </trkpt>
      <trkpt lat="45.35167" lon="6.79569">
        <ele>2441.0696</ele>
        <time>2015-08-25T12:58:30Z</time>
      </trkpt>
      <trkpt lat="45.35168" lon="6.7957">
        <ele>2441.0696</ele>
        <time>2015-08-25T12:58:35Z</time>
      </trkpt>
      <trkpt lat="45.35172" lon="6.79567">
        <ele>2441.0696</ele>
        <time>2015-08-25T12:58:45Z</time>
      </trkpt>
      <trkpt lat="45.35172" lon="6.79569">
        <ele>2441.8892</ele>
        <time>2015-08-25T12:58:50Z</time>
      </trkpt>
      <trkpt lat="45.35172" lon="6.79572">
        <ele>2441.8892</ele>
        <time>2015-08-25T12:59:00Z</time>
      </trkpt>
      <trkpt lat="45.35172" lon="6.79569">
        <ele>2441.8892</ele>
        <time>2015-08-25T12:59:05Z</time>
      </trkpt>
      <trkpt lat="45.35167" lon="6.79568">
        <ele>2441.8892</ele>
        <time>2015-08-25T12:59:15Z</time>
      </trkpt>
      <trkpt lat="45.35167" lon="6.79567">
        <ele>2442.4739</ele>
        <time>2015-08-25T12:59:20Z</time>
      </trkpt>
      <trkpt lat="45.35179" lon="6.79567">
        <ele>2442.9268</ele>
        <time>2015-08-25T12:59:30Z</time>
      </trkpt>
      <trkpt lat="45.35182" lon="6.79567">
        <ele>2442.9268</ele>
        <time>2015-08-25T12:59:35Z</time>
      </trkpt>
      <trkpt lat="45.35178" lon="6.79571">
        <ele>2442.9268</ele>
        <time>2015-08-25T12:59:50Z</time>
      </trkpt>
      <trkpt lat="45.35177" lon="6.79572">
        <ele>2443.1567</ele>
        <time>2015-08-25T12:59:55Z</time>
      </trkpt>
      <trkpt lat="45.35172" lon="6.79571">
        <ele>2443.1567</ele>
        <time>2015-08-25T13:00:05Z</time>
      </trkpt>
      <trkpt lat="45.3517" lon="6.79571">
        <ele>2443.1567</ele>
        <time>2015-08-25T13:00:10Z</time>
      </trkpt>
      <trkpt lat="45.35171" lon="6.79568">
        <ele>2443.1567</ele>
        <time>2015-08-25T13:00:20Z</time>
      </trkpt>
      <trkpt lat="45.3517" lon="6.79569">
        <ele>2443.368</ele>
        <time>2015-08-25T13:00:25Z</time>
      </trkpt>
      <trkpt lat="45.35171" lon="6.7957">
        <ele>2443.368</ele>
        <time>2015-08-25T13:00:35Z</time>
      </trkpt>
      <trkpt lat="45.3517" lon="6.79569">
        <ele>2443.368</ele>
        <time>2015-08-25T13:00:40Z</time>
      </trkpt>
      <trkpt lat="45.35171" lon="6.79567">
        <ele>2443.368</ele>
        <time>2015-08-25T13:00:50Z</time>
      </trkpt>
      <trkpt lat="45.3517" lon="6.79566">
        <ele>2443.368</ele>
        <time>2015-08-25T13:00:55Z</time>
      </trkpt>
      <trkpt lat="45.35163" lon="6.79558">
        <ele>2443.4329</ele>
        <time>2015-08-25T13:01:05Z</time>
      </trkpt>
      <trkpt lat="45.35159" lon="6.79551">
        <ele>2443.4329</ele>
        <time>2015-08-25T13:01:10Z</time>
      </trkpt>
      <trkpt lat="45.35155" lon="6.79543">
        <ele>2443.6519</ele>
        <time>2015-08-25T13:01:20Z</time>
      </trkpt>
      <trkpt lat="45.35152" lon="6.79542">
        <ele>2443.6519</ele>
        <time>2015-08-25T13:01:25Z</time>
      </trkpt>
      <trkpt lat="45.35143" lon="6.7953">
        <ele>2444.13</ele>
        <time>2015-08-25T13:01:40Z</time>
      </trkpt>
      <trkpt lat="45.35141" lon="6.79525">
        <ele>2444.13</ele>
        <time>2015-08-25T13:01:45Z</time>
      </trkpt>
      <trkpt lat="45.35138" lon="6.79518">
        <ele>2444.7327</ele>
        <time>2015-08-25T13:01:55Z</time>
      </trkpt>
      <trkpt lat="45.35138" lon="6.79517">
        <ele>2444.7327</ele>
        <time>2015-08-25T13:02:00Z</time>
      </trkpt>
      <trkpt lat="45.35138" lon="6.79518">
        <ele>2444.7327</ele>
        <time>2015-08-25T13:02:10Z</time>
      </trkpt>
      <trkpt lat="45.35139" lon="6.79518">
        <ele>2444.7327</ele>
        <time>2015-08-25T13:02:15Z</time>
      </trkpt>
      <trkpt lat="45.3514" lon="6.79519">
        <ele>2444.7327</ele>
        <time>2015-08-25T13:02:25Z</time>
      </trkpt>
      <trkpt lat="45.35139" lon="6.79514">
        <ele>2444.7327</ele>
        <time>2015-08-25T13:02:30Z</time>
      </trkpt>
      <trkpt lat="45.35134" lon="6.79504">
        <ele>2445.7969</ele>
        <time>2015-08-25T13:02:40Z</time>
      </trkpt>
      <trkpt lat="45.35131" lon="6.795">
        <ele>2445.7969</ele>
        <time>2015-08-25T13:02:45Z</time>
      </trkpt>
      <trkpt lat="45.35126" lon="6.79492">
        <ele>2446.9272</ele>
        <time>2015-08-25T13:02:55Z</time>
      </trkpt>
      <trkpt lat="45.35123" lon="6.79491">
        <ele>2446.9272</ele>
        <time>2015-08-25T13:03:00Z</time>
      </trkpt>
      <trkpt lat="45.35117" lon="6.79495">
        <ele>2447.9297</ele>
        <time>2015-08-25T13:03:10Z</time>
      </trkpt>
      <trkpt lat="45.35113" lon="6.79498">
        <ele>2447.9297</ele>
        <time>2015-08-25T13:03:15Z</time>
      </trkpt>
      <trkpt lat="45.3511" lon="6.79504">
        <ele>2448.9282</ele>
        <time>2015-08-25T13:03:30Z</time>
      </trkpt>
      <trkpt lat="45.35107" lon="6.79505">
        <ele>2448.9282</ele>
        <time>2015-08-25T13:03:35Z</time>
      </trkpt>
      <trkpt lat="45.351" lon="6.7951">
        <ele>2449.7925</ele>
        <time>2015-08-25T13:03:45Z</time>
      </trkpt>
      <trkpt lat="45.35097" lon="6.79512">
        <ele>2449.7925</ele>
        <time>2015-08-25T13:03:50Z</time>
      </trkpt>
      <trkpt lat="45.3509" lon="6.79516">
        <ele>2450.7188</ele>
        <time>2015-08-25T13:04:00Z</time>
      </trkpt>
      <trkpt lat="45.35088" lon="6.79517">
        <ele>2450.7188</ele>
        <time>2015-08-25T13:04:05Z</time>
      </trkpt>
      <trkpt lat="45.3508" lon="6.79516">
        <ele>2451.6445</ele>
        <time>2015-08-25T13:04:15Z</time>
      </trkpt>
      <trkpt lat="45.35076" lon="6.79519">
        <ele>2451.6445</ele>
        <time>2015-08-25T13:04:20Z</time>
      </trkpt>
      <trkpt lat="45.35072" lon="6.79523">
        <ele>2452.5833</ele>
        <time>2015-08-25T13:04:30Z</time>
      </trkpt>
      <trkpt lat="45.3507" lon="6.79526">
        <ele>2452.5833</ele>
        <time>2015-08-25T13:04:35Z</time>
      </trkpt>
      <trkpt lat="45.35066" lon="6.79535">
        <ele>2453.5193</ele>
        <time>2015-08-25T13:04:45Z</time>
      </trkpt>
      <trkpt lat="45.35065" lon="6.79539">
        <ele>2453.5193</ele>
        <time>2015-08-25T13:04:50Z</time>
      </trkpt>
      <trkpt lat="45.35063" lon="6.79542">
        <ele>2453.5193</ele>
        <time>2015-08-25T13:05:00Z</time>
      </trkpt>
      <trkpt lat="45.35062" lon="6.79545">
        <ele>2453.5193</ele>
        <time>2015-08-25T13:05:05Z</time>
      </trkpt>
      <trkpt lat="45.35057" lon="6.79549">
        <ele>2454.5671</ele>
        <time>2015-08-25T13:05:15Z</time>
      </trkpt>
      <trkpt lat="45.35056" lon="6.79552">
        <ele>2454.5671</ele>
        <time>2015-08-25T13:05:20Z</time>
      </trkpt>
      <trkpt lat="45.35055" lon="6.79557">
        <ele>2454.5671</ele>
        <time>2015-08-25T13:05:30Z</time>
      </trkpt>
      <trkpt lat="45.35053" lon="6.7956">
        <ele>2455.6604</ele>
        <time>2015-08-25T13:05:35Z</time>
      </trkpt>
      <trkpt lat="45.3505" lon="6.79564">
        <ele>2455.6604</ele>
        <time>2015-08-25T13:05:45Z</time>
      </trkpt>
      <trkpt lat="45.35049" lon="6.79566">
        <ele>2455.6604</ele>
        <time>2015-08-25T13:05:50Z</time>
      </trkpt>
      <trkpt lat="45.35042" lon="6.79571">
        <ele>2457.0254</ele>
        <time>2015-08-25T13:06:05Z</time>
      </trkpt>
      <trkpt lat="45.3504" lon="6.79571">
        <ele>2457.0254</ele>
        <time>2015-08-25T13:06:10Z</time>
      </trkpt>
      <trkpt lat="45.35036" lon="6.79573">
        <ele>2457.0254</ele>
        <time>2015-08-25T13:06:20Z</time>
      </trkpt>
      <trkpt lat="45.35033" lon="6.79575">
        <ele>2458.5825</ele>
        <time>2015-08-25T13:06:25Z</time>
      </trkpt>
      <trkpt lat="45.35031" lon="6.79576">
        <ele>2458.5825</ele>
        <time>2015-08-25T13:06:35Z</time>
      </trkpt>
      <trkpt lat="45.35031" lon="6.79574">
        <ele>2458.5825</ele>
        <time>2015-08-25T13:06:40Z</time>
      </trkpt>
      <trkpt lat="45.35028" lon="6.79568">
        <ele>2458.5825</ele>
        <time>2015-08-25T13:06:50Z</time>
      </trkpt>
      <trkpt lat="45.35029" lon="6.79564">
        <ele>2460.4597</ele>
        <time>2015-08-25T13:06:55Z</time>
      </trkpt>
      <trkpt lat="45.35028" lon="6.79562">
        <ele>2460.4597</ele>
        <time>2015-08-25T13:07:05Z</time>
      </trkpt>
      <trkpt lat="45.35029" lon="6.79558">
        <ele>2460.4597</ele>
        <time>2015-08-25T13:07:10Z</time>
      </trkpt>
      <trkpt lat="45.3503" lon="6.79551">
        <ele>2462.645</ele>
        <time>2015-08-25T13:07:20Z</time>
      </trkpt>
      <trkpt lat="45.3503" lon="6.79546">
        <ele>2462.645</ele>
        <time>2015-08-25T13:07:25Z</time>
      </trkpt>
      <trkpt lat="45.3503" lon="6.79536">
        <ele>2464.939</ele>
        <time>2015-08-25T13:07:35Z</time>
      </trkpt>
      <trkpt lat="45.35028" lon="6.79531">
        <ele>2464.939</ele>
        <time>2015-08-25T13:07:40Z</time>
      </trkpt>
      <trkpt lat="45.35031" lon="6.79521">
        <ele>2467.1565</ele>
        <time>2015-08-25T13:07:50Z</time>
      </trkpt>
      <trkpt lat="45.35032" lon="6.79517">
        <ele>2467.1565</ele>
        <time>2015-08-25T13:07:55Z</time>
      </trkpt>
      <trkpt lat="45.35025" lon="6.79519">
        <ele>2469.3428</ele>
        <time>2015-08-25T13:08:10Z</time>
      </trkpt>
      <trkpt lat="45.35022" lon="6.79521">
        <ele>2469.3428</ele>
        <time>2015-08-25T13:08:15Z</time>
      </trkpt>
      <trkpt lat="45.35015" lon="6.79527">
        <ele>2471.424</ele>
        <time>2015-08-25T13:08:25Z</time>
      </trkpt>
      <trkpt lat="45.35016" lon="6.79531">
        <ele>2471.424</ele>
        <time>2015-08-25T13:08:30Z</time>
      </trkpt>
      <trkpt lat="45.35012" lon="6.79532">
        <ele>2471.424</ele>
        <time>2015-08-25T13:08:40Z</time>
      </trkpt>
      <trkpt lat="45.3501" lon="6.7953">
        <ele>2473.463</ele>
        <time>2015-08-25T13:08:45Z</time>
      </trkpt>
      <trkpt lat="45.35004" lon="6.79521">
        <ele>2473.463</ele>
        <time>2015-08-25T13:08:55Z</time>
      </trkpt>
      <trkpt lat="45.35005" lon="6.79516">
        <ele>2475.0698</ele>
        <time>2015-08-25T13:09:00Z</time>
      </trkpt>
      <trkpt lat="45.35006" lon="6.79511">
        <ele>2475.0698</ele>
        <time>2015-08-25T13:09:10Z</time>
      </trkpt>
      <trkpt lat="45.35006" lon="6.79509">
        <ele>2475.0698</ele>
        <time>2015-08-25T13:09:15Z</time>
      </trkpt>
      <trkpt lat="45.35011" lon="6.79495">
        <ele>2476.4192</ele>
        <time>2015-08-25T13:09:25Z</time>
      </trkpt>
      <trkpt lat="45.35009" lon="6.79495">
        <ele>2476.4192</ele>
        <time>2015-08-25T13:09:30Z</time>
      </trkpt>
      <trkpt lat="45.35006" lon="6.7949">
        <ele>2476.4192</ele>
        <time>2015-08-25T13:09:40Z</time>
      </trkpt>
      <trkpt lat="45.35006" lon="6.79486">
        <ele>2477.702</ele>
        <time>2015-08-25T13:09:45Z</time>
      </trkpt>
      <trkpt lat="45.3501" lon="6.79472">
        <ele>2479.1812</ele>
        <time>2015-08-25T13:09:55Z</time>
      </trkpt>
      <trkpt lat="45.35013" lon="6.79463">
        <ele>2479.1812</ele>
        <time>2015-08-25T13:10:00Z</time>
      </trkpt>
      <trkpt lat="45.35017" lon="6.79457">
        <ele>2480.8418</ele>
        <time>2015-08-25T13:10:10Z</time>
      </trkpt>
      <trkpt lat="45.35017" lon="6.79456">
        <ele>2480.8418</ele>
        <time>2015-08-25T13:10:15Z</time>
      </trkpt>
      <trkpt lat="45.3501" lon="6.79459">
        <ele>2480.8418</ele>
        <time>2015-08-25T13:10:30Z</time>
      </trkpt>
      <trkpt lat="45.35004" lon="6.79458">
        <ele>2482.654</ele>
        <time>2015-08-25T13:10:35Z</time>
      </trkpt>
      <trkpt lat="45.34997" lon="6.79461">
        <ele>2482.654</ele>
        <time>2015-08-25T13:10:45Z</time>
      </trkpt>
      <trkpt lat="45.3499" lon="6.79462">
        <ele>2484.4468</ele>
        <time>2015-08-25T13:10:50Z</time>
      </trkpt>
      <trkpt lat="45.3499" lon="6.79471">
        <ele>2484.4468</ele>
        <time>2015-08-25T13:11:00Z</time>
      </trkpt>
      <trkpt lat="45.34985" lon="6.79467">
        <ele>2486.2625</ele>
        <time>2015-08-25T13:11:05Z</time>
      </trkpt>
      <trkpt lat="45.34984" lon="6.79451">
        <ele>2487.8237</ele>
        <time>2015-08-25T13:11:15Z</time>
      </trkpt>
      <trkpt lat="45.34985" lon="6.79444">
        <ele>2487.8237</ele>
        <time>2015-08-25T13:11:20Z</time>
      </trkpt>
      <trkpt lat="45.34979" lon="6.79435">
        <ele>2489.264</ele>
        <time>2015-08-25T13:11:30Z</time>
      </trkpt>
      <trkpt lat="45.34973" lon="6.79434">
        <ele>2489.264</ele>
        <time>2015-08-25T13:11:35Z</time>
      </trkpt>
      <trkpt lat="45.34965" lon="6.79435">
        <ele>2490.7637</ele>
        <time>2015-08-25T13:11:50Z</time>
      </trkpt>
      <trkpt lat="45.34962" lon="6.79435">
        <ele>2490.7637</ele>
        <time>2015-08-25T13:11:55Z</time>
      </trkpt>
      <trkpt lat="45.34954" lon="6.7944">
        <ele>2492.1597</ele>
        <time>2015-08-25T13:12:05Z</time>
      </trkpt>
      <trkpt lat="45.34951" lon="6.79441">
        <ele>2492.1597</ele>
        <time>2015-08-25T13:12:10Z</time>
      </trkpt>
      <trkpt lat="45.34946" lon="6.79443">
        <ele>2492.1597</ele>
        <time>2015-08-25T13:12:20Z</time>
      </trkpt>
      <trkpt lat="45.34943" lon="6.79448">
        <ele>2493.488</ele>
        <time>2015-08-25T13:12:25Z</time>
      </trkpt>
      <trkpt lat="45.34938" lon="6.79455">
        <ele>2493.488</ele>
        <time>2015-08-25T13:12:35Z</time>
      </trkpt>
      <trkpt lat="45.34936" lon="6.7946">
        <ele>2494.6672</ele>
        <time>2015-08-25T13:12:40Z</time>
      </trkpt>
      <trkpt lat="45.34931" lon="6.79459">
        <ele>2494.6672</ele>
        <time>2015-08-25T13:12:50Z</time>
      </trkpt>
      <trkpt lat="45.34927" lon="6.79458">
        <ele>2495.7659</ele>
        <time>2015-08-25T13:12:55Z</time>
      </trkpt>
      <trkpt lat="45.34921" lon="6.79455">
        <ele>2495.7659</ele>
        <time>2015-08-25T13:13:05Z</time>
      </trkpt>
      <trkpt lat="45.34918" lon="6.79452">
        <ele>2496.8481</ele>
        <time>2015-08-25T13:13:10Z</time>
      </trkpt>
      <trkpt lat="45.34911" lon="6.79447">
        <ele>2496.8481</ele>
        <time>2015-08-25T13:13:20Z</time>
      </trkpt>
      <trkpt lat="45.34911" lon="6.79444">
        <ele>2497.974</ele>
        <time>2015-08-25T13:13:25Z</time>
      </trkpt>
      <trkpt lat="45.34909" lon="6.79436">
        <ele>2497.974</ele>
        <time>2015-08-25T13:13:35Z</time>
      </trkpt>
      <trkpt lat="45.34908" lon="6.79432">
        <ele>2499.2126</ele>
        <time>2015-08-25T13:13:40Z</time>
      </trkpt>
      <trkpt lat="45.34901" lon="6.79427">
        <ele>2499.2126</ele>
        <time>2015-08-25T13:13:50Z</time>
      </trkpt>
      <trkpt lat="45.34897" lon="6.79423">
        <ele>2500.3977</ele>
        <time>2015-08-25T13:13:55Z</time>
      </trkpt>
      <trkpt lat="45.34889" lon="6.79427">
        <ele>2500.3977</ele>
        <time>2015-08-25T13:14:10Z</time>
      </trkpt>
      <trkpt lat="45.34887" lon="6.79427">
        <ele>2501.4614</ele>
        <time>2015-08-25T13:14:15Z</time>
      </trkpt>
      <trkpt lat="45.34879" lon="6.79429">
        <ele>2501.4614</ele>
        <time>2015-08-25T13:14:25Z</time>
      </trkpt>
      <trkpt lat="45.34875" lon="6.79431">
        <ele>2502.3562</ele>
        <time>2015-08-25T13:14:30Z</time>
      </trkpt>
      <trkpt lat="45.34866" lon="6.79429">
        <ele>2503.0671</ele>
        <time>2015-08-25T13:14:40Z</time>
      </trkpt>
      <trkpt lat="45.34862" lon="6.7943">
        <ele>2503.0671</ele>
        <time>2015-08-25T13:14:45Z</time>
      </trkpt>
      <trkpt lat="45.34855" lon="6.7943">
        <ele>2503.6956</ele>
        <time>2015-08-25T13:14:55Z</time>
      </trkpt>
      <trkpt lat="45.34853" lon="6.79431">
        <ele>2503.6956</ele>
        <time>2015-08-25T13:15:00Z</time>
      </trkpt>
      <trkpt lat="45.3485" lon="6.79426">
        <ele>2503.6956</ele>
        <time>2015-08-25T13:15:10Z</time>
      </trkpt>
      <trkpt lat="45.34848" lon="6.79425">
        <ele>2503.6956</ele>
        <time>2015-08-25T13:15:15Z</time>
      </trkpt>
      <trkpt lat="45.34838" lon="6.79419">
        <ele>2504.3225</ele>
        <time>2015-08-25T13:15:25Z</time>
      </trkpt>
      <trkpt lat="45.34833" lon="6.79416">
        <ele>2504.3225</ele>
        <time>2015-08-25T13:15:30Z</time>
      </trkpt>
      <trkpt lat="45.34829" lon="6.79406">
        <ele>2505.0361</ele>
        <time>2015-08-25T13:15:40Z</time>
      </trkpt>
      <trkpt lat="45.34825" lon="6.79404">
        <ele>2505.0361</ele>
        <time>2015-08-25T13:15:45Z</time>
      </trkpt>
      <trkpt lat="45.34817" lon="6.79404">
        <ele>2505.7744</ele>
        <time>2015-08-25T13:15:55Z</time>
      </trkpt>
      <trkpt lat="45.34815" lon="6.79407">
        <ele>2505.7744</ele>
        <time>2015-08-25T13:16:00Z</time>
      </trkpt>
      <trkpt lat="45.34811" lon="6.79411">
        <ele>2505.7744</ele>
        <time>2015-08-25T13:16:10Z</time>
      </trkpt>
      <trkpt lat="45.34811" lon="6.79413">
        <ele>2506.437</ele>
        <time>2015-08-25T13:16:15Z</time>
      </trkpt>
      <trkpt lat="45.34813" lon="6.79411">
        <ele>2506.437</ele>
        <time>2015-08-25T13:16:25Z</time>
      </trkpt>
      <trkpt lat="45.34814" lon="6.79412">
        <ele>2506.437</ele>
        <time>2015-08-25T13:16:30Z</time>
      </trkpt>
      <trkpt lat="45.34813" lon="6.79409">
        <ele>2506.437</ele>
        <time>2015-08-25T13:16:40Z</time>
      </trkpt>
      <trkpt lat="45.34811" lon="6.79411">
        <ele>2506.437</ele>
        <time>2015-08-25T13:16:45Z</time>
      </trkpt>
      <trkpt lat="45.34804" lon="6.79428">
        <ele>2507.42</ele>
        <time>2015-08-25T13:17:00Z</time>
      </trkpt>
      <trkpt lat="45.34803" lon="6.79432">
        <ele>2507.42</ele>
        <time>2015-08-25T13:17:05Z</time>
      </trkpt>
      <trkpt lat="45.34801" lon="6.79441">
        <ele>2508.3555</ele>
        <time>2015-08-25T13:17:15Z</time>
      </trkpt>
      <trkpt lat="45.348" lon="6.79445">
        <ele>2508.3555</ele>
        <time>2015-08-25T13:17:20Z</time>
      </trkpt>
      <trkpt lat="45.34798" lon="6.79454">
        <ele>2509.2192</ele>
        <time>2015-08-25T13:17:30Z</time>
      </trkpt>
      <trkpt lat="45.34798" lon="6.79455">
        <ele>2509.2192</ele>
        <time>2015-08-25T13:17:35Z</time>
      </trkpt>
      <trkpt lat="45.34796" lon="6.79468">
        <ele>2509.9893</ele>
        <time>2015-08-25T13:17:45Z</time>
      </trkpt>
      <trkpt lat="45.34794" lon="6.79473">
        <ele>2509.9893</ele>
        <time>2015-08-25T13:17:50Z</time>
      </trkpt>
      <trkpt lat="45.34795" lon="6.79484">
        <ele>2510.8613</ele>
        <time>2015-08-25T13:18:00Z</time>
      </trkpt>
      <trkpt lat="45.34795" lon="6.79487">
        <ele>2510.8613</ele>
        <time>2015-08-25T13:18:05Z</time>
      </trkpt>
      <trkpt lat="45.34794" lon="6.79495">
        <ele>2510.8613</ele>
        <time>2015-08-25T13:18:15Z</time>
      </trkpt>
      <trkpt lat="45.34794" lon="6.795">
        <ele>2511.8003</ele>
        <time>2015-08-25T13:18:20Z</time>
      </trkpt>
      <trkpt lat="45.34792" lon="6.79508">
        <ele>2511.8003</ele>
        <time>2015-08-25T13:18:30Z</time>
      </trkpt>
      <trkpt lat="45.34791" lon="6.79512">
        <ele>2512.6584</ele>
        <time>2015-08-25T13:18:35Z</time>
      </trkpt>
      <trkpt lat="45.34786" lon="6.79526">
        <ele>2513.5442</ele>
        <time>2015-08-25T13:18:45Z</time>
      </trkpt>
      <trkpt lat="45.34784" lon="6.79532">
        <ele>2513.5442</ele>
        <time>2015-08-25T13:18:50Z</time>
      </trkpt>
      <trkpt lat="45.34782" lon="6.79541">
        <ele>2514.312</ele>
        <time>2015-08-25T13:19:00Z</time>
      </trkpt>
      <trkpt lat="45.34782" lon="6.79546">
        <ele>2514.312</ele>
        <time>2015-08-25T13:19:05Z</time>
      </trkpt>
      <trkpt lat="45.34779" lon="6.79553">
        <ele>2514.9436</ele>
        <time>2015-08-25T13:19:15Z</time>
      </trkpt>
      <trkpt lat="45.34778" lon="6.79557">
        <ele>2514.9436</ele>
        <time>2015-08-25T13:19:20Z</time>
      </trkpt>
      <trkpt lat="45.34777" lon="6.79573">
        <ele>2515.6382</ele>
        <time>2015-08-25T13:19:35Z</time>
      </trkpt>
      <trkpt lat="45.34776" lon="6.79578">
        <ele>2515.6382</ele>
        <time>2015-08-25T13:19:40Z</time>
      </trkpt>
      <trkpt lat="45.34777" lon="6.79587">
        <ele>2516.1907</ele>
        <time>2015-08-25T13:19:50Z</time>
      </trkpt>
      <trkpt lat="45.34777" lon="6.79591">
        <ele>2516.1907</ele>
        <time>2015-08-25T13:19:55Z</time>
      </trkpt>
      <trkpt lat="45.34778" lon="6.79601">
        <ele>2516.7004</ele>
        <time>2015-08-25T13:20:05Z</time>
      </trkpt>
      <trkpt lat="45.34778" lon="6.79608">
        <ele>2516.7004</ele>
        <time>2015-08-25T13:20:10Z</time>
      </trkpt>
      <trkpt lat="45.34776" lon="6.79616">
        <ele>2517.2153</ele>
        <time>2015-08-25T13:20:20Z</time>
      </trkpt>
      <trkpt lat="45.34776" lon="6.79623">
        <ele>2517.2153</ele>
        <time>2015-08-25T13:20:25Z</time>
      </trkpt>
      <trkpt lat="45.34776" lon="6.79634">
        <ele>2517.8528</ele>
        <time>2015-08-25T13:20:35Z</time>
      </trkpt>
      <trkpt lat="45.34776" lon="6.79639">
        <ele>2517.8528</ele>
        <time>2015-08-25T13:20:40Z</time>
      </trkpt>
      <trkpt lat="45.34774" lon="6.79649">
        <ele>2518.5044</ele>
        <time>2015-08-25T13:20:50Z</time>
      </trkpt>
      <trkpt lat="45.34774" lon="6.79656">
        <ele>2518.5044</ele>
        <time>2015-08-25T13:20:55Z</time>
      </trkpt>
      <trkpt lat="45.34773" lon="6.79668">
        <ele>2519.156</ele>
        <time>2015-08-25T13:21:05Z</time>
      </trkpt>
      <trkpt lat="45.34773" lon="6.79671">
        <ele>2519.156</ele>
        <time>2015-08-25T13:21:10Z</time>
      </trkpt>
      <trkpt lat="45.34774" lon="6.7968">
        <ele>2519.156</ele>
        <time>2015-08-25T13:21:20Z</time>
      </trkpt>
      <trkpt lat="45.34775" lon="6.79684">
        <ele>2519.7805</ele>
        <time>2015-08-25T13:21:25Z</time>
      </trkpt>
      <trkpt lat="45.34776" lon="6.797">
        <ele>2520.5398</ele>
        <time>2015-08-25T13:21:40Z</time>
      </trkpt>
      <trkpt lat="45.34776" lon="6.79703">
        <ele>2520.5398</ele>
        <time>2015-08-25T13:21:45Z</time>
      </trkpt>
      <trkpt lat="45.34778" lon="6.79701">
        <ele>2520.5398</ele>
        <time>2015-08-25T13:21:55Z</time>
      </trkpt>
      <trkpt lat="45.3478" lon="6.797">
        <ele>2520.5398</ele>
        <time>2015-08-25T13:22:00Z</time>
      </trkpt>
      <trkpt lat="45.3478" lon="6.79709">
        <ele>2521.2522</ele>
        <time>2015-08-25T13:22:10Z</time>
      </trkpt>
      <trkpt lat="45.34781" lon="6.79714">
        <ele>2521.2522</ele>
        <time>2015-08-25T13:22:15Z</time>
      </trkpt>
      <trkpt lat="45.34781" lon="6.79721">
        <ele>2521.2522</ele>
        <time>2015-08-25T13:22:25Z</time>
      </trkpt>
      <trkpt lat="45.3478" lon="6.79726">
        <ele>2521.8499</ele>
        <time>2015-08-25T13:22:30Z</time>
      </trkpt>
      <trkpt lat="45.34782" lon="6.79737">
        <ele>2521.8499</ele>
        <time>2015-08-25T13:22:40Z</time>
      </trkpt>
      <trkpt lat="45.34782" lon="6.79742">
        <ele>2522.5017</ele>
        <time>2015-08-25T13:22:45Z</time>
      </trkpt>
      <trkpt lat="45.34786" lon="6.7975">
        <ele>2522.5017</ele>
        <time>2015-08-25T13:22:55Z</time>
      </trkpt>
      <trkpt lat="45.34788" lon="6.79756">
        <ele>2523.2046</ele>
        <time>2015-08-25T13:23:00Z</time>
      </trkpt>
      <trkpt lat="45.34788" lon="6.79764">
        <ele>2523.2046</ele>
        <time>2015-08-25T13:23:10Z</time>
      </trkpt>
      <trkpt lat="45.34788" lon="6.79767">
        <ele>2523.2046</ele>
        <time>2015-08-25T13:23:15Z</time>
      </trkpt>
      <trkpt lat="45.34788" lon="6.79774">
        <ele>2524.0134</ele>
        <time>2015-08-25T13:23:25Z</time>
      </trkpt>
      <trkpt lat="45.3479" lon="6.79779">
        <ele>2524.0134</ele>
        <time>2015-08-25T13:23:30Z</time>
      </trkpt>
      <trkpt lat="45.34794" lon="6.79789">
        <ele>2524.8347</ele>
        <time>2015-08-25T13:23:40Z</time>
      </trkpt>
      <trkpt lat="45.34796" lon="6.79793">
        <ele>2524.8347</ele>
        <time>2015-08-25T13:23:45Z</time>
      </trkpt>
      <trkpt lat="45.34799" lon="6.79801">
        <ele>2525.697</ele>
        <time>2015-08-25T13:23:55Z</time>
      </trkpt>
      <trkpt lat="45.34799" lon="6.79805">
        <ele>2525.697</ele>
        <time>2015-08-25T13:24:00Z</time>
      </trkpt>
      <trkpt lat="45.34802" lon="6.79814">
        <ele>2526.6265</ele>
        <time>2015-08-25T13:24:10Z</time>
      </trkpt>
      <trkpt lat="45.34803" lon="6.79817">
        <ele>2526.6265</ele>
        <time>2015-08-25T13:24:15Z</time>
      </trkpt>
      <trkpt lat="45.34808" lon="6.79829">
        <ele>2527.6184</ele>
        <time>2015-08-25T13:24:30Z</time>
      </trkpt>
      <trkpt lat="45.34809" lon="6.79832">
        <ele>2527.6184</ele>
        <time>2015-08-25T13:24:35Z</time>
      </trkpt>
      <trkpt lat="45.34812" lon="6.7984">
        <ele>2527.6184</ele>
        <time>2015-08-25T13:24:45Z</time>
      </trkpt>
      <trkpt lat="45.34813" lon="6.79844">
        <ele>2528.7256</ele>
        <time>2015-08-25T13:24:50Z</time>
      </trkpt>
      <trkpt lat="45.34815" lon="6.79853">
        <ele>2528.7256</ele>
        <time>2015-08-25T13:25:00Z</time>
      </trkpt>
      <trkpt lat="45.34816" lon="6.79856">
        <ele>2529.8674</ele>
        <time>2015-08-25T13:25:05Z</time>
      </trkpt>
      <trkpt lat="45.34813" lon="6.79856">
        <ele>2529.8674</ele>
        <time>2015-08-25T13:25:15Z</time>
      </trkpt>
      <trkpt lat="45.3481" lon="6.79854">
        <ele>2529.8674</ele>
        <time>2015-08-25T13:25:20Z</time>
      </trkpt>
      <trkpt lat="45.348" lon="6.79855">
        <ele>2531.329</ele>
        <time>2015-08-25T13:25:30Z</time>
      </trkpt>
      <trkpt lat="45.34796" lon="6.79855">
        <ele>2531.329</ele>
        <time>2015-08-25T13:25:35Z</time>
      </trkpt>
      <trkpt lat="45.34787" lon="6.7985">
        <ele>2532.97</ele>
        <time>2015-08-25T13:25:45Z</time>
      </trkpt>
      <trkpt lat="45.34784" lon="6.79846">
        <ele>2532.97</ele>
        <time>2015-08-25T13:25:50Z</time>
      </trkpt>
      <trkpt lat="45.34782" lon="6.79839">
        <ele>2534.5447</ele>
        <time>2015-08-25T13:26:00Z</time>
      </trkpt>
      <trkpt lat="45.3478" lon="6.79837">
        <ele>2534.5447</ele>
        <time>2015-08-25T13:26:05Z</time>
      </trkpt>
      <trkpt lat="45.34772" lon="6.79836">
        <ele>2536.1428</ele>
        <time>2015-08-25T13:26:15Z</time>
      </trkpt>
      <trkpt lat="45.34765" lon="6.79836">
        <ele>2536.1428</ele>
        <time>2015-08-25T13:26:20Z</time>
      </trkpt>
      <trkpt lat="45.34758" lon="6.7984">
        <ele>2537.847</ele>
        <time>2015-08-25T13:26:35Z</time>
      </trkpt>
      <trkpt lat="45.34755" lon="6.79843">
        <ele>2537.847</ele>
        <time>2015-08-25T13:26:40Z</time>
      </trkpt>
      <trkpt lat="45.34747" lon="6.79848">
        <ele>2539.4312</ele>
        <time>2015-08-25T13:26:50Z</time>
      </trkpt>
      <trkpt lat="45.34744" lon="6.79851">
        <ele>2539.4312</ele>
        <time>2015-08-25T13:26:55Z</time>
      </trkpt>
      <trkpt lat="45.34743" lon="6.79857">
        <ele>2539.4312</ele>
        <time>2015-08-25T13:27:05Z</time>
      </trkpt>
      <trkpt lat="45.3474" lon="6.79863">
        <ele>2540.6572</ele>
        <time>2015-08-25T13:27:10Z</time>
      </trkpt>
      <trkpt lat="45.34733" lon="6.79863">
        <ele>2540.6572</ele>
        <time>2015-08-25T13:27:20Z</time>
      </trkpt>
      <trkpt lat="45.34734" lon="6.79864">
        <ele>2540.6572</ele>
        <time>2015-08-25T13:27:25Z</time>
      </trkpt>
      <trkpt lat="45.34735" lon="6.79864">
        <ele>2541.7383</ele>
        <time>2015-08-25T13:27:35Z</time>
      </trkpt>
      <trkpt lat="45.34736" lon="6.79863">
        <ele>2541.7383</ele>
        <time>2015-08-25T13:27:40Z</time>
      </trkpt>
      <trkpt lat="45.34735" lon="6.79859">
        <ele>2541.7383</ele>
        <time>2015-08-25T13:27:50Z</time>
      </trkpt>
      <trkpt lat="45.34732" lon="6.79858">
        <ele>2541.7383</ele>
        <time>2015-08-25T13:27:55Z</time>
      </trkpt>
      <trkpt lat="45.3473" lon="6.79859">
        <ele>2543.0876</ele>
        <time>2015-08-25T13:28:05Z</time>
      </trkpt>
      <trkpt lat="45.34729" lon="6.79858">
        <ele>2543.0876</ele>
        <time>2015-08-25T13:28:10Z</time>
      </trkpt>
      <trkpt lat="45.34732" lon="6.7986">
        <ele>2543.0876</ele>
        <time>2015-08-25T13:28:20Z</time>
      </trkpt>
      <trkpt lat="45.34735" lon="6.79862">
        <ele>2543.0876</ele>
        <time>2015-08-25T13:28:25Z</time>
      </trkpt>
      <trkpt lat="45.34733" lon="6.79863">
        <ele>2544.4255</ele>
        <time>2015-08-25T13:28:35Z</time>
      </trkpt>
      <trkpt lat="45.34733" lon="6.79863">
        <ele>2544.4255</ele>
        <time>2015-08-25T13:28:40Z</time>
      </trkpt>
      <trkpt lat="45.34734" lon="6.79864">
        <ele>2544.4255</ele>
        <time>2015-08-25T13:28:55Z</time>
      </trkpt>
      <trkpt lat="45.34735" lon="6.79864">
        <ele>2544.4255</ele>
        <time>2015-08-25T13:29:00Z</time>
      </trkpt>
      <trkpt lat="45.34734" lon="6.79862">
        <ele>2544.4255</ele>
        <time>2015-08-25T13:29:10Z</time>
      </trkpt>
      <trkpt lat="45.34734" lon="6.79861">
        <ele>2544.4255</ele>
        <time>2015-08-25T13:29:15Z</time>
      </trkpt>
      <trkpt lat="45.34733" lon="6.79865">
        <ele>2544.4255</ele>
        <time>2015-08-25T13:29:25Z</time>
      </trkpt>
      <trkpt lat="45.34733" lon="6.79861">
        <ele>2545.3625</ele>
        <time>2015-08-25T13:29:30Z</time>
      </trkpt>
      <trkpt lat="45.34733" lon="6.79861">
        <ele>2545.3625</ele>
        <time>2015-08-25T13:29:40Z</time>
      </trkpt>
      <trkpt lat="45.3473" lon="6.79859">
        <ele>2545.3625</ele>
        <time>2015-08-25T13:30:10Z</time>
      </trkpt>
      <trkpt lat="45.3473" lon="6.79859">
        <ele>2545.3625</ele>
        <time>2015-08-25T13:30:15Z</time>
      </trkpt>
      <trkpt lat="45.3472" lon="6.79849">
        <ele>2546.0862</ele>
        <time>2015-08-25T13:30:25Z</time>
      </trkpt>
      <trkpt lat="45.34716" lon="6.79844">
        <ele>2546.0862</ele>
        <time>2015-08-25T13:30:30Z</time>
      </trkpt>
      <trkpt lat="45.3471" lon="6.79836">
        <ele>2546.57</ele>
        <time>2015-08-25T13:30:40Z</time>
      </trkpt>
      <trkpt lat="45.34706" lon="6.79833">
        <ele>2546.57</ele>
        <time>2015-08-25T13:30:45Z</time>
      </trkpt>
      <trkpt lat="45.34699" lon="6.79825">
        <ele>2546.7466</ele>
        <time>2015-08-25T13:30:55Z</time>
      </trkpt>
      <trkpt lat="45.34696" lon="6.79819">
        <ele>2546.7466</ele>
        <time>2015-08-25T13:31:00Z</time>
      </trkpt>
      <trkpt lat="45.34689" lon="6.79814">
        <ele>2546.77</ele>
        <time>2015-08-25T13:31:10Z</time>
      </trkpt>
      <trkpt lat="45.34685" lon="6.79818">
        <ele>2546.77</ele>
        <time>2015-08-25T13:31:15Z</time>
      </trkpt>
      <trkpt lat="45.34677" lon="6.79824">
        <ele>2546.5679</ele>
        <time>2015-08-25T13:31:25Z</time>
      </trkpt>
      <trkpt lat="45.34673" lon="6.79826">
        <ele>2546.5679</ele>
        <time>2015-08-25T13:31:30Z</time>
      </trkpt>
      <trkpt lat="45.34664" lon="6.79831">
        <ele>2546.2751</ele>
        <time>2015-08-25T13:31:45Z</time>
      </trkpt>
      <trkpt lat="45.34663" lon="6.79833">
        <ele>2546.2751</ele>
        <time>2015-08-25T13:31:50Z</time>
      </trkpt>
      <trkpt lat="45.34658" lon="6.79835">
        <ele>2546.2751</ele>
        <time>2015-08-25T13:32:00Z</time>
      </trkpt>
      <trkpt lat="45.34656" lon="6.7984">
        <ele>2545.5996</ele>
        <time>2015-08-25T13:32:05Z</time>
      </trkpt>
      <trkpt lat="45.3465" lon="6.79843">
        <ele>2545.5996</ele>
        <time>2015-08-25T13:32:15Z</time>
      </trkpt>
      <trkpt lat="45.34647" lon="6.79845">
        <ele>2544.8906</ele>
        <time>2015-08-25T13:32:20Z</time>
      </trkpt>
      <trkpt lat="45.34643" lon="6.79847">
        <ele>2544.8906</ele>
        <time>2015-08-25T13:32:30Z</time>
      </trkpt>
      <trkpt lat="45.34641" lon="6.79846">
        <ele>2544.8906</ele>
        <time>2015-08-25T13:32:35Z</time>
      </trkpt>
      <trkpt lat="45.34636" lon="6.79842">
        <ele>2544.0835</ele>
        <time>2015-08-25T13:32:45Z</time>
      </trkpt>
      <trkpt lat="45.34634" lon="6.79839">
        <ele>2544.0835</ele>
        <time>2015-08-25T13:32:50Z</time>
      </trkpt>
      <trkpt lat="45.3463" lon="6.79836">
        <ele>2544.0835</ele>
        <time>2015-08-25T13:33:00Z</time>
      </trkpt>
      <trkpt lat="45.34629" lon="6.79837">
        <ele>2543.421</ele>
        <time>2015-08-25T13:33:05Z</time>
      </trkpt>
      <trkpt lat="45.34625" lon="6.79837">
        <ele>2543.421</ele>
        <time>2015-08-25T13:33:15Z</time>
      </trkpt>
      <trkpt lat="45.34622" lon="6.79837">
        <ele>2543.421</ele>
        <time>2015-08-25T13:33:20Z</time>
      </trkpt>
      <trkpt lat="45.34614" lon="6.79837">
        <ele>2543.141</ele>
        <time>2015-08-25T13:33:35Z</time>
      </trkpt>
      <trkpt lat="45.34612" lon="6.79837">
        <ele>2543.141</ele>
        <time>2015-08-25T13:33:40Z</time>
      </trkpt>
      <trkpt lat="45.34612" lon="6.79836">
        <ele>2543.141</ele>
        <time>2015-08-25T13:33:50Z</time>
      </trkpt>
      <trkpt lat="45.34609" lon="6.79834">
        <ele>2543.141</ele>
        <time>2015-08-25T13:33:55Z</time>
      </trkpt>
      <trkpt lat="45.34609" lon="6.79838">
        <ele>2543.3923</ele>
        <time>2015-08-25T13:34:05Z</time>
      </trkpt>
      <trkpt lat="45.34611" lon="6.79839">
        <ele>2543.3923</ele>
        <time>2015-08-25T13:34:10Z</time>
      </trkpt>
      <trkpt lat="45.34607" lon="6.79832">
        <ele>2543.734</ele>
        <time>2015-08-25T13:34:20Z</time>
      </trkpt>
      <trkpt lat="45.34605" lon="6.79832">
        <ele>2543.734</ele>
        <time>2015-08-25T13:34:25Z</time>
      </trkpt>
      <trkpt lat="45.346" lon="6.79832">
        <ele>2543.734</ele>
        <time>2015-08-25T13:34:35Z</time>
      </trkpt>
      <trkpt lat="45.34598" lon="6.79834">
        <ele>2544.3909</ele>
        <time>2015-08-25T13:34:40Z</time>
      </trkpt>
      <trkpt lat="45.34592" lon="6.79836">
        <ele>2544.3909</ele>
        <time>2015-08-25T13:34:50Z</time>
      </trkpt>
      <trkpt lat="45.34587" lon="6.79837">
        <ele>2544.9514</ele>
        <time>2015-08-25T13:34:55Z</time>
      </trkpt>
      <trkpt lat="45.34577" lon="6.79838">
        <ele>2545.4377</ele>
        <time>2015-08-25T13:35:05Z</time>
      </trkpt>
      <trkpt lat="45.34571" lon="6.7984">
        <ele>2545.4377</ele>
        <time>2015-08-25T13:35:10Z</time>
      </trkpt>
      <trkpt lat="45.34564" lon="6.79839">
        <ele>2545.899</ele>
        <time>2015-08-25T13:35:20Z</time>
      </trkpt>
      <trkpt lat="45.34561" lon="6.7984">
        <ele>2545.899</ele>
        <time>2015-08-25T13:35:25Z</time>
      </trkpt>
      <trkpt lat="45.34556" lon="6.79841">
        <ele>2545.899</ele>
        <time>2015-08-25T13:35:35Z</time>
      </trkpt>
      <trkpt lat="45.34554" lon="6.79839">
        <ele>2546.1938</ele>
        <time>2015-08-25T13:35:40Z</time>
      </trkpt>
      <trkpt lat="45.3454" lon="6.79834">
        <ele>2546.5085</ele>
        <time>2015-08-25T13:35:55Z</time>
      </trkpt>
      <trkpt lat="45.34536" lon="6.79831">
        <ele>2546.5085</ele>
        <time>2015-08-25T13:36:00Z</time>
      </trkpt>
      <trkpt lat="45.34529" lon="6.79826">
        <ele>2546.857</ele>
        <time>2015-08-25T13:36:10Z</time>
      </trkpt>
      <trkpt lat="45.34525" lon="6.79826">
        <ele>2546.857</ele>
        <time>2015-08-25T13:36:15Z</time>
      </trkpt>
      <trkpt lat="45.34515" lon="6.79825">
        <ele>2547.1943</ele>
        <time>2015-08-25T13:36:25Z</time>
      </trkpt>
      <trkpt lat="45.34511" lon="6.79824">
        <ele>2547.1943</ele>
        <time>2015-08-25T13:36:30Z</time>
      </trkpt>
      <trkpt lat="45.34504" lon="6.79825">
        <ele>2547.5222</ele>
        <time>2015-08-25T13:36:40Z</time>
      </trkpt>
      <trkpt lat="45.34501" lon="6.79823">
        <ele>2547.5222</ele>
        <time>2015-08-25T13:36:45Z</time>
      </trkpt>
      <trkpt lat="45.34494" lon="6.79822">
        <ele>2547.7417</ele>
        <time>2015-08-25T13:36:55Z</time>
      </trkpt>
      <trkpt lat="45.34489" lon="6.79821">
        <ele>2547.7417</ele>
        <time>2015-08-25T13:37:00Z</time>
      </trkpt>
      <trkpt lat="45.34478" lon="6.79823">
        <ele>2547.8757</ele>
        <time>2015-08-25T13:37:10Z</time>
      </trkpt>
      <trkpt lat="45.34472" lon="6.79826">
        <ele>2547.8757</ele>
        <time>2015-08-25T13:37:15Z</time>
      </trkpt>
      <trkpt lat="45.34463" lon="6.79831">
        <ele>2547.975</ele>
        <time>2015-08-25T13:37:25Z</time>
      </trkpt>
      <trkpt lat="45.34459" lon="6.79829">
        <ele>2547.975</ele>
        <time>2015-08-25T13:37:30Z</time>
      </trkpt>
      <trkpt lat="45.34446" lon="6.79832">
        <ele>2548.1592</ele>
        <time>2015-08-25T13:37:45Z</time>
      </trkpt>
      <trkpt lat="45.34441" lon="6.79832">
        <ele>2548.1592</ele>
        <time>2015-08-25T13:37:50Z</time>
      </trkpt>
      <trkpt lat="45.34432" lon="6.7983">
        <ele>2548.2932</ele>
        <time>2015-08-25T13:38:00Z</time>
      </trkpt>
      <trkpt lat="45.34427" lon="6.7983">
        <ele>2548.2932</ele>
        <time>2015-08-25T13:38:05Z</time>
      </trkpt>
      <trkpt lat="45.3442" lon="6.79834">
        <ele>2548.2952</ele>
        <time>2015-08-25T13:38:15Z</time>
      </trkpt>
      <trkpt lat="45.34417" lon="6.79836">
        <ele>2548.2952</ele>
        <time>2015-08-25T13:38:20Z</time>
      </trkpt>
      <trkpt lat="45.3441" lon="6.79837">
        <ele>2547.9458</ele>
        <time>2015-08-25T13:38:30Z</time>
      </trkpt>
      <trkpt lat="45.34406" lon="6.79839">
        <ele>2547.9458</ele>
        <time>2015-08-25T13:38:35Z</time>
      </trkpt>
      <trkpt lat="45.34393" lon="6.79837">
        <ele>2547.4316</ele>
        <time>2015-08-25T13:38:45Z</time>
      </trkpt>
      <trkpt lat="45.3439" lon="6.79837">
        <ele>2547.4316</ele>
        <time>2015-08-25T13:38:50Z</time>
      </trkpt>
      <trkpt lat="45.34382" lon="6.79837">
        <ele>2546.8542</ele>
        <time>2015-08-25T13:39:00Z</time>
      </trkpt>
      <trkpt lat="45.34379" lon="6.79838">
        <ele>2546.8542</ele>
        <time>2015-08-25T13:39:05Z</time>
      </trkpt>
      <trkpt lat="45.34368" lon="6.79852">
        <ele>2546.077</ele>
        <time>2015-08-25T13:39:20Z</time>
      </trkpt>
      <trkpt lat="45.34364" lon="6.79853">
        <ele>2546.077</ele>
        <time>2015-08-25T13:39:25Z</time>
      </trkpt>
      <trkpt lat="45.34359" lon="6.79863">
        <ele>2545.06</ele>
        <time>2015-08-25T13:39:35Z</time>
      </trkpt>
      <trkpt lat="45.34357" lon="6.79868">
        <ele>2545.06</ele>
        <time>2015-08-25T13:39:40Z</time>
      </trkpt>
      <trkpt lat="45.34349" lon="6.79873">
        <ele>2543.8542</ele>
        <time>2015-08-25T13:39:50Z</time>
      </trkpt>
      <trkpt lat="45.34344" lon="6.79876">
        <ele>2543.8542</ele>
        <time>2015-08-25T13:39:55Z</time>
      </trkpt>
      <trkpt lat="45.34332" lon="6.79878">
        <ele>2542.5208</ele>
        <time>2015-08-25T13:40:05Z</time>
      </trkpt>
      <trkpt lat="45.34326" lon="6.79878">
        <ele>2542.5208</ele>
        <time>2015-08-25T13:40:10Z</time>
      </trkpt>
      <trkpt lat="45.34317" lon="6.79882">
        <ele>2541.0742</ele>
        <time>2015-08-25T13:40:20Z</time>
      </trkpt>
      <trkpt lat="45.34314" lon="6.79883">
        <ele>2541.0742</ele>
        <time>2015-08-25T13:40:25Z</time>
      </trkpt>
      <trkpt lat="45.34306" lon="6.79881">
        <ele>2539.6282</ele>
        <time>2015-08-25T13:40:35Z</time>
      </trkpt>
      <trkpt lat="45.34301" lon="6.79881">
        <ele>2539.6282</ele>
        <time>2015-08-25T13:40:40Z</time>
      </trkpt>
      <trkpt lat="45.34298" lon="6.79881">
        <ele>2539.6282</ele>
        <time>2015-08-25T13:40:50Z</time>
      </trkpt>
      <trkpt lat="45.34295" lon="6.79884">
        <ele>2537.9429</ele>
        <time>2015-08-25T13:40:55Z</time>
      </trkpt>
      <trkpt lat="45.34289" lon="6.79894">
        <ele>2536.2715</ele>
        <time>2015-08-25T13:41:05Z</time>
      </trkpt>
      <trkpt lat="45.34285" lon="6.79898">
        <ele>2536.2715</ele>
        <time>2015-08-25T13:41:10Z</time>
      </trkpt>
      <trkpt lat="45.34284" lon="6.79905">
        <ele>2534.561</ele>
        <time>2015-08-25T13:41:20Z</time>
      </trkpt>
      <trkpt lat="45.3428" lon="6.79909">
        <ele>2534.561</ele>
        <time>2015-08-25T13:41:25Z</time>
      </trkpt>
      <trkpt lat="45.34275" lon="6.79921">
        <ele>2532.949</ele>
        <time>2015-08-25T13:41:35Z</time>
      </trkpt>
      <trkpt lat="45.34275" lon="6.79922">
        <ele>2532.949</ele>
        <time>2015-08-25T13:41:40Z</time>
      </trkpt>
      <trkpt lat="45.34274" lon="6.79938">
        <ele>2531.4333</ele>
        <time>2015-08-25T13:41:55Z</time>
      </trkpt>
      <trkpt lat="45.34274" lon="6.79942">
        <ele>2531.4333</ele>
        <time>2015-08-25T13:42:00Z</time>
      </trkpt>
      <trkpt lat="45.34274" lon="6.79954">
        <ele>2530.1265</ele>
        <time>2015-08-25T13:42:10Z</time>
      </trkpt>
      <trkpt lat="45.34273" lon="6.79958">
        <ele>2530.1265</ele>
        <time>2015-08-25T13:42:15Z</time>
      </trkpt>
      <trkpt lat="45.34273" lon="6.79965">
        <ele>2530.1265</ele>
        <time>2015-08-25T13:42:25Z</time>
      </trkpt>
      <trkpt lat="45.34273" lon="6.79968">
        <ele>2529.1177</ele>
        <time>2015-08-25T13:42:30Z</time>
      </trkpt>
      <trkpt lat="45.34274" lon="6.79974">
        <ele>2529.1177</ele>
        <time>2015-08-25T13:42:40Z</time>
      </trkpt>
      <trkpt lat="45.34274" lon="6.79977">
        <ele>2529.1177</ele>
        <time>2015-08-25T13:42:45Z</time>
      </trkpt>
      <trkpt lat="45.34268" lon="6.79984">
        <ele>2528.402</ele>
        <time>2015-08-25T13:42:55Z</time>
      </trkpt>
      <trkpt lat="45.34266" lon="6.79988">
        <ele>2528.402</ele>
        <time>2015-08-25T13:43:00Z</time>
      </trkpt>
      <trkpt lat="45.34265" lon="6.79996">
        <ele>2528.0469</ele>
        <time>2015-08-25T13:43:10Z</time>
      </trkpt>
      <trkpt lat="45.34264" lon="6.8">
        <ele>2528.0469</ele>
        <time>2015-08-25T13:43:15Z</time>
      </trkpt>
      <trkpt lat="45.34259" lon="6.80009">
        <ele>2527.896</ele>
        <time>2015-08-25T13:43:25Z</time>
      </trkpt>
      <trkpt lat="45.34256" lon="6.80014">
        <ele>2527.896</ele>
        <time>2015-08-25T13:43:30Z</time>
      </trkpt>
      <trkpt lat="45.34251" lon="6.80025">
        <ele>2528.036</ele>
        <time>2015-08-25T13:43:40Z</time>
      </trkpt>
      <trkpt lat="45.34248" lon="6.80032">
        <ele>2528.036</ele>
        <time>2015-08-25T13:43:45Z</time>
      </trkpt>
      <trkpt lat="45.34244" lon="6.80038">
        <ele>2528.4148</ele>
        <time>2015-08-25T13:43:55Z</time>
      </trkpt>
      <trkpt lat="45.34243" lon="6.80041">
        <ele>2528.4148</ele>
        <time>2015-08-25T13:44:00Z</time>
      </trkpt>
      <trkpt lat="45.3424" lon="6.80051">
        <ele>2528.8267</ele>
        <time>2015-08-25T13:44:10Z</time>
      </trkpt>
      <trkpt lat="45.34239" lon="6.80057">
        <ele>2528.8267</ele>
        <time>2015-08-25T13:44:15Z</time>
      </trkpt>
      <trkpt lat="45.34238" lon="6.80068">
        <ele>2529.3965</ele>
        <time>2015-08-25T13:44:25Z</time>
      </trkpt>
      <trkpt lat="45.34236" lon="6.80073">
        <ele>2529.3965</ele>
        <time>2015-08-25T13:44:30Z</time>
      </trkpt>
      <trkpt lat="45.34235" lon="6.80085">
        <ele>2529.9949</ele>
        <time>2015-08-25T13:44:40Z</time>
      </trkpt>
      <trkpt lat="45.34232" lon="6.8009">
        <ele>2529.9949</ele>
        <time>2015-08-25T13:44:45Z</time>
      </trkpt>
      <trkpt lat="45.34227" lon="6.80099">
        <ele>2530.4878</ele>
        <time>2015-08-25T13:44:55Z</time>
      </trkpt>
      <trkpt lat="45.34223" lon="6.80105">
        <ele>2530.4878</ele>
        <time>2015-08-25T13:45:00Z</time>
      </trkpt>
      <trkpt lat="45.34214" lon="6.80112">
        <ele>2530.9956</ele>
        <time>2015-08-25T13:45:10Z</time>
      </trkpt>
      <trkpt lat="45.34213" lon="6.80116">
        <ele>2530.9956</ele>
        <time>2015-08-25T13:45:15Z</time>
      </trkpt>
      <trkpt lat="45.34209" lon="6.80138">
        <ele>2531.6016</ele>
        <time>2015-08-25T13:45:30Z</time>
      </trkpt>
      <trkpt lat="45.34206" lon="6.80144">
        <ele>2531.6016</ele>
        <time>2015-08-25T13:45:35Z</time>
      </trkpt>
      <trkpt lat="45.34203" lon="6.80155">
        <ele>2532.2236</ele>
        <time>2015-08-25T13:45:45Z</time>
      </trkpt>
      <trkpt lat="45.34202" lon="6.80159">
        <ele>2532.2236</ele>
        <time>2015-08-25T13:45:50Z</time>
      </trkpt>
      <trkpt lat="45.34196" lon="6.8017">
        <ele>2532.829</ele>
        <time>2015-08-25T13:46:00Z</time>
      </trkpt>
      <trkpt lat="45.34192" lon="6.80176">
        <ele>2532.829</ele>
        <time>2015-08-25T13:46:05Z</time>
      </trkpt>
      <trkpt lat="45.34188" lon="6.80186">
        <ele>2533.5603</ele>
        <time>2015-08-25T13:46:15Z</time>
      </trkpt>
      <trkpt lat="45.34186" lon="6.8019">
        <ele>2533.5603</ele>
        <time>2015-08-25T13:46:20Z</time>
      </trkpt>
      <trkpt lat="45.34186" lon="6.802">
        <ele>2534.2751</ele>
        <time>2015-08-25T13:46:30Z</time>
      </trkpt>
      <trkpt lat="45.34184" lon="6.80204">
        <ele>2534.2751</ele>
        <time>2015-08-25T13:46:35Z</time>
      </trkpt>
      <trkpt lat="45.3418" lon="6.80213">
        <ele>2534.9292</ele>
        <time>2015-08-25T13:46:45Z</time>
      </trkpt>
      <trkpt lat="45.34178" lon="6.80219">
        <ele>2534.9292</ele>
        <time>2015-08-25T13:46:50Z</time>
      </trkpt>
      <trkpt lat="45.34175" lon="6.80235">
        <ele>2535.3792</ele>
        <time>2015-08-25T13:47:05Z</time>
      </trkpt>
      <trkpt lat="45.34174" lon="6.80239">
        <ele>2535.3792</ele>
        <time>2015-08-25T13:47:10Z</time>
      </trkpt>
      <trkpt lat="45.34171" lon="6.80244">
        <ele>2535.3792</ele>
        <time>2015-08-25T13:47:20Z</time>
      </trkpt>
      <trkpt lat="45.34171" lon="6.80245">
        <ele>2535.3792</ele>
        <time>2015-08-25T13:47:25Z</time>
      </trkpt>
      <trkpt lat="45.3417" lon="6.80243">
        <ele>2535.7104</ele>
        <time>2015-08-25T13:47:35Z</time>
      </trkpt>
      <trkpt lat="45.3417" lon="6.80244">
        <ele>2535.7104</ele>
        <time>2015-08-25T13:47:40Z</time>
      </trkpt>
      <trkpt lat="45.34166" lon="6.80247">
        <ele>2535.7104</ele>
        <time>2015-08-25T13:47:50Z</time>
      </trkpt>
      <trkpt lat="45.34166" lon="6.80247">
        <ele>2535.7104</ele>
        <time>2015-08-25T13:47:55Z</time>
      </trkpt>
      <trkpt lat="45.34165" lon="6.80247">
        <ele>2535.7104</ele>
        <time>2015-08-25T13:48:05Z</time>
      </trkpt>
      <trkpt lat="45.34164" lon="6.80247">
        <ele>2535.7104</ele>
        <time>2015-08-25T13:48:10Z</time>
      </trkpt>
      <trkpt lat="45.34163" lon="6.80245">
        <ele>2536.1025</ele>
        <time>2015-08-25T13:48:20Z</time>
      </trkpt>
      <trkpt lat="45.34162" lon="6.80249">
        <ele>2536.1025</ele>
        <time>2015-08-25T13:48:25Z</time>
      </trkpt>
      <trkpt lat="45.34156" lon="6.80245">
        <ele>2536.4482</ele>
        <time>2015-08-25T13:48:35Z</time>
      </trkpt>
      <trkpt lat="45.34153" lon="6.80243">
        <ele>2536.4482</ele>
        <time>2015-08-25T13:48:40Z</time>
      </trkpt>
      <trkpt lat="45.3415" lon="6.80236">
        <ele>2536.7344</ele>
        <time>2015-08-25T13:48:50Z</time>
      </trkpt>
      <trkpt lat="45.34149" lon="6.8023">
        <ele>2536.7344</ele>
        <time>2015-08-25T13:48:55Z</time>
      </trkpt>
      <trkpt lat="45.34145" lon="6.8022">
        <ele>2537.0647</ele>
        <time>2015-08-25T13:49:10Z</time>
      </trkpt>
      <trkpt lat="45.34141" lon="6.80217">
        <ele>2537.0647</ele>
        <time>2015-08-25T13:49:15Z</time>
      </trkpt>
      <trkpt lat="45.34134" lon="6.80207">
        <ele>2537.4058</ele>
        <time>2015-08-25T13:49:25Z</time>
      </trkpt>
      <trkpt lat="45.34131" lon="6.80205">
        <ele>2537.4058</ele>
        <time>2015-08-25T13:49:30Z</time>
      </trkpt>
      <trkpt lat="45.34123" lon="6.80199">
        <ele>2537.7544</ele>
        <time>2015-08-25T13:49:40Z</time>
      </trkpt>
      <trkpt lat="45.3412" lon="6.80198">
        <ele>2537.7544</ele>
        <time>2015-08-25T13:49:45Z</time>
      </trkpt>
      <trkpt lat="45.34111" lon="6.80192">
        <ele>2538.152</ele>
        <time>2015-08-25T13:49:55Z</time>
      </trkpt>
      <trkpt lat="45.34107" lon="6.80191">
        <ele>2538.152</ele>
        <time>2015-08-25T13:50:00Z</time>
      </trkpt>
      <trkpt lat="45.341" lon="6.80187">
        <ele>2538.651</ele>
        <time>2015-08-25T13:50:10Z</time>
      </trkpt>
      <trkpt lat="45.34098" lon="6.80185">
        <ele>2538.651</ele>
        <time>2015-08-25T13:50:15Z</time>
      </trkpt>
      <trkpt lat="45.34096" lon="6.80176">
        <ele>2539.1406</ele>
        <time>2015-08-25T13:50:25Z</time>
      </trkpt>
      <trkpt lat="45.34095" lon="6.80172">
        <ele>2539.1406</ele>
        <time>2015-08-25T13:50:30Z</time>
      </trkpt>
      <trkpt lat="45.34091" lon="6.80169">
        <ele>2539.1406</ele>
        <time>2015-08-25T13:50:40Z</time>
      </trkpt>
      <trkpt lat="45.3409" lon="6.80169">
        <ele>2539.7927</ele>
        <time>2015-08-25T13:50:45Z</time>
      </trkpt>
      <trkpt lat="45.34084" lon="6.8017">
        <ele>2539.7927</ele>
        <time>2015-08-25T13:50:55Z</time>
      </trkpt>
      <trkpt lat="45.34081" lon="6.80167">
        <ele>2539.7927</ele>
        <time>2015-08-25T13:51:00Z</time>
      </trkpt>
      <trkpt lat="45.34076" lon="6.80149">
        <ele>2540.651</ele>
        <time>2015-08-25T13:51:15Z</time>
      </trkpt>
      <trkpt lat="45.34076" lon="6.80146">
        <ele>2540.651</ele>
        <time>2015-08-25T13:51:20Z</time>
      </trkpt>
      <trkpt lat="45.34075" lon="6.8013">
        <ele>2541.61</ele>
        <time>2015-08-25T13:51:30Z</time>
      </trkpt>
      <trkpt lat="45.34073" lon="6.80123">
        <ele>2541.61</ele>
        <time>2015-08-25T13:51:35Z</time>
      </trkpt>
      <trkpt lat="45.34072" lon="6.80112">
        <ele>2542.502</ele>
        <time>2015-08-25T13:51:45Z</time>
      </trkpt>
      <trkpt lat="45.34071" lon="6.80109">
        <ele>2542.502</ele>
        <time>2015-08-25T13:51:50Z</time>
      </trkpt>
      <trkpt lat="45.34068" lon="6.80099">
        <ele>2543.4004</ele>
        <time>2015-08-25T13:52:00Z</time>
      </trkpt>
      <trkpt lat="45.34067" lon="6.80096">
        <ele>2543.4004</ele>
        <time>2015-08-25T13:52:05Z</time>
      </trkpt>
      <trkpt lat="45.34061" lon="6.80091">
        <ele>2544.4172</ele>
        <time>2015-08-25T13:52:15Z</time>
      </trkpt>
      <trkpt lat="45.34058" lon="6.80086">
        <ele>2544.4172</ele>
        <time>2015-08-25T13:52:20Z</time>
      </trkpt>
      <trkpt lat="45.3405" lon="6.80084">
        <ele>2545.4976</ele>
        <time>2015-08-25T13:52:30Z</time>
      </trkpt>
      <trkpt lat="45.34045" lon="6.80082">
        <ele>2545.4976</ele>
        <time>2015-08-25T13:52:35Z</time>
      </trkpt>
      <trkpt lat="45.34035" lon="6.8008">
        <ele>2546.5906</ele>
        <time>2015-08-25T13:52:45Z</time>
      </trkpt>
      <trkpt lat="45.34031" lon="6.80075">
        <ele>2546.5906</ele>
        <time>2015-08-25T13:52:50Z</time>
      </trkpt>
      <trkpt lat="45.34023" lon="6.8007">
        <ele>2547.62</ele>
        <time>2015-08-25T13:53:00Z</time>
      </trkpt>
      <trkpt lat="45.34019" lon="6.80068">
        <ele>2547.62</ele>
        <time>2015-08-25T13:53:05Z</time>
      </trkpt>
      <trkpt lat="45.34011" lon="6.80064">
        <ele>2548.631</ele>
        <time>2015-08-25T13:53:15Z</time>
      </trkpt>
      <trkpt lat="45.34011" lon="6.80057">
        <ele>2548.631</ele>
        <time>2015-08-25T13:53:20Z</time>
      </trkpt>
      <trkpt lat="45.33998" lon="6.80049">
        <ele>2549.3628</ele>
        <time>2015-08-25T13:53:35Z</time>
      </trkpt>
      <trkpt lat="45.33994" lon="6.80048">
        <ele>2549.3628</ele>
        <time>2015-08-25T13:53:40Z</time>
      </trkpt>
      <trkpt lat="45.33984" lon="6.80044">
        <ele>2549.9783</ele>
        <time>2015-08-25T13:53:50Z</time>
      </trkpt>
      <trkpt lat="45.33981" lon="6.80038">
        <ele>2549.9783</ele>
        <time>2015-08-25T13:53:55Z</time>
      </trkpt>
      <trkpt lat="45.33976" lon="6.8003">
        <ele>2550.2825</ele>
        <time>2015-08-25T13:54:05Z</time>
      </trkpt>
      <trkpt lat="45.33974" lon="6.80026">
        <ele>2550.2825</ele>
        <time>2015-08-25T13:54:10Z</time>
      </trkpt>
      <trkpt lat="45.33965" lon="6.80019">
        <ele>2550.4277</ele>
        <time>2015-08-25T13:54:20Z</time>
      </trkpt>
      <trkpt lat="45.3396" lon="6.80015">
        <ele>2550.4277</ele>
        <time>2015-08-25T13:54:25Z</time>
      </trkpt>
      <trkpt lat="45.33954" lon="6.80005">
        <ele>2550.4978</ele>
        <time>2015-08-25T13:54:35Z</time>
      </trkpt>
      <trkpt lat="45.33952" lon="6.8">
        <ele>2550.4978</ele>
        <time>2015-08-25T13:54:40Z</time>
      </trkpt>
      <trkpt lat="45.33947" lon="6.79992">
        <ele>2550.5276</ele>
        <time>2015-08-25T13:54:50Z</time>
      </trkpt>
      <trkpt lat="45.33946" lon="6.79986">
        <ele>2550.5276</ele>
        <time>2015-08-25T13:54:55Z</time>
      </trkpt>
      <trkpt lat="45.33946" lon="6.79975">
        <ele>2550.4624</ele>
        <time>2015-08-25T13:55:05Z</time>
      </trkpt>
      <trkpt lat="45.33943" lon="6.79972">
        <ele>2550.4624</ele>
        <time>2015-08-25T13:55:10Z</time>
      </trkpt>
      <trkpt lat="45.3394" lon="6.79958">
        <ele>2550.152</ele>
        <time>2015-08-25T13:55:25Z</time>
      </trkpt>
      <trkpt lat="45.33939" lon="6.79952">
        <ele>2550.152</ele>
        <time>2015-08-25T13:55:30Z</time>
      </trkpt>
      <trkpt lat="45.33937" lon="6.79942">
        <ele>2549.486</ele>
        <time>2015-08-25T13:55:40Z</time>
      </trkpt>
      <trkpt lat="45.33934" lon="6.79939">
        <ele>2549.486</ele>
        <time>2015-08-25T13:55:45Z</time>
      </trkpt>
      <trkpt lat="45.33933" lon="6.79929">
        <ele>2548.508</ele>
        <time>2015-08-25T13:55:55Z</time>
      </trkpt>
      <trkpt lat="45.3393" lon="6.79925">
        <ele>2548.508</ele>
        <time>2015-08-25T13:56:00Z</time>
      </trkpt>
      <trkpt lat="45.33927" lon="6.79916">
        <ele>2547.2007</ele>
        <time>2015-08-25T13:56:10Z</time>
      </trkpt>
      <trkpt lat="45.33924" lon="6.79914">
        <ele>2547.2007</ele>
        <time>2015-08-25T13:56:15Z</time>
      </trkpt>
      <trkpt lat="45.33917" lon="6.7991">
        <ele>2545.7515</ele>
        <time>2015-08-25T13:56:25Z</time>
      </trkpt>
      <trkpt lat="45.33914" lon="6.7991">
        <ele>2545.7515</ele>
        <time>2015-08-25T13:56:30Z</time>
      </trkpt>
      <trkpt lat="45.33906" lon="6.79904">
        <ele>2544.262</ele>
        <time>2015-08-25T13:56:40Z</time>
      </trkpt>
      <trkpt lat="45.33901" lon="6.799">
        <ele>2544.262</ele>
        <time>2015-08-25T13:56:45Z</time>
      </trkpt>
      <trkpt lat="45.33893" lon="6.79896">
        <ele>2542.7693</ele>
        <time>2015-08-25T13:57:00Z</time>
      </trkpt>
      <trkpt lat="45.3389" lon="6.79897">
        <ele>2542.7693</ele>
        <time>2015-08-25T13:57:05Z</time>
      </trkpt>
      <trkpt lat="45.33886" lon="6.79894">
        <ele>2542.7693</ele>
        <time>2015-08-25T13:57:15Z</time>
      </trkpt>
      <trkpt lat="45.33882" lon="6.79893">
        <ele>2541.35</ele>
        <time>2015-08-25T13:57:20Z</time>
      </trkpt>
      <trkpt lat="45.33877" lon="6.79879">
        <ele>2539.9612</ele>
        <time>2015-08-25T13:57:30Z</time>
      </trkpt>
      <trkpt lat="45.33875" lon="6.79873">
        <ele>2539.9612</ele>
        <time>2015-08-25T13:57:35Z</time>
      </trkpt>
      <trkpt lat="45.33869" lon="6.79865">
        <ele>2538.5754</ele>
        <time>2015-08-25T13:57:45Z</time>
      </trkpt>
      <trkpt lat="45.33865" lon="6.7986">
        <ele>2538.5754</ele>
        <time>2015-08-25T13:57:50Z</time>
      </trkpt>
      <trkpt lat="45.33855" lon="6.79849">
        <ele>2537.5579</ele>
        <time>2015-08-25T13:58:00Z</time>
      </trkpt>
      <trkpt lat="45.33852" lon="6.79847">
        <ele>2537.5579</ele>
        <time>2015-08-25T13:58:05Z</time>
      </trkpt>
      <trkpt lat="45.33848" lon="6.79836">
        <ele>2536.4954</ele>
        <time>2015-08-25T13:58:15Z</time>
      </trkpt>
      <trkpt lat="45.33846" lon="6.79836">
        <ele>2536.4954</ele>
        <time>2015-08-25T13:58:20Z</time>
      </trkpt>
      <trkpt lat="45.3384" lon="6.79832">
        <ele>2536.4954</ele>
        <time>2015-08-25T13:58:30Z</time>
      </trkpt>
      <trkpt lat="45.33838" lon="6.79829">
        <ele>2535.6257</ele>
        <time>2015-08-25T13:58:35Z</time>
      </trkpt>
      <trkpt lat="45.33835" lon="6.79826">
        <ele>2535.6257</ele>
        <time>2015-08-25T13:58:45Z</time>
      </trkpt>
      <trkpt lat="45.33834" lon="6.79822">
        <ele>2535.6257</ele>
        <time>2015-08-25T13:58:50Z</time>
      </trkpt>
      <trkpt lat="45.33832" lon="6.79817">
        <ele>2535.0093</ele>
        <time>2015-08-25T13:59:00Z</time>
      </trkpt>
      <trkpt lat="45.3383" lon="6.79815">
        <ele>2535.0093</ele>
        <time>2015-08-25T13:59:05Z</time>
      </trkpt>
      <trkpt lat="45.33829" lon="6.79807">
        <ele>2535.0093</ele>
        <time>2015-08-25T13:59:15Z</time>
      </trkpt>
      <trkpt lat="45.33826" lon="6.79808">
        <ele>2534.3413</ele>
        <time>2015-08-25T13:59:20Z</time>
      </trkpt>
      <trkpt lat="45.33821" lon="6.79815">
        <ele>2534.3413</ele>
        <time>2015-08-25T13:59:30Z</time>
      </trkpt>
      <trkpt lat="45.33821" lon="6.79816">
        <ele>2534.3413</ele>
        <time>2015-08-25T13:59:35Z</time>
      </trkpt>
      <trkpt lat="45.33813" lon="6.79818">
        <ele>2533.6711</ele>
        <time>2015-08-25T13:59:45Z</time>
      </trkpt>
      <trkpt lat="45.3381" lon="6.79815">
        <ele>2533.6711</ele>
        <time>2015-08-25T13:59:50Z</time>
      </trkpt>
      <trkpt lat="45.33802" lon="6.79814">
        <ele>2532.9001</ele>
        <time>2015-08-25T14:00:00Z</time>
      </trkpt>
      <trkpt lat="45.33801" lon="6.79816">
        <ele>2532.9001</ele>
        <time>2015-08-25T14:00:05Z</time>
      </trkpt>
      <trkpt lat="45.33788" lon="6.79815">
        <ele>2532.1384</ele>
        <time>2015-08-25T14:00:20Z</time>
      </trkpt>
      <trkpt lat="45.33784" lon="6.79814">
        <ele>2532.1384</ele>
        <time>2015-08-25T14:00:25Z</time>
      </trkpt>
      <trkpt lat="45.33778" lon="6.79816">
        <ele>2531.2583</ele>
        <time>2015-08-25T14:00:35Z</time>
      </trkpt>
      <trkpt lat="45.33778" lon="6.79816">
        <ele>2531.2583</ele>
        <time>2015-08-25T14:00:40Z</time>
      </trkpt>
      <trkpt lat="45.33779" lon="6.79815">
        <ele>2531.2583</ele>
        <time>2015-08-25T14:00:50Z</time>
      </trkpt>
      <trkpt lat="45.33779" lon="6.79815">
        <ele>2531.2583</ele>
        <time>2015-08-25T14:00:55Z</time>
      </trkpt>
      <trkpt lat="45.3378" lon="6.79815">
        <ele>2531.2583</ele>
        <time>2015-08-25T14:01:05Z</time>
      </trkpt>
      <trkpt lat="45.3378" lon="6.79818">
        <ele>2531.2583</ele>
        <time>2015-08-25T14:01:10Z</time>
      </trkpt>
      <trkpt lat="45.33779" lon="6.7982">
        <ele>2531.2583</ele>
        <time>2015-08-25T14:01:20Z</time>
      </trkpt>
      <trkpt lat="45.33781" lon="6.7982">
        <ele>2530.4001</ele>
        <time>2015-08-25T14:01:25Z</time>
      </trkpt>
      <trkpt lat="45.3378" lon="6.79821">
        <ele>2530.4001</ele>
        <time>2015-08-25T14:01:35Z</time>
      </trkpt>
      <trkpt lat="45.33781" lon="6.79819">
        <ele>2530.4001</ele>
        <time>2015-08-25T14:01:40Z</time>
      </trkpt>
      <trkpt lat="45.3378" lon="6.79819">
        <ele>2530.4001</ele>
        <time>2015-08-25T14:01:50Z</time>
      </trkpt>
      <trkpt lat="45.33782" lon="6.79818">
        <ele>2530.4001</ele>
        <time>2015-08-25T14:01:55Z</time>
      </trkpt>
      <trkpt lat="45.33782" lon="6.7982">
        <ele>2530.4001</ele>
        <time>2015-08-25T14:02:05Z</time>
      </trkpt>
      <trkpt lat="45.33782" lon="6.79818">
        <ele>2530.4001</ele>
        <time>2015-08-25T14:02:10Z</time>
      </trkpt>
      <trkpt lat="45.33775" lon="6.79816">
        <ele>2529.4927</ele>
        <time>2015-08-25T14:02:25Z</time>
      </trkpt>
      <trkpt lat="45.33772" lon="6.79819">
        <ele>2529.4927</ele>
        <time>2015-08-25T14:02:30Z</time>
      </trkpt>
      <trkpt lat="45.33771" lon="6.79815">
        <ele>2529.4927</ele>
        <time>2015-08-25T14:02:40Z</time>
      </trkpt>
      <trkpt lat="45.33769" lon="6.79814">
        <ele>2529.4927</ele>
        <time>2015-08-25T14:02:45Z</time>
      </trkpt>
      <trkpt lat="45.33768" lon="6.79816">
        <ele>2528.6284</ele>
        <time>2015-08-25T14:02:55Z</time>
      </trkpt>
      <trkpt lat="45.33769" lon="6.79817">
        <ele>2528.6284</ele>
        <time>2015-08-25T14:03:00Z</time>
      </trkpt>
      <trkpt lat="45.33771" lon="6.79819">
        <ele>2528.6284</ele>
        <time>2015-08-25T14:03:10Z</time>
      </trkpt>
      <trkpt lat="45.33772" lon="6.79817">
        <ele>2528.6284</ele>
        <time>2015-08-25T14:03:15Z</time>
      </trkpt>
      <trkpt lat="45.3377" lon="6.79817">
        <ele>2528.6284</ele>
        <time>2015-08-25T14:03:25Z</time>
      </trkpt>
      <trkpt lat="45.3377" lon="6.79818">
        <ele>2528.6284</ele>
        <time>2015-08-25T14:03:30Z</time>
      </trkpt>
      <trkpt lat="45.33765" lon="6.79818">
        <ele>2527.9646</ele>
        <time>2015-08-25T14:03:40Z</time>
      </trkpt>
      <trkpt lat="45.33764" lon="6.79817">
        <ele>2527.9646</ele>
        <time>2015-08-25T14:03:45Z</time>
      </trkpt>
      <trkpt lat="45.33759" lon="6.79815">
        <ele>2527.9646</ele>
        <time>2015-08-25T14:03:55Z</time>
      </trkpt>
      <trkpt lat="45.33758" lon="6.79818">
        <ele>2527.9646</ele>
        <time>2015-08-25T14:04:00Z</time>
      </trkpt>
      <trkpt lat="45.33759" lon="6.79817">
        <ele>2527.9646</ele>
        <time>2015-08-25T14:04:10Z</time>
      </trkpt>
      <trkpt lat="45.3376" lon="6.79816">
        <ele>2527.3005</ele>
        <time>2015-08-25T14:04:15Z</time>
      </trkpt>
      <trkpt lat="45.33761" lon="6.79819">
        <ele>2527.3005</ele>
        <time>2015-08-25T14:04:25Z</time>
      </trkpt>
      <trkpt lat="45.33763" lon="6.7982">
        <ele>2527.3005</ele>
        <time>2015-08-25T14:04:30Z</time>
      </trkpt>
      <trkpt lat="45.33757" lon="6.79817">
        <ele>2526.6235</ele>
        <time>2015-08-25T14:04:45Z</time>
      </trkpt>
      <trkpt lat="45.33755" lon="6.79817">
        <ele>2526.6235</ele>
        <time>2015-08-25T14:04:50Z</time>
      </trkpt>
      <trkpt lat="45.33751" lon="6.79819">
        <ele>2526.6235</ele>
        <time>2015-08-25T14:05:00Z</time>
      </trkpt>
      <trkpt lat="45.3375" lon="6.79822">
        <ele>2526.6235</ele>
        <time>2015-08-25T14:05:05Z</time>
      </trkpt>
      <trkpt lat="45.33746" lon="6.79826">
        <ele>2526.4543</ele>
        <time>2015-08-25T14:05:15Z</time>
      </trkpt>
      <trkpt lat="45.33745" lon="6.79829">
        <ele>2526.4543</ele>
        <time>2015-08-25T14:05:20Z</time>
      </trkpt>
      <trkpt lat="45.33743" lon="6.7983">
        <ele>2526.4543</ele>
        <time>2015-08-25T14:05:30Z</time>
      </trkpt>
      <trkpt lat="45.33741" lon="6.79833">
        <ele>2526.4543</ele>
        <time>2015-08-25T14:05:35Z</time>
      </trkpt>
      <trkpt lat="45.33738" lon="6.79838">
        <ele>2526.8997</ele>
        <time>2015-08-25T14:05:45Z</time>
      </trkpt>
      <trkpt lat="45.33735" lon="6.7984">
        <ele>2526.8997</ele>
        <time>2015-08-25T14:05:50Z</time>
      </trkpt>
      <trkpt lat="45.3373" lon="6.79836">
        <ele>2526.8997</ele>
        <time>2015-08-25T14:06:00Z</time>
      </trkpt>
      <trkpt lat="45.33728" lon="6.79833">
        <ele>2527.581</ele>
        <time>2015-08-25T14:06:05Z</time>
      </trkpt>
      <trkpt lat="45.3373" lon="6.79831">
        <ele>2527.581</ele>
        <time>2015-08-25T14:06:15Z</time>
      </trkpt>
      <trkpt lat="45.33732" lon="6.7983">
        <ele>2527.581</ele>
        <time>2015-08-25T14:06:20Z</time>
      </trkpt>
      <trkpt lat="45.33729" lon="6.79831">
        <ele>2527.581</ele>
        <time>2015-08-25T14:06:30Z</time>
      </trkpt>
      <trkpt lat="45.33729" lon="6.79833">
        <ele>2527.581</ele>
        <time>2015-08-25T14:06:35Z</time>
      </trkpt>
      <trkpt lat="45.3373" lon="6.79835">
        <ele>2528.3774</ele>
        <time>2015-08-25T14:06:45Z</time>
      </trkpt>
      <trkpt lat="45.33731" lon="6.79835">
        <ele>2528.3774</ele>
        <time>2015-08-25T14:06:50Z</time>
      </trkpt>
      <trkpt lat="45.33729" lon="6.79836">
        <ele>2528.3774</ele>
        <time>2015-08-25T14:07:00Z</time>
      </trkpt>
      <trkpt lat="45.33727" lon="6.79834">
        <ele>2528.3774</ele>
        <time>2015-08-25T14:07:05Z</time>
      </trkpt>
      <trkpt lat="45.33721" lon="6.79832">
        <ele>2529.1912</ele>
        <time>2015-08-25T14:07:15Z</time>
      </trkpt>
      <trkpt lat="45.33717" lon="6.79831">
        <ele>2529.1912</ele>
        <time>2015-08-25T14:07:20Z</time>
      </trkpt>
      <trkpt lat="45.33711" lon="6.79828">
        <ele>2530.147</ele>
        <time>2015-08-25T14:07:30Z</time>
      </trkpt>
      <trkpt lat="45.33711" lon="6.79831">
        <ele>2530.147</ele>
        <time>2015-08-25T14:07:35Z</time>
      </trkpt>
      <trkpt lat="45.33709" lon="6.7983">
        <ele>2530.147</ele>
        <time>2015-08-25T14:07:50Z</time>
      </trkpt>
      <trkpt lat="45.3371" lon="6.79834">
        <ele>2530.147</ele>
        <time>2015-08-25T14:07:55Z</time>
      </trkpt>
      <trkpt lat="45.33709" lon="6.79843">
        <ele>2531.5627</ele>
        <time>2015-08-25T14:08:05Z</time>
      </trkpt>
      <trkpt lat="45.3371" lon="6.79848">
        <ele>2531.5627</ele>
        <time>2015-08-25T14:08:10Z</time>
      </trkpt>
      <trkpt lat="45.33707" lon="6.79856">
        <ele>2533.1404</ele>
        <time>2015-08-25T14:08:20Z</time>
      </trkpt>
      <trkpt lat="45.33705" lon="6.79859">
        <ele>2533.1404</ele>
        <time>2015-08-25T14:08:25Z</time>
      </trkpt>
      <trkpt lat="45.337" lon="6.79863">
        <ele>2534.7473</ele>
        <time>2015-08-25T14:08:35Z</time>
      </trkpt>
      <trkpt lat="45.33697" lon="6.79866">
        <ele>2534.7473</ele>
        <time>2015-08-25T14:08:40Z</time>
      </trkpt>
      <trkpt lat="45.33694" lon="6.79874">
        <ele>2536.5203</ele>
        <time>2015-08-25T14:08:50Z</time>
      </trkpt>
      <trkpt lat="45.33691" lon="6.79877">
        <ele>2536.5203</ele>
        <time>2015-08-25T14:08:55Z</time>
      </trkpt>
      <trkpt lat="45.33688" lon="6.7988">
        <ele>2536.5203</ele>
        <time>2015-08-25T14:09:05Z</time>
      </trkpt>
      <trkpt lat="45.3369" lon="6.79882">
        <ele>2538.34</ele>
        <time>2015-08-25T14:09:10Z</time>
      </trkpt>
      <trkpt lat="45.33685" lon="6.79882">
        <ele>2538.34</ele>
        <time>2015-08-25T14:09:20Z</time>
      </trkpt>
      <trkpt lat="45.33683" lon="6.7988">
        <ele>2538.34</ele>
        <time>2015-08-25T14:09:25Z</time>
      </trkpt>
      <trkpt lat="45.33682" lon="6.79881">
        <ele>2538.34</ele>
        <time>2015-08-25T14:09:35Z</time>
      </trkpt>
      <trkpt lat="45.33682" lon="6.79883">
        <ele>2540.169</ele>
        <time>2015-08-25T14:09:40Z</time>
      </trkpt>
      <trkpt lat="45.33678" lon="6.79884">
        <ele>2540.169</ele>
        <time>2015-08-25T14:09:50Z</time>
      </trkpt>
      <trkpt lat="45.33675" lon="6.79885">
        <ele>2540.169</ele>
        <time>2015-08-25T14:09:55Z</time>
      </trkpt>
      <trkpt lat="45.3367" lon="6.79891">
        <ele>2542.202</ele>
        <time>2015-08-25T14:10:05Z</time>
      </trkpt>
      <trkpt lat="45.33668" lon="6.79893">
        <ele>2542.202</ele>
        <time>2015-08-25T14:10:10Z</time>
      </trkpt>
      <trkpt lat="45.33665" lon="6.79894">
        <ele>2542.202</ele>
        <time>2015-08-25T14:10:20Z</time>
      </trkpt>
      <trkpt lat="45.33663" lon="6.79898">
        <ele>2544.317</ele>
        <time>2015-08-25T14:10:25Z</time>
      </trkpt>
      <trkpt lat="45.33657" lon="6.79911">
        <ele>2546.4724</ele>
        <time>2015-08-25T14:10:40Z</time>
      </trkpt>
      <trkpt lat="45.33655" lon="6.79918">
        <ele>2546.4724</ele>
        <time>2015-08-25T14:10:45Z</time>
      </trkpt>
      <trkpt lat="45.33651" lon="6.79928">
        <ele>2548.5725</ele>
        <time>2015-08-25T14:10:55Z</time>
      </trkpt>
      <trkpt lat="45.33648" lon="6.79932">
        <ele>2548.5725</ele>
        <time>2015-08-25T14:11:00Z</time>
      </trkpt>
      <trkpt lat="45.33643" lon="6.79939">
        <ele>2550.6008</ele>
        <time>2015-08-25T14:11:10Z</time>
      </trkpt>
      <trkpt lat="45.33641" lon="6.79943">
        <ele>2550.6008</ele>
        <time>2015-08-25T14:11:15Z</time>
      </trkpt>
      <trkpt lat="45.33634" lon="6.79953">
        <ele>2552.643</ele>
        <time>2015-08-25T14:11:25Z</time>
      </trkpt>
      <trkpt lat="45.33632" lon="6.79958">
        <ele>2552.643</ele>
        <time>2015-08-25T14:11:30Z</time>
      </trkpt>
      <trkpt lat="45.33627" lon="6.79968">
        <ele>2554.6494</ele>
        <time>2015-08-25T14:11:40Z</time>
      </trkpt>
      <trkpt lat="45.33626" lon="6.79973">
        <ele>2554.6494</ele>
        <time>2015-08-25T14:11:45Z</time>
      </trkpt>
      <trkpt lat="45.33621" lon="6.7998">
        <ele>2556.458</ele>
        <time>2015-08-25T14:11:55Z</time>
      </trkpt>
      <trkpt lat="45.33618" lon="6.79984">
        <ele>2556.458</ele>
        <time>2015-08-25T14:12:00Z</time>
      </trkpt>
      <trkpt lat="45.33614" lon="6.79992">
        <ele>2558.0933</ele>
        <time>2015-08-25T14:12:10Z</time>
      </trkpt>
      <trkpt lat="45.33612" lon="6.79996">
        <ele>2558.0933</ele>
        <time>2015-08-25T14:12:15Z</time>
      </trkpt>
      <trkpt lat="45.33609" lon="6.80003">
        <ele>2559.5781</ele>
        <time>2015-08-25T14:12:25Z</time>
      </trkpt>
      <trkpt lat="45.33608" lon="6.80007">
        <ele>2559.5781</ele>
        <time>2015-08-25T14:12:30Z</time>
      </trkpt>
      <trkpt lat="45.33605" lon="6.80022">
        <ele>2561.1213</ele>
        <time>2015-08-25T14:12:45Z</time>
      </trkpt>
      <trkpt lat="45.33603" lon="6.80025">
        <ele>2561.1213</ele>
        <time>2015-08-25T14:12:50Z</time>
      </trkpt>
      <trkpt lat="45.336" lon="6.80033">
        <ele>2562.5137</ele>
        <time>2015-08-25T14:13:00Z</time>
      </trkpt>
      <trkpt lat="45.33598" lon="6.80038">
        <ele>2562.5137</ele>
        <time>2015-08-25T14:13:05Z</time>
      </trkpt>
      <trkpt lat="45.33594" lon="6.80049">
        <ele>2563.8496</ele>
        <time>2015-08-25T14:13:15Z</time>
      </trkpt>
      <trkpt lat="45.33594" lon="6.80054">
        <ele>2563.8496</ele>
        <time>2015-08-25T14:13:20Z</time>
      </trkpt>
      <trkpt lat="45.3359" lon="6.80062">
        <ele>2565.159</ele>
        <time>2015-08-25T14:13:30Z</time>
      </trkpt>
      <trkpt lat="45.33587" lon="6.80064">
        <ele>2565.159</ele>
        <time>2015-08-25T14:13:35Z</time>
      </trkpt>
      <trkpt lat="45.33579" lon="6.80064">
        <ele>2566.4556</ele>
        <time>2015-08-25T14:13:45Z</time>
      </trkpt>
      <trkpt lat="45.33575" lon="6.80068">
        <ele>2566.4556</ele>
        <time>2015-08-25T14:13:50Z</time>
      </trkpt>
      <trkpt lat="45.33567" lon="6.80072">
        <ele>2567.7095</ele>
        <time>2015-08-25T14:14:00Z</time>
      </trkpt>
      <trkpt lat="45.33563" lon="6.80075">
        <ele>2567.7095</ele>
        <time>2015-08-25T14:14:05Z</time>
      </trkpt>
      <trkpt lat="45.33555" lon="6.80081">
        <ele>2569.0078</ele>
        <time>2015-08-25T14:14:15Z</time>
      </trkpt>
      <trkpt lat="45.33552" lon="6.80084">
        <ele>2569.0078</ele>
        <time>2015-08-25T14:14:20Z</time>
      </trkpt>
      <trkpt lat="45.33542" lon="6.80088">
        <ele>2570.2878</ele>
        <time>2015-08-25T14:14:35Z</time>
      </trkpt>
      <trkpt lat="45.33538" lon="6.80088">
        <ele>2570.2878</ele>
        <time>2015-08-25T14:14:40Z</time>
      </trkpt>
      <trkpt lat="45.33532" lon="6.80092">
        <ele>2571.4624</ele>
        <time>2015-08-25T14:14:50Z</time>
      </trkpt>
      <trkpt lat="45.3353" lon="6.80094">
        <ele>2571.4624</ele>
        <time>2015-08-25T14:14:55Z</time>
      </trkpt>
      <trkpt lat="45.33524" lon="6.80098">
        <ele>2572.552</ele>
        <time>2015-08-25T14:15:05Z</time>
      </trkpt>
      <trkpt lat="45.33522" lon="6.80097">
        <ele>2572.552</ele>
        <time>2015-08-25T14:15:10Z</time>
      </trkpt>
      <trkpt lat="45.33515" lon="6.80097">
        <ele>2573.6338</ele>
        <time>2015-08-25T14:15:20Z</time>
      </trkpt>
      <trkpt lat="45.33512" lon="6.80098">
        <ele>2573.6338</ele>
        <time>2015-08-25T14:15:25Z</time>
      </trkpt>
      <trkpt lat="45.33506" lon="6.801">
        <ele>2573.6338</ele>
        <time>2015-08-25T14:15:35Z</time>
      </trkpt>
      <trkpt lat="45.33502" lon="6.801">
        <ele>2574.6501</ele>
        <time>2015-08-25T14:15:40Z</time>
      </trkpt>
      <trkpt lat="45.33496" lon="6.80102">
        <ele>2574.6501</ele>
        <time>2015-08-25T14:15:50Z</time>
      </trkpt>
      <trkpt lat="45.33493" lon="6.80101">
        <ele>2575.6045</ele>
        <time>2015-08-25T14:15:55Z</time>
      </trkpt>
      <trkpt lat="45.33492" lon="6.80099">
        <ele>2575.6045</ele>
        <time>2015-08-25T14:16:05Z</time>
      </trkpt>
      <trkpt lat="45.33494" lon="6.80098">
        <ele>2575.6045</ele>
        <time>2015-08-25T14:16:10Z</time>
      </trkpt>
      <trkpt lat="45.33493" lon="6.80099">
        <ele>2575.6045</ele>
        <time>2015-08-25T14:16:25Z</time>
      </trkpt>
      <trkpt lat="45.3349" lon="6.80098">
        <ele>2575.6045</ele>
        <time>2015-08-25T14:16:30Z</time>
      </trkpt>
      <trkpt lat="45.33483" lon="6.80096">
        <ele>2576.458</ele>
        <time>2015-08-25T14:16:40Z</time>
      </trkpt>
      <trkpt lat="45.3348" lon="6.80095">
        <ele>2576.458</ele>
        <time>2015-08-25T14:16:45Z</time>
      </trkpt>
      <trkpt lat="45.33473" lon="6.80093">
        <ele>2577.247</ele>
        <time>2015-08-25T14:16:55Z</time>
      </trkpt>
      <trkpt lat="45.33471" lon="6.80092">
        <ele>2577.247</ele>
        <time>2015-08-25T14:17:00Z</time>
      </trkpt>
      <trkpt lat="45.33461" lon="6.80089">
        <ele>2578.034</ele>
        <time>2015-08-25T14:17:10Z</time>
      </trkpt>
      <trkpt lat="45.33457" lon="6.80086">
        <ele>2578.034</ele>
        <time>2015-08-25T14:17:15Z</time>
      </trkpt>
      <trkpt lat="45.3345" lon="6.8008">
        <ele>2578.6895</ele>
        <time>2015-08-25T14:17:25Z</time>
      </trkpt>
      <trkpt lat="45.33447" lon="6.80078">
        <ele>2578.6895</ele>
        <time>2015-08-25T14:17:30Z</time>
      </trkpt>
      <trkpt lat="45.3344" lon="6.80072">
        <ele>2579.2817</ele>
        <time>2015-08-25T14:17:40Z</time>
      </trkpt>
      <trkpt lat="45.33435" lon="6.80071">
        <ele>2579.2817</ele>
        <time>2015-08-25T14:17:45Z</time>
      </trkpt>
      <trkpt lat="45.33427" lon="6.80069">
        <ele>2579.9316</ele>
        <time>2015-08-25T14:17:55Z</time>
      </trkpt>
      <trkpt lat="45.33423" lon="6.80068">
        <ele>2579.9316</ele>
        <time>2015-08-25T14:18:00Z</time>
      </trkpt>
      <trkpt lat="45.33411" lon="6.80064">
        <ele>2580.6357</ele>
        <time>2015-08-25T14:18:15Z</time>
      </trkpt>
      <trkpt lat="45.33408" lon="6.80061">
        <ele>2580.6357</ele>
        <time>2015-08-25T14:18:20Z</time>
      </trkpt>
      <trkpt lat="45.33399" lon="6.80059">
        <ele>2581.3333</ele>
        <time>2015-08-25T14:18:30Z</time>
      </trkpt>
      <trkpt lat="45.33395" lon="6.80056">
        <ele>2581.3333</ele>
        <time>2015-08-25T14:18:35Z</time>
      </trkpt>
      <trkpt lat="45.33389" lon="6.80057">
        <ele>2581.9104</ele>
        <time>2015-08-25T14:18:45Z</time>
      </trkpt>
      <trkpt lat="45.33385" lon="6.80058">
        <ele>2581.9104</ele>
        <time>2015-08-25T14:18:50Z</time>
      </trkpt>
      <trkpt lat="45.33381" lon="6.80053">
        <ele>2582.4202</ele>
        <time>2015-08-25T14:19:00Z</time>
      </trkpt>
      <trkpt lat="45.33378" lon="6.80052">
        <ele>2582.4202</ele>
        <time>2015-08-25T14:19:05Z</time>
      </trkpt>
      <trkpt lat="45.33369" lon="6.80048">
        <ele>2582.7249</ele>
        <time>2015-08-25T14:19:15Z</time>
      </trkpt>
      <trkpt lat="45.33363" lon="6.80046">
        <ele>2582.7249</ele>
        <time>2015-08-25T14:19:20Z</time>
      </trkpt>
      <trkpt lat="45.33356" lon="6.80042">
        <ele>2582.8994</ele>
        <time>2015-08-25T14:19:30Z</time>
      </trkpt>
      <trkpt lat="45.33353" lon="6.80039">
        <ele>2582.8994</ele>
        <time>2015-08-25T14:19:35Z</time>
      </trkpt>
      <trkpt lat="45.33346" lon="6.80039">
        <ele>2582.9126</ele>
        <time>2015-08-25T14:19:45Z</time>
      </trkpt>
      <trkpt lat="45.33343" lon="6.80037">
        <ele>2582.9126</ele>
        <time>2015-08-25T14:19:50Z</time>
      </trkpt>
      <trkpt lat="45.33333" lon="6.80034">
        <ele>2582.851</ele>
        <time>2015-08-25T14:20:05Z</time>
      </trkpt>
      <trkpt lat="45.33331" lon="6.80032">
        <ele>2582.851</ele>
        <time>2015-08-25T14:20:10Z</time>
      </trkpt>
      <trkpt lat="45.33324" lon="6.80029">
        <ele>2582.637</ele>
        <time>2015-08-25T14:20:20Z</time>
      </trkpt>
      <trkpt lat="45.33323" lon="6.8003">
        <ele>2582.637</ele>
        <time>2015-08-25T14:20:25Z</time>
      </trkpt>
      <trkpt lat="45.33324" lon="6.80032">
        <ele>2582.637</ele>
        <time>2015-08-25T14:20:35Z</time>
      </trkpt>
      <trkpt lat="45.33325" lon="6.80033">
        <ele>2582.637</ele>
        <time>2015-08-25T14:20:40Z</time>
      </trkpt>
      <trkpt lat="45.33326" lon="6.8003">
        <ele>2582.637</ele>
        <time>2015-08-25T14:20:50Z</time>
      </trkpt>
      <trkpt lat="45.33326" lon="6.80028">
        <ele>2582.637</ele>
        <time>2015-08-25T14:20:55Z</time>
      </trkpt>
      <trkpt lat="45.33327" lon="6.80028">
        <ele>2582.0977</ele>
        <time>2015-08-25T14:21:05Z</time>
      </trkpt>
      <trkpt lat="45.33327" lon="6.80028">
        <ele>2582.0977</ele>
        <time>2015-08-25T14:21:10Z</time>
      </trkpt>
      <trkpt lat="45.33328" lon="6.80029">
        <ele>2582.0977</ele>
        <time>2015-08-25T14:21:20Z</time>
      </trkpt>
      <trkpt lat="45.33328" lon="6.80029">
        <ele>2582.0977</ele>
        <time>2015-08-25T14:21:25Z</time>
      </trkpt>
      <trkpt lat="45.33327" lon="6.80028">
        <ele>2582.0977</ele>
        <time>2015-08-25T14:21:35Z</time>
      </trkpt>
      <trkpt lat="45.33326" lon="6.80028">
        <ele>2582.0977</ele>
        <time>2015-08-25T14:21:40Z</time>
      </trkpt>
      <trkpt lat="45.33319" lon="6.80024">
        <ele>2581.636</ele>
        <time>2015-08-25T14:21:50Z</time>
      </trkpt>
      <trkpt lat="45.33314" lon="6.80019">
        <ele>2581.636</ele>
        <time>2015-08-25T14:21:55Z</time>
      </trkpt>
      <trkpt lat="45.333" lon="6.80009">
        <ele>2581.193</ele>
        <time>2015-08-25T14:22:10Z</time>
      </trkpt>
      <trkpt lat="45.33295" lon="6.80007">
        <ele>2581.193</ele>
        <time>2015-08-25T14:22:15Z</time>
      </trkpt>
      <trkpt lat="45.33288" lon="6.80002">
        <ele>2580.7139</ele>
        <time>2015-08-25T14:22:25Z</time>
      </trkpt>
      <trkpt lat="45.33286" lon="6.79998">
        <ele>2580.7139</ele>
        <time>2015-08-25T14:22:30Z</time>
      </trkpt>
      <trkpt lat="45.33278" lon="6.79996">
        <ele>2580.1763</ele>
        <time>2015-08-25T14:22:40Z</time>
      </trkpt>
      <trkpt lat="45.33275" lon="6.79995">
        <ele>2580.1763</ele>
        <time>2015-08-25T14:22:45Z</time>
      </trkpt>
      <trkpt lat="45.33267" lon="6.7999">
        <ele>2579.5168</ele>
        <time>2015-08-25T14:22:55Z</time>
      </trkpt>
      <trkpt lat="45.33266" lon="6.7999">
        <ele>2579.5168</ele>
        <time>2015-08-25T14:23:00Z</time>
      </trkpt>
      <trkpt lat="45.33265" lon="6.79989">
        <ele>2579.5168</ele>
        <time>2015-08-25T14:23:10Z</time>
      </trkpt>
      <trkpt lat="45.33265" lon="6.79989">
        <ele>2579.5168</ele>
        <time>2015-08-25T14:23:15Z</time>
      </trkpt>
      <trkpt lat="45.33269" lon="6.79988">
        <ele>2579.5168</ele>
        <time>2015-08-25T14:23:25Z</time>
      </trkpt>
      <trkpt lat="45.33269" lon="6.79988">
        <ele>2579.5168</ele>
        <time>2015-08-25T14:23:30Z</time>
      </trkpt>
      <trkpt lat="45.33268" lon="6.79989">
        <ele>2579.5168</ele>
        <time>2015-08-25T14:23:40Z</time>
      </trkpt>
      <trkpt lat="45.33268" lon="6.79993">
        <ele>2578.6765</ele>
        <time>2015-08-25T14:23:45Z</time>
      </trkpt>
      <trkpt lat="45.33268" lon="6.79992">
        <ele>2578.6765</ele>
        <time>2015-08-25T14:23:55Z</time>
      </trkpt>
      <trkpt lat="45.33268" lon="6.7999">
        <ele>2578.6765</ele>
        <time>2015-08-25T14:24:00Z</time>
      </trkpt>
      <trkpt lat="45.33272" lon="6.79986">
        <ele>2578.6765</ele>
        <time>2015-08-25T14:24:15Z</time>
      </trkpt>
      <trkpt lat="45.33271" lon="6.79986">
        <ele>2578.6765</ele>
        <time>2015-08-25T14:24:20Z</time>
      </trkpt>
      <trkpt lat="45.33265" lon="6.79992">
        <ele>2577.7751</ele>
        <time>2015-08-25T14:24:30Z</time>
      </trkpt>
      <trkpt lat="45.33266" lon="6.79991">
        <ele>2577.7751</ele>
        <time>2015-08-25T14:24:35Z</time>
      </trkpt>
      <trkpt lat="45.33267" lon="6.79986">
        <ele>2577.7751</ele>
        <time>2015-08-25T14:24:45Z</time>
      </trkpt>
      <trkpt lat="45.33267" lon="6.79987">
        <ele>2577.7751</ele>
        <time>2015-08-25T14:24:50Z</time>
      </trkpt>
      <trkpt lat="45.33267" lon="6.79988">
        <ele>2577.7751</ele>
        <time>2015-08-25T14:25:00Z</time>
      </trkpt>
      <trkpt lat="45.33269" lon="6.79987">
        <ele>2577.7751</ele>
        <time>2015-08-25T14:25:05Z</time>
      </trkpt>
      <trkpt lat="45.3327" lon="6.79982">
        <ele>2576.9944</ele>
        <time>2015-08-25T14:25:15Z</time>
      </trkpt>
      <trkpt lat="45.3327" lon="6.79982">
        <ele>2576.9944</ele>
        <time>2015-08-25T14:25:20Z</time>
      </trkpt>
      <trkpt lat="45.3327" lon="6.79983">
        <ele>2576.9944</ele>
        <time>2015-08-25T14:25:30Z</time>
      </trkpt>
      <trkpt lat="45.33269" lon="6.79987">
        <ele>2576.9944</ele>
        <time>2015-08-25T14:25:35Z</time>
      </trkpt>
      <trkpt lat="45.33266" lon="6.79992">
        <ele>2576.143</ele>
        <time>2015-08-25T14:25:45Z</time>
      </trkpt>
      <trkpt lat="45.33265" lon="6.79995">
        <ele>2576.143</ele>
        <time>2015-08-25T14:25:50Z</time>
      </trkpt>
      <trkpt lat="45.33257" lon="6.79991">
        <ele>2575.375</ele>
        <time>2015-08-25T14:26:00Z</time>
      </trkpt>
      <trkpt lat="45.33253" lon="6.79988">
        <ele>2575.375</ele>
        <time>2015-08-25T14:26:05Z</time>
      </trkpt>
      <trkpt lat="45.33247" lon="6.79985">
        <ele>2574.6743</ele>
        <time>2015-08-25T14:26:15Z</time>
      </trkpt>
      <trkpt lat="45.33243" lon="6.79983">
        <ele>2574.6743</ele>
        <time>2015-08-25T14:26:20Z</time>
      </trkpt>
      <trkpt lat="45.33233" lon="6.79979">
        <ele>2573.7944</ele>
        <time>2015-08-25T14:26:30Z</time>
      </trkpt>
      <trkpt lat="45.33228" lon="6.79977">
        <ele>2573.7944</ele>
        <time>2015-08-25T14:26:35Z</time>
      </trkpt>
      <trkpt lat="45.33219" lon="6.79972">
        <ele>2572.9265</ele>
        <time>2015-08-25T14:26:45Z</time>
      </trkpt>
      <trkpt lat="45.33213" lon="6.79974">
        <ele>2572.9265</ele>
        <time>2015-08-25T14:26:50Z</time>
      </trkpt>
      <trkpt lat="45.33202" lon="6.79971">
        <ele>2572.0593</ele>
        <time>2015-08-25T14:27:05Z</time>
      </trkpt>
      <trkpt lat="45.33198" lon="6.7997">
        <ele>2572.0593</ele>
        <time>2015-08-25T14:27:10Z</time>
      </trkpt>
      <trkpt lat="45.33191" lon="6.79964">
        <ele>2571.1392</ele>
        <time>2015-08-25T14:27:20Z</time>
      </trkpt>
      <trkpt lat="45.33188" lon="6.79962">
        <ele>2571.1392</ele>
        <time>2015-08-25T14:27:25Z</time>
      </trkpt>
      <trkpt lat="45.33179" lon="6.79959">
        <ele>2570.1887</ele>
        <time>2015-08-25T14:27:35Z</time>
      </trkpt>
      <trkpt lat="45.33175" lon="6.79957">
        <ele>2570.1887</ele>
        <time>2015-08-25T14:27:40Z</time>
      </trkpt>
      <trkpt lat="45.33166" lon="6.79955">
        <ele>2569.2717</ele>
        <time>2015-08-25T14:27:50Z</time>
      </trkpt>
      <trkpt lat="45.33161" lon="6.79954">
        <ele>2569.2717</ele>
        <time>2015-08-25T14:27:55Z</time>
      </trkpt>
      <trkpt lat="45.33154" lon="6.79951">
        <ele>2568.2747</ele>
        <time>2015-08-25T14:28:05Z</time>
      </trkpt>
      <trkpt lat="45.33149" lon="6.7995">
        <ele>2568.2747</ele>
        <time>2015-08-25T14:28:10Z</time>
      </trkpt>
      <trkpt lat="45.33145" lon="6.79949">
        <ele>2568.2747</ele>
        <time>2015-08-25T14:28:20Z</time>
      </trkpt>
      <trkpt lat="45.33143" lon="6.79949">
        <ele>2567.2502</ele>
        <time>2015-08-25T14:28:25Z</time>
      </trkpt>
      <trkpt lat="45.33138" lon="6.79952">
        <ele>2567.2502</ele>
        <time>2015-08-25T14:28:35Z</time>
      </trkpt>
      <trkpt lat="45.33138" lon="6.79952">
        <ele>2567.2502</ele>
        <time>2015-08-25T14:28:40Z</time>
      </trkpt>
      <trkpt lat="45.33132" lon="6.7995">
        <ele>2566.2769</ele>
        <time>2015-08-25T14:28:55Z</time>
      </trkpt>
      <trkpt lat="45.33128" lon="6.79949">
        <ele>2566.2769</ele>
        <time>2015-08-25T14:29:00Z</time>
      </trkpt>
      <trkpt lat="45.33122" lon="6.79943">
        <ele>2565.5127</ele>
        <time>2015-08-25T14:29:10Z</time>
      </trkpt>
      <trkpt lat="45.3312" lon="6.7994">
        <ele>2565.5127</ele>
        <time>2015-08-25T14:29:15Z</time>
      </trkpt>
      <trkpt lat="45.33116" lon="6.79937">
        <ele>2565.5127</ele>
        <time>2015-08-25T14:29:25Z</time>
      </trkpt>
      <trkpt lat="45.33114" lon="6.79934">
        <ele>2564.974</ele>
        <time>2015-08-25T14:29:30Z</time>
      </trkpt>
      <trkpt lat="45.33108" lon="6.79924">
        <ele>2564.974</ele>
        <time>2015-08-25T14:29:40Z</time>
      </trkpt>
      <trkpt lat="45.33104" lon="6.7992">
        <ele>2564.546</ele>
        <time>2015-08-25T14:29:45Z</time>
      </trkpt>
      <trkpt lat="45.33096" lon="6.79914">
        <ele>2564.546</ele>
        <time>2015-08-25T14:29:55Z</time>
      </trkpt>
      <trkpt lat="45.33092" lon="6.79911">
        <ele>2564.1497</ele>
        <time>2015-08-25T14:30:00Z</time>
      </trkpt>
      <trkpt lat="45.33084" lon="6.79911">
        <ele>2564.1497</ele>
        <time>2015-08-25T14:30:10Z</time>
      </trkpt>
      <trkpt lat="45.3308" lon="6.79911">
        <ele>2563.741</ele>
        <time>2015-08-25T14:30:15Z</time>
      </trkpt>
      <trkpt lat="45.33069" lon="6.799">
        <ele>2563.164</ele>
        <time>2015-08-25T14:30:30Z</time>
      </trkpt>
      <trkpt lat="45.33065" lon="6.79898">
        <ele>2563.164</ele>
        <time>2015-08-25T14:30:35Z</time>
      </trkpt>
      <trkpt lat="45.33058" lon="6.79901">
        <ele>2562.5627</ele>
        <time>2015-08-25T14:30:45Z</time>
      </trkpt>
      <trkpt lat="45.33055" lon="6.79902">
        <ele>2562.5627</ele>
        <time>2015-08-25T14:30:50Z</time>
      </trkpt>
      <trkpt lat="45.33048" lon="6.79898">
        <ele>2561.9978</ele>
        <time>2015-08-25T14:31:00Z</time>
      </trkpt>
      <trkpt lat="45.33043" lon="6.79901">
        <ele>2561.9978</ele>
        <time>2015-08-25T14:31:05Z</time>
      </trkpt>
      <trkpt lat="45.33036" lon="6.79896">
        <ele>2561.4106</ele>
        <time>2015-08-25T14:31:15Z</time>
      </trkpt>
      <trkpt lat="45.33032" lon="6.79893">
        <ele>2561.4106</ele>
        <time>2015-08-25T14:31:20Z</time>
      </trkpt>
      <trkpt lat="45.33023" lon="6.79886">
        <ele>2560.7754</ele>
        <time>2015-08-25T14:31:30Z</time>
      </trkpt>
      <trkpt lat="45.33021" lon="6.79881">
        <ele>2560.7754</ele>
        <time>2015-08-25T14:31:35Z</time>
      </trkpt>
      <trkpt lat="45.33017" lon="6.79875">
        <ele>2560.2559</ele>
        <time>2015-08-25T14:31:45Z</time>
      </trkpt>
      <trkpt lat="45.33015" lon="6.79873">
        <ele>2560.2559</ele>
        <time>2015-08-25T14:31:50Z</time>
      </trkpt>
      <trkpt lat="45.33009" lon="6.79873">
        <ele>2560.2559</ele>
        <time>2015-08-25T14:32:00Z</time>
      </trkpt>
      <trkpt lat="45.33007" lon="6.79875">
        <ele>2559.6716</ele>
        <time>2015-08-25T14:32:05Z</time>
      </trkpt>
      <trkpt lat="45.32997" lon="6.79869">
        <ele>2558.8987</ele>
        <time>2015-08-25T14:32:20Z</time>
      </trkpt>
      <trkpt lat="45.32995" lon="6.7987">
        <ele>2558.8987</ele>
        <time>2015-08-25T14:32:25Z</time>
      </trkpt>
      <trkpt lat="45.32991" lon="6.79868">
        <ele>2558.8987</ele>
        <time>2015-08-25T14:32:35Z</time>
      </trkpt>
      <trkpt lat="45.32985" lon="6.79865">
        <ele>2558.1255</ele>
        <time>2015-08-25T14:32:40Z</time>
      </trkpt>
      <trkpt lat="45.32978" lon="6.79863">
        <ele>2558.1255</ele>
        <time>2015-08-25T14:32:50Z</time>
      </trkpt>
      <trkpt lat="45.32974" lon="6.7986">
        <ele>2557.325</ele>
        <time>2015-08-25T14:32:55Z</time>
      </trkpt>
      <trkpt lat="45.32968" lon="6.79856">
        <ele>2557.325</ele>
        <time>2015-08-25T14:33:05Z</time>
      </trkpt>
      <trkpt lat="45.32963" lon="6.7985">
        <ele>2556.5005</ele>
        <time>2015-08-25T14:33:10Z</time>
      </trkpt>
      <trkpt lat="45.32965" lon="6.79845">
        <ele>2556.5005</ele>
        <time>2015-08-25T14:33:20Z</time>
      </trkpt>
      <trkpt lat="45.32962" lon="6.79841">
        <ele>2556.5005</ele>
        <time>2015-08-25T14:33:25Z</time>
      </trkpt>
      <trkpt lat="45.32955" lon="6.79836">
        <ele>2555.684</ele>
        <time>2015-08-25T14:33:35Z</time>
      </trkpt>
      <trkpt lat="45.32951" lon="6.79839">
        <ele>2555.684</ele>
        <time>2015-08-25T14:33:40Z</time>
      </trkpt>
      <trkpt lat="45.32945" lon="6.79846">
        <ele>2554.963</ele>
        <time>2015-08-25T14:33:50Z</time>
      </trkpt>
      <trkpt lat="45.32944" lon="6.79849">
        <ele>2554.963</ele>
        <time>2015-08-25T14:33:55Z</time>
      </trkpt>
      <trkpt lat="45.32939" lon="6.79844">
        <ele>2554.963</ele>
        <time>2015-08-25T14:34:05Z</time>
      </trkpt>
      <trkpt lat="45.32939" lon="6.79839">
        <ele>2554.3022</ele>
        <time>2015-08-25T14:34:10Z</time>
      </trkpt>
      <trkpt lat="45.32935" lon="6.79831">
        <ele>2554.3022</ele>
        <time>2015-08-25T14:34:20Z</time>
      </trkpt>
      <trkpt lat="45.32932" lon="6.79828">
        <ele>2553.6982</ele>
        <time>2015-08-25T14:34:25Z</time>
      </trkpt>
      <trkpt lat="45.32924" lon="6.79819">
        <ele>2553.2632</ele>
        <time>2015-08-25T14:34:40Z</time>
      </trkpt>
      <trkpt lat="45.32921" lon="6.79817">
        <ele>2553.2632</ele>
        <time>2015-08-25T14:34:45Z</time>
      </trkpt>
      <trkpt lat="45.32916" lon="6.79817">
        <ele>2553.2632</ele>
        <time>2015-08-25T14:34:55Z</time>
      </trkpt>
      <trkpt lat="45.32914" lon="6.79815">
        <ele>2552.9119</ele>
        <time>2015-08-25T14:35:00Z</time>
      </trkpt>
      <trkpt lat="45.32909" lon="6.79807">
        <ele>2552.9119</ele>
        <time>2015-08-25T14:35:10Z</time>
      </trkpt>
      <trkpt lat="45.32907" lon="6.79803">
        <ele>2552.422</ele>
        <time>2015-08-25T14:35:15Z</time>
      </trkpt>
      <trkpt lat="45.32901" lon="6.79793">
        <ele>2551.7896</ele>
        <time>2015-08-25T14:35:25Z</time>
      </trkpt>
      <trkpt lat="45.329" lon="6.79788">
        <ele>2551.7896</ele>
        <time>2015-08-25T14:35:30Z</time>
      </trkpt>
      <trkpt lat="45.32895" lon="6.7978">
        <ele>2550.9963</ele>
        <time>2015-08-25T14:35:40Z</time>
      </trkpt>
      <trkpt lat="45.32893" lon="6.79775">
        <ele>2550.9963</ele>
        <time>2015-08-25T14:35:45Z</time>
      </trkpt>
      <trkpt lat="45.32891" lon="6.79768">
        <ele>2550.055</ele>
        <time>2015-08-25T14:35:55Z</time>
      </trkpt>
      <trkpt lat="45.32891" lon="6.79765">
        <ele>2550.055</ele>
        <time>2015-08-25T14:36:00Z</time>
      </trkpt>
      <trkpt lat="45.32892" lon="6.79764">
        <ele>2550.055</ele>
        <time>2015-08-25T14:36:10Z</time>
      </trkpt>
      <trkpt lat="45.32894" lon="6.79761">
        <ele>2550.055</ele>
        <time>2015-08-25T14:36:15Z</time>
      </trkpt>
      <trkpt lat="45.32895" lon="6.79761">
        <ele>2550.055</ele>
        <time>2015-08-25T14:36:25Z</time>
      </trkpt>
      <trkpt lat="45.32892" lon="6.79762">
        <ele>2549.2368</ele>
        <time>2015-08-25T14:36:30Z</time>
      </trkpt>
      <trkpt lat="45.32888" lon="6.79756">
        <ele>2549.2368</ele>
        <time>2015-08-25T14:36:40Z</time>
      </trkpt>
      <trkpt lat="45.32884" lon="6.79756">
        <ele>2548.5913</ele>
        <time>2015-08-25T14:36:45Z</time>
      </trkpt>
      <trkpt lat="45.32877" lon="6.79752">
        <ele>2548.5913</ele>
        <time>2015-08-25T14:36:55Z</time>
      </trkpt>
      <trkpt lat="45.32875" lon="6.79749">
        <ele>2548.1345</ele>
        <time>2015-08-25T14:37:00Z</time>
      </trkpt>
      <trkpt lat="45.32867" lon="6.79746">
        <ele>2548.1345</ele>
        <time>2015-08-25T14:37:15Z</time>
      </trkpt>
      <trkpt lat="45.32866" lon="6.79742">
        <ele>2547.4204</ele>
        <time>2015-08-25T14:37:20Z</time>
      </trkpt>
      <trkpt lat="45.32863" lon="6.79738">
        <ele>2547.4204</ele>
        <time>2015-08-25T14:37:30Z</time>
      </trkpt>
      <trkpt lat="45.32863" lon="6.79735">
        <ele>2547.4204</ele>
        <time>2015-08-25T14:37:35Z</time>
      </trkpt>
      <trkpt lat="45.32868" lon="6.79734">
        <ele>2546.958</ele>
        <time>2015-08-25T14:37:45Z</time>
      </trkpt>
      <trkpt lat="45.32866" lon="6.79732">
        <ele>2546.958</ele>
        <time>2015-08-25T14:37:50Z</time>
      </trkpt>
      <trkpt lat="45.32861" lon="6.79729">
        <ele>2546.958</ele>
        <time>2015-08-25T14:38:00Z</time>
      </trkpt>
      <trkpt lat="45.32857" lon="6.79728">
        <ele>2546.7136</ele>
        <time>2015-08-25T14:38:05Z</time>
      </trkpt>
      <trkpt lat="45.3285" lon="6.79719">
        <ele>2546.7283</ele>
        <time>2015-08-25T14:38:15Z</time>
      </trkpt>
      <trkpt lat="45.32847" lon="6.79717">
        <ele>2546.7283</ele>
        <time>2015-08-25T14:38:20Z</time>
      </trkpt>
      <trkpt lat="45.32842" lon="6.79712">
        <ele>2546.8943</ele>
        <time>2015-08-25T14:38:30Z</time>
      </trkpt>
      <trkpt lat="45.32839" lon="6.7971">
        <ele>2546.8943</ele>
        <time>2015-08-25T14:38:35Z</time>
      </trkpt>
      <trkpt lat="45.32835" lon="6.79707">
        <ele>2546.8943</ele>
        <time>2015-08-25T14:38:45Z</time>
      </trkpt>
      <trkpt lat="45.32837" lon="6.79711">
        <ele>2547.4724</ele>
        <time>2015-08-25T14:38:50Z</time>
      </trkpt>
      <trkpt lat="45.32839" lon="6.7972">
        <ele>2547.4724</ele>
        <time>2015-08-25T14:39:00Z</time>
      </trkpt>
      <trkpt lat="45.32841" lon="6.79726">
        <ele>2547.7083</ele>
        <time>2015-08-25T14:39:05Z</time>
      </trkpt>
      <trkpt lat="45.32834" lon="6.79725">
        <ele>2547.7083</ele>
        <time>2015-08-25T14:39:20Z</time>
      </trkpt>
      <trkpt lat="45.32832" lon="6.79721">
        <ele>2547.783</ele>
        <time>2015-08-25T14:39:25Z</time>
      </trkpt>
      <trkpt lat="45.32823" lon="6.7972">
        <ele>2547.783</ele>
        <time>2015-08-25T14:39:35Z</time>
      </trkpt>
      <trkpt lat="45.32821" lon="6.79717">
        <ele>2547.8792</ele>
        <time>2015-08-25T14:39:40Z</time>
      </trkpt>
      <trkpt lat="45.32813" lon="6.79715">
        <ele>2547.8792</ele>
        <time>2015-08-25T14:39:50Z</time>
      </trkpt>
      <trkpt lat="45.3281" lon="6.79716">
        <ele>2547.979</ele>
        <time>2015-08-25T14:39:55Z</time>
      </trkpt>
      <trkpt lat="45.32806" lon="6.79713">
        <ele>2547.979</ele>
        <time>2015-08-25T14:40:05Z</time>
      </trkpt>
      <trkpt lat="45.32804" lon="6.79713">
        <ele>2547.979</ele>
        <time>2015-08-25T14:40:10Z</time>
      </trkpt>
      <trkpt lat="45.32799" lon="6.79712">
        <ele>2547.7776</ele>
        <time>2015-08-25T14:40:20Z</time>
      </trkpt>
      <trkpt lat="45.32795" lon="6.79709">
        <ele>2547.7776</ele>
        <time>2015-08-25T14:40:25Z</time>
      </trkpt>
      <trkpt lat="45.32789" lon="6.79707">
        <ele>2546.9932</ele>
        <time>2015-08-25T14:40:35Z</time>
      </trkpt>
      <trkpt lat="45.32783" lon="6.79705">
        <ele>2546.9932</ele>
        <time>2015-08-25T14:40:40Z</time>
      </trkpt>
      <trkpt lat="45.32779" lon="6.79705">
        <ele>2546.029</ele>
        <time>2015-08-25T14:40:50Z</time>
      </trkpt>
      <trkpt lat="45.32774" lon="6.79707">
        <ele>2546.029</ele>
        <time>2015-08-25T14:40:55Z</time>
      </trkpt>
      <trkpt lat="45.32766" lon="6.79709">
        <ele>2545.1304</ele>
        <time>2015-08-25T14:41:05Z</time>
      </trkpt>
      <trkpt lat="45.32763" lon="6.79705">
        <ele>2545.1304</ele>
        <time>2015-08-25T14:41:10Z</time>
      </trkpt>
      <trkpt lat="45.32754" lon="6.79704">
        <ele>2543.8462</ele>
        <time>2015-08-25T14:41:25Z</time>
      </trkpt>
      <trkpt lat="45.32749" lon="6.79706">
        <ele>2543.8462</ele>
        <time>2015-08-25T14:41:30Z</time>
      </trkpt>
      <trkpt lat="45.32741" lon="6.79704">
        <ele>2542.2644</ele>
        <time>2015-08-25T14:41:40Z</time>
      </trkpt>
      <trkpt lat="45.32737" lon="6.79706">
        <ele>2542.2644</ele>
        <time>2015-08-25T14:41:45Z</time>
      </trkpt>
      <trkpt lat="45.32733" lon="6.79705">
        <ele>2542.2644</ele>
        <time>2015-08-25T14:41:55Z</time>
      </trkpt>
      <trkpt lat="45.3273" lon="6.79703">
        <ele>2540.2368</ele>
        <time>2015-08-25T14:42:00Z</time>
      </trkpt>
      <trkpt lat="45.32724" lon="6.79699">
        <ele>2540.2368</ele>
        <time>2015-08-25T14:42:10Z</time>
      </trkpt>
      <trkpt lat="45.32718" lon="6.797">
        <ele>2538.362</ele>
        <time>2015-08-25T14:42:15Z</time>
      </trkpt>
      <trkpt lat="45.3271" lon="6.79706">
        <ele>2536.5317</ele>
        <time>2015-08-25T14:42:25Z</time>
      </trkpt>
      <trkpt lat="45.32707" lon="6.79703">
        <ele>2536.5317</ele>
        <time>2015-08-25T14:42:30Z</time>
      </trkpt>
      <trkpt lat="45.32699" lon="6.79701">
        <ele>2534.3855</ele>
        <time>2015-08-25T14:42:40Z</time>
      </trkpt>
      <trkpt lat="45.32697" lon="6.797">
        <ele>2534.3855</ele>
        <time>2015-08-25T14:42:45Z</time>
      </trkpt>
      <trkpt lat="45.3269" lon="6.79697">
        <ele>2532.1958</ele>
        <time>2015-08-25T14:42:55Z</time>
      </trkpt>
      <trkpt lat="45.32686" lon="6.79695">
        <ele>2532.1958</ele>
        <time>2015-08-25T14:43:00Z</time>
      </trkpt>
      <trkpt lat="45.32673" lon="6.79696">
        <ele>2529.9849</ele>
        <time>2015-08-25T14:43:15Z</time>
      </trkpt>
      <trkpt lat="45.32668" lon="6.79693">
        <ele>2529.9849</ele>
        <time>2015-08-25T14:43:20Z</time>
      </trkpt>
      <trkpt lat="45.32663" lon="6.79699">
        <ele>2527.8015</ele>
        <time>2015-08-25T14:43:30Z</time>
      </trkpt>
      <trkpt lat="45.32662" lon="6.79701">
        <ele>2527.8015</ele>
        <time>2015-08-25T14:43:35Z</time>
      </trkpt>
      <trkpt lat="45.32657" lon="6.797">
        <ele>2527.8015</ele>
        <time>2015-08-25T14:43:45Z</time>
      </trkpt>
      <trkpt lat="45.32652" lon="6.79702">
        <ele>2525.1006</ele>
        <time>2015-08-25T14:43:50Z</time>
      </trkpt>
      <trkpt lat="45.32649" lon="6.79697">
        <ele>2525.1006</ele>
        <time>2015-08-25T14:44:00Z</time>
      </trkpt>
      <trkpt lat="45.32644" lon="6.79694">
        <ele>2522.2136</ele>
        <time>2015-08-25T14:44:05Z</time>
      </trkpt>
      <trkpt lat="45.32637" lon="6.79693">
        <ele>2522.2136</ele>
        <time>2015-08-25T14:44:15Z</time>
      </trkpt>
      <trkpt lat="45.32632" lon="6.79691">
        <ele>2519.2612</ele>
        <time>2015-08-25T14:44:20Z</time>
      </trkpt>
      <trkpt lat="45.32623" lon="6.79688">
        <ele>2516.4854</ele>
        <time>2015-08-25T14:44:30Z</time>
      </trkpt>
      <trkpt lat="45.32621" lon="6.79685">
        <ele>2516.4854</ele>
        <time>2015-08-25T14:44:35Z</time>
      </trkpt>
      <trkpt lat="45.32612" lon="6.79681">
        <ele>2513.8923</ele>
        <time>2015-08-25T14:44:45Z</time>
      </trkpt>
      <trkpt lat="45.32607" lon="6.79678">
        <ele>2513.8923</ele>
        <time>2015-08-25T14:44:50Z</time>
      </trkpt>
      <trkpt lat="45.32601" lon="6.79668">
        <ele>2511.2434</ele>
        <time>2015-08-25T14:45:00Z</time>
      </trkpt>
      <trkpt lat="45.32599" lon="6.7967">
        <ele>2511.2434</ele>
        <time>2015-08-25T14:45:05Z</time>
      </trkpt>
      <trkpt lat="45.32597" lon="6.79671">
        <ele>2511.2434</ele>
        <time>2015-08-25T14:45:15Z</time>
      </trkpt>
      <trkpt lat="45.32597" lon="6.79671">
        <ele>2511.2434</ele>
        <time>2015-08-25T14:45:20Z</time>
      </trkpt>
      <trkpt lat="45.32598" lon="6.79672">
        <ele>2511.2434</ele>
        <time>2015-08-25T14:45:30Z</time>
      </trkpt>
      <trkpt lat="45.32599" lon="6.79672">
        <ele>2511.2434</ele>
        <time>2015-08-25T14:45:35Z</time>
      </trkpt>
      <trkpt lat="45.32589" lon="6.7968">
        <ele>2508.346</ele>
        <time>2015-08-25T14:45:50Z</time>
      </trkpt>
      <trkpt lat="45.32582" lon="6.79682">
        <ele>2508.346</ele>
        <time>2015-08-25T14:45:55Z</time>
      </trkpt>
      <trkpt lat="45.32576" lon="6.7968">
        <ele>2505.6267</ele>
        <time>2015-08-25T14:46:05Z</time>
      </trkpt>
      <trkpt lat="45.32573" lon="6.7968">
        <ele>2505.6267</ele>
        <time>2015-08-25T14:46:10Z</time>
      </trkpt>
      <trkpt lat="45.32565" lon="6.79678">
        <ele>2502.9917</ele>
        <time>2015-08-25T14:46:20Z</time>
      </trkpt>
      <trkpt lat="45.32562" lon="6.79682">
        <ele>2502.9917</ele>
        <time>2015-08-25T14:46:25Z</time>
      </trkpt>
      <trkpt lat="45.32555" lon="6.79686">
        <ele>2500.3955</ele>
        <time>2015-08-25T14:46:35Z</time>
      </trkpt>
      <trkpt lat="45.32553" lon="6.79688">
        <ele>2500.3955</ele>
        <time>2015-08-25T14:46:40Z</time>
      </trkpt>
      <trkpt lat="45.32548" lon="6.79689">
        <ele>2500.3955</ele>
        <time>2015-08-25T14:46:50Z</time>
      </trkpt>
      <trkpt lat="45.32544" lon="6.79688">
        <ele>2497.7385</ele>
        <time>2015-08-25T14:46:55Z</time>
      </trkpt>
      <trkpt lat="45.32537" lon="6.7969">
        <ele>2497.7385</ele>
        <time>2015-08-25T14:47:05Z</time>
      </trkpt>
      <trkpt lat="45.32535" lon="6.79692">
        <ele>2495.0732</ele>
        <time>2015-08-25T14:47:10Z</time>
      </trkpt>
      <trkpt lat="45.32528" lon="6.79692">
        <ele>2495.0732</ele>
        <time>2015-08-25T14:47:20Z</time>
      </trkpt>
      <trkpt lat="45.32525" lon="6.7969">
        <ele>2492.505</ele>
        <time>2015-08-25T14:47:25Z</time>
      </trkpt>
      <trkpt lat="45.32515" lon="6.79692">
        <ele>2490.1458</ele>
        <time>2015-08-25T14:47:35Z</time>
      </trkpt>
      <trkpt lat="45.32511" lon="6.79693">
        <ele>2490.1458</ele>
        <time>2015-08-25T14:47:40Z</time>
      </trkpt>
      <trkpt lat="45.32502" lon="6.79693">
        <ele>2487.81</ele>
        <time>2015-08-25T14:47:50Z</time>
      </trkpt>
      <trkpt lat="45.325" lon="6.79695">
        <ele>2487.81</ele>
        <time>2015-08-25T14:47:55Z</time>
      </trkpt>
      <trkpt lat="45.32489" lon="6.79689">
        <ele>2485.7297</ele>
        <time>2015-08-25T14:48:10Z</time>
      </trkpt>
      <trkpt lat="45.32484" lon="6.79687">
        <ele>2485.7297</ele>
        <time>2015-08-25T14:48:15Z</time>
      </trkpt>
      <trkpt lat="45.32475" lon="6.79684">
        <ele>2483.499</ele>
        <time>2015-08-25T14:48:25Z</time>
      </trkpt>
      <trkpt lat="45.32469" lon="6.79685">
        <ele>2483.499</ele>
        <time>2015-08-25T14:48:30Z</time>
      </trkpt>
      <trkpt lat="45.32461" lon="6.79682">
        <ele>2481.419</ele>
        <time>2015-08-25T14:48:40Z</time>
      </trkpt>
      <trkpt lat="45.32457" lon="6.79681">
        <ele>2481.419</ele>
        <time>2015-08-25T14:48:45Z</time>
      </trkpt>
      <trkpt lat="45.32452" lon="6.7968">
        <ele>2481.419</ele>
        <time>2015-08-25T14:48:55Z</time>
      </trkpt>
      <trkpt lat="45.32449" lon="6.7968">
        <ele>2479.4084</ele>
        <time>2015-08-25T14:49:00Z</time>
      </trkpt>
      <trkpt lat="45.32441" lon="6.79679">
        <ele>2479.4084</ele>
        <time>2015-08-25T14:49:10Z</time>
      </trkpt>
      <trkpt lat="45.32437" lon="6.79678">
        <ele>2477.6653</ele>
        <time>2015-08-25T14:49:15Z</time>
      </trkpt>
      <trkpt lat="45.32431" lon="6.79677">
        <ele>2477.6653</ele>
        <time>2015-08-25T14:49:25Z</time>
      </trkpt>
      <trkpt lat="45.32429" lon="6.79677">
        <ele>2477.6653</ele>
        <time>2015-08-25T14:49:30Z</time>
      </trkpt>
      <trkpt lat="45.32423" lon="6.79676">
        <ele>2476.012</ele>
        <time>2015-08-25T14:49:40Z</time>
      </trkpt>
      <trkpt lat="45.32421" lon="6.79674">
        <ele>2476.012</ele>
        <time>2015-08-25T14:49:45Z</time>
      </trkpt>
      <trkpt lat="45.32413" lon="6.79672">
        <ele>2474.341</ele>
        <time>2015-08-25T14:49:55Z</time>
      </trkpt>
      <trkpt lat="45.3241" lon="6.79674">
        <ele>2474.341</ele>
        <time>2015-08-25T14:50:00Z</time>
      </trkpt>
      <trkpt lat="45.32405" lon="6.79681">
        <ele>2472.6682</ele>
        <time>2015-08-25T14:50:10Z</time>
      </trkpt>
      <trkpt lat="45.32399" lon="6.7968">
        <ele>2472.6682</ele>
        <time>2015-08-25T14:50:15Z</time>
      </trkpt>
      <trkpt lat="45.32393" lon="6.79683">
        <ele>2471.008</ele>
        <time>2015-08-25T14:50:25Z</time>
      </trkpt>
      <trkpt lat="45.3239" lon="6.79685">
        <ele>2471.008</ele>
        <time>2015-08-25T14:50:30Z</time>
      </trkpt>
      <trkpt lat="45.32383" lon="6.79684">
        <ele>2469.302</ele>
        <time>2015-08-25T14:50:40Z</time>
      </trkpt>
      <trkpt lat="45.32379" lon="6.79686">
        <ele>2469.302</ele>
        <time>2015-08-25T14:50:45Z</time>
      </trkpt>
      <trkpt lat="45.3237" lon="6.79684">
        <ele>2467.4807</ele>
        <time>2015-08-25T14:51:00Z</time>
      </trkpt>
      <trkpt lat="45.32366" lon="6.79682">
        <ele>2467.4807</ele>
        <time>2015-08-25T14:51:05Z</time>
      </trkpt>
      <trkpt lat="45.32358" lon="6.79677">
        <ele>2465.611</ele>
        <time>2015-08-25T14:51:15Z</time>
      </trkpt>
      <trkpt lat="45.32353" lon="6.79675">
        <ele>2465.611</ele>
        <time>2015-08-25T14:51:20Z</time>
      </trkpt>
      <trkpt lat="45.32347" lon="6.79673">
        <ele>2463.6243</ele>
        <time>2015-08-25T14:51:30Z</time>
      </trkpt>
      <trkpt lat="45.32346" lon="6.79672">
        <ele>2463.6243</ele>
        <time>2015-08-25T14:51:35Z</time>
      </trkpt>
      <trkpt lat="45.32346" lon="6.79672">
        <ele>2463.6243</ele>
        <time>2015-08-25T14:51:45Z</time>
      </trkpt>
      <trkpt lat="45.32345" lon="6.79671">
        <ele>2463.6243</ele>
        <time>2015-08-25T14:51:50Z</time>
      </trkpt>
      <trkpt lat="45.32346" lon="6.79671">
        <ele>2463.6243</ele>
        <time>2015-08-25T14:52:00Z</time>
      </trkpt>
      <trkpt lat="45.32347" lon="6.79671">
        <ele>2463.6243</ele>
        <time>2015-08-25T14:52:05Z</time>
      </trkpt>
      <trkpt lat="45.32345" lon="6.79671">
        <ele>2463.6243</ele>
        <time>2015-08-25T14:52:15Z</time>
      </trkpt>
      <trkpt lat="45.32345" lon="6.79671">
        <ele>2463.6243</ele>
        <time>2015-08-25T14:52:20Z</time>
      </trkpt>
      <trkpt lat="45.32339" lon="6.79666">
        <ele>2461.371</ele>
        <time>2015-08-25T14:52:30Z</time>
      </trkpt>
      <trkpt lat="45.32336" lon="6.79664">
        <ele>2461.371</ele>
        <time>2015-08-25T14:52:35Z</time>
      </trkpt>
      <trkpt lat="45.32329" lon="6.79657">
        <ele>2459.3188</ele>
        <time>2015-08-25T14:52:45Z</time>
      </trkpt>
      <trkpt lat="45.32327" lon="6.79655">
        <ele>2459.3188</ele>
        <time>2015-08-25T14:52:50Z</time>
      </trkpt>
      <trkpt lat="45.32317" lon="6.79648">
        <ele>2457.3237</ele>
        <time>2015-08-25T14:53:05Z</time>
      </trkpt>
      <trkpt lat="45.32314" lon="6.79643">
        <ele>2457.3237</ele>
        <time>2015-08-25T14:53:10Z</time>
      </trkpt>
      <trkpt lat="45.32311" lon="6.79635">
        <ele>2455.3098</ele>
        <time>2015-08-25T14:53:20Z</time>
      </trkpt>
      <trkpt lat="45.32309" lon="6.79631">
        <ele>2455.3098</ele>
        <time>2015-08-25T14:53:25Z</time>
      </trkpt>
      <trkpt lat="45.32305" lon="6.79625">
        <ele>2453.293</ele>
        <time>2015-08-25T14:53:35Z</time>
      </trkpt>
      <trkpt lat="45.32301" lon="6.79622">
        <ele>2453.293</ele>
        <time>2015-08-25T14:53:40Z</time>
      </trkpt>
      <trkpt lat="45.32297" lon="6.79614">
        <ele>2451.2593</ele>
        <time>2015-08-25T14:53:50Z</time>
      </trkpt>
      <trkpt lat="45.32293" lon="6.79609">
        <ele>2451.2593</ele>
        <time>2015-08-25T14:53:55Z</time>
      </trkpt>
      <trkpt lat="45.32288" lon="6.79601">
        <ele>2449.2537</ele>
        <time>2015-08-25T14:54:05Z</time>
      </trkpt>
      <trkpt lat="45.32284" lon="6.79594">
        <ele>2449.2537</ele>
        <time>2015-08-25T14:54:10Z</time>
      </trkpt>
      <trkpt lat="45.32276" lon="6.7959">
        <ele>2447.1155</ele>
        <time>2015-08-25T14:54:20Z</time>
      </trkpt>
      <trkpt lat="45.32272" lon="6.79589">
        <ele>2447.1155</ele>
        <time>2015-08-25T14:54:25Z</time>
      </trkpt>
      <trkpt lat="45.32267" lon="6.79591">
        <ele>2447.1155</ele>
        <time>2015-08-25T14:54:35Z</time>
      </trkpt>
      <trkpt lat="45.32263" lon="6.79591">
        <ele>2444.9414</ele>
        <time>2015-08-25T14:54:40Z</time>
      </trkpt>
      <trkpt lat="45.32258" lon="6.79591">
        <ele>2444.9414</ele>
        <time>2015-08-25T14:54:50Z</time>
      </trkpt>
      <trkpt lat="45.32255" lon="6.79591">
        <ele>2444.9414</ele>
        <time>2015-08-25T14:54:55Z</time>
      </trkpt>
      <trkpt lat="45.32255" lon="6.79601">
        <ele>2442.1006</ele>
        <time>2015-08-25T14:55:05Z</time>
      </trkpt>
      <trkpt lat="45.32256" lon="6.79603">
        <ele>2442.1006</ele>
        <time>2015-08-25T14:55:10Z</time>
      </trkpt>
      <trkpt lat="45.32249" lon="6.79602">
        <ele>2442.1006</ele>
        <time>2015-08-25T14:55:20Z</time>
      </trkpt>
      <trkpt lat="45.32246" lon="6.796">
        <ele>2439.235</ele>
        <time>2015-08-25T14:55:25Z</time>
      </trkpt>
      <trkpt lat="45.32241" lon="6.79594">
        <ele>2439.235</ele>
        <time>2015-08-25T14:55:35Z</time>
      </trkpt>
      <trkpt lat="45.32241" lon="6.79597">
        <ele>2439.235</ele>
        <time>2015-08-25T14:55:40Z</time>
      </trkpt>
      <trkpt lat="45.32236" lon="6.79598">
        <ele>2436.3923</ele>
        <time>2015-08-25T14:55:50Z</time>
      </trkpt>
      <trkpt lat="45.32235" lon="6.79599">
        <ele>2436.3923</ele>
        <time>2015-08-25T14:55:55Z</time>
      </trkpt>
      <trkpt lat="45.32234" lon="6.79612">
        <ele>2433.3857</ele>
        <time>2015-08-25T14:56:10Z</time>
      </trkpt>
      <trkpt lat="45.32233" lon="6.79614">
        <ele>2433.3857</ele>
        <time>2015-08-25T14:56:15Z</time>
      </trkpt>
      <trkpt lat="45.32228" lon="6.7961">
        <ele>2433.3857</ele>
        <time>2015-08-25T14:56:25Z</time>
      </trkpt>
      <trkpt lat="45.32225" lon="6.79609">
        <ele>2430.1577</ele>
        <time>2015-08-25T14:56:30Z</time>
      </trkpt>
      <trkpt lat="45.3222" lon="6.79612">
        <ele>2430.1577</ele>
        <time>2015-08-25T14:56:40Z</time>
      </trkpt>
      <trkpt lat="45.32217" lon="6.7961">
        <ele>2430.1577</ele>
        <time>2015-08-25T14:56:45Z</time>
      </trkpt>
      <trkpt lat="45.32215" lon="6.79607">
        <ele>2426.7712</ele>
        <time>2015-08-25T14:56:55Z</time>
      </trkpt>
      <trkpt lat="45.32211" lon="6.79605">
        <ele>2426.7712</ele>
        <time>2015-08-25T14:57:00Z</time>
      </trkpt>
      <trkpt lat="45.32208" lon="6.79605">
        <ele>2426.7712</ele>
        <time>2015-08-25T14:57:10Z</time>
      </trkpt>
      <trkpt lat="45.32206" lon="6.79606">
        <ele>2423.2268</ele>
        <time>2015-08-25T14:57:15Z</time>
      </trkpt>
      <trkpt lat="45.32203" lon="6.79607">
        <ele>2423.2268</ele>
        <time>2015-08-25T14:57:25Z</time>
      </trkpt>
      <trkpt lat="45.32204" lon="6.79613">
        <ele>2423.2268</ele>
        <time>2015-08-25T14:57:30Z</time>
      </trkpt>
      <trkpt lat="45.32208" lon="6.79627">
        <ele>2419.1511</ele>
        <time>2015-08-25T14:57:45Z</time>
      </trkpt>
      <trkpt lat="45.32204" lon="6.79626">
        <ele>2419.1511</ele>
        <time>2015-08-25T14:57:50Z</time>
      </trkpt>
      <trkpt lat="45.32196" lon="6.79625">
        <ele>2415.021</ele>
        <time>2015-08-25T14:58:00Z</time>
      </trkpt>
      <trkpt lat="45.32192" lon="6.79625">
        <ele>2415.021</ele>
        <time>2015-08-25T14:58:05Z</time>
      </trkpt>
      <trkpt lat="45.32185" lon="6.79629">
        <ele>2411.1055</ele>
        <time>2015-08-25T14:58:15Z</time>
      </trkpt>
      <trkpt lat="45.32181" lon="6.79628">
        <ele>2411.1055</ele>
        <time>2015-08-25T14:58:20Z</time>
      </trkpt>
      <trkpt lat="45.32173" lon="6.79625">
        <ele>2407.3499</ele>
        <time>2015-08-25T14:58:30Z</time>
      </trkpt>
      <trkpt lat="45.3217" lon="6.79625">
        <ele>2407.3499</ele>
        <time>2015-08-25T14:58:35Z</time>
      </trkpt>
      <trkpt lat="45.32163" lon="6.7962">
        <ele>2403.718</ele>
        <time>2015-08-25T14:58:45Z</time>
      </trkpt>
      <trkpt lat="45.3216" lon="6.79618">
        <ele>2403.718</ele>
        <time>2015-08-25T14:58:50Z</time>
      </trkpt>
      <trkpt lat="45.3215" lon="6.79616">
        <ele>2400.2046</ele>
        <time>2015-08-25T14:59:00Z</time>
      </trkpt>
      <trkpt lat="45.32146" lon="6.79617">
        <ele>2400.2046</ele>
        <time>2015-08-25T14:59:05Z</time>
      </trkpt>
      <trkpt lat="45.3214" lon="6.79615">
        <ele>2396.862</ele>
        <time>2015-08-25T14:59:15Z</time>
      </trkpt>
      <trkpt lat="45.32136" lon="6.79613">
        <ele>2396.862</ele>
        <time>2015-08-25T14:59:20Z</time>
      </trkpt>
      <trkpt lat="45.32129" lon="6.79609">
        <ele>2393.6375</ele>
        <time>2015-08-25T14:59:30Z</time>
      </trkpt>
      <trkpt lat="45.32125" lon="6.7961">
        <ele>2393.6375</ele>
        <time>2015-08-25T14:59:35Z</time>
      </trkpt>
      <trkpt lat="45.32117" lon="6.79612">
        <ele>2390.2935</ele>
        <time>2015-08-25T14:59:50Z</time>
      </trkpt>
      <trkpt lat="45.32114" lon="6.79611">
        <ele>2390.2935</ele>
        <time>2015-08-25T14:59:55Z</time>
      </trkpt>
      <trkpt lat="45.32107" lon="6.79603">
        <ele>2387.0435</ele>
        <time>2015-08-25T15:00:05Z</time>
      </trkpt>
      <trkpt lat="45.32107" lon="6.796">
        <ele>2387.0435</ele>
        <time>2015-08-25T15:00:10Z</time>
      </trkpt>
      <trkpt lat="45.32105" lon="6.79594">
        <ele>2387.0435</ele>
        <time>2015-08-25T15:00:20Z</time>
      </trkpt>
      <trkpt lat="45.32102" lon="6.79591">
        <ele>2383.695</ele>
        <time>2015-08-25T15:00:25Z</time>
      </trkpt>
      <trkpt lat="45.32094" lon="6.79583">
        <ele>2380.6616</ele>
        <time>2015-08-25T15:00:35Z</time>
      </trkpt>
      <trkpt lat="45.32089" lon="6.79583">
        <ele>2380.6616</ele>
        <time>2015-08-25T15:00:40Z</time>
      </trkpt>
      <trkpt lat="45.32082" lon="6.79579">
        <ele>2377.8347</ele>
        <time>2015-08-25T15:00:50Z</time>
      </trkpt>
      <trkpt lat="45.32081" lon="6.79573">
        <ele>2377.8347</ele>
        <time>2015-08-25T15:00:55Z</time>
      </trkpt>
      <trkpt lat="45.32078" lon="6.79567">
        <ele>2375.07</ele>
        <time>2015-08-25T15:01:05Z</time>
      </trkpt>
      <trkpt lat="45.32076" lon="6.79564">
        <ele>2375.07</ele>
        <time>2015-08-25T15:01:10Z</time>
      </trkpt>
      <trkpt lat="45.32073" lon="6.7956">
        <ele>2375.07</ele>
        <time>2015-08-25T15:01:20Z</time>
      </trkpt>
      <trkpt lat="45.32072" lon="6.79563">
        <ele>2372.0754</ele>
        <time>2015-08-25T15:01:25Z</time>
      </trkpt>
      <trkpt lat="45.3207" lon="6.79565">
        <ele>2372.0754</ele>
        <time>2015-08-25T15:01:40Z</time>
      </trkpt>
      <trkpt lat="45.32067" lon="6.79563">
        <ele>2372.0754</ele>
        <time>2015-08-25T15:01:45Z</time>
      </trkpt>
      <trkpt lat="45.32059" lon="6.79559">
        <ele>2369.0417</ele>
        <time>2015-08-25T15:01:55Z</time>
      </trkpt>
      <trkpt lat="45.32057" lon="6.79557">
        <ele>2369.0417</ele>
        <time>2015-08-25T15:02:00Z</time>
      </trkpt>
      <trkpt lat="45.32052" lon="6.79555">
        <ele>2369.0417</ele>
        <time>2015-08-25T15:02:10Z</time>
      </trkpt>
      <trkpt lat="45.32047" lon="6.79552">
        <ele>2366.0588</ele>
        <time>2015-08-25T15:02:15Z</time>
      </trkpt>
      <trkpt lat="45.32041" lon="6.7955">
        <ele>2366.0588</ele>
        <time>2015-08-25T15:02:25Z</time>
      </trkpt>
      <trkpt lat="45.32039" lon="6.79551">
        <ele>2366.0588</ele>
        <time>2015-08-25T15:02:30Z</time>
      </trkpt>
      <trkpt lat="45.32036" lon="6.79553">
        <ele>2362.8357</ele>
        <time>2015-08-25T15:02:40Z</time>
      </trkpt>
      <trkpt lat="45.32033" lon="6.79553">
        <ele>2362.8357</ele>
        <time>2015-08-25T15:02:45Z</time>
      </trkpt>
      <trkpt lat="45.32027" lon="6.79555">
        <ele>2359.6943</ele>
        <time>2015-08-25T15:02:55Z</time>
      </trkpt>
      <trkpt lat="45.32023" lon="6.79554">
        <ele>2359.6943</ele>
        <time>2015-08-25T15:03:00Z</time>
      </trkpt>
      <trkpt lat="45.32018" lon="6.79554">
        <ele>2356.6147</ele>
        <time>2015-08-25T15:03:10Z</time>
      </trkpt>
      <trkpt lat="45.32014" lon="6.79553">
        <ele>2356.6147</ele>
        <time>2015-08-25T15:03:15Z</time>
      </trkpt>
      <trkpt lat="45.32013" lon="6.7955">
        <ele>2356.6147</ele>
        <time>2015-08-25T15:03:25Z</time>
      </trkpt>
      <trkpt lat="45.32012" lon="6.7955">
        <ele>2356.6147</ele>
        <time>2015-08-25T15:03:30Z</time>
      </trkpt>
      <trkpt lat="45.32014" lon="6.79553">
        <ele>2353.1323</ele>
        <time>2015-08-25T15:03:40Z</time>
      </trkpt>
      <trkpt lat="45.32014" lon="6.79553">
        <ele>2353.1323</ele>
        <time>2015-08-25T15:03:45Z</time>
      </trkpt>
      <trkpt lat="45.32014" lon="6.79556">
        <ele>2353.1323</ele>
        <time>2015-08-25T15:04:00Z</time>
      </trkpt>
      <trkpt lat="45.32014" lon="6.79554">
        <ele>2353.1323</ele>
        <time>2015-08-25T15:04:05Z</time>
      </trkpt>
      <trkpt lat="45.32017" lon="6.79554">
        <ele>2353.1323</ele>
        <time>2015-08-25T15:04:15Z</time>
      </trkpt>
      <trkpt lat="45.32018" lon="6.79555">
        <ele>2353.1323</ele>
        <time>2015-08-25T15:04:20Z</time>
      </trkpt>
      <trkpt lat="45.32019" lon="6.79555">
        <ele>2348.9614</ele>
        <time>2015-08-25T15:04:25Z</time>
      </trkpt>
      <trkpt lat="45.32016" lon="6.79553">
        <ele>2348.9614</ele>
        <time>2015-08-25T15:04:30Z</time>
      </trkpt>
      <trkpt lat="45.32014" lon="6.7955">
        <ele>2348.9614</ele>
        <time>2015-08-25T15:04:40Z</time>
      </trkpt>
      <trkpt lat="45.32012" lon="6.79548">
        <ele>2348.9614</ele>
        <time>2015-08-25T15:04:45Z</time>
      </trkpt>
      <trkpt lat="45.32008" lon="6.79542">
        <ele>2345.2803</ele>
        <time>2015-08-25T15:04:55Z</time>
      </trkpt>
      <trkpt lat="45.32005" lon="6.79538">
        <ele>2345.2803</ele>
        <time>2015-08-25T15:05:00Z</time>
      </trkpt>
      <trkpt lat="45.32002" lon="6.79527">
        <ele>2342.0554</ele>
        <time>2015-08-25T15:05:10Z</time>
      </trkpt>
      <trkpt lat="45.32" lon="6.79523">
        <ele>2342.0554</ele>
        <time>2015-08-25T15:05:15Z</time>
      </trkpt>
      <trkpt lat="45.31996" lon="6.79511">
        <ele>2339.009</ele>
        <time>2015-08-25T15:05:25Z</time>
      </trkpt>
      <trkpt lat="45.31996" lon="6.79502">
        <ele>2339.009</ele>
        <time>2015-08-25T15:05:30Z</time>
      </trkpt>
      <trkpt lat="45.31993" lon="6.79493">
        <ele>2336.1572</ele>
        <time>2015-08-25T15:05:40Z</time>
      </trkpt>
      <trkpt lat="45.31992" lon="6.79489">
        <ele>2336.1572</ele>
        <time>2015-08-25T15:05:45Z</time>
      </trkpt>
      <trkpt lat="45.3199" lon="6.79478">
        <ele>2333.6006</ele>
        <time>2015-08-25T15:05:55Z</time>
      </trkpt>
      <trkpt lat="45.31989" lon="6.79474">
        <ele>2333.6006</ele>
        <time>2015-08-25T15:06:00Z</time>
      </trkpt>
      <trkpt lat="45.31985" lon="6.79472">
        <ele>2333.6006</ele>
        <time>2015-08-25T15:06:10Z</time>
      </trkpt>
      <trkpt lat="45.31979" lon="6.79467">
        <ele>2331.2588</ele>
        <time>2015-08-25T15:06:15Z</time>
      </trkpt>
      <trkpt lat="45.31975" lon="6.79462">
        <ele>2331.2588</ele>
        <time>2015-08-25T15:06:25Z</time>
      </trkpt>
      <trkpt lat="45.31972" lon="6.79459">
        <ele>2329.0852</ele>
        <time>2015-08-25T15:06:30Z</time>
      </trkpt>
      <trkpt lat="45.31964" lon="6.7945">
        <ele>2327.0942</ele>
        <time>2015-08-25T15:06:45Z</time>
      </trkpt>
      <trkpt lat="45.31965" lon="6.79452">
        <ele>2327.0942</ele>
        <time>2015-08-25T15:06:50Z</time>
      </trkpt>
      <trkpt lat="45.31964" lon="6.79454">
        <ele>2327.0942</ele>
        <time>2015-08-25T15:07:00Z</time>
      </trkpt>
      <trkpt lat="45.31962" lon="6.79455">
        <ele>2327.0942</ele>
        <time>2015-08-25T15:07:05Z</time>
      </trkpt>
      <trkpt lat="45.31962" lon="6.7945">
        <ele>2327.0942</ele>
        <time>2015-08-25T15:07:15Z</time>
      </trkpt>
      <trkpt lat="45.31963" lon="6.79443">
        <ele>2325.1826</ele>
        <time>2015-08-25T15:07:20Z</time>
      </trkpt>
      <trkpt lat="45.31962" lon="6.79433">
        <ele>2325.1826</ele>
        <time>2015-08-25T15:07:30Z</time>
      </trkpt>
      <trkpt lat="45.31963" lon="6.79428">
        <ele>2323.3418</ele>
        <time>2015-08-25T15:07:35Z</time>
      </trkpt>
      <trkpt lat="45.31957" lon="6.79423">
        <ele>2323.3418</ele>
        <time>2015-08-25T15:07:45Z</time>
      </trkpt>
      <trkpt lat="45.31956" lon="6.79419">
        <ele>2321.5486</ele>
        <time>2015-08-25T15:07:50Z</time>
      </trkpt>
      <trkpt lat="45.3196" lon="6.79407">
        <ele>2319.9258</ele>
        <time>2015-08-25T15:08:00Z</time>
      </trkpt>
      <trkpt lat="45.3196" lon="6.79403">
        <ele>2319.9258</ele>
        <time>2015-08-25T15:08:05Z</time>
      </trkpt>
      <trkpt lat="45.31957" lon="6.79392">
        <ele>2318.4714</ele>
        <time>2015-08-25T15:08:15Z</time>
      </trkpt>
      <trkpt lat="45.31957" lon="6.79387">
        <ele>2318.4714</ele>
        <time>2015-08-25T15:08:20Z</time>
      </trkpt>
      <trkpt lat="45.31954" lon="6.79375">
        <ele>2317.1973</ele>
        <time>2015-08-25T15:08:30Z</time>
      </trkpt>
      <trkpt lat="45.31951" lon="6.79368">
        <ele>2317.1973</ele>
        <time>2015-08-25T15:08:35Z</time>
      </trkpt>
      <trkpt lat="45.31945" lon="6.79351">
        <ele>2316.0854</ele>
        <time>2015-08-25T15:08:50Z</time>
      </trkpt>
      <trkpt lat="45.31944" lon="6.79344">
        <ele>2316.0854</ele>
        <time>2015-08-25T15:08:55Z</time>
      </trkpt>
      <trkpt lat="45.31938" lon="6.79337">
        <ele>2314.9746</ele>
        <time>2015-08-25T15:09:05Z</time>
      </trkpt>
      <trkpt lat="45.31935" lon="6.79335">
        <ele>2314.9746</ele>
        <time>2015-08-25T15:09:10Z</time>
      </trkpt>
      <trkpt lat="45.31927" lon="6.79343">
        <ele>2314.0466</ele>
        <time>2015-08-25T15:09:20Z</time>
      </trkpt>
      <trkpt lat="45.31925" lon="6.79347">
        <ele>2314.0466</ele>
        <time>2015-08-25T15:09:25Z</time>
      </trkpt>
      <trkpt lat="45.31921" lon="6.79353">
        <ele>2313.2825</ele>
        <time>2015-08-25T15:09:35Z</time>
      </trkpt>
      <trkpt lat="45.31917" lon="6.79356">
        <ele>2313.2825</ele>
        <time>2015-08-25T15:09:40Z</time>
      </trkpt>
      <trkpt lat="45.31918" lon="6.79357">
        <ele>2313.2825</ele>
        <time>2015-08-25T15:09:50Z</time>
      </trkpt>
      <trkpt lat="45.31923" lon="6.79353">
        <ele>2312.6208</ele>
        <time>2015-08-25T15:09:55Z</time>
      </trkpt>
      <trkpt lat="45.31921" lon="6.79366">
        <ele>2312.6208</ele>
        <time>2015-08-25T15:10:05Z</time>
      </trkpt>
      <trkpt lat="45.31923" lon="6.79367">
        <ele>2312.1777</ele>
        <time>2015-08-25T15:10:10Z</time>
      </trkpt>
      <trkpt lat="45.31923" lon="6.79362">
        <ele>2312.1777</ele>
        <time>2015-08-25T15:10:15Z</time>
      </trkpt>
    </trkseg>
  </trk>
</gpx>